<?xml version="1.0" encoding="UTF-8" standalone="no" ?>
<gpx xmlns="http://www.topografix.com/GPX/1/1" xmlns:xsi="http://www.w3.org/2001/XMLSchema-instance" xsi:schemaLocation="http://www.topografix.com/GPX/1/1 http://www.topografix.com/GPX/1/1/gpx.xsd" version="1.1" creator="VisuGPX - https://www.visugpx.com">
  <metadata>
    <name>ski de rando Cret du Rey</name>
    <desc><![CDATA[
]]></desc>
  </metadata>
  <trk>
    <name><![CDATA[ski de rando Cret du Rey]]></name>
    <trkseg>
      <trkpt lat="45.57989" lon="6.65278">
        <ele>1420.8000488281</ele>
        <time>2013-01-02T08:18:16.000Z</time>
      </trkpt>
      <trkpt lat="45.57989" lon="6.65278">
        <ele>1420.8000488281</ele>
        <time>2013-01-02T08:18:17.000Z</time>
      </trkpt>
      <trkpt lat="45.58001" lon="6.65249">
        <ele>1421.8000488281</ele>
        <time>2013-01-02T08:21:15.000Z</time>
      </trkpt>
      <trkpt lat="45.58005" lon="6.65229">
        <ele>1416.1999511719</ele>
        <time>2013-01-02T08:25:33.000Z</time>
      </trkpt>
      <trkpt lat="45.58008" lon="6.65232">
        <ele>1419.5999755859</ele>
        <time>2013-01-02T08:25:44.000Z</time>
      </trkpt>
      <trkpt lat="45.58009" lon="6.65232">
        <ele>1419.5999755859</ele>
        <time>2013-01-02T08:25:46.000Z</time>
      </trkpt>
      <trkpt lat="45.58011" lon="6.65232">
        <ele>1420.1999511719</ele>
        <time>2013-01-02T08:26:10.000Z</time>
      </trkpt>
      <trkpt lat="45.58005" lon="6.65225">
        <ele>1422.1999511719</ele>
        <time>2013-01-02T08:26:20.000Z</time>
      </trkpt>
      <trkpt lat="45.58001" lon="6.65217">
        <ele>1424</ele>
        <time>2013-01-02T08:26:28.000Z</time>
      </trkpt>
      <trkpt lat="45.57996" lon="6.65207">
        <ele>1426</ele>
        <time>2013-01-02T08:26:37.000Z</time>
      </trkpt>
      <trkpt lat="45.5799" lon="6.65201">
        <ele>1427.4000244141</ele>
        <time>2013-01-02T08:26:45.000Z</time>
      </trkpt>
      <trkpt lat="45.57986" lon="6.65193">
        <ele>1428.8000488281</ele>
        <time>2013-01-02T08:26:53.000Z</time>
      </trkpt>
      <trkpt lat="45.57979" lon="6.65183">
        <ele>1430.4000244141</ele>
        <time>2013-01-02T08:27:02.000Z</time>
      </trkpt>
      <trkpt lat="45.57972" lon="6.65175">
        <ele>1431.8000488281</ele>
        <time>2013-01-02T08:27:10.000Z</time>
      </trkpt>
      <trkpt lat="45.57965" lon="6.65166">
        <ele>1433.4000244141</ele>
        <time>2013-01-02T08:27:20.000Z</time>
      </trkpt>
      <trkpt lat="45.57962" lon="6.65164">
        <ele>1434.1999511719</ele>
        <time>2013-01-02T08:27:24.000Z</time>
      </trkpt>
      <trkpt lat="45.57953" lon="6.65158">
        <ele>1435.8000488281</ele>
        <time>2013-01-02T08:27:34.000Z</time>
      </trkpt>
      <trkpt lat="45.57944" lon="6.65156">
        <ele>1437</ele>
        <time>2013-01-02T08:27:40.000Z</time>
      </trkpt>
      <trkpt lat="45.57939" lon="6.65148">
        <ele>1438</ele>
        <time>2013-01-02T08:27:47.000Z</time>
      </trkpt>
      <trkpt lat="45.57932" lon="6.65144">
        <ele>1438.8000488281</ele>
        <time>2013-01-02T08:27:55.000Z</time>
      </trkpt>
      <trkpt lat="45.57933" lon="6.65141">
        <ele>1439.1999511719</ele>
        <time>2013-01-02T08:28:11.000Z</time>
      </trkpt>
      <trkpt lat="45.57932" lon="6.65136">
        <ele>1440.5999755859</ele>
        <time>2013-01-02T08:28:16.000Z</time>
      </trkpt>
      <trkpt lat="45.57938" lon="6.65133">
        <ele>1442</ele>
        <time>2013-01-02T08:28:23.000Z</time>
      </trkpt>
      <trkpt lat="45.5794" lon="6.65132">
        <ele>1442.5999755859</ele>
        <time>2013-01-02T08:28:25.000Z</time>
      </trkpt>
      <trkpt lat="45.57946" lon="6.65131">
        <ele>1444.8000488281</ele>
        <time>2013-01-02T08:28:32.000Z</time>
      </trkpt>
      <trkpt lat="45.57949" lon="6.65132">
        <ele>1445.5999755859</ele>
        <time>2013-01-02T08:28:35.000Z</time>
      </trkpt>
      <trkpt lat="45.57952" lon="6.65128">
        <ele>1447.1999511719</ele>
        <time>2013-01-02T08:28:41.000Z</time>
      </trkpt>
      <trkpt lat="45.57949" lon="6.65123">
        <ele>1448</ele>
        <time>2013-01-02T08:28:46.000Z</time>
      </trkpt>
      <trkpt lat="45.57946" lon="6.65116">
        <ele>1449.4000244141</ele>
        <time>2013-01-02T08:28:53.000Z</time>
      </trkpt>
      <trkpt lat="45.57936" lon="6.65116">
        <ele>1450.8000488281</ele>
        <time>2013-01-02T08:29:00.000Z</time>
      </trkpt>
      <trkpt lat="45.5793" lon="6.65113">
        <ele>1451.8000488281</ele>
        <time>2013-01-02T08:29:06.000Z</time>
      </trkpt>
      <trkpt lat="45.57926" lon="6.65105">
        <ele>1453.4000244141</ele>
        <time>2013-01-02T08:29:14.000Z</time>
      </trkpt>
      <trkpt lat="45.57922" lon="6.65101">
        <ele>1454.8000488281</ele>
        <time>2013-01-02T08:29:20.000Z</time>
      </trkpt>
      <trkpt lat="45.57915" lon="6.65094">
        <ele>1456.1999511719</ele>
        <time>2013-01-02T08:29:29.000Z</time>
      </trkpt>
      <trkpt lat="45.5791" lon="6.65086">
        <ele>1457.8000488281</ele>
        <time>2013-01-02T08:29:37.000Z</time>
      </trkpt>
      <trkpt lat="45.57909" lon="6.65077">
        <ele>1459.1999511719</ele>
        <time>2013-01-02T08:29:44.000Z</time>
      </trkpt>
      <trkpt lat="45.57907" lon="6.65068">
        <ele>1460.8000488281</ele>
        <time>2013-01-02T08:29:53.000Z</time>
      </trkpt>
      <trkpt lat="45.57906" lon="6.6506">
        <ele>1462.5999755859</ele>
        <time>2013-01-02T08:30:02.000Z</time>
      </trkpt>
      <trkpt lat="45.57903" lon="6.65052">
        <ele>1464.1999511719</ele>
        <time>2013-01-02T08:30:10.000Z</time>
      </trkpt>
      <trkpt lat="45.57903" lon="6.6505">
        <ele>1464.8000488281</ele>
        <time>2013-01-02T08:30:13.000Z</time>
      </trkpt>
      <trkpt lat="45.57902" lon="6.65045">
        <ele>1465.8000488281</ele>
        <time>2013-01-02T08:30:20.000Z</time>
      </trkpt>
      <trkpt lat="45.57903" lon="6.65047">
        <ele>1466.1999511719</ele>
        <time>2013-01-02T08:30:21.000Z</time>
      </trkpt>
      <trkpt lat="45.57909" lon="6.65052">
        <ele>1467</ele>
        <time>2013-01-02T08:30:26.000Z</time>
      </trkpt>
      <trkpt lat="45.57913" lon="6.65055">
        <ele>1467.8000488281</ele>
        <time>2013-01-02T08:30:29.000Z</time>
      </trkpt>
      <trkpt lat="45.57921" lon="6.6506">
        <ele>1469.8000488281</ele>
        <time>2013-01-02T08:30:38.000Z</time>
      </trkpt>
      <trkpt lat="45.57924" lon="6.6506">
        <ele>1470.8000488281</ele>
        <time>2013-01-02T08:30:42.000Z</time>
      </trkpt>
      <trkpt lat="45.57931" lon="6.65058">
        <ele>1472.5999755859</ele>
        <time>2013-01-02T08:30:52.000Z</time>
      </trkpt>
      <trkpt lat="45.57939" lon="6.65056">
        <ele>1474.4000244141</ele>
        <time>2013-01-02T08:31:00.000Z</time>
      </trkpt>
      <trkpt lat="45.57947" lon="6.6505">
        <ele>1476</ele>
        <time>2013-01-02T08:31:09.000Z</time>
      </trkpt>
      <trkpt lat="45.57955" lon="6.65045">
        <ele>1477</ele>
        <time>2013-01-02T08:31:18.000Z</time>
      </trkpt>
      <trkpt lat="45.57961" lon="6.6504">
        <ele>1478</ele>
        <time>2013-01-02T08:31:27.000Z</time>
      </trkpt>
      <trkpt lat="45.57967" lon="6.65037">
        <ele>1479</ele>
        <time>2013-01-02T08:31:35.000Z</time>
      </trkpt>
      <trkpt lat="45.57977" lon="6.65032">
        <ele>1480.8000488281</ele>
        <time>2013-01-02T08:31:45.000Z</time>
      </trkpt>
      <trkpt lat="45.57983" lon="6.65029">
        <ele>1482.5999755859</ele>
        <time>2013-01-02T08:31:53.000Z</time>
      </trkpt>
      <trkpt lat="45.5799" lon="6.65022">
        <ele>1484.4000244141</ele>
        <time>2013-01-02T08:32:01.000Z</time>
      </trkpt>
      <trkpt lat="45.57994" lon="6.65018">
        <ele>1485.5999755859</ele>
        <time>2013-01-02T08:32:07.000Z</time>
      </trkpt>
      <trkpt lat="45.58" lon="6.65013">
        <ele>1487</ele>
        <time>2013-01-02T08:32:16.000Z</time>
      </trkpt>
      <trkpt lat="45.58003" lon="6.6501">
        <ele>1487.8000488281</ele>
        <time>2013-01-02T08:32:21.000Z</time>
      </trkpt>
      <trkpt lat="45.58008" lon="6.65006">
        <ele>1489</ele>
        <time>2013-01-02T08:32:29.000Z</time>
      </trkpt>
      <trkpt lat="45.58013" lon="6.65002">
        <ele>1490.1999511719</ele>
        <time>2013-01-02T08:32:37.000Z</time>
      </trkpt>
      <trkpt lat="45.58014" lon="6.64995">
        <ele>1492</ele>
        <time>2013-01-02T08:32:46.000Z</time>
      </trkpt>
      <trkpt lat="45.58014" lon="6.64988">
        <ele>1494</ele>
        <time>2013-01-02T08:32:54.000Z</time>
      </trkpt>
      <trkpt lat="45.58015" lon="6.64981">
        <ele>1496</ele>
        <time>2013-01-02T08:33:02.000Z</time>
      </trkpt>
      <trkpt lat="45.58015" lon="6.64977">
        <ele>1496.5999755859</ele>
        <time>2013-01-02T08:33:05.000Z</time>
      </trkpt>
      <trkpt lat="45.58014" lon="6.6497">
        <ele>1498</ele>
        <time>2013-01-02T08:33:11.000Z</time>
      </trkpt>
      <trkpt lat="45.58013" lon="6.64965">
        <ele>1498.8000488281</ele>
        <time>2013-01-02T08:33:17.000Z</time>
      </trkpt>
      <trkpt lat="45.58011" lon="6.64959">
        <ele>1500.5999755859</ele>
        <time>2013-01-02T08:33:25.000Z</time>
      </trkpt>
      <trkpt lat="45.58015" lon="6.64955">
        <ele>1502.5999755859</ele>
        <time>2013-01-02T08:33:32.000Z</time>
      </trkpt>
      <trkpt lat="45.58021" lon="6.64956">
        <ele>1503.5999755859</ele>
        <time>2013-01-02T08:33:39.000Z</time>
      </trkpt>
      <trkpt lat="45.58022" lon="6.64955">
        <ele>1503.8000488281</ele>
        <time>2013-01-02T08:33:40.000Z</time>
      </trkpt>
      <trkpt lat="45.58027" lon="6.64954">
        <ele>1504.8000488281</ele>
        <time>2013-01-02T08:33:48.000Z</time>
      </trkpt>
      <trkpt lat="45.58032" lon="6.64948">
        <ele>1506.5999755859</ele>
        <time>2013-01-02T08:33:56.000Z</time>
      </trkpt>
      <trkpt lat="45.58037" lon="6.64942">
        <ele>1509</ele>
        <time>2013-01-02T08:34:05.000Z</time>
      </trkpt>
      <trkpt lat="45.58038" lon="6.64941">
        <ele>1509.1999511719</ele>
        <time>2013-01-02T08:34:06.000Z</time>
      </trkpt>
      <trkpt lat="45.58043" lon="6.64938">
        <ele>1511</ele>
        <time>2013-01-02T08:34:14.000Z</time>
      </trkpt>
      <trkpt lat="45.5805" lon="6.64933">
        <ele>1512.5999755859</ele>
        <time>2013-01-02T08:34:23.000Z</time>
      </trkpt>
      <trkpt lat="45.58051" lon="6.64932">
        <ele>1513</ele>
        <time>2013-01-02T08:34:26.000Z</time>
      </trkpt>
      <trkpt lat="45.58054" lon="6.6493">
        <ele>1513.8000488281</ele>
        <time>2013-01-02T08:34:31.000Z</time>
      </trkpt>
      <trkpt lat="45.58057" lon="6.64927">
        <ele>1514.5999755859</ele>
        <time>2013-01-02T08:34:36.000Z</time>
      </trkpt>
      <trkpt lat="45.58059" lon="6.64922">
        <ele>1515.8000488281</ele>
        <time>2013-01-02T08:34:42.000Z</time>
      </trkpt>
      <trkpt lat="45.5806" lon="6.64922">
        <ele>1516</ele>
        <time>2013-01-02T08:34:43.000Z</time>
      </trkpt>
      <trkpt lat="45.58061" lon="6.64915">
        <ele>1517.5999755859</ele>
        <time>2013-01-02T08:34:52.000Z</time>
      </trkpt>
      <trkpt lat="45.58059" lon="6.64912">
        <ele>1518.1999511719</ele>
        <time>2013-01-02T08:34:55.000Z</time>
      </trkpt>
      <trkpt lat="45.58054" lon="6.64907">
        <ele>1520.1999511719</ele>
        <time>2013-01-02T08:35:03.000Z</time>
      </trkpt>
      <trkpt lat="45.58051" lon="6.64904">
        <ele>1521</ele>
        <time>2013-01-02T08:35:08.000Z</time>
      </trkpt>
      <trkpt lat="45.58048" lon="6.649">
        <ele>1522</ele>
        <time>2013-01-02T08:35:15.000Z</time>
      </trkpt>
      <trkpt lat="45.58047" lon="6.64896">
        <ele>1523</ele>
        <time>2013-01-02T08:35:21.000Z</time>
      </trkpt>
      <trkpt lat="45.58046" lon="6.64893">
        <ele>1523.5999755859</ele>
        <time>2013-01-02T08:35:25.000Z</time>
      </trkpt>
      <trkpt lat="45.58042" lon="6.6489">
        <ele>1525</ele>
        <time>2013-01-02T08:35:33.000Z</time>
      </trkpt>
      <trkpt lat="45.5804" lon="6.64888">
        <ele>1525.4000244141</ele>
        <time>2013-01-02T08:35:39.000Z</time>
      </trkpt>
      <trkpt lat="45.58037" lon="6.64887">
        <ele>1526</ele>
        <time>2013-01-02T08:35:44.000Z</time>
      </trkpt>
      <trkpt lat="45.58036" lon="6.64886">
        <ele>1526.4000244141</ele>
        <time>2013-01-02T08:35:46.000Z</time>
      </trkpt>
      <trkpt lat="45.58031" lon="6.6488">
        <ele>1528.4000244141</ele>
        <time>2013-01-02T08:35:55.000Z</time>
      </trkpt>
      <trkpt lat="45.58027" lon="6.64878">
        <ele>1529.8000488281</ele>
        <time>2013-01-02T08:36:02.000Z</time>
      </trkpt>
      <trkpt lat="45.58025" lon="6.64876">
        <ele>1530.4000244141</ele>
        <time>2013-01-02T08:36:07.000Z</time>
      </trkpt>
      <trkpt lat="45.5802" lon="6.6487">
        <ele>1531.8000488281</ele>
        <time>2013-01-02T08:36:15.000Z</time>
      </trkpt>
      <trkpt lat="45.58019" lon="6.64867">
        <ele>1532.5999755859</ele>
        <time>2013-01-02T08:36:20.000Z</time>
      </trkpt>
      <trkpt lat="45.58017" lon="6.64864">
        <ele>1533.1999511719</ele>
        <time>2013-01-02T08:36:26.000Z</time>
      </trkpt>
      <trkpt lat="45.58017" lon="6.64864">
        <ele>1533.4000244141</ele>
        <time>2013-01-02T08:36:27.000Z</time>
      </trkpt>
      <trkpt lat="45.58017" lon="6.64862">
        <ele>1534.4000244141</ele>
        <time>2013-01-02T08:36:36.000Z</time>
      </trkpt>
      <trkpt lat="45.58019" lon="6.64862">
        <ele>1535.1999511719</ele>
        <time>2013-01-02T08:36:41.000Z</time>
      </trkpt>
      <trkpt lat="45.5802" lon="6.64863">
        <ele>1535.4000244141</ele>
        <time>2013-01-02T08:36:42.000Z</time>
      </trkpt>
      <trkpt lat="45.58027" lon="6.64862">
        <ele>1536.8000488281</ele>
        <time>2013-01-02T08:36:49.000Z</time>
      </trkpt>
      <trkpt lat="45.58032" lon="6.64858">
        <ele>1538.5999755859</ele>
        <time>2013-01-02T08:36:57.000Z</time>
      </trkpt>
      <trkpt lat="45.58034" lon="6.64858">
        <ele>1539.1999511719</ele>
        <time>2013-01-02T08:37:00.000Z</time>
      </trkpt>
      <trkpt lat="45.58032" lon="6.64853">
        <ele>1540.4000244141</ele>
        <time>2013-01-02T08:37:06.000Z</time>
      </trkpt>
      <trkpt lat="45.58029" lon="6.64848">
        <ele>1541.8000488281</ele>
        <time>2013-01-02T08:37:12.000Z</time>
      </trkpt>
      <trkpt lat="45.58023" lon="6.64839">
        <ele>1543.5999755859</ele>
        <time>2013-01-02T08:37:21.000Z</time>
      </trkpt>
      <trkpt lat="45.58022" lon="6.6483">
        <ele>1545</ele>
        <time>2013-01-02T08:37:29.000Z</time>
      </trkpt>
      <trkpt lat="45.58018" lon="6.64825">
        <ele>1546.1999511719</ele>
        <time>2013-01-02T08:37:37.000Z</time>
      </trkpt>
      <trkpt lat="45.58016" lon="6.64817">
        <ele>1548</ele>
        <time>2013-01-02T08:37:45.000Z</time>
      </trkpt>
      <trkpt lat="45.58016" lon="6.64815">
        <ele>1548.5999755859</ele>
        <time>2013-01-02T08:37:49.000Z</time>
      </trkpt>
      <trkpt lat="45.58016" lon="6.64811">
        <ele>1549.5999755859</ele>
        <time>2013-01-02T08:37:54.000Z</time>
      </trkpt>
      <trkpt lat="45.58016" lon="6.64801">
        <ele>1552</ele>
        <time>2013-01-02T08:38:04.000Z</time>
      </trkpt>
      <trkpt lat="45.58016" lon="6.64792">
        <ele>1554</ele>
        <time>2013-01-02T08:38:12.000Z</time>
      </trkpt>
      <trkpt lat="45.58016" lon="6.64782">
        <ele>1556.5999755859</ele>
        <time>2013-01-02T08:38:23.000Z</time>
      </trkpt>
      <trkpt lat="45.58014" lon="6.64773">
        <ele>1558.8000488281</ele>
        <time>2013-01-02T08:38:34.000Z</time>
      </trkpt>
      <trkpt lat="45.58016" lon="6.64763">
        <ele>1560.8000488281</ele>
        <time>2013-01-02T08:38:44.000Z</time>
      </trkpt>
      <trkpt lat="45.58019" lon="6.64763">
        <ele>1561.4000244141</ele>
        <time>2013-01-02T08:38:47.000Z</time>
      </trkpt>
      <trkpt lat="45.58025" lon="6.64765">
        <ele>1562.5999755859</ele>
        <time>2013-01-02T08:38:55.000Z</time>
      </trkpt>
      <trkpt lat="45.58032" lon="6.64765">
        <ele>1564</ele>
        <time>2013-01-02T08:39:01.000Z</time>
      </trkpt>
      <trkpt lat="45.58042" lon="6.64761">
        <ele>1565.8000488281</ele>
        <time>2013-01-02T08:39:11.000Z</time>
      </trkpt>
      <trkpt lat="45.58047" lon="6.6476">
        <ele>1567.1999511719</ele>
        <time>2013-01-02T08:39:18.000Z</time>
      </trkpt>
      <trkpt lat="45.58052" lon="6.64758">
        <ele>1568.8000488281</ele>
        <time>2013-01-02T08:39:26.000Z</time>
      </trkpt>
      <trkpt lat="45.58051" lon="6.64756">
        <ele>1570.1999511719</ele>
        <time>2013-01-02T08:39:32.000Z</time>
      </trkpt>
      <trkpt lat="45.58051" lon="6.64753">
        <ele>1570.8000488281</ele>
        <time>2013-01-02T08:39:36.000Z</time>
      </trkpt>
      <trkpt lat="45.5805" lon="6.64746">
        <ele>1572.1999511719</ele>
        <time>2013-01-02T08:39:44.000Z</time>
      </trkpt>
      <trkpt lat="45.58051" lon="6.6474">
        <ele>1573.1999511719</ele>
        <time>2013-01-02T08:39:49.000Z</time>
      </trkpt>
      <trkpt lat="45.58052" lon="6.6473">
        <ele>1574.8000488281</ele>
        <time>2013-01-02T08:39:56.000Z</time>
      </trkpt>
      <trkpt lat="45.58053" lon="6.64724">
        <ele>1576</ele>
        <time>2013-01-02T08:40:03.000Z</time>
      </trkpt>
      <trkpt lat="45.58056" lon="6.64719">
        <ele>1577.8000488281</ele>
        <time>2013-01-02T08:40:09.000Z</time>
      </trkpt>
      <trkpt lat="45.58058" lon="6.64718">
        <ele>1578.5999755859</ele>
        <time>2013-01-02T08:40:13.000Z</time>
      </trkpt>
      <trkpt lat="45.58068" lon="6.64713">
        <ele>1580</ele>
        <time>2013-01-02T08:40:21.000Z</time>
      </trkpt>
      <trkpt lat="45.58076" lon="6.64711">
        <ele>1581.1999511719</ele>
        <time>2013-01-02T08:40:27.000Z</time>
      </trkpt>
      <trkpt lat="45.58078" lon="6.64712">
        <ele>1582</ele>
        <time>2013-01-02T08:40:30.000Z</time>
      </trkpt>
      <trkpt lat="45.58085" lon="6.64713">
        <ele>1583.5999755859</ele>
        <time>2013-01-02T08:40:38.000Z</time>
      </trkpt>
      <trkpt lat="45.58088" lon="6.64715">
        <ele>1584.8000488281</ele>
        <time>2013-01-02T08:40:44.000Z</time>
      </trkpt>
      <trkpt lat="45.5809" lon="6.64717">
        <ele>1585.1999511719</ele>
        <time>2013-01-02T08:40:48.000Z</time>
      </trkpt>
      <trkpt lat="45.5809" lon="6.6472">
        <ele>1586.1999511719</ele>
        <time>2013-01-02T08:40:52.000Z</time>
      </trkpt>
      <trkpt lat="45.58092" lon="6.64715">
        <ele>1587</ele>
        <time>2013-01-02T08:40:58.000Z</time>
      </trkpt>
      <trkpt lat="45.58091" lon="6.64713">
        <ele>1587.5999755859</ele>
        <time>2013-01-02T08:41:02.000Z</time>
      </trkpt>
      <trkpt lat="45.58091" lon="6.64711">
        <ele>1588.4000244141</ele>
        <time>2013-01-02T08:41:06.000Z</time>
      </trkpt>
      <trkpt lat="45.5809" lon="6.64706">
        <ele>1590</ele>
        <time>2013-01-02T08:41:13.000Z</time>
      </trkpt>
      <trkpt lat="45.58089" lon="6.64702">
        <ele>1591</ele>
        <time>2013-01-02T08:41:18.000Z</time>
      </trkpt>
      <trkpt lat="45.58092" lon="6.64698">
        <ele>1591.8000488281</ele>
        <time>2013-01-02T08:41:22.000Z</time>
      </trkpt>
      <trkpt lat="45.58092" lon="6.64695">
        <ele>1592.1999511719</ele>
        <time>2013-01-02T08:41:27.000Z</time>
      </trkpt>
      <trkpt lat="45.58091" lon="6.64693">
        <ele>1593.4000244141</ele>
        <time>2013-01-02T08:41:32.000Z</time>
      </trkpt>
      <trkpt lat="45.58096" lon="6.64693">
        <ele>1594.1999511719</ele>
        <time>2013-01-02T08:41:38.000Z</time>
      </trkpt>
      <trkpt lat="45.58098" lon="6.64693">
        <ele>1594.5999755859</ele>
        <time>2013-01-02T08:41:40.000Z</time>
      </trkpt>
      <trkpt lat="45.58103" lon="6.64693">
        <ele>1595.5999755859</ele>
        <time>2013-01-02T08:41:44.000Z</time>
      </trkpt>
      <trkpt lat="45.58111" lon="6.64691">
        <ele>1597</ele>
        <time>2013-01-02T08:41:52.000Z</time>
      </trkpt>
      <trkpt lat="45.58116" lon="6.64693">
        <ele>1597.8000488281</ele>
        <time>2013-01-02T08:41:59.000Z</time>
      </trkpt>
      <trkpt lat="45.58116" lon="6.64694">
        <ele>1598</ele>
        <time>2013-01-02T08:42:00.000Z</time>
      </trkpt>
      <trkpt lat="45.58118" lon="6.64702">
        <ele>1599.1999511719</ele>
        <time>2013-01-02T08:42:09.000Z</time>
      </trkpt>
      <trkpt lat="45.58121" lon="6.64703">
        <ele>1599.8000488281</ele>
        <time>2013-01-02T08:42:14.000Z</time>
      </trkpt>
      <trkpt lat="45.58121" lon="6.64702">
        <ele>1600.5999755859</ele>
        <time>2013-01-02T08:42:19.000Z</time>
      </trkpt>
      <trkpt lat="45.58112" lon="6.64701">
        <ele>1600.8000488281</ele>
        <time>2013-01-02T08:43:03.000Z</time>
      </trkpt>
      <trkpt lat="45.58114" lon="6.64696">
        <ele>1601.4000244141</ele>
        <time>2013-01-02T08:43:08.000Z</time>
      </trkpt>
      <trkpt lat="45.58113" lon="6.64694">
        <ele>1602</ele>
        <time>2013-01-02T08:43:13.000Z</time>
      </trkpt>
      <trkpt lat="45.58112" lon="6.6469">
        <ele>1603</ele>
        <time>2013-01-02T08:43:19.000Z</time>
      </trkpt>
      <trkpt lat="45.58115" lon="6.6468">
        <ele>1604.8000488281</ele>
        <time>2013-01-02T08:43:29.000Z</time>
      </trkpt>
      <trkpt lat="45.58115" lon="6.6468">
        <ele>1605.1999511719</ele>
        <time>2013-01-02T08:43:31.000Z</time>
      </trkpt>
      <trkpt lat="45.58124" lon="6.64677">
        <ele>1606.5999755859</ele>
        <time>2013-01-02T08:43:41.000Z</time>
      </trkpt>
      <trkpt lat="45.5813" lon="6.64675">
        <ele>1607.4000244141</ele>
        <time>2013-01-02T08:43:46.000Z</time>
      </trkpt>
      <trkpt lat="45.58132" lon="6.64674">
        <ele>1607.5999755859</ele>
        <time>2013-01-02T08:43:48.000Z</time>
      </trkpt>
      <trkpt lat="45.5814" lon="6.64672">
        <ele>1609</ele>
        <time>2013-01-02T08:43:56.000Z</time>
      </trkpt>
      <trkpt lat="45.58144" lon="6.64675">
        <ele>1610.4000244141</ele>
        <time>2013-01-02T08:44:03.000Z</time>
      </trkpt>
      <trkpt lat="45.58144" lon="6.64677">
        <ele>1611.4000244141</ele>
        <time>2013-01-02T08:44:09.000Z</time>
      </trkpt>
      <trkpt lat="45.58143" lon="6.64677">
        <ele>1612</ele>
        <time>2013-01-02T08:44:12.000Z</time>
      </trkpt>
      <trkpt lat="45.58143" lon="6.64677">
        <ele>1613</ele>
        <time>2013-01-02T08:44:18.000Z</time>
      </trkpt>
      <trkpt lat="45.5812" lon="6.64681">
        <ele>1613</ele>
        <time>2013-01-02T08:45:22.000Z</time>
      </trkpt>
      <trkpt lat="45.5813" lon="6.64677">
        <ele>1613</ele>
        <time>2013-01-02T08:45:31.000Z</time>
      </trkpt>
      <trkpt lat="45.58135" lon="6.64673">
        <ele>1613.4000244141</ele>
        <time>2013-01-02T08:45:37.000Z</time>
      </trkpt>
      <trkpt lat="45.58127" lon="6.64677">
        <ele>1613.1999511719</ele>
        <time>2013-01-02T08:45:54.000Z</time>
      </trkpt>
      <trkpt lat="45.58132" lon="6.64678">
        <ele>1614.5999755859</ele>
        <time>2013-01-02T08:46:10.000Z</time>
      </trkpt>
      <trkpt lat="45.58134" lon="6.64674">
        <ele>1615.8000488281</ele>
        <time>2013-01-02T08:46:14.000Z</time>
      </trkpt>
      <trkpt lat="45.58134" lon="6.64672">
        <ele>1616</ele>
        <time>2013-01-02T08:46:16.000Z</time>
      </trkpt>
      <trkpt lat="45.58134" lon="6.64668">
        <ele>1616.5999755859</ele>
        <time>2013-01-02T08:46:20.000Z</time>
      </trkpt>
      <trkpt lat="45.58138" lon="6.64662">
        <ele>1618.4000244141</ele>
        <time>2013-01-02T08:46:27.000Z</time>
      </trkpt>
      <trkpt lat="45.58139" lon="6.64661">
        <ele>1619.1999511719</ele>
        <time>2013-01-02T08:46:29.000Z</time>
      </trkpt>
      <trkpt lat="45.58143" lon="6.6466">
        <ele>1620.4000244141</ele>
        <time>2013-01-02T08:46:33.000Z</time>
      </trkpt>
      <trkpt lat="45.58149" lon="6.64658">
        <ele>1621.1999511719</ele>
        <time>2013-01-02T08:46:41.000Z</time>
      </trkpt>
      <trkpt lat="45.58155" lon="6.64655">
        <ele>1623</ele>
        <time>2013-01-02T08:46:49.000Z</time>
      </trkpt>
      <trkpt lat="45.58161" lon="6.64655">
        <ele>1625.1999511719</ele>
        <time>2013-01-02T08:46:57.000Z</time>
      </trkpt>
      <trkpt lat="45.58169" lon="6.64652">
        <ele>1626.8000488281</ele>
        <time>2013-01-02T08:47:05.000Z</time>
      </trkpt>
      <trkpt lat="45.58174" lon="6.64652">
        <ele>1628.5999755859</ele>
        <time>2013-01-02T08:47:13.000Z</time>
      </trkpt>
      <trkpt lat="45.58177" lon="6.64651">
        <ele>1629.8000488281</ele>
        <time>2013-01-02T08:47:18.000Z</time>
      </trkpt>
      <trkpt lat="45.58178" lon="6.6465">
        <ele>1630.1999511719</ele>
        <time>2013-01-02T08:47:20.000Z</time>
      </trkpt>
      <trkpt lat="45.58177" lon="6.64646">
        <ele>1631.5999755859</ele>
        <time>2013-01-02T08:47:26.000Z</time>
      </trkpt>
      <trkpt lat="45.58177" lon="6.64643">
        <ele>1632.5999755859</ele>
        <time>2013-01-02T08:47:30.000Z</time>
      </trkpt>
      <trkpt lat="45.58175" lon="6.64638">
        <ele>1634.5999755859</ele>
        <time>2013-01-02T08:47:38.000Z</time>
      </trkpt>
      <trkpt lat="45.58173" lon="6.64635">
        <ele>1635.8000488281</ele>
        <time>2013-01-02T08:47:43.000Z</time>
      </trkpt>
      <trkpt lat="45.58172" lon="6.64631">
        <ele>1637</ele>
        <time>2013-01-02T08:47:48.000Z</time>
      </trkpt>
      <trkpt lat="45.58169" lon="6.6463">
        <ele>1638</ele>
        <time>2013-01-02T08:47:53.000Z</time>
      </trkpt>
      <trkpt lat="45.58171" lon="6.64627">
        <ele>1638.5999755859</ele>
        <time>2013-01-02T08:47:56.000Z</time>
      </trkpt>
      <trkpt lat="45.58182" lon="6.64624">
        <ele>1639.1999511719</ele>
        <time>2013-01-02T08:48:03.000Z</time>
      </trkpt>
      <trkpt lat="45.5819" lon="6.64624">
        <ele>1640.8000488281</ele>
        <time>2013-01-02T08:48:12.000Z</time>
      </trkpt>
      <trkpt lat="45.58195" lon="6.64626">
        <ele>1641.8000488281</ele>
        <time>2013-01-02T08:48:18.000Z</time>
      </trkpt>
      <trkpt lat="45.58202" lon="6.64626">
        <ele>1642.5999755859</ele>
        <time>2013-01-02T08:48:24.000Z</time>
      </trkpt>
      <trkpt lat="45.5821" lon="6.64628">
        <ele>1644.1999511719</ele>
        <time>2013-01-02T08:48:33.000Z</time>
      </trkpt>
      <trkpt lat="45.58218" lon="6.64629">
        <ele>1645.8000488281</ele>
        <time>2013-01-02T08:48:42.000Z</time>
      </trkpt>
      <trkpt lat="45.58224" lon="6.64636">
        <ele>1647</ele>
        <time>2013-01-02T08:48:49.000Z</time>
      </trkpt>
      <trkpt lat="45.5823" lon="6.64645">
        <ele>1648.1999511719</ele>
        <time>2013-01-02T08:48:57.000Z</time>
      </trkpt>
      <trkpt lat="45.58234" lon="6.64648">
        <ele>1648.8000488281</ele>
        <time>2013-01-02T08:49:01.000Z</time>
      </trkpt>
      <trkpt lat="45.58238" lon="6.64656">
        <ele>1650.1999511719</ele>
        <time>2013-01-02T08:49:08.000Z</time>
      </trkpt>
      <trkpt lat="45.58244" lon="6.64661">
        <ele>1652.1999511719</ele>
        <time>2013-01-02T08:49:17.000Z</time>
      </trkpt>
      <trkpt lat="45.58249" lon="6.64665">
        <ele>1653.4000244141</ele>
        <time>2013-01-02T08:49:25.000Z</time>
      </trkpt>
      <trkpt lat="45.58254" lon="6.6467">
        <ele>1655.1999511719</ele>
        <time>2013-01-02T08:49:33.000Z</time>
      </trkpt>
      <trkpt lat="45.5826" lon="6.64674">
        <ele>1656.4000244141</ele>
        <time>2013-01-02T08:49:41.000Z</time>
      </trkpt>
      <trkpt lat="45.58267" lon="6.64679">
        <ele>1658.1999511719</ele>
        <time>2013-01-02T08:49:49.000Z</time>
      </trkpt>
      <trkpt lat="45.58274" lon="6.64685">
        <ele>1659.8000488281</ele>
        <time>2013-01-02T08:49:57.000Z</time>
      </trkpt>
      <trkpt lat="45.58277" lon="6.64686">
        <ele>1661</ele>
        <time>2013-01-02T08:50:03.000Z</time>
      </trkpt>
      <trkpt lat="45.58284" lon="6.64686">
        <ele>1662.8000488281</ele>
        <time>2013-01-02T08:50:11.000Z</time>
      </trkpt>
      <trkpt lat="45.58293" lon="6.64689">
        <ele>1664.8000488281</ele>
        <time>2013-01-02T08:50:19.000Z</time>
      </trkpt>
      <trkpt lat="45.58294" lon="6.64689">
        <ele>1665</ele>
        <time>2013-01-02T08:50:20.000Z</time>
      </trkpt>
      <trkpt lat="45.58296" lon="6.64687">
        <ele>1665.4000244141</ele>
        <time>2013-01-02T08:50:23.000Z</time>
      </trkpt>
      <trkpt lat="45.58299" lon="6.64684">
        <ele>1666.8000488281</ele>
        <time>2013-01-02T08:50:28.000Z</time>
      </trkpt>
      <trkpt lat="45.58298" lon="6.64677">
        <ele>1669.1999511719</ele>
        <time>2013-01-02T08:50:37.000Z</time>
      </trkpt>
      <trkpt lat="45.58299" lon="6.6467">
        <ele>1671.5999755859</ele>
        <time>2013-01-02T08:50:45.000Z</time>
      </trkpt>
      <trkpt lat="45.58298" lon="6.64661">
        <ele>1674</ele>
        <time>2013-01-02T08:50:54.000Z</time>
      </trkpt>
      <trkpt lat="45.583" lon="6.64653">
        <ele>1675.8000488281</ele>
        <time>2013-01-02T08:51:02.000Z</time>
      </trkpt>
      <trkpt lat="45.58301" lon="6.64648">
        <ele>1677.5999755859</ele>
        <time>2013-01-02T08:51:10.000Z</time>
      </trkpt>
      <trkpt lat="45.58302" lon="6.64645">
        <ele>1679</ele>
        <time>2013-01-02T08:51:15.000Z</time>
      </trkpt>
      <trkpt lat="45.58303" lon="6.64643">
        <ele>1679.8000488281</ele>
        <time>2013-01-02T08:51:19.000Z</time>
      </trkpt>
      <trkpt lat="45.58306" lon="6.64637">
        <ele>1681.8000488281</ele>
        <time>2013-01-02T08:51:27.000Z</time>
      </trkpt>
      <trkpt lat="45.58307" lon="6.64635">
        <ele>1682.5999755859</ele>
        <time>2013-01-02T08:51:31.000Z</time>
      </trkpt>
      <trkpt lat="45.58309" lon="6.64632">
        <ele>1683.1999511719</ele>
        <time>2013-01-02T08:51:45.000Z</time>
      </trkpt>
      <trkpt lat="45.5831" lon="6.64633">
        <ele>1683.4000244141</ele>
        <time>2013-01-02T08:51:46.000Z</time>
      </trkpt>
      <trkpt lat="45.58313" lon="6.64624">
        <ele>1684.4000244141</ele>
        <time>2013-01-02T08:52:09.000Z</time>
      </trkpt>
      <trkpt lat="45.58316" lon="6.64615">
        <ele>1685.4000244141</ele>
        <time>2013-01-02T08:52:17.000Z</time>
      </trkpt>
      <trkpt lat="45.58315" lon="6.64605">
        <ele>1686.1999511719</ele>
        <time>2013-01-02T08:52:25.000Z</time>
      </trkpt>
      <trkpt lat="45.58312" lon="6.64598">
        <ele>1687.1999511719</ele>
        <time>2013-01-02T08:52:33.000Z</time>
      </trkpt>
      <trkpt lat="45.5831" lon="6.64595">
        <ele>1687.8000488281</ele>
        <time>2013-01-02T08:52:38.000Z</time>
      </trkpt>
      <trkpt lat="45.58304" lon="6.64586">
        <ele>1688.4000244141</ele>
        <time>2013-01-02T08:52:47.000Z</time>
      </trkpt>
      <trkpt lat="45.58298" lon="6.64577">
        <ele>1690</ele>
        <time>2013-01-02T08:52:58.000Z</time>
      </trkpt>
      <trkpt lat="45.58294" lon="6.64569">
        <ele>1691</ele>
        <time>2013-01-02T08:53:07.000Z</time>
      </trkpt>
      <trkpt lat="45.5829" lon="6.64562">
        <ele>1692.1999511719</ele>
        <time>2013-01-02T08:53:16.000Z</time>
      </trkpt>
      <trkpt lat="45.58285" lon="6.64555">
        <ele>1694</ele>
        <time>2013-01-02T08:53:24.000Z</time>
      </trkpt>
      <trkpt lat="45.58283" lon="6.64549">
        <ele>1695.4000244141</ele>
        <time>2013-01-02T08:53:31.000Z</time>
      </trkpt>
      <trkpt lat="45.58281" lon="6.64541">
        <ele>1697</ele>
        <time>2013-01-02T08:53:39.000Z</time>
      </trkpt>
      <trkpt lat="45.58287" lon="6.64534">
        <ele>1699.1999511719</ele>
        <time>2013-01-02T08:53:47.000Z</time>
      </trkpt>
      <trkpt lat="45.5829" lon="6.64531">
        <ele>1700</ele>
        <time>2013-01-02T08:53:51.000Z</time>
      </trkpt>
      <trkpt lat="45.58298" lon="6.64526">
        <ele>1701.5999755859</ele>
        <time>2013-01-02T08:53:59.000Z</time>
      </trkpt>
      <trkpt lat="45.583" lon="6.64525">
        <ele>1701.8000488281</ele>
        <time>2013-01-02T08:54:01.000Z</time>
      </trkpt>
      <trkpt lat="45.58306" lon="6.6452">
        <ele>1703.4000244141</ele>
        <time>2013-01-02T08:54:09.000Z</time>
      </trkpt>
      <trkpt lat="45.58309" lon="6.64516">
        <ele>1704.4000244141</ele>
        <time>2013-01-02T08:54:14.000Z</time>
      </trkpt>
      <trkpt lat="45.58315" lon="6.64509">
        <ele>1706.5999755859</ele>
        <time>2013-01-02T08:54:24.000Z</time>
      </trkpt>
      <trkpt lat="45.58321" lon="6.64509">
        <ele>1708.4000244141</ele>
        <time>2013-01-02T08:54:32.000Z</time>
      </trkpt>
      <trkpt lat="45.58322" lon="6.64509">
        <ele>1708.8000488281</ele>
        <time>2013-01-02T08:54:33.000Z</time>
      </trkpt>
      <trkpt lat="45.58322" lon="6.64503">
        <ele>1712.1999511719</ele>
        <time>2013-01-02T08:54:54.000Z</time>
      </trkpt>
      <trkpt lat="45.58318" lon="6.64498">
        <ele>1714.1999511719</ele>
        <time>2013-01-02T08:55:02.000Z</time>
      </trkpt>
      <trkpt lat="45.58315" lon="6.64494">
        <ele>1715.8000488281</ele>
        <time>2013-01-02T08:55:11.000Z</time>
      </trkpt>
      <trkpt lat="45.58317" lon="6.6449">
        <ele>1717.5999755859</ele>
        <time>2013-01-02T08:55:24.000Z</time>
      </trkpt>
      <trkpt lat="45.58322" lon="6.6449">
        <ele>1719</ele>
        <time>2013-01-02T08:55:32.000Z</time>
      </trkpt>
      <trkpt lat="45.58325" lon="6.64489">
        <ele>1720.1999511719</ele>
        <time>2013-01-02T08:55:37.000Z</time>
      </trkpt>
      <trkpt lat="45.58329" lon="6.64487">
        <ele>1721.5999755859</ele>
        <time>2013-01-02T08:55:44.000Z</time>
      </trkpt>
      <trkpt lat="45.58335" lon="6.64485">
        <ele>1723.5999755859</ele>
        <time>2013-01-02T08:55:53.000Z</time>
      </trkpt>
      <trkpt lat="45.58342" lon="6.64485">
        <ele>1725.5999755859</ele>
        <time>2013-01-02T08:56:03.000Z</time>
      </trkpt>
      <trkpt lat="45.58346" lon="6.64485">
        <ele>1726.8000488281</ele>
        <time>2013-01-02T08:56:09.000Z</time>
      </trkpt>
      <trkpt lat="45.58352" lon="6.64486">
        <ele>1728.4000244141</ele>
        <time>2013-01-02T08:56:17.000Z</time>
      </trkpt>
      <trkpt lat="45.58358" lon="6.64487">
        <ele>1730.1999511719</ele>
        <time>2013-01-02T08:56:26.000Z</time>
      </trkpt>
      <trkpt lat="45.58359" lon="6.64486">
        <ele>1730.5999755859</ele>
        <time>2013-01-02T08:56:28.000Z</time>
      </trkpt>
      <trkpt lat="45.58356" lon="6.64482">
        <ele>1731.8000488281</ele>
        <time>2013-01-02T08:56:35.000Z</time>
      </trkpt>
      <trkpt lat="45.58356" lon="6.64481">
        <ele>1732.1999511719</ele>
        <time>2013-01-02T08:56:37.000Z</time>
      </trkpt>
      <trkpt lat="45.58353" lon="6.64479">
        <ele>1731.4000244141</ele>
        <time>2013-01-02T08:57:49.000Z</time>
      </trkpt>
      <trkpt lat="45.58359" lon="6.64467">
        <ele>1729.1999511719</ele>
        <time>2013-01-02T09:02:30.000Z</time>
      </trkpt>
      <trkpt lat="45.58355" lon="6.64462">
        <ele>1729.8000488281</ele>
        <time>2013-01-02T09:02:35.000Z</time>
      </trkpt>
      <trkpt lat="45.58344" lon="6.64457">
        <ele>1731.5999755859</ele>
        <time>2013-01-02T09:02:46.000Z</time>
      </trkpt>
      <trkpt lat="45.58342" lon="6.64457">
        <ele>1732.1999511719</ele>
        <time>2013-01-02T09:02:49.000Z</time>
      </trkpt>
      <trkpt lat="45.58339" lon="6.64455">
        <ele>1732.8000488281</ele>
        <time>2013-01-02T09:03:01.000Z</time>
      </trkpt>
      <trkpt lat="45.5834" lon="6.64453">
        <ele>1733.5999755859</ele>
        <time>2013-01-02T09:03:04.000Z</time>
      </trkpt>
      <trkpt lat="45.58346" lon="6.64448">
        <ele>1735.8000488281</ele>
        <time>2013-01-02T09:03:14.000Z</time>
      </trkpt>
      <trkpt lat="45.58348" lon="6.64444">
        <ele>1737.4000244141</ele>
        <time>2013-01-02T09:03:21.000Z</time>
      </trkpt>
      <trkpt lat="45.58348" lon="6.64441">
        <ele>1738.1999511719</ele>
        <time>2013-01-02T09:03:28.000Z</time>
      </trkpt>
      <trkpt lat="45.58349" lon="6.6444">
        <ele>1738.8000488281</ele>
        <time>2013-01-02T09:03:31.000Z</time>
      </trkpt>
      <trkpt lat="45.58354" lon="6.64441">
        <ele>1739.4000244141</ele>
        <time>2013-01-02T09:03:47.000Z</time>
      </trkpt>
      <trkpt lat="45.58364" lon="6.64439">
        <ele>1740.8000488281</ele>
        <time>2013-01-02T09:03:56.000Z</time>
      </trkpt>
      <trkpt lat="45.58374" lon="6.64436">
        <ele>1742.5999755859</ele>
        <time>2013-01-02T09:04:06.000Z</time>
      </trkpt>
      <trkpt lat="45.58375" lon="6.64434">
        <ele>1743</ele>
        <time>2013-01-02T09:04:09.000Z</time>
      </trkpt>
      <trkpt lat="45.5838" lon="6.64426">
        <ele>1745</ele>
        <time>2013-01-02T09:04:19.000Z</time>
      </trkpt>
      <trkpt lat="45.5838" lon="6.64422">
        <ele>1745.8000488281</ele>
        <time>2013-01-02T09:04:24.000Z</time>
      </trkpt>
      <trkpt lat="45.58377" lon="6.64415">
        <ele>1747.5999755859</ele>
        <time>2013-01-02T09:04:33.000Z</time>
      </trkpt>
      <trkpt lat="45.58373" lon="6.64408">
        <ele>1749.5999755859</ele>
        <time>2013-01-02T09:04:42.000Z</time>
      </trkpt>
      <trkpt lat="45.58371" lon="6.64403">
        <ele>1751</ele>
        <time>2013-01-02T09:04:50.000Z</time>
      </trkpt>
      <trkpt lat="45.58366" lon="6.64397">
        <ele>1753.1999511719</ele>
        <time>2013-01-02T09:05:00.000Z</time>
      </trkpt>
      <trkpt lat="45.58363" lon="6.64394">
        <ele>1754.5999755859</ele>
        <time>2013-01-02T09:05:07.000Z</time>
      </trkpt>
      <trkpt lat="45.58357" lon="6.64389">
        <ele>1756.5999755859</ele>
        <time>2013-01-02T09:05:16.000Z</time>
      </trkpt>
      <trkpt lat="45.58355" lon="6.64387">
        <ele>1757.5999755859</ele>
        <time>2013-01-02T09:05:22.000Z</time>
      </trkpt>
      <trkpt lat="45.58356" lon="6.64382">
        <ele>1758.4000244141</ele>
        <time>2013-01-02T09:05:27.000Z</time>
      </trkpt>
      <trkpt lat="45.58363" lon="6.64377">
        <ele>1760</ele>
        <time>2013-01-02T09:05:36.000Z</time>
      </trkpt>
      <trkpt lat="45.58366" lon="6.64373">
        <ele>1761.1999511719</ele>
        <time>2013-01-02T09:05:42.000Z</time>
      </trkpt>
      <trkpt lat="45.58367" lon="6.6437">
        <ele>1761.5999755859</ele>
        <time>2013-01-02T09:05:47.000Z</time>
      </trkpt>
      <trkpt lat="45.58369" lon="6.64369">
        <ele>1761.5999755859</ele>
        <time>2013-01-02T09:05:53.000Z</time>
      </trkpt>
      <trkpt lat="45.58369" lon="6.64368">
        <ele>1761.5999755859</ele>
        <time>2013-01-02T09:05:54.000Z</time>
      </trkpt>
      <trkpt lat="45.58375" lon="6.64368">
        <ele>1762.5999755859</ele>
        <time>2013-01-02T09:06:06.000Z</time>
      </trkpt>
      <trkpt lat="45.58376" lon="6.64367">
        <ele>1763</ele>
        <time>2013-01-02T09:06:08.000Z</time>
      </trkpt>
      <trkpt lat="45.58385" lon="6.64365">
        <ele>1764.5999755859</ele>
        <time>2013-01-02T09:06:18.000Z</time>
      </trkpt>
      <trkpt lat="45.58393" lon="6.64362">
        <ele>1767</ele>
        <time>2013-01-02T09:06:29.000Z</time>
      </trkpt>
      <trkpt lat="45.58395" lon="6.6436">
        <ele>1768.4000244141</ele>
        <time>2013-01-02T09:06:34.000Z</time>
      </trkpt>
      <trkpt lat="45.58395" lon="6.64356">
        <ele>1770.1999511719</ele>
        <time>2013-01-02T09:07:14.000Z</time>
      </trkpt>
      <trkpt lat="45.58394" lon="6.64356">
        <ele>1770.4000244141</ele>
        <time>2013-01-02T09:07:15.000Z</time>
      </trkpt>
      <trkpt lat="45.58396" lon="6.64353">
        <ele>1771.5999755859</ele>
        <time>2013-01-02T09:07:31.000Z</time>
      </trkpt>
      <trkpt lat="45.58389" lon="6.64346">
        <ele>1774</ele>
        <time>2013-01-02T09:07:41.000Z</time>
      </trkpt>
      <trkpt lat="45.58384" lon="6.64341">
        <ele>1776.4000244141</ele>
        <time>2013-01-02T09:07:49.000Z</time>
      </trkpt>
      <trkpt lat="45.58383" lon="6.6434">
        <ele>1776.8000488281</ele>
        <time>2013-01-02T09:07:51.000Z</time>
      </trkpt>
      <trkpt lat="45.58383" lon="6.64337">
        <ele>1777.5999755859</ele>
        <time>2013-01-02T09:08:02.000Z</time>
      </trkpt>
      <trkpt lat="45.58385" lon="6.64335">
        <ele>1778.1999511719</ele>
        <time>2013-01-02T09:08:06.000Z</time>
      </trkpt>
      <trkpt lat="45.58395" lon="6.64334">
        <ele>1780.1999511719</ele>
        <time>2013-01-02T09:08:15.000Z</time>
      </trkpt>
      <trkpt lat="45.58404" lon="6.64332">
        <ele>1782.5999755859</ele>
        <time>2013-01-02T09:08:23.000Z</time>
      </trkpt>
      <trkpt lat="45.58407" lon="6.64324">
        <ele>1785</ele>
        <time>2013-01-02T09:08:33.000Z</time>
      </trkpt>
      <trkpt lat="45.58405" lon="6.64319">
        <ele>1786.8000488281</ele>
        <time>2013-01-02T09:08:39.000Z</time>
      </trkpt>
      <trkpt lat="45.58404" lon="6.64319">
        <ele>1787</ele>
        <time>2013-01-02T09:08:40.000Z</time>
      </trkpt>
      <trkpt lat="45.58398" lon="6.64315">
        <ele>1788.4000244141</ele>
        <time>2013-01-02T09:08:48.000Z</time>
      </trkpt>
      <trkpt lat="45.58398" lon="6.64313">
        <ele>1788.8000488281</ele>
        <time>2013-01-02T09:08:50.000Z</time>
      </trkpt>
      <trkpt lat="45.58398" lon="6.64311">
        <ele>1789.4000244141</ele>
        <time>2013-01-02T09:08:52.000Z</time>
      </trkpt>
      <trkpt lat="45.58393" lon="6.64303">
        <ele>1791.4000244141</ele>
        <time>2013-01-02T09:09:02.000Z</time>
      </trkpt>
      <trkpt lat="45.58392" lon="6.64299">
        <ele>1793</ele>
        <time>2013-01-02T09:09:08.000Z</time>
      </trkpt>
      <trkpt lat="45.5839" lon="6.64298">
        <ele>1794</ele>
        <time>2013-01-02T09:09:11.000Z</time>
      </trkpt>
      <trkpt lat="45.58385" lon="6.64294">
        <ele>1795.1999511719</ele>
        <time>2013-01-02T09:09:19.000Z</time>
      </trkpt>
      <trkpt lat="45.58383" lon="6.64289">
        <ele>1797</ele>
        <time>2013-01-02T09:09:26.000Z</time>
      </trkpt>
      <trkpt lat="45.5838" lon="6.64286">
        <ele>1798.5999755859</ele>
        <time>2013-01-02T09:09:33.000Z</time>
      </trkpt>
      <trkpt lat="45.58377" lon="6.64281">
        <ele>1800.5999755859</ele>
        <time>2013-01-02T09:09:41.000Z</time>
      </trkpt>
      <trkpt lat="45.58372" lon="6.64276">
        <ele>1802.1999511719</ele>
        <time>2013-01-02T09:09:48.000Z</time>
      </trkpt>
      <trkpt lat="45.58368" lon="6.64272">
        <ele>1803.8000488281</ele>
        <time>2013-01-02T09:09:56.000Z</time>
      </trkpt>
      <trkpt lat="45.58367" lon="6.64263">
        <ele>1805.1999511719</ele>
        <time>2013-01-02T09:10:03.000Z</time>
      </trkpt>
      <trkpt lat="45.58365" lon="6.64261">
        <ele>1806.1999511719</ele>
        <time>2013-01-02T09:10:07.000Z</time>
      </trkpt>
      <trkpt lat="45.58363" lon="6.6426">
        <ele>1807.4000244141</ele>
        <time>2013-01-02T09:10:12.000Z</time>
      </trkpt>
      <trkpt lat="45.58356" lon="6.64259">
        <ele>1808.1999511719</ele>
        <time>2013-01-02T09:10:20.000Z</time>
      </trkpt>
      <trkpt lat="45.58351" lon="6.64258">
        <ele>1809.1999511719</ele>
        <time>2013-01-02T09:10:27.000Z</time>
      </trkpt>
      <trkpt lat="45.5835" lon="6.64258">
        <ele>1809.4000244141</ele>
        <time>2013-01-02T09:10:28.000Z</time>
      </trkpt>
      <trkpt lat="45.58346" lon="6.64255">
        <ele>1810.5999755859</ele>
        <time>2013-01-02T09:10:44.000Z</time>
      </trkpt>
      <trkpt lat="45.58342" lon="6.6425">
        <ele>1812.4000244141</ele>
        <time>2013-01-02T09:10:51.000Z</time>
      </trkpt>
      <trkpt lat="45.58339" lon="6.64243">
        <ele>1814.4000244141</ele>
        <time>2013-01-02T09:10:58.000Z</time>
      </trkpt>
      <trkpt lat="45.58338" lon="6.64242">
        <ele>1814.8000488281</ele>
        <time>2013-01-02T09:11:00.000Z</time>
      </trkpt>
      <trkpt lat="45.58333" lon="6.64239">
        <ele>1815.8000488281</ele>
        <time>2013-01-02T09:11:06.000Z</time>
      </trkpt>
      <trkpt lat="45.58331" lon="6.64237">
        <ele>1816.5999755859</ele>
        <time>2013-01-02T09:11:10.000Z</time>
      </trkpt>
      <trkpt lat="45.58328" lon="6.64233">
        <ele>1817.8000488281</ele>
        <time>2013-01-02T09:11:17.000Z</time>
      </trkpt>
      <trkpt lat="45.58328" lon="6.64231">
        <ele>1818.4000244141</ele>
        <time>2013-01-02T09:11:23.000Z</time>
      </trkpt>
      <trkpt lat="45.58328" lon="6.64231">
        <ele>1818.4000244141</ele>
        <time>2013-01-02T09:11:24.000Z</time>
      </trkpt>
      <trkpt lat="45.5833" lon="6.64227">
        <ele>1819.4000244141</ele>
        <time>2013-01-02T09:11:31.000Z</time>
      </trkpt>
      <trkpt lat="45.58335" lon="6.6422">
        <ele>1820.8000488281</ele>
        <time>2013-01-02T09:11:37.000Z</time>
      </trkpt>
      <trkpt lat="45.58339" lon="6.64216">
        <ele>1822.4000244141</ele>
        <time>2013-01-02T09:11:44.000Z</time>
      </trkpt>
      <trkpt lat="45.58341" lon="6.64212">
        <ele>1824</ele>
        <time>2013-01-02T09:11:52.000Z</time>
      </trkpt>
      <trkpt lat="45.58337" lon="6.64208">
        <ele>1825.5999755859</ele>
        <time>2013-01-02T09:12:01.000Z</time>
      </trkpt>
      <trkpt lat="45.58335" lon="6.64205">
        <ele>1826.8000488281</ele>
        <time>2013-01-02T09:12:06.000Z</time>
      </trkpt>
      <trkpt lat="45.58331" lon="6.64201">
        <ele>1828.5999755859</ele>
        <time>2013-01-02T09:12:14.000Z</time>
      </trkpt>
      <trkpt lat="45.58327" lon="6.64196">
        <ele>1830.1999511719</ele>
        <time>2013-01-02T09:12:23.000Z</time>
      </trkpt>
      <trkpt lat="45.58323" lon="6.64191">
        <ele>1832.4000244141</ele>
        <time>2013-01-02T09:12:33.000Z</time>
      </trkpt>
      <trkpt lat="45.58323" lon="6.6419">
        <ele>1833</ele>
        <time>2013-01-02T09:12:35.000Z</time>
      </trkpt>
      <trkpt lat="45.58321" lon="6.64188">
        <ele>1834</ele>
        <time>2013-01-02T09:12:41.000Z</time>
      </trkpt>
      <trkpt lat="45.5832" lon="6.64188">
        <ele>1834.4000244141</ele>
        <time>2013-01-02T09:12:43.000Z</time>
      </trkpt>
      <trkpt lat="45.5832" lon="6.6418">
        <ele>1836.1999511719</ele>
        <time>2013-01-02T09:13:00.000Z</time>
      </trkpt>
      <trkpt lat="45.58322" lon="6.64175">
        <ele>1837.5999755859</ele>
        <time>2013-01-02T09:13:06.000Z</time>
      </trkpt>
      <trkpt lat="45.58327" lon="6.64167">
        <ele>1839.5999755859</ele>
        <time>2013-01-02T09:13:15.000Z</time>
      </trkpt>
      <trkpt lat="45.58331" lon="6.64161">
        <ele>1841.8000488281</ele>
        <time>2013-01-02T09:13:24.000Z</time>
      </trkpt>
      <trkpt lat="45.58338" lon="6.64155">
        <ele>1843.5999755859</ele>
        <time>2013-01-02T09:13:32.000Z</time>
      </trkpt>
      <trkpt lat="45.58342" lon="6.64151">
        <ele>1845.5999755859</ele>
        <time>2013-01-02T09:13:40.000Z</time>
      </trkpt>
      <trkpt lat="45.58347" lon="6.64147">
        <ele>1847.5999755859</ele>
        <time>2013-01-02T09:13:49.000Z</time>
      </trkpt>
      <trkpt lat="45.58348" lon="6.64145">
        <ele>1848.8000488281</ele>
        <time>2013-01-02T09:13:54.000Z</time>
      </trkpt>
      <trkpt lat="45.58345" lon="6.64142">
        <ele>1850.1999511719</ele>
        <time>2013-01-02T09:14:04.000Z</time>
      </trkpt>
      <trkpt lat="45.5834" lon="6.64139">
        <ele>1852.1999511719</ele>
        <time>2013-01-02T09:14:13.000Z</time>
      </trkpt>
      <trkpt lat="45.58335" lon="6.64135">
        <ele>1854.4000244141</ele>
        <time>2013-01-02T09:14:22.000Z</time>
      </trkpt>
      <trkpt lat="45.5833" lon="6.6413">
        <ele>1856.8000488281</ele>
        <time>2013-01-02T09:14:32.000Z</time>
      </trkpt>
      <trkpt lat="45.58329" lon="6.64129">
        <ele>1857.5999755859</ele>
        <time>2013-01-02T09:14:35.000Z</time>
      </trkpt>
      <trkpt lat="45.58329" lon="6.64128">
        <ele>1857.8000488281</ele>
        <time>2013-01-02T09:14:40.000Z</time>
      </trkpt>
      <trkpt lat="45.58329" lon="6.64122">
        <ele>1858.1999511719</ele>
        <time>2013-01-02T09:14:48.000Z</time>
      </trkpt>
      <trkpt lat="45.58328" lon="6.64116">
        <ele>1859.5999755859</ele>
        <time>2013-01-02T09:15:02.000Z</time>
      </trkpt>
      <trkpt lat="45.58329" lon="6.64115">
        <ele>1859.8000488281</ele>
        <time>2013-01-02T09:15:03.000Z</time>
      </trkpt>
      <trkpt lat="45.58334" lon="6.64109">
        <ele>1862</ele>
        <time>2013-01-02T09:15:12.000Z</time>
      </trkpt>
      <trkpt lat="45.58334" lon="6.64106">
        <ele>1863.8000488281</ele>
        <time>2013-01-02T09:15:19.000Z</time>
      </trkpt>
      <trkpt lat="45.58325" lon="6.64102">
        <ele>1865.5999755859</ele>
        <time>2013-01-02T09:15:28.000Z</time>
      </trkpt>
      <trkpt lat="45.58315" lon="6.64097">
        <ele>1868</ele>
        <time>2013-01-02T09:15:40.000Z</time>
      </trkpt>
      <trkpt lat="45.58308" lon="6.64094">
        <ele>1869.8000488281</ele>
        <time>2013-01-02T09:15:50.000Z</time>
      </trkpt>
      <trkpt lat="45.58305" lon="6.64092">
        <ele>1870.5999755859</ele>
        <time>2013-01-02T09:15:54.000Z</time>
      </trkpt>
      <trkpt lat="45.58299" lon="6.64085">
        <ele>1872.8000488281</ele>
        <time>2013-01-02T09:16:05.000Z</time>
      </trkpt>
      <trkpt lat="45.58294" lon="6.64079">
        <ele>1874.8000488281</ele>
        <time>2013-01-02T09:16:15.000Z</time>
      </trkpt>
      <trkpt lat="45.58289" lon="6.64074">
        <ele>1876.5999755859</ele>
        <time>2013-01-02T09:16:24.000Z</time>
      </trkpt>
      <trkpt lat="45.58283" lon="6.64068">
        <ele>1878</ele>
        <time>2013-01-02T09:16:33.000Z</time>
      </trkpt>
      <trkpt lat="45.5828" lon="6.64058">
        <ele>1879.8000488281</ele>
        <time>2013-01-02T09:16:43.000Z</time>
      </trkpt>
      <trkpt lat="45.58275" lon="6.64055">
        <ele>1881.4000244141</ele>
        <time>2013-01-02T09:16:52.000Z</time>
      </trkpt>
      <trkpt lat="45.58271" lon="6.64051">
        <ele>1882.5999755859</ele>
        <time>2013-01-02T09:17:01.000Z</time>
      </trkpt>
      <trkpt lat="45.58269" lon="6.64043">
        <ele>1884</ele>
        <time>2013-01-02T09:17:10.000Z</time>
      </trkpt>
      <trkpt lat="45.58268" lon="6.64042">
        <ele>1884.5999755859</ele>
        <time>2013-01-02T09:17:13.000Z</time>
      </trkpt>
      <trkpt lat="45.58268" lon="6.64035">
        <ele>1884.8000488281</ele>
        <time>2013-01-02T09:17:19.000Z</time>
      </trkpt>
      <trkpt lat="45.58268" lon="6.64026">
        <ele>1886.4000244141</ele>
        <time>2013-01-02T09:17:28.000Z</time>
      </trkpt>
      <trkpt lat="45.58267" lon="6.64016">
        <ele>1888</ele>
        <time>2013-01-02T09:17:38.000Z</time>
      </trkpt>
      <trkpt lat="45.58266" lon="6.64011">
        <ele>1889.1999511719</ele>
        <time>2013-01-02T09:17:46.000Z</time>
      </trkpt>
      <trkpt lat="45.58267" lon="6.64003">
        <ele>1890.8000488281</ele>
        <time>2013-01-02T09:17:55.000Z</time>
      </trkpt>
      <trkpt lat="45.58265" lon="6.64">
        <ele>1892.4000244141</ele>
        <time>2013-01-02T09:18:04.000Z</time>
      </trkpt>
      <trkpt lat="45.58264" lon="6.63995">
        <ele>1893.5999755859</ele>
        <time>2013-01-02T09:18:12.000Z</time>
      </trkpt>
      <trkpt lat="45.58263" lon="6.63988">
        <ele>1895.1999511719</ele>
        <time>2013-01-02T09:18:21.000Z</time>
      </trkpt>
      <trkpt lat="45.58263" lon="6.63982">
        <ele>1896.8000488281</ele>
        <time>2013-01-02T09:18:29.000Z</time>
      </trkpt>
      <trkpt lat="45.58262" lon="6.63978">
        <ele>1898.1999511719</ele>
        <time>2013-01-02T09:18:37.000Z</time>
      </trkpt>
      <trkpt lat="45.58261" lon="6.63972">
        <ele>1899.4000244141</ele>
        <time>2013-01-02T09:18:44.000Z</time>
      </trkpt>
      <trkpt lat="45.58261" lon="6.63966">
        <ele>1900.8000488281</ele>
        <time>2013-01-02T09:18:52.000Z</time>
      </trkpt>
      <trkpt lat="45.58262" lon="6.63955">
        <ele>1902.8000488281</ele>
        <time>2013-01-02T09:19:03.000Z</time>
      </trkpt>
      <trkpt lat="45.58263" lon="6.63946">
        <ele>1904.5999755859</ele>
        <time>2013-01-02T09:19:12.000Z</time>
      </trkpt>
      <trkpt lat="45.5827" lon="6.63933">
        <ele>1906</ele>
        <time>2013-01-02T09:19:20.000Z</time>
      </trkpt>
      <trkpt lat="45.58274" lon="6.63927">
        <ele>1906.8000488281</ele>
        <time>2013-01-02T09:19:26.000Z</time>
      </trkpt>
      <trkpt lat="45.58276" lon="6.63922">
        <ele>1907.5999755859</ele>
        <time>2013-01-02T09:19:32.000Z</time>
      </trkpt>
      <trkpt lat="45.58278" lon="6.63917">
        <ele>1908.1999511719</ele>
        <time>2013-01-02T09:19:38.000Z</time>
      </trkpt>
      <trkpt lat="45.5828" lon="6.63911">
        <ele>1909.5999755859</ele>
        <time>2013-01-02T09:19:46.000Z</time>
      </trkpt>
      <trkpt lat="45.58281" lon="6.63911">
        <ele>1909.8000488281</ele>
        <time>2013-01-02T09:19:47.000Z</time>
      </trkpt>
      <trkpt lat="45.58282" lon="6.63909">
        <ele>1911.4000244141</ele>
        <time>2013-01-02T09:19:58.000Z</time>
      </trkpt>
      <trkpt lat="45.58281" lon="6.639">
        <ele>1913.5999755859</ele>
        <time>2013-01-02T09:20:08.000Z</time>
      </trkpt>
      <trkpt lat="45.5828" lon="6.63893">
        <ele>1915.4000244141</ele>
        <time>2013-01-02T09:20:16.000Z</time>
      </trkpt>
      <trkpt lat="45.58279" lon="6.63884">
        <ele>1917.1999511719</ele>
        <time>2013-01-02T09:20:26.000Z</time>
      </trkpt>
      <trkpt lat="45.5828" lon="6.63875">
        <ele>1919</ele>
        <time>2013-01-02T09:20:35.000Z</time>
      </trkpt>
      <trkpt lat="45.58281" lon="6.63867">
        <ele>1920.8000488281</ele>
        <time>2013-01-02T09:20:44.000Z</time>
      </trkpt>
      <trkpt lat="45.58281" lon="6.63859">
        <ele>1922.5999755859</ele>
        <time>2013-01-02T09:20:54.000Z</time>
      </trkpt>
      <trkpt lat="45.58281" lon="6.63851">
        <ele>1924.1999511719</ele>
        <time>2013-01-02T09:21:02.000Z</time>
      </trkpt>
      <trkpt lat="45.58283" lon="6.63839">
        <ele>1926.8000488281</ele>
        <time>2013-01-02T09:21:14.000Z</time>
      </trkpt>
      <trkpt lat="45.58282" lon="6.6383">
        <ele>1929</ele>
        <time>2013-01-02T09:21:24.000Z</time>
      </trkpt>
      <trkpt lat="45.58282" lon="6.63821">
        <ele>1931.1999511719</ele>
        <time>2013-01-02T09:21:34.000Z</time>
      </trkpt>
      <trkpt lat="45.58282" lon="6.63812">
        <ele>1933.5999755859</ele>
        <time>2013-01-02T09:21:44.000Z</time>
      </trkpt>
      <trkpt lat="45.58284" lon="6.63807">
        <ele>1935</ele>
        <time>2013-01-02T09:21:50.000Z</time>
      </trkpt>
      <trkpt lat="45.5829" lon="6.63801">
        <ele>1937</ele>
        <time>2013-01-02T09:22:00.000Z</time>
      </trkpt>
      <trkpt lat="45.58296" lon="6.63797">
        <ele>1938.5999755859</ele>
        <time>2013-01-02T09:22:08.000Z</time>
      </trkpt>
      <trkpt lat="45.58297" lon="6.63791">
        <ele>1940.1999511719</ele>
        <time>2013-01-02T09:22:16.000Z</time>
      </trkpt>
      <trkpt lat="45.58295" lon="6.63785">
        <ele>1941</ele>
        <time>2013-01-02T09:22:23.000Z</time>
      </trkpt>
      <trkpt lat="45.58291" lon="6.63778">
        <ele>1942.8000488281</ele>
        <time>2013-01-02T09:22:32.000Z</time>
      </trkpt>
      <trkpt lat="45.58289" lon="6.63771">
        <ele>1944.1999511719</ele>
        <time>2013-01-02T09:22:40.000Z</time>
      </trkpt>
      <trkpt lat="45.58287" lon="6.63763">
        <ele>1945.1999511719</ele>
        <time>2013-01-02T09:22:48.000Z</time>
      </trkpt>
      <trkpt lat="45.58285" lon="6.63752">
        <ele>1946.4000244141</ele>
        <time>2013-01-02T09:22:58.000Z</time>
      </trkpt>
      <trkpt lat="45.58286" lon="6.63743">
        <ele>1947.4000244141</ele>
        <time>2013-01-02T09:23:07.000Z</time>
      </trkpt>
      <trkpt lat="45.58287" lon="6.6374">
        <ele>1948.4000244141</ele>
        <time>2013-01-02T09:23:12.000Z</time>
      </trkpt>
      <trkpt lat="45.58288" lon="6.63737">
        <ele>1949.1999511719</ele>
        <time>2013-01-02T09:23:32.000Z</time>
      </trkpt>
      <trkpt lat="45.5829" lon="6.6373">
        <ele>1950.8000488281</ele>
        <time>2013-01-02T09:23:40.000Z</time>
      </trkpt>
      <trkpt lat="45.58292" lon="6.63728">
        <ele>1951.1999511719</ele>
        <time>2013-01-02T09:23:44.000Z</time>
      </trkpt>
      <trkpt lat="45.58293" lon="6.63725">
        <ele>1951.5999755859</ele>
        <time>2013-01-02T09:23:48.000Z</time>
      </trkpt>
      <trkpt lat="45.58298" lon="6.63716">
        <ele>1953.5999755859</ele>
        <time>2013-01-02T09:23:58.000Z</time>
      </trkpt>
      <trkpt lat="45.58303" lon="6.6371">
        <ele>1955.8000488281</ele>
        <time>2013-01-02T09:24:07.000Z</time>
      </trkpt>
      <trkpt lat="45.58311" lon="6.63704">
        <ele>1958.5999755859</ele>
        <time>2013-01-02T09:24:19.000Z</time>
      </trkpt>
      <trkpt lat="45.58315" lon="6.63701">
        <ele>1960.4000244141</ele>
        <time>2013-01-02T09:24:26.000Z</time>
      </trkpt>
      <trkpt lat="45.5832" lon="6.63697">
        <ele>1962.4000244141</ele>
        <time>2013-01-02T09:24:35.000Z</time>
      </trkpt>
      <trkpt lat="45.58326" lon="6.63693">
        <ele>1964.8000488281</ele>
        <time>2013-01-02T09:24:45.000Z</time>
      </trkpt>
      <trkpt lat="45.58329" lon="6.63692">
        <ele>1966.1999511719</ele>
        <time>2013-01-02T09:24:51.000Z</time>
      </trkpt>
      <trkpt lat="45.58335" lon="6.63689">
        <ele>1968.5999755859</ele>
        <time>2013-01-02T09:25:02.000Z</time>
      </trkpt>
      <trkpt lat="45.58342" lon="6.63684">
        <ele>1971</ele>
        <time>2013-01-02T09:25:14.000Z</time>
      </trkpt>
      <trkpt lat="45.58346" lon="6.6368">
        <ele>1973</ele>
        <time>2013-01-02T09:25:22.000Z</time>
      </trkpt>
      <trkpt lat="45.58348" lon="6.63676">
        <ele>1975.1999511719</ele>
        <time>2013-01-02T09:25:29.000Z</time>
      </trkpt>
      <trkpt lat="45.58346" lon="6.63667">
        <ele>1976.1999511719</ele>
        <time>2013-01-02T09:25:38.000Z</time>
      </trkpt>
      <trkpt lat="45.58343" lon="6.6366">
        <ele>1977.5999755859</ele>
        <time>2013-01-02T09:25:46.000Z</time>
      </trkpt>
      <trkpt lat="45.58339" lon="6.63652">
        <ele>1979</ele>
        <time>2013-01-02T09:25:55.000Z</time>
      </trkpt>
      <trkpt lat="45.58337" lon="6.63648">
        <ele>1979.5999755859</ele>
        <time>2013-01-02T09:26:00.000Z</time>
      </trkpt>
      <trkpt lat="45.58333" lon="6.63641">
        <ele>1980.5999755859</ele>
        <time>2013-01-02T09:26:09.000Z</time>
      </trkpt>
      <trkpt lat="45.58331" lon="6.63639">
        <ele>1980.8000488281</ele>
        <time>2013-01-02T09:26:12.000Z</time>
      </trkpt>
      <trkpt lat="45.58325" lon="6.63636">
        <ele>1981.8000488281</ele>
        <time>2013-01-02T09:26:21.000Z</time>
      </trkpt>
      <trkpt lat="45.58316" lon="6.63632">
        <ele>1983.4000244141</ele>
        <time>2013-01-02T09:26:32.000Z</time>
      </trkpt>
      <trkpt lat="45.58311" lon="6.63628">
        <ele>1984.1999511719</ele>
        <time>2013-01-02T09:26:41.000Z</time>
      </trkpt>
      <trkpt lat="45.58308" lon="6.63621">
        <ele>1985.4000244141</ele>
        <time>2013-01-02T09:26:50.000Z</time>
      </trkpt>
      <trkpt lat="45.58307" lon="6.63617">
        <ele>1985.5999755859</ele>
        <time>2013-01-02T09:26:55.000Z</time>
      </trkpt>
      <trkpt lat="45.58304" lon="6.63604">
        <ele>1986</ele>
        <time>2013-01-02T09:27:07.000Z</time>
      </trkpt>
      <trkpt lat="45.58304" lon="6.63594">
        <ele>1986.8000488281</ele>
        <time>2013-01-02T09:27:16.000Z</time>
      </trkpt>
      <trkpt lat="45.58303" lon="6.63581">
        <ele>1989.5999755859</ele>
        <time>2013-01-02T09:27:26.000Z</time>
      </trkpt>
      <trkpt lat="45.58301" lon="6.6357">
        <ele>1992</ele>
        <time>2013-01-02T09:27:35.000Z</time>
      </trkpt>
      <trkpt lat="45.583" lon="6.63558">
        <ele>1994.8000488281</ele>
        <time>2013-01-02T09:27:45.000Z</time>
      </trkpt>
      <trkpt lat="45.58298" lon="6.63546">
        <ele>1997.4000244141</ele>
        <time>2013-01-02T09:27:55.000Z</time>
      </trkpt>
      <trkpt lat="45.58296" lon="6.63531">
        <ele>1999.8000488281</ele>
        <time>2013-01-02T09:28:06.000Z</time>
      </trkpt>
      <trkpt lat="45.58295" lon="6.63517">
        <ele>2001.1999511719</ele>
        <time>2013-01-02T09:28:16.000Z</time>
      </trkpt>
      <trkpt lat="45.58293" lon="6.635">
        <ele>2003.1999511719</ele>
        <time>2013-01-02T09:28:28.000Z</time>
      </trkpt>
      <trkpt lat="45.5829" lon="6.63488">
        <ele>2005.5999755859</ele>
        <time>2013-01-02T09:28:38.000Z</time>
      </trkpt>
      <trkpt lat="45.58286" lon="6.6348">
        <ele>2007.8000488281</ele>
        <time>2013-01-02T09:28:48.000Z</time>
      </trkpt>
      <trkpt lat="45.58283" lon="6.63472">
        <ele>2010.1999511719</ele>
        <time>2013-01-02T09:28:57.000Z</time>
      </trkpt>
      <trkpt lat="45.5828" lon="6.63465">
        <ele>2012.4000244141</ele>
        <time>2013-01-02T09:29:05.000Z</time>
      </trkpt>
      <trkpt lat="45.58279" lon="6.63455">
        <ele>2015</ele>
        <time>2013-01-02T09:29:16.000Z</time>
      </trkpt>
      <trkpt lat="45.58277" lon="6.63446">
        <ele>2017.1999511719</ele>
        <time>2013-01-02T09:29:26.000Z</time>
      </trkpt>
      <trkpt lat="45.58276" lon="6.63445">
        <ele>2017.4000244141</ele>
        <time>2013-01-02T09:29:27.000Z</time>
      </trkpt>
      <trkpt lat="45.58271" lon="6.63441">
        <ele>2019.5999755859</ele>
        <time>2013-01-02T09:29:36.000Z</time>
      </trkpt>
      <trkpt lat="45.58265" lon="6.63436">
        <ele>2022</ele>
        <time>2013-01-02T09:29:45.000Z</time>
      </trkpt>
      <trkpt lat="45.58265" lon="6.63436">
        <ele>2022.4000244141</ele>
        <time>2013-01-02T09:29:46.000Z</time>
      </trkpt>
      <trkpt lat="45.58264" lon="6.63435">
        <ele>2023</ele>
        <time>2013-01-02T09:30:00.000Z</time>
      </trkpt>
      <trkpt lat="45.58271" lon="6.63428">
        <ele>2025.4000244141</ele>
        <time>2013-01-02T09:30:11.000Z</time>
      </trkpt>
      <trkpt lat="45.58276" lon="6.63425">
        <ele>2026.5999755859</ele>
        <time>2013-01-02T09:30:16.000Z</time>
      </trkpt>
      <trkpt lat="45.58283" lon="6.63421">
        <ele>2028.1999511719</ele>
        <time>2013-01-02T09:30:25.000Z</time>
      </trkpt>
      <trkpt lat="45.58284" lon="6.63421">
        <ele>2028.4000244141</ele>
        <time>2013-01-02T09:30:26.000Z</time>
      </trkpt>
      <trkpt lat="45.58288" lon="6.63417">
        <ele>2029.5999755859</ele>
        <time>2013-01-02T09:30:34.000Z</time>
      </trkpt>
      <trkpt lat="45.58294" lon="6.6342">
        <ele>2031.8000488281</ele>
        <time>2013-01-02T09:30:43.000Z</time>
      </trkpt>
      <trkpt lat="45.58299" lon="6.63416">
        <ele>2034.5999755859</ele>
        <time>2013-01-02T09:30:53.000Z</time>
      </trkpt>
      <trkpt lat="45.58301" lon="6.63407">
        <ele>2036.8000488281</ele>
        <time>2013-01-02T09:31:03.000Z</time>
      </trkpt>
      <trkpt lat="45.58301" lon="6.63405">
        <ele>2037.4000244141</ele>
        <time>2013-01-02T09:31:06.000Z</time>
      </trkpt>
      <trkpt lat="45.58302" lon="6.63395">
        <ele>2039.4000244141</ele>
        <time>2013-01-02T09:31:16.000Z</time>
      </trkpt>
      <trkpt lat="45.58303" lon="6.63387">
        <ele>2040.8000488281</ele>
        <time>2013-01-02T09:31:24.000Z</time>
      </trkpt>
      <trkpt lat="45.58303" lon="6.63378">
        <ele>2043</ele>
        <time>2013-01-02T09:31:33.000Z</time>
      </trkpt>
      <trkpt lat="45.58306" lon="6.63372">
        <ele>2044.8000488281</ele>
        <time>2013-01-02T09:31:40.000Z</time>
      </trkpt>
      <trkpt lat="45.58312" lon="6.63366">
        <ele>2046.8000488281</ele>
        <time>2013-01-02T09:31:49.000Z</time>
      </trkpt>
      <trkpt lat="45.58318" lon="6.63359">
        <ele>2049</ele>
        <time>2013-01-02T09:31:59.000Z</time>
      </trkpt>
      <trkpt lat="45.58319" lon="6.63357">
        <ele>2050</ele>
        <time>2013-01-02T09:32:03.000Z</time>
      </trkpt>
      <trkpt lat="45.58322" lon="6.63354">
        <ele>2051</ele>
        <time>2013-01-02T09:32:10.000Z</time>
      </trkpt>
      <trkpt lat="45.58326" lon="6.6335">
        <ele>2052.8000488281</ele>
        <time>2013-01-02T09:32:19.000Z</time>
      </trkpt>
      <trkpt lat="45.58331" lon="6.63345">
        <ele>2054.3999023438</ele>
        <time>2013-01-02T09:32:27.000Z</time>
      </trkpt>
      <trkpt lat="45.58336" lon="6.6334">
        <ele>2056.8000488281</ele>
        <time>2013-01-02T09:32:35.000Z</time>
      </trkpt>
      <trkpt lat="45.58339" lon="6.63332">
        <ele>2059.3999023438</ele>
        <time>2013-01-02T09:32:45.000Z</time>
      </trkpt>
      <trkpt lat="45.58338" lon="6.63323">
        <ele>2061.6000976562</ele>
        <time>2013-01-02T09:32:56.000Z</time>
      </trkpt>
      <trkpt lat="45.58337" lon="6.63322">
        <ele>2062.3999023438</ele>
        <time>2013-01-02T09:33:00.000Z</time>
      </trkpt>
      <trkpt lat="45.5833" lon="6.63313">
        <ele>2065</ele>
        <time>2013-01-02T09:33:51.000Z</time>
      </trkpt>
      <trkpt lat="45.58326" lon="6.63303">
        <ele>2067.3999023438</ele>
        <time>2013-01-02T09:33:59.000Z</time>
      </trkpt>
      <trkpt lat="45.58321" lon="6.6329">
        <ele>2069.8000488281</ele>
        <time>2013-01-02T09:34:09.000Z</time>
      </trkpt>
      <trkpt lat="45.58314" lon="6.63282">
        <ele>2072.6000976562</ele>
        <time>2013-01-02T09:34:19.000Z</time>
      </trkpt>
      <trkpt lat="45.58309" lon="6.63276">
        <ele>2074.3999023438</ele>
        <time>2013-01-02T09:34:27.000Z</time>
      </trkpt>
      <trkpt lat="45.58304" lon="6.6327">
        <ele>2075.6000976562</ele>
        <time>2013-01-02T09:35:13.000Z</time>
      </trkpt>
      <trkpt lat="45.58297" lon="6.63261">
        <ele>2077.8000488281</ele>
        <time>2013-01-02T09:35:21.000Z</time>
      </trkpt>
      <trkpt lat="45.58292" lon="6.6325">
        <ele>2079.8000488281</ele>
        <time>2013-01-02T09:35:30.000Z</time>
      </trkpt>
      <trkpt lat="45.58289" lon="6.63237">
        <ele>2081.6000976562</ele>
        <time>2013-01-02T09:35:39.000Z</time>
      </trkpt>
      <trkpt lat="45.58288" lon="6.63225">
        <ele>2083.6000976562</ele>
        <time>2013-01-02T09:35:48.000Z</time>
      </trkpt>
      <trkpt lat="45.58287" lon="6.63214">
        <ele>2085.8000488281</ele>
        <time>2013-01-02T09:35:57.000Z</time>
      </trkpt>
      <trkpt lat="45.58286" lon="6.63205">
        <ele>2087.8000488281</ele>
        <time>2013-01-02T09:36:06.000Z</time>
      </trkpt>
      <trkpt lat="45.58283" lon="6.63196">
        <ele>2090</ele>
        <time>2013-01-02T09:36:15.000Z</time>
      </trkpt>
      <trkpt lat="45.5828" lon="6.63188">
        <ele>2092</ele>
        <time>2013-01-02T09:36:24.000Z</time>
      </trkpt>
      <trkpt lat="45.58276" lon="6.63178">
        <ele>2094</ele>
        <time>2013-01-02T09:36:34.000Z</time>
      </trkpt>
      <trkpt lat="45.58272" lon="6.63172">
        <ele>2095</ele>
        <time>2013-01-02T09:36:42.000Z</time>
      </trkpt>
      <trkpt lat="45.58272" lon="6.63172">
        <ele>2095</ele>
        <time>2013-01-02T09:36:43.000Z</time>
      </trkpt>
      <trkpt lat="45.58263" lon="6.6317">
        <ele>2094.1999511719</ele>
        <time>2013-01-02T09:38:44.000Z</time>
      </trkpt>
      <trkpt lat="45.58257" lon="6.63167">
        <ele>2094.3999023438</ele>
        <time>2013-01-02T09:38:51.000Z</time>
      </trkpt>
      <trkpt lat="45.5825" lon="6.63164">
        <ele>2095.6000976562</ele>
        <time>2013-01-02T09:38:59.000Z</time>
      </trkpt>
      <trkpt lat="45.58244" lon="6.6316">
        <ele>2096.1999511719</ele>
        <time>2013-01-02T09:39:04.000Z</time>
      </trkpt>
      <trkpt lat="45.58237" lon="6.63152">
        <ele>2097.1999511719</ele>
        <time>2013-01-02T09:39:12.000Z</time>
      </trkpt>
      <trkpt lat="45.58229" lon="6.63142">
        <ele>2098</ele>
        <time>2013-01-02T09:39:21.000Z</time>
      </trkpt>
      <trkpt lat="45.58222" lon="6.63133">
        <ele>2098.1999511719</ele>
        <time>2013-01-02T09:39:30.000Z</time>
      </trkpt>
      <trkpt lat="45.58216" lon="6.63124">
        <ele>2099.1999511719</ele>
        <time>2013-01-02T09:39:39.000Z</time>
      </trkpt>
      <trkpt lat="45.58208" lon="6.63115">
        <ele>2099.8000488281</ele>
        <time>2013-01-02T09:39:48.000Z</time>
      </trkpt>
      <trkpt lat="45.58202" lon="6.63106">
        <ele>2101.3999023438</ele>
        <time>2013-01-02T09:39:57.000Z</time>
      </trkpt>
      <trkpt lat="45.58197" lon="6.63096">
        <ele>2103.1999511719</ele>
        <time>2013-01-02T09:40:06.000Z</time>
      </trkpt>
      <trkpt lat="45.58194" lon="6.63086">
        <ele>2104.8000488281</ele>
        <time>2013-01-02T09:40:14.000Z</time>
      </trkpt>
      <trkpt lat="45.58189" lon="6.63073">
        <ele>2106.8000488281</ele>
        <time>2013-01-02T09:40:24.000Z</time>
      </trkpt>
      <trkpt lat="45.58186" lon="6.63064">
        <ele>2108.1999511719</ele>
        <time>2013-01-02T09:40:31.000Z</time>
      </trkpt>
      <trkpt lat="45.58182" lon="6.63055">
        <ele>2109.6000976562</ele>
        <time>2013-01-02T09:40:39.000Z</time>
      </trkpt>
      <trkpt lat="45.58179" lon="6.63045">
        <ele>2110.8000488281</ele>
        <time>2013-01-02T09:40:48.000Z</time>
      </trkpt>
      <trkpt lat="45.58176" lon="6.63036">
        <ele>2112</ele>
        <time>2013-01-02T09:40:57.000Z</time>
      </trkpt>
      <trkpt lat="45.58174" lon="6.63029">
        <ele>2113.1999511719</ele>
        <time>2013-01-02T09:41:04.000Z</time>
      </trkpt>
      <trkpt lat="45.58172" lon="6.63022">
        <ele>2114.6000976562</ele>
        <time>2013-01-02T09:41:11.000Z</time>
      </trkpt>
      <trkpt lat="45.5817" lon="6.63015">
        <ele>2116</ele>
        <time>2013-01-02T09:41:19.000Z</time>
      </trkpt>
      <trkpt lat="45.58169" lon="6.63013">
        <ele>2116.6000976562</ele>
        <time>2013-01-02T09:41:23.000Z</time>
      </trkpt>
      <trkpt lat="45.58168" lon="6.63008">
        <ele>2117.3999023438</ele>
        <time>2013-01-02T09:41:30.000Z</time>
      </trkpt>
      <trkpt lat="45.58165" lon="6.63001">
        <ele>2119</ele>
        <time>2013-01-02T09:41:37.000Z</time>
      </trkpt>
      <trkpt lat="45.58162" lon="6.62994">
        <ele>2120.8000488281</ele>
        <time>2013-01-02T09:41:46.000Z</time>
      </trkpt>
      <trkpt lat="45.58158" lon="6.62985">
        <ele>2122.6000976562</ele>
        <time>2013-01-02T09:41:56.000Z</time>
      </trkpt>
      <trkpt lat="45.58156" lon="6.62975">
        <ele>2125</ele>
        <time>2013-01-02T09:42:07.000Z</time>
      </trkpt>
      <trkpt lat="45.58152" lon="6.62968">
        <ele>2126.8000488281</ele>
        <time>2013-01-02T09:42:17.000Z</time>
      </trkpt>
      <trkpt lat="45.58148" lon="6.6296">
        <ele>2129</ele>
        <time>2013-01-02T09:42:27.000Z</time>
      </trkpt>
      <trkpt lat="45.58144" lon="6.62953">
        <ele>2130.6000976562</ele>
        <time>2013-01-02T09:42:35.000Z</time>
      </trkpt>
      <trkpt lat="45.58141" lon="6.62943">
        <ele>2132.6000976562</ele>
        <time>2013-01-02T09:42:44.000Z</time>
      </trkpt>
      <trkpt lat="45.58139" lon="6.62934">
        <ele>2134.1999511719</ele>
        <time>2013-01-02T09:42:53.000Z</time>
      </trkpt>
      <trkpt lat="45.58137" lon="6.62925">
        <ele>2135.3999023438</ele>
        <time>2013-01-02T09:43:01.000Z</time>
      </trkpt>
      <trkpt lat="45.58136" lon="6.62917">
        <ele>2136.8000488281</ele>
        <time>2013-01-02T09:43:09.000Z</time>
      </trkpt>
      <trkpt lat="45.58136" lon="6.62909">
        <ele>2138.1999511719</ele>
        <time>2013-01-02T09:43:18.000Z</time>
      </trkpt>
      <trkpt lat="45.58136" lon="6.62907">
        <ele>2139</ele>
        <time>2013-01-02T09:43:21.000Z</time>
      </trkpt>
      <trkpt lat="45.5814" lon="6.62902">
        <ele>2139.3999023438</ele>
        <time>2013-01-02T09:44:12.000Z</time>
      </trkpt>
      <trkpt lat="45.5814" lon="6.62888">
        <ele>2142</ele>
        <time>2013-01-02T09:44:23.000Z</time>
      </trkpt>
      <trkpt lat="45.58141" lon="6.62875">
        <ele>2144.3999023438</ele>
        <time>2013-01-02T09:44:32.000Z</time>
      </trkpt>
      <trkpt lat="45.58142" lon="6.62866">
        <ele>2145.8000488281</ele>
        <time>2013-01-02T09:44:40.000Z</time>
      </trkpt>
      <trkpt lat="45.58142" lon="6.62863">
        <ele>2146.1999511719</ele>
        <time>2013-01-02T09:44:43.000Z</time>
      </trkpt>
      <trkpt lat="45.58142" lon="6.62859">
        <ele>2146.6000976562</ele>
        <time>2013-01-02T09:44:52.000Z</time>
      </trkpt>
      <trkpt lat="45.58141" lon="6.62857">
        <ele>2146.6000976562</ele>
        <time>2013-01-02T09:44:55.000Z</time>
      </trkpt>
      <trkpt lat="45.58143" lon="6.62848">
        <ele>2147.6000976562</ele>
        <time>2013-01-02T09:45:14.000Z</time>
      </trkpt>
      <trkpt lat="45.58142" lon="6.62843">
        <ele>2146.8000488281</ele>
        <time>2013-01-02T09:45:22.000Z</time>
      </trkpt>
      <trkpt lat="45.58141" lon="6.62839">
        <ele>2146.1999511719</ele>
        <time>2013-01-02T09:45:29.000Z</time>
      </trkpt>
      <trkpt lat="45.58141" lon="6.62837">
        <ele>2145.6000976562</ele>
        <time>2013-01-02T09:45:31.000Z</time>
      </trkpt>
      <trkpt lat="45.5814" lon="6.62834">
        <ele>2144</ele>
        <time>2013-01-02T09:45:36.000Z</time>
      </trkpt>
      <trkpt lat="45.58141" lon="6.62829">
        <ele>2143.8000488281</ele>
        <time>2013-01-02T09:45:46.000Z</time>
      </trkpt>
      <trkpt lat="45.58141" lon="6.62826">
        <ele>2143.6000976562</ele>
        <time>2013-01-02T09:45:50.000Z</time>
      </trkpt>
      <trkpt lat="45.58139" lon="6.62822">
        <ele>2143.3999023438</ele>
        <time>2013-01-02T09:46:02.000Z</time>
      </trkpt>
      <trkpt lat="45.58134" lon="6.62812">
        <ele>2140.8000488281</ele>
        <time>2013-01-02T09:46:08.000Z</time>
      </trkpt>
      <trkpt lat="45.58132" lon="6.62807">
        <ele>2139</ele>
        <time>2013-01-02T09:46:14.000Z</time>
      </trkpt>
      <trkpt lat="45.58132" lon="6.62805">
        <ele>2139</ele>
        <time>2013-01-02T09:46:18.000Z</time>
      </trkpt>
      <trkpt lat="45.58137" lon="6.62793">
        <ele>2139.3999023438</ele>
        <time>2013-01-02T09:49:47.000Z</time>
      </trkpt>
      <trkpt lat="45.58137" lon="6.62793">
        <ele>2139.8000488281</ele>
        <time>2013-01-02T09:49:48.000Z</time>
      </trkpt>
      <trkpt lat="45.58139" lon="6.62789">
        <ele>2140.8000488281</ele>
        <time>2013-01-02T09:49:55.000Z</time>
      </trkpt>
      <trkpt lat="45.58138" lon="6.62785">
        <ele>2141.1999511719</ele>
        <time>2013-01-02T09:50:00.000Z</time>
      </trkpt>
      <trkpt lat="45.58138" lon="6.62778">
        <ele>2142</ele>
        <time>2013-01-02T09:53:10.000Z</time>
      </trkpt>
      <trkpt lat="45.58137" lon="6.62761">
        <ele>2142.6000976562</ele>
        <time>2013-01-02T09:54:17.000Z</time>
      </trkpt>
      <trkpt lat="45.58137" lon="6.62761">
        <ele>2142.6000976562</ele>
        <time>2013-01-02T09:54:18.000Z</time>
      </trkpt>
      <trkpt lat="45.58136" lon="6.62751">
        <ele>2142.6000976562</ele>
        <time>2013-01-02T09:54:27.000Z</time>
      </trkpt>
      <trkpt lat="45.58135" lon="6.62738">
        <ele>2142.3999023438</ele>
        <time>2013-01-02T09:54:37.000Z</time>
      </trkpt>
      <trkpt lat="45.58136" lon="6.62726">
        <ele>2142</ele>
        <time>2013-01-02T09:54:47.000Z</time>
      </trkpt>
      <trkpt lat="45.58136" lon="6.62726">
        <ele>2142</ele>
        <time>2013-01-02T09:54:48.000Z</time>
      </trkpt>
      <trkpt lat="45.58137" lon="6.62717">
        <ele>2142</ele>
        <time>2013-01-02T09:55:10.000Z</time>
      </trkpt>
      <trkpt lat="45.58137" lon="6.6271">
        <ele>2141.8000488281</ele>
        <time>2013-01-02T09:55:18.000Z</time>
      </trkpt>
      <trkpt lat="45.58136" lon="6.62706">
        <ele>2142</ele>
        <time>2013-01-02T09:55:26.000Z</time>
      </trkpt>
      <trkpt lat="45.58135" lon="6.62698">
        <ele>2142.3999023438</ele>
        <time>2013-01-02T09:55:35.000Z</time>
      </trkpt>
      <trkpt lat="45.58135" lon="6.62694">
        <ele>2142.1999511719</ele>
        <time>2013-01-02T09:55:40.000Z</time>
      </trkpt>
      <trkpt lat="45.58135" lon="6.62693">
        <ele>2142.1999511719</ele>
        <time>2013-01-02T09:55:41.000Z</time>
      </trkpt>
      <trkpt lat="45.58136" lon="6.62687">
        <ele>2142.6000976562</ele>
        <time>2013-01-02T09:55:49.000Z</time>
      </trkpt>
      <trkpt lat="45.58137" lon="6.62683">
        <ele>2142.8000488281</ele>
        <time>2013-01-02T09:55:53.000Z</time>
      </trkpt>
      <trkpt lat="45.58138" lon="6.62676">
        <ele>2142.8000488281</ele>
        <time>2013-01-02T09:56:00.000Z</time>
      </trkpt>
      <trkpt lat="45.58137" lon="6.62665">
        <ele>2143.6000976562</ele>
        <time>2013-01-02T09:56:10.000Z</time>
      </trkpt>
      <trkpt lat="45.58138" lon="6.62654">
        <ele>2144</ele>
        <time>2013-01-02T09:56:19.000Z</time>
      </trkpt>
      <trkpt lat="45.58139" lon="6.6264">
        <ele>2145</ele>
        <time>2013-01-02T09:56:29.000Z</time>
      </trkpt>
      <trkpt lat="45.58141" lon="6.62627">
        <ele>2145.1999511719</ele>
        <time>2013-01-02T09:56:38.000Z</time>
      </trkpt>
      <trkpt lat="45.58142" lon="6.62616">
        <ele>2144.1999511719</ele>
        <time>2013-01-02T09:56:47.000Z</time>
      </trkpt>
      <trkpt lat="45.58141" lon="6.62602">
        <ele>2144.3999023438</ele>
        <time>2013-01-02T09:56:57.000Z</time>
      </trkpt>
      <trkpt lat="45.58141" lon="6.62588">
        <ele>2144.8000488281</ele>
        <time>2013-01-02T09:57:07.000Z</time>
      </trkpt>
      <trkpt lat="45.5814" lon="6.62578">
        <ele>2144.8000488281</ele>
        <time>2013-01-02T09:57:15.000Z</time>
      </trkpt>
      <trkpt lat="45.58139" lon="6.62565">
        <ele>2143.3999023438</ele>
        <time>2013-01-02T09:57:24.000Z</time>
      </trkpt>
      <trkpt lat="45.58138" lon="6.62552">
        <ele>2142.6000976562</ele>
        <time>2013-01-02T09:57:34.000Z</time>
      </trkpt>
      <trkpt lat="45.58137" lon="6.62541">
        <ele>2141.8000488281</ele>
        <time>2013-01-02T09:57:41.000Z</time>
      </trkpt>
      <trkpt lat="45.58138" lon="6.62531">
        <ele>2141</ele>
        <time>2013-01-02T09:57:49.000Z</time>
      </trkpt>
      <trkpt lat="45.58139" lon="6.62519">
        <ele>2141.6000976562</ele>
        <time>2013-01-02T09:57:56.000Z</time>
      </trkpt>
      <trkpt lat="45.5814" lon="6.62506">
        <ele>2142.6000976562</ele>
        <time>2013-01-02T09:58:05.000Z</time>
      </trkpt>
      <trkpt lat="45.58143" lon="6.62495">
        <ele>2143.8000488281</ele>
        <time>2013-01-02T09:58:13.000Z</time>
      </trkpt>
      <trkpt lat="45.58145" lon="6.62477">
        <ele>2145.6000976562</ele>
        <time>2013-01-02T09:58:24.000Z</time>
      </trkpt>
      <trkpt lat="45.58146" lon="6.62466">
        <ele>2146.8000488281</ele>
        <time>2013-01-02T09:58:31.000Z</time>
      </trkpt>
      <trkpt lat="45.58147" lon="6.62451">
        <ele>2148.6000976562</ele>
        <time>2013-01-02T09:58:41.000Z</time>
      </trkpt>
      <trkpt lat="45.58147" lon="6.62439">
        <ele>2150.6000976562</ele>
        <time>2013-01-02T09:58:50.000Z</time>
      </trkpt>
      <trkpt lat="45.58147" lon="6.62432">
        <ele>2152.3999023438</ele>
        <time>2013-01-02T09:58:57.000Z</time>
      </trkpt>
      <trkpt lat="45.58147" lon="6.6243">
        <ele>2152.8000488281</ele>
        <time>2013-01-02T09:59:01.000Z</time>
      </trkpt>
      <trkpt lat="45.58147" lon="6.62422">
        <ele>2153.8000488281</ele>
        <time>2013-01-02T09:59:10.000Z</time>
      </trkpt>
      <trkpt lat="45.58147" lon="6.62419">
        <ele>2154.1999511719</ele>
        <time>2013-01-02T09:59:14.000Z</time>
      </trkpt>
      <trkpt lat="45.58147" lon="6.62414">
        <ele>2154.8000488281</ele>
        <time>2013-01-02T09:59:23.000Z</time>
      </trkpt>
      <trkpt lat="45.58147" lon="6.62413">
        <ele>2154.8000488281</ele>
        <time>2013-01-02T09:59:25.000Z</time>
      </trkpt>
      <trkpt lat="45.58147" lon="6.62405">
        <ele>2155.8000488281</ele>
        <time>2013-01-02T09:59:50.000Z</time>
      </trkpt>
      <trkpt lat="45.58146" lon="6.624">
        <ele>2156.6000976562</ele>
        <time>2013-01-02T09:59:56.000Z</time>
      </trkpt>
      <trkpt lat="45.58144" lon="6.62394">
        <ele>2157.1999511719</ele>
        <time>2013-01-02T10:00:04.000Z</time>
      </trkpt>
      <trkpt lat="45.58144" lon="6.62392">
        <ele>2157.6000976562</ele>
        <time>2013-01-02T10:00:07.000Z</time>
      </trkpt>
      <trkpt lat="45.58141" lon="6.62376">
        <ele>2159.8000488281</ele>
        <time>2013-01-02T10:00:58.000Z</time>
      </trkpt>
      <trkpt lat="45.58139" lon="6.6237">
        <ele>2160.8000488281</ele>
        <time>2013-01-02T10:01:05.000Z</time>
      </trkpt>
      <trkpt lat="45.58136" lon="6.62358">
        <ele>2161.8000488281</ele>
        <time>2013-01-02T10:01:14.000Z</time>
      </trkpt>
      <trkpt lat="45.58133" lon="6.62346">
        <ele>2163.1999511719</ele>
        <time>2013-01-02T10:01:23.000Z</time>
      </trkpt>
      <trkpt lat="45.58132" lon="6.62339">
        <ele>2164.6000976562</ele>
        <time>2013-01-02T10:01:29.000Z</time>
      </trkpt>
      <trkpt lat="45.58138" lon="6.62327">
        <ele>2167</ele>
        <time>2013-01-02T10:01:39.000Z</time>
      </trkpt>
      <trkpt lat="45.58146" lon="6.62316">
        <ele>2168.6000976562</ele>
        <time>2013-01-02T10:01:49.000Z</time>
      </trkpt>
      <trkpt lat="45.58153" lon="6.62308">
        <ele>2169.3999023438</ele>
        <time>2013-01-02T10:01:57.000Z</time>
      </trkpt>
      <trkpt lat="45.58156" lon="6.62304">
        <ele>2170</ele>
        <time>2013-01-02T10:02:03.000Z</time>
      </trkpt>
      <trkpt lat="45.58161" lon="6.62295">
        <ele>2170.6000976562</ele>
        <time>2013-01-02T10:04:10.000Z</time>
      </trkpt>
      <trkpt lat="45.58162" lon="6.62294">
        <ele>2171.1999511719</ele>
        <time>2013-01-02T10:04:13.000Z</time>
      </trkpt>
      <trkpt lat="45.58164" lon="6.62291">
        <ele>2171.1999511719</ele>
        <time>2013-01-02T10:04:18.000Z</time>
      </trkpt>
      <trkpt lat="45.58171" lon="6.62284">
        <ele>2173</ele>
        <time>2013-01-02T10:04:28.000Z</time>
      </trkpt>
      <trkpt lat="45.58176" lon="6.62278">
        <ele>2174.1999511719</ele>
        <time>2013-01-02T10:04:35.000Z</time>
      </trkpt>
      <trkpt lat="45.5818" lon="6.62271">
        <ele>2176</ele>
        <time>2013-01-02T10:04:43.000Z</time>
      </trkpt>
      <trkpt lat="45.58185" lon="6.62262">
        <ele>2178</ele>
        <time>2013-01-02T10:04:52.000Z</time>
      </trkpt>
      <trkpt lat="45.58191" lon="6.62254">
        <ele>2180</ele>
        <time>2013-01-02T10:05:00.000Z</time>
      </trkpt>
      <trkpt lat="45.58199" lon="6.6225">
        <ele>2182.1999511719</ele>
        <time>2013-01-02T10:05:09.000Z</time>
      </trkpt>
      <trkpt lat="45.582" lon="6.62248">
        <ele>2183.1999511719</ele>
        <time>2013-01-02T10:05:12.000Z</time>
      </trkpt>
      <trkpt lat="45.58202" lon="6.62246">
        <ele>2184</ele>
        <time>2013-01-02T10:05:24.000Z</time>
      </trkpt>
      <trkpt lat="45.58208" lon="6.62241">
        <ele>2185.3999023438</ele>
        <time>2013-01-02T10:05:52.000Z</time>
      </trkpt>
      <trkpt lat="45.58217" lon="6.62239">
        <ele>2187.8000488281</ele>
        <time>2013-01-02T10:06:00.000Z</time>
      </trkpt>
      <trkpt lat="45.58225" lon="6.62237">
        <ele>2190.3999023438</ele>
        <time>2013-01-02T10:06:09.000Z</time>
      </trkpt>
      <trkpt lat="45.58232" lon="6.62234">
        <ele>2192.6000976562</ele>
        <time>2013-01-02T10:06:17.000Z</time>
      </trkpt>
      <trkpt lat="45.58232" lon="6.62233">
        <ele>2192.8000488281</ele>
        <time>2013-01-02T10:06:18.000Z</time>
      </trkpt>
      <trkpt lat="45.58225" lon="6.62222">
        <ele>2195.3999023438</ele>
        <time>2013-01-02T10:06:29.000Z</time>
      </trkpt>
      <trkpt lat="45.5822" lon="6.62218">
        <ele>2197.1999511719</ele>
        <time>2013-01-02T10:06:36.000Z</time>
      </trkpt>
      <trkpt lat="45.58215" lon="6.62212">
        <ele>2199.3999023438</ele>
        <time>2013-01-02T10:06:45.000Z</time>
      </trkpt>
      <trkpt lat="45.58215" lon="6.62211">
        <ele>2199.6000976562</ele>
        <time>2013-01-02T10:06:46.000Z</time>
      </trkpt>
      <trkpt lat="45.58217" lon="6.62207">
        <ele>2200.1999511719</ele>
        <time>2013-01-02T10:06:52.000Z</time>
      </trkpt>
      <trkpt lat="45.58225" lon="6.62203">
        <ele>2202</ele>
        <time>2013-01-02T10:07:00.000Z</time>
      </trkpt>
      <trkpt lat="45.58232" lon="6.62202">
        <ele>2203.3999023438</ele>
        <time>2013-01-02T10:07:07.000Z</time>
      </trkpt>
      <trkpt lat="45.5824" lon="6.62203">
        <ele>2205</ele>
        <time>2013-01-02T10:07:15.000Z</time>
      </trkpt>
      <trkpt lat="45.5825" lon="6.62206">
        <ele>2207</ele>
        <time>2013-01-02T10:07:25.000Z</time>
      </trkpt>
      <trkpt lat="45.58257" lon="6.6221">
        <ele>2208.3999023438</ele>
        <time>2013-01-02T10:07:32.000Z</time>
      </trkpt>
      <trkpt lat="45.58264" lon="6.62216">
        <ele>2210</ele>
        <time>2013-01-02T10:07:40.000Z</time>
      </trkpt>
      <trkpt lat="45.58272" lon="6.62224">
        <ele>2212.3999023438</ele>
        <time>2013-01-02T10:07:50.000Z</time>
      </trkpt>
      <trkpt lat="45.58278" lon="6.62231">
        <ele>2214.6000976562</ele>
        <time>2013-01-02T10:07:59.000Z</time>
      </trkpt>
      <trkpt lat="45.58283" lon="6.62238">
        <ele>2216.6000976562</ele>
        <time>2013-01-02T10:08:07.000Z</time>
      </trkpt>
      <trkpt lat="45.58288" lon="6.62247">
        <ele>2219</ele>
        <time>2013-01-02T10:08:17.000Z</time>
      </trkpt>
      <trkpt lat="45.58289" lon="6.6225">
        <ele>2219.8000488281</ele>
        <time>2013-01-02T10:08:21.000Z</time>
      </trkpt>
      <trkpt lat="45.58292" lon="6.62247">
        <ele>2221</ele>
        <time>2013-01-02T10:08:29.000Z</time>
      </trkpt>
      <trkpt lat="45.58298" lon="6.62235">
        <ele>2223.6000976562</ele>
        <time>2013-01-02T10:08:41.000Z</time>
      </trkpt>
      <trkpt lat="45.58303" lon="6.62229">
        <ele>2226</ele>
        <time>2013-01-02T10:08:50.000Z</time>
      </trkpt>
      <trkpt lat="45.58305" lon="6.62225">
        <ele>2227.1999511719</ele>
        <time>2013-01-02T10:08:54.000Z</time>
      </trkpt>
      <trkpt lat="45.58307" lon="6.62216">
        <ele>2229.8000488281</ele>
        <time>2013-01-02T10:09:05.000Z</time>
      </trkpt>
      <trkpt lat="45.58308" lon="6.62216">
        <ele>2230</ele>
        <time>2013-01-02T10:09:07.000Z</time>
      </trkpt>
      <trkpt lat="45.58314" lon="6.62222">
        <ele>2232</ele>
        <time>2013-01-02T10:09:16.000Z</time>
      </trkpt>
      <trkpt lat="45.58314" lon="6.62222">
        <ele>2232.1999511719</ele>
        <time>2013-01-02T10:09:17.000Z</time>
      </trkpt>
      <trkpt lat="45.58319" lon="6.6223">
        <ele>2234</ele>
        <time>2013-01-02T10:09:25.000Z</time>
      </trkpt>
      <trkpt lat="45.58319" lon="6.62232">
        <ele>2234.6000976562</ele>
        <time>2013-01-02T10:09:27.000Z</time>
      </trkpt>
      <trkpt lat="45.5832" lon="6.62237">
        <ele>2236</ele>
        <time>2013-01-02T10:09:33.000Z</time>
      </trkpt>
      <trkpt lat="45.58323" lon="6.62234">
        <ele>2237</ele>
        <time>2013-01-02T10:09:43.000Z</time>
      </trkpt>
      <trkpt lat="45.58327" lon="6.62226">
        <ele>2239.1999511719</ele>
        <time>2013-01-02T10:09:52.000Z</time>
      </trkpt>
      <trkpt lat="45.58331" lon="6.62219">
        <ele>2241.1999511719</ele>
        <time>2013-01-02T10:10:01.000Z</time>
      </trkpt>
      <trkpt lat="45.58336" lon="6.62208">
        <ele>2244</ele>
        <time>2013-01-02T10:10:12.000Z</time>
      </trkpt>
      <trkpt lat="45.5834" lon="6.62205">
        <ele>2245.8000488281</ele>
        <time>2013-01-02T10:10:20.000Z</time>
      </trkpt>
      <trkpt lat="45.58345" lon="6.6221">
        <ele>2247.6000976562</ele>
        <time>2013-01-02T10:10:26.000Z</time>
      </trkpt>
      <trkpt lat="45.58346" lon="6.62212">
        <ele>2248</ele>
        <time>2013-01-02T10:10:28.000Z</time>
      </trkpt>
      <trkpt lat="45.5835" lon="6.62219">
        <ele>2250</ele>
        <time>2013-01-02T10:10:36.000Z</time>
      </trkpt>
      <trkpt lat="45.58357" lon="6.62212">
        <ele>2252.3999023438</ele>
        <time>2013-01-02T10:10:55.000Z</time>
      </trkpt>
      <trkpt lat="45.5836" lon="6.62207">
        <ele>2253.6000976562</ele>
        <time>2013-01-02T10:11:01.000Z</time>
      </trkpt>
      <trkpt lat="45.58359" lon="6.62196">
        <ele>2256.1999511719</ele>
        <time>2013-01-02T10:11:12.000Z</time>
      </trkpt>
      <trkpt lat="45.58361" lon="6.62191">
        <ele>2257.3999023438</ele>
        <time>2013-01-02T10:11:41.000Z</time>
      </trkpt>
      <trkpt lat="45.58368" lon="6.62193">
        <ele>2259.3999023438</ele>
        <time>2013-01-02T10:11:50.000Z</time>
      </trkpt>
      <trkpt lat="45.58374" lon="6.62196">
        <ele>2261.1999511719</ele>
        <time>2013-01-02T10:11:58.000Z</time>
      </trkpt>
      <trkpt lat="45.58378" lon="6.62199">
        <ele>2263.1999511719</ele>
        <time>2013-01-02T10:12:07.000Z</time>
      </trkpt>
      <trkpt lat="45.58381" lon="6.62196">
        <ele>2265.3999023438</ele>
        <time>2013-01-02T10:13:04.000Z</time>
      </trkpt>
      <trkpt lat="45.58382" lon="6.62193">
        <ele>2267</ele>
        <time>2013-01-02T10:13:09.000Z</time>
      </trkpt>
      <trkpt lat="45.58389" lon="6.62193">
        <ele>2268.8000488281</ele>
        <time>2013-01-02T10:13:17.000Z</time>
      </trkpt>
      <trkpt lat="45.58396" lon="6.62194">
        <ele>2271.1999511719</ele>
        <time>2013-01-02T10:13:25.000Z</time>
      </trkpt>
      <trkpt lat="45.58399" lon="6.62193">
        <ele>2272</ele>
        <time>2013-01-02T10:13:28.000Z</time>
      </trkpt>
      <trkpt lat="45.58403" lon="6.62189">
        <ele>2274</ele>
        <time>2013-01-02T10:13:36.000Z</time>
      </trkpt>
      <trkpt lat="45.58404" lon="6.62188">
        <ele>2274.1999511719</ele>
        <time>2013-01-02T10:13:40.000Z</time>
      </trkpt>
      <trkpt lat="45.58409" lon="6.62183">
        <ele>2275.8000488281</ele>
        <time>2013-01-02T10:13:50.000Z</time>
      </trkpt>
      <trkpt lat="45.58412" lon="6.62182">
        <ele>2276.8000488281</ele>
        <time>2013-01-02T10:13:56.000Z</time>
      </trkpt>
      <trkpt lat="45.58421" lon="6.62182">
        <ele>2277.8000488281</ele>
        <time>2013-01-02T10:14:05.000Z</time>
      </trkpt>
      <trkpt lat="45.58425" lon="6.62181">
        <ele>2278</ele>
        <time>2013-01-02T10:14:09.000Z</time>
      </trkpt>
      <trkpt lat="45.58435" lon="6.62177">
        <ele>2279.6000976562</ele>
        <time>2013-01-02T10:14:20.000Z</time>
      </trkpt>
      <trkpt lat="45.58446" lon="6.62171">
        <ele>2280.8000488281</ele>
        <time>2013-01-02T10:14:32.000Z</time>
      </trkpt>
      <trkpt lat="45.58451" lon="6.62163">
        <ele>2281.8000488281</ele>
        <time>2013-01-02T10:14:40.000Z</time>
      </trkpt>
      <trkpt lat="45.58456" lon="6.62155">
        <ele>2283.1999511719</ele>
        <time>2013-01-02T10:14:48.000Z</time>
      </trkpt>
      <trkpt lat="45.58463" lon="6.62144">
        <ele>2285.6000976562</ele>
        <time>2013-01-02T10:14:59.000Z</time>
      </trkpt>
      <trkpt lat="45.58472" lon="6.62137">
        <ele>2287.8000488281</ele>
        <time>2013-01-02T10:15:09.000Z</time>
      </trkpt>
      <trkpt lat="45.5848" lon="6.62134">
        <ele>2289.8000488281</ele>
        <time>2013-01-02T10:15:18.000Z</time>
      </trkpt>
      <trkpt lat="45.58489" lon="6.62132">
        <ele>2291.3999023438</ele>
        <time>2013-01-02T10:15:27.000Z</time>
      </trkpt>
      <trkpt lat="45.58497" lon="6.62126">
        <ele>2293.1999511719</ele>
        <time>2013-01-02T10:15:37.000Z</time>
      </trkpt>
      <trkpt lat="45.58504" lon="6.62121">
        <ele>2294.6000976562</ele>
        <time>2013-01-02T10:15:46.000Z</time>
      </trkpt>
      <trkpt lat="45.58512" lon="6.62115">
        <ele>2296.6000976562</ele>
        <time>2013-01-02T10:15:56.000Z</time>
      </trkpt>
      <trkpt lat="45.58519" lon="6.6211">
        <ele>2298.3999023438</ele>
        <time>2013-01-02T10:16:05.000Z</time>
      </trkpt>
      <trkpt lat="45.58526" lon="6.62105">
        <ele>2300.3999023438</ele>
        <time>2013-01-02T10:16:14.000Z</time>
      </trkpt>
      <trkpt lat="45.58533" lon="6.62099">
        <ele>2302.1999511719</ele>
        <time>2013-01-02T10:16:23.000Z</time>
      </trkpt>
      <trkpt lat="45.58541" lon="6.62091">
        <ele>2303.6000976562</ele>
        <time>2013-01-02T10:16:32.000Z</time>
      </trkpt>
      <trkpt lat="45.58548" lon="6.62085">
        <ele>2305.3999023438</ele>
        <time>2013-01-02T10:16:42.000Z</time>
      </trkpt>
      <trkpt lat="45.58554" lon="6.62079">
        <ele>2307.1999511719</ele>
        <time>2013-01-02T10:16:51.000Z</time>
      </trkpt>
      <trkpt lat="45.58559" lon="6.62073">
        <ele>2309</ele>
        <time>2013-01-02T10:16:59.000Z</time>
      </trkpt>
      <trkpt lat="45.58565" lon="6.62065">
        <ele>2310.6000976562</ele>
        <time>2013-01-02T10:17:08.000Z</time>
      </trkpt>
      <trkpt lat="45.58571" lon="6.62058">
        <ele>2312</ele>
        <time>2013-01-02T10:17:16.000Z</time>
      </trkpt>
      <trkpt lat="45.58576" lon="6.62048">
        <ele>2313.6000976562</ele>
        <time>2013-01-02T10:17:25.000Z</time>
      </trkpt>
      <trkpt lat="45.5858" lon="6.62038">
        <ele>2314.6000976562</ele>
        <time>2013-01-02T10:17:33.000Z</time>
      </trkpt>
      <trkpt lat="45.58581" lon="6.62027">
        <ele>2315.8000488281</ele>
        <time>2013-01-02T10:17:41.000Z</time>
      </trkpt>
      <trkpt lat="45.5858" lon="6.62013">
        <ele>2317.3999023438</ele>
        <time>2013-01-02T10:17:51.000Z</time>
      </trkpt>
      <trkpt lat="45.58578" lon="6.62003">
        <ele>2318.6000976562</ele>
        <time>2013-01-02T10:17:59.000Z</time>
      </trkpt>
      <trkpt lat="45.58574" lon="6.61991">
        <ele>2320.1999511719</ele>
        <time>2013-01-02T10:18:09.000Z</time>
      </trkpt>
      <trkpt lat="45.58572" lon="6.61987">
        <ele>2320.8000488281</ele>
        <time>2013-01-02T10:18:14.000Z</time>
      </trkpt>
      <trkpt lat="45.58571" lon="6.61983">
        <ele>2321</ele>
        <time>2013-01-02T10:18:18.000Z</time>
      </trkpt>
      <trkpt lat="45.58569" lon="6.61977">
        <ele>2321.6000976562</ele>
        <time>2013-01-02T10:18:25.000Z</time>
      </trkpt>
      <trkpt lat="45.58566" lon="6.61971">
        <ele>2322.1999511719</ele>
        <time>2013-01-02T10:18:33.000Z</time>
      </trkpt>
      <trkpt lat="45.58564" lon="6.61961">
        <ele>2323.8000488281</ele>
        <time>2013-01-02T10:18:41.000Z</time>
      </trkpt>
      <trkpt lat="45.58559" lon="6.61952">
        <ele>2325.8000488281</ele>
        <time>2013-01-02T10:18:49.000Z</time>
      </trkpt>
      <trkpt lat="45.58555" lon="6.61944">
        <ele>2327.6000976562</ele>
        <time>2013-01-02T10:18:57.000Z</time>
      </trkpt>
      <trkpt lat="45.58552" lon="6.61936">
        <ele>2329.6000976562</ele>
        <time>2013-01-02T10:19:05.000Z</time>
      </trkpt>
      <trkpt lat="45.58549" lon="6.61928">
        <ele>2330.8000488281</ele>
        <time>2013-01-02T10:19:12.000Z</time>
      </trkpt>
      <trkpt lat="45.5855" lon="6.61923">
        <ele>2332</ele>
        <time>2013-01-02T10:19:18.000Z</time>
      </trkpt>
      <trkpt lat="45.58558" lon="6.6192">
        <ele>2333.6000976562</ele>
        <time>2013-01-02T10:19:26.000Z</time>
      </trkpt>
      <trkpt lat="45.58558" lon="6.6192">
        <ele>2334</ele>
        <time>2013-01-02T10:19:27.000Z</time>
      </trkpt>
      <trkpt lat="45.58568" lon="6.61922">
        <ele>2336.1999511719</ele>
        <time>2013-01-02T10:19:51.000Z</time>
      </trkpt>
      <trkpt lat="45.5857" lon="6.61922">
        <ele>2337.1999511719</ele>
        <time>2013-01-02T10:19:55.000Z</time>
      </trkpt>
      <trkpt lat="45.58576" lon="6.61919">
        <ele>2338.1999511719</ele>
        <time>2013-01-02T10:23:09.000Z</time>
      </trkpt>
      <trkpt lat="45.58577" lon="6.61915">
        <ele>2339.3999023438</ele>
        <time>2013-01-02T10:23:16.000Z</time>
      </trkpt>
      <trkpt lat="45.58577" lon="6.61915">
        <ele>2339.8000488281</ele>
        <time>2013-01-02T10:23:18.000Z</time>
      </trkpt>
      <trkpt lat="45.58579" lon="6.61909">
        <ele>2341.1999511719</ele>
        <time>2013-01-02T10:23:30.000Z</time>
      </trkpt>
      <trkpt lat="45.58583" lon="6.61904">
        <ele>2341.8000488281</ele>
        <time>2013-01-02T10:23:45.000Z</time>
      </trkpt>
      <trkpt lat="45.58587" lon="6.619">
        <ele>2343.3999023438</ele>
        <time>2013-01-02T10:23:54.000Z</time>
      </trkpt>
      <trkpt lat="45.58589" lon="6.61899">
        <ele>2344.1999511719</ele>
        <time>2013-01-02T10:23:58.000Z</time>
      </trkpt>
      <trkpt lat="45.58599" lon="6.61898">
        <ele>2345.8000488281</ele>
        <time>2013-01-02T10:24:09.000Z</time>
      </trkpt>
      <trkpt lat="45.58603" lon="6.61899">
        <ele>2346.6000976562</ele>
        <time>2013-01-02T10:24:14.000Z</time>
      </trkpt>
      <trkpt lat="45.58609" lon="6.61904">
        <ele>2348</ele>
        <time>2013-01-02T10:24:23.000Z</time>
      </trkpt>
      <trkpt lat="45.58614" lon="6.61913">
        <ele>2349.3999023438</ele>
        <time>2013-01-02T10:24:32.000Z</time>
      </trkpt>
      <trkpt lat="45.58618" lon="6.61921">
        <ele>2351.1999511719</ele>
        <time>2013-01-02T10:24:41.000Z</time>
      </trkpt>
      <trkpt lat="45.58623" lon="6.61928">
        <ele>2352.3999023438</ele>
        <time>2013-01-02T10:24:49.000Z</time>
      </trkpt>
      <trkpt lat="45.58626" lon="6.61935">
        <ele>2354.8000488281</ele>
        <time>2013-01-02T10:24:57.000Z</time>
      </trkpt>
      <trkpt lat="45.58632" lon="6.61942">
        <ele>2357.1999511719</ele>
        <time>2013-01-02T10:25:09.000Z</time>
      </trkpt>
      <trkpt lat="45.58638" lon="6.61947">
        <ele>2359.6000976562</ele>
        <time>2013-01-02T10:25:19.000Z</time>
      </trkpt>
      <trkpt lat="45.58645" lon="6.61952">
        <ele>2361.8000488281</ele>
        <time>2013-01-02T10:25:30.000Z</time>
      </trkpt>
      <trkpt lat="45.5865" lon="6.61957">
        <ele>2363.6000976562</ele>
        <time>2013-01-02T10:25:39.000Z</time>
      </trkpt>
      <trkpt lat="45.58653" lon="6.61964">
        <ele>2365.1999511719</ele>
        <time>2013-01-02T10:25:48.000Z</time>
      </trkpt>
      <trkpt lat="45.58657" lon="6.6197">
        <ele>2366.6000976562</ele>
        <time>2013-01-02T10:25:56.000Z</time>
      </trkpt>
      <trkpt lat="45.5866" lon="6.61975">
        <ele>2368.1999511719</ele>
        <time>2013-01-02T10:26:05.000Z</time>
      </trkpt>
      <trkpt lat="45.58664" lon="6.6198">
        <ele>2369.6000976562</ele>
        <time>2013-01-02T10:26:13.000Z</time>
      </trkpt>
      <trkpt lat="45.58666" lon="6.61984">
        <ele>2370.8000488281</ele>
        <time>2013-01-02T10:26:20.000Z</time>
      </trkpt>
      <trkpt lat="45.58669" lon="6.61989">
        <ele>2372.1999511719</ele>
        <time>2013-01-02T10:26:27.000Z</time>
      </trkpt>
      <trkpt lat="45.58669" lon="6.6199">
        <ele>2373</ele>
        <time>2013-01-02T10:26:32.000Z</time>
      </trkpt>
      <trkpt lat="45.58671" lon="6.61985">
        <ele>2373.6000976562</ele>
        <time>2013-01-02T10:26:37.000Z</time>
      </trkpt>
      <trkpt lat="45.58671" lon="6.61974">
        <ele>2375.3999023438</ele>
        <time>2013-01-02T10:26:47.000Z</time>
      </trkpt>
      <trkpt lat="45.58673" lon="6.61963">
        <ele>2377.3999023438</ele>
        <time>2013-01-02T10:26:58.000Z</time>
      </trkpt>
      <trkpt lat="45.58675" lon="6.61955">
        <ele>2379</ele>
        <time>2013-01-02T10:27:07.000Z</time>
      </trkpt>
      <trkpt lat="45.58678" lon="6.61945">
        <ele>2381</ele>
        <time>2013-01-02T10:27:18.000Z</time>
      </trkpt>
      <trkpt lat="45.58678" lon="6.61939">
        <ele>2381.8000488281</ele>
        <time>2013-01-02T10:27:24.000Z</time>
      </trkpt>
      <trkpt lat="45.58679" lon="6.61928">
        <ele>2383.8000488281</ele>
        <time>2013-01-02T10:27:35.000Z</time>
      </trkpt>
      <trkpt lat="45.5868" lon="6.6192">
        <ele>2385.3999023438</ele>
        <time>2013-01-02T10:27:45.000Z</time>
      </trkpt>
      <trkpt lat="45.58681" lon="6.61913">
        <ele>2387</ele>
        <time>2013-01-02T10:27:54.000Z</time>
      </trkpt>
      <trkpt lat="45.58683" lon="6.61911">
        <ele>2388</ele>
        <time>2013-01-02T10:27:59.000Z</time>
      </trkpt>
      <trkpt lat="45.58692" lon="6.61911">
        <ele>2389.6000976562</ele>
        <time>2013-01-02T10:28:10.000Z</time>
      </trkpt>
      <trkpt lat="45.58696" lon="6.61907">
        <ele>2391.6000976562</ele>
        <time>2013-01-02T10:28:19.000Z</time>
      </trkpt>
      <trkpt lat="45.58698" lon="6.61903">
        <ele>2392.3999023438</ele>
        <time>2013-01-02T10:28:26.000Z</time>
      </trkpt>
      <trkpt lat="45.58699" lon="6.619">
        <ele>2393</ele>
        <time>2013-01-02T10:28:31.000Z</time>
      </trkpt>
      <trkpt lat="45.587" lon="6.61901">
        <ele>2393.3999023438</ele>
        <time>2013-01-02T10:28:34.000Z</time>
      </trkpt>
      <trkpt lat="45.58701" lon="6.61903">
        <ele>2393.6000976562</ele>
        <time>2013-01-02T10:28:39.000Z</time>
      </trkpt>
      <trkpt lat="45.58703" lon="6.61907">
        <ele>2394.3999023438</ele>
        <time>2013-01-02T10:28:43.000Z</time>
      </trkpt>
      <trkpt lat="45.58707" lon="6.61917">
        <ele>2396.3999023438</ele>
        <time>2013-01-02T10:28:53.000Z</time>
      </trkpt>
      <trkpt lat="45.5871" lon="6.61923">
        <ele>2398</ele>
        <time>2013-01-02T10:29:01.000Z</time>
      </trkpt>
      <trkpt lat="45.58714" lon="6.61931">
        <ele>2400.1999511719</ele>
        <time>2013-01-02T10:29:11.000Z</time>
      </trkpt>
      <trkpt lat="45.58717" lon="6.61937">
        <ele>2402</ele>
        <time>2013-01-02T10:29:20.000Z</time>
      </trkpt>
      <trkpt lat="45.58722" lon="6.6194">
        <ele>2404.3999023438</ele>
        <time>2013-01-02T10:29:30.000Z</time>
      </trkpt>
      <trkpt lat="45.58726" lon="6.61939">
        <ele>2406.3999023438</ele>
        <time>2013-01-02T10:29:39.000Z</time>
      </trkpt>
      <trkpt lat="45.58728" lon="6.61935">
        <ele>2408.1999511719</ele>
        <time>2013-01-02T10:29:47.000Z</time>
      </trkpt>
      <trkpt lat="45.58729" lon="6.61931">
        <ele>2409.8000488281</ele>
        <time>2013-01-02T10:29:55.000Z</time>
      </trkpt>
      <trkpt lat="45.5873" lon="6.61928">
        <ele>2410.1999511719</ele>
        <time>2013-01-02T10:30:14.000Z</time>
      </trkpt>
      <trkpt lat="45.58735" lon="6.61931">
        <ele>2411.8000488281</ele>
        <time>2013-01-02T10:30:22.000Z</time>
      </trkpt>
      <trkpt lat="45.58741" lon="6.61935">
        <ele>2414.1999511719</ele>
        <time>2013-01-02T10:30:33.000Z</time>
      </trkpt>
      <trkpt lat="45.58746" lon="6.61939">
        <ele>2416</ele>
        <time>2013-01-02T10:30:43.000Z</time>
      </trkpt>
      <trkpt lat="45.58752" lon="6.61945">
        <ele>2418.1999511719</ele>
        <time>2013-01-02T10:30:54.000Z</time>
      </trkpt>
      <trkpt lat="45.58758" lon="6.61951">
        <ele>2420.6000976562</ele>
        <time>2013-01-02T10:31:07.000Z</time>
      </trkpt>
      <trkpt lat="45.58763" lon="6.61957">
        <ele>2422.3999023438</ele>
        <time>2013-01-02T10:31:17.000Z</time>
      </trkpt>
      <trkpt lat="45.58764" lon="6.61959">
        <ele>2423</ele>
        <time>2013-01-02T10:31:22.000Z</time>
      </trkpt>
      <trkpt lat="45.58765" lon="6.61951">
        <ele>2424.1999511719</ele>
        <time>2013-01-02T10:31:32.000Z</time>
      </trkpt>
      <trkpt lat="45.58769" lon="6.61944">
        <ele>2426.8000488281</ele>
        <time>2013-01-02T10:31:43.000Z</time>
      </trkpt>
      <trkpt lat="45.58773" lon="6.61939">
        <ele>2428.1999511719</ele>
        <time>2013-01-02T10:31:51.000Z</time>
      </trkpt>
      <trkpt lat="45.58778" lon="6.61935">
        <ele>2429.6000976562</ele>
        <time>2013-01-02T10:32:00.000Z</time>
      </trkpt>
      <trkpt lat="45.5878" lon="6.61931">
        <ele>2430.3999023438</ele>
        <time>2013-01-02T10:32:06.000Z</time>
      </trkpt>
      <trkpt lat="45.58781" lon="6.61928">
        <ele>2431</ele>
        <time>2013-01-02T10:32:12.000Z</time>
      </trkpt>
      <trkpt lat="45.58781" lon="6.61923">
        <ele>2431.3999023438</ele>
        <time>2013-01-02T10:34:17.000Z</time>
      </trkpt>
      <trkpt lat="45.58783" lon="6.61917">
        <ele>2432.8000488281</ele>
        <time>2013-01-02T10:34:27.000Z</time>
      </trkpt>
      <trkpt lat="45.58786" lon="6.61912">
        <ele>2434.6000976562</ele>
        <time>2013-01-02T10:34:34.000Z</time>
      </trkpt>
      <trkpt lat="45.58788" lon="6.61909">
        <ele>2434.6000976562</ele>
        <time>2013-01-02T10:34:56.000Z</time>
      </trkpt>
      <trkpt lat="45.58789" lon="6.61905">
        <ele>2436.1999511719</ele>
        <time>2013-01-02T10:35:02.000Z</time>
      </trkpt>
      <trkpt lat="45.58789" lon="6.61904">
        <ele>2436.1999511719</ele>
        <time>2013-01-02T10:35:03.000Z</time>
      </trkpt>
      <trkpt lat="45.5879" lon="6.61891">
        <ele>2439.3999023438</ele>
        <time>2013-01-02T10:35:16.000Z</time>
      </trkpt>
      <trkpt lat="45.5879" lon="6.61888">
        <ele>2440.1999511719</ele>
        <time>2013-01-02T10:35:20.000Z</time>
      </trkpt>
      <trkpt lat="45.5879" lon="6.61883">
        <ele>2441</ele>
        <time>2013-01-02T10:35:31.000Z</time>
      </trkpt>
      <trkpt lat="45.5879" lon="6.61874">
        <ele>2443.3999023438</ele>
        <time>2013-01-02T10:35:38.000Z</time>
      </trkpt>
      <trkpt lat="45.58792" lon="6.61865">
        <ele>2446.1999511719</ele>
        <time>2013-01-02T10:35:46.000Z</time>
      </trkpt>
      <trkpt lat="45.58796" lon="6.61853">
        <ele>2447.1999511719</ele>
        <time>2013-01-02T10:35:56.000Z</time>
      </trkpt>
      <trkpt lat="45.58799" lon="6.61845">
        <ele>2449</ele>
        <time>2013-01-02T10:36:06.000Z</time>
      </trkpt>
      <trkpt lat="45.58802" lon="6.61837">
        <ele>2451.3999023438</ele>
        <time>2013-01-02T10:36:16.000Z</time>
      </trkpt>
      <trkpt lat="45.58805" lon="6.61826">
        <ele>2454.1999511719</ele>
        <time>2013-01-02T10:36:27.000Z</time>
      </trkpt>
      <trkpt lat="45.58809" lon="6.61818">
        <ele>2456.3999023438</ele>
        <time>2013-01-02T10:36:35.000Z</time>
      </trkpt>
      <trkpt lat="45.58813" lon="6.61812">
        <ele>2459.1999511719</ele>
        <time>2013-01-02T10:36:44.000Z</time>
      </trkpt>
      <trkpt lat="45.58818" lon="6.61809">
        <ele>2460.1999511719</ele>
        <time>2013-01-02T10:36:53.000Z</time>
      </trkpt>
      <trkpt lat="45.58822" lon="6.61814">
        <ele>2461.3999023438</ele>
        <time>2013-01-02T10:37:01.000Z</time>
      </trkpt>
      <trkpt lat="45.58822" lon="6.61815">
        <ele>2461.8000488281</ele>
        <time>2013-01-02T10:37:03.000Z</time>
      </trkpt>
      <trkpt lat="45.58824" lon="6.6182">
        <ele>2462.8000488281</ele>
        <time>2013-01-02T10:37:07.000Z</time>
      </trkpt>
      <trkpt lat="45.58827" lon="6.61827">
        <ele>2463.6000976562</ele>
        <time>2013-01-02T10:37:14.000Z</time>
      </trkpt>
      <trkpt lat="45.58831" lon="6.61837">
        <ele>2465.1999511719</ele>
        <time>2013-01-02T10:37:25.000Z</time>
      </trkpt>
      <trkpt lat="45.58831" lon="6.61837">
        <ele>2465.6000976562</ele>
        <time>2013-01-02T10:37:27.000Z</time>
      </trkpt>
      <trkpt lat="45.58833" lon="6.61834">
        <ele>2466.3999023438</ele>
        <time>2013-01-02T10:37:33.000Z</time>
      </trkpt>
      <trkpt lat="45.58837" lon="6.61826">
        <ele>2468.8000488281</ele>
        <time>2013-01-02T10:37:43.000Z</time>
      </trkpt>
      <trkpt lat="45.58842" lon="6.6182">
        <ele>2471</ele>
        <time>2013-01-02T10:37:52.000Z</time>
      </trkpt>
      <trkpt lat="45.58842" lon="6.61819">
        <ele>2471.3999023438</ele>
        <time>2013-01-02T10:37:53.000Z</time>
      </trkpt>
      <trkpt lat="45.58846" lon="6.61816">
        <ele>2472.8000488281</ele>
        <time>2013-01-02T10:38:01.000Z</time>
      </trkpt>
      <trkpt lat="45.58846" lon="6.61817">
        <ele>2472.8000488281</ele>
        <time>2013-01-02T10:38:02.000Z</time>
      </trkpt>
      <trkpt lat="45.58848" lon="6.61824">
        <ele>2474</ele>
        <time>2013-01-02T10:38:10.000Z</time>
      </trkpt>
      <trkpt lat="45.58851" lon="6.61828">
        <ele>2475.6000976562</ele>
        <time>2013-01-02T10:38:17.000Z</time>
      </trkpt>
      <trkpt lat="45.58856" lon="6.61824">
        <ele>2477.3999023438</ele>
        <time>2013-01-02T10:38:26.000Z</time>
      </trkpt>
      <trkpt lat="45.5886" lon="6.61819">
        <ele>2479.3999023438</ele>
        <time>2013-01-02T10:38:36.000Z</time>
      </trkpt>
      <trkpt lat="45.58861" lon="6.61821">
        <ele>2480.6000976562</ele>
        <time>2013-01-02T10:38:41.000Z</time>
      </trkpt>
      <trkpt lat="45.58863" lon="6.61819">
        <ele>2481.3999023438</ele>
        <time>2013-01-02T10:38:48.000Z</time>
      </trkpt>
      <trkpt lat="45.58867" lon="6.61815">
        <ele>2483.1999511719</ele>
        <time>2013-01-02T10:38:55.000Z</time>
      </trkpt>
      <trkpt lat="45.58871" lon="6.61812">
        <ele>2485.3999023438</ele>
        <time>2013-01-02T10:39:04.000Z</time>
      </trkpt>
      <trkpt lat="45.58878" lon="6.61807">
        <ele>2487.3999023438</ele>
        <time>2013-01-02T10:39:14.000Z</time>
      </trkpt>
      <trkpt lat="45.58883" lon="6.61803">
        <ele>2488.6000976562</ele>
        <time>2013-01-02T10:39:21.000Z</time>
      </trkpt>
      <trkpt lat="45.5889" lon="6.61798">
        <ele>2490.3999023438</ele>
        <time>2013-01-02T10:39:30.000Z</time>
      </trkpt>
      <trkpt lat="45.58895" lon="6.61794">
        <ele>2491.6000976562</ele>
        <time>2013-01-02T10:39:37.000Z</time>
      </trkpt>
      <trkpt lat="45.58903" lon="6.61786">
        <ele>2492.8000488281</ele>
        <time>2013-01-02T10:39:46.000Z</time>
      </trkpt>
      <trkpt lat="45.58909" lon="6.61775">
        <ele>2493.1999511719</ele>
        <time>2013-01-02T10:39:54.000Z</time>
      </trkpt>
      <trkpt lat="45.58913" lon="6.61764">
        <ele>2492.6000976562</ele>
        <time>2013-01-02T10:40:01.000Z</time>
      </trkpt>
      <trkpt lat="45.58915" lon="6.61754">
        <ele>2494.6000976562</ele>
        <time>2013-01-02T10:40:10.000Z</time>
      </trkpt>
      <trkpt lat="45.58919" lon="6.61739">
        <ele>2497</ele>
        <time>2013-01-02T10:40:21.000Z</time>
      </trkpt>
      <trkpt lat="45.58922" lon="6.61727">
        <ele>2495.8000488281</ele>
        <time>2013-01-02T10:40:28.000Z</time>
      </trkpt>
      <trkpt lat="45.58923" lon="6.61709">
        <ele>2494.6000976562</ele>
        <time>2013-01-02T10:40:37.000Z</time>
      </trkpt>
      <trkpt lat="45.58923" lon="6.61692">
        <ele>2494.6000976562</ele>
        <time>2013-01-02T10:40:46.000Z</time>
      </trkpt>
      <trkpt lat="45.58922" lon="6.61681">
        <ele>2495.3999023438</ele>
        <time>2013-01-02T10:40:54.000Z</time>
      </trkpt>
      <trkpt lat="45.58921" lon="6.61669">
        <ele>2496.1999511719</ele>
        <time>2013-01-02T10:41:02.000Z</time>
      </trkpt>
      <trkpt lat="45.5892" lon="6.61654">
        <ele>2497.6000976562</ele>
        <time>2013-01-02T10:41:12.000Z</time>
      </trkpt>
      <trkpt lat="45.58922" lon="6.61649">
        <ele>2500</ele>
        <time>2013-01-02T10:41:19.000Z</time>
      </trkpt>
      <trkpt lat="45.58926" lon="6.61647">
        <ele>2501.8000488281</ele>
        <time>2013-01-02T10:41:26.000Z</time>
      </trkpt>
      <trkpt lat="45.5893" lon="6.61642">
        <ele>2503.6000976562</ele>
        <time>2013-01-02T10:41:35.000Z</time>
      </trkpt>
      <trkpt lat="45.58929" lon="6.61638">
        <ele>2505.3999023438</ele>
        <time>2013-01-02T10:41:42.000Z</time>
      </trkpt>
      <trkpt lat="45.58925" lon="6.61633">
        <ele>2506.8000488281</ele>
        <time>2013-01-02T10:41:49.000Z</time>
      </trkpt>
      <trkpt lat="45.58923" lon="6.61627">
        <ele>2508.1999511719</ele>
        <time>2013-01-02T10:41:57.000Z</time>
      </trkpt>
      <trkpt lat="45.58923" lon="6.61626">
        <ele>2509</ele>
        <time>2013-01-02T10:42:00.000Z</time>
      </trkpt>
      <trkpt lat="45.58926" lon="6.61624">
        <ele>2510</ele>
        <time>2013-01-02T10:42:08.000Z</time>
      </trkpt>
      <trkpt lat="45.58931" lon="6.61619">
        <ele>2511.6000976562</ele>
        <time>2013-01-02T10:42:18.000Z</time>
      </trkpt>
      <trkpt lat="45.5893" lon="6.61613">
        <ele>2512.6000976562</ele>
        <time>2013-01-02T10:42:25.000Z</time>
      </trkpt>
      <trkpt lat="45.58926" lon="6.61607">
        <ele>2514.8000488281</ele>
        <time>2013-01-02T10:42:33.000Z</time>
      </trkpt>
      <trkpt lat="45.58922" lon="6.61603">
        <ele>2516.1999511719</ele>
        <time>2013-01-02T10:42:42.000Z</time>
      </trkpt>
      <trkpt lat="45.58919" lon="6.61599">
        <ele>2517</ele>
        <time>2013-01-02T10:42:49.000Z</time>
      </trkpt>
      <trkpt lat="45.58918" lon="6.61598">
        <ele>2517.6000976562</ele>
        <time>2013-01-02T10:42:52.000Z</time>
      </trkpt>
      <trkpt lat="45.5892" lon="6.61594">
        <ele>2518.3999023438</ele>
        <time>2013-01-02T10:42:58.000Z</time>
      </trkpt>
      <trkpt lat="45.58932" lon="6.61594">
        <ele>2518.8000488281</ele>
        <time>2013-01-02T10:43:09.000Z</time>
      </trkpt>
      <trkpt lat="45.5894" lon="6.61594">
        <ele>2519.3999023438</ele>
        <time>2013-01-02T10:43:19.000Z</time>
      </trkpt>
      <trkpt lat="45.58942" lon="6.61596">
        <ele>2519.8000488281</ele>
        <time>2013-01-02T10:43:25.000Z</time>
      </trkpt>
      <trkpt lat="45.58947" lon="6.61599">
        <ele>2517.8000488281</ele>
        <time>2013-01-02T10:51:31.000Z</time>
      </trkpt>
      <trkpt lat="45.58948" lon="6.61599">
        <ele>2517.8000488281</ele>
        <time>2013-01-02T10:51:32.000Z</time>
      </trkpt>
      <trkpt lat="45.58957" lon="6.61596">
        <ele>2515.6000976562</ele>
        <time>2013-01-02T10:51:39.000Z</time>
      </trkpt>
      <trkpt lat="45.58974" lon="6.61587">
        <ele>2510</ele>
        <time>2013-01-02T10:51:45.000Z</time>
      </trkpt>
      <trkpt lat="45.5898" lon="6.61583">
        <ele>2508.3999023438</ele>
        <time>2013-01-02T10:51:51.000Z</time>
      </trkpt>
      <trkpt lat="45.58985" lon="6.61582">
        <ele>2506.3999023438</ele>
        <time>2013-01-02T10:51:57.000Z</time>
      </trkpt>
      <trkpt lat="45.58992" lon="6.61578">
        <ele>2504.6000976562</ele>
        <time>2013-01-02T10:52:02.000Z</time>
      </trkpt>
      <trkpt lat="45.58995" lon="6.61577">
        <ele>2502.6000976562</ele>
        <time>2013-01-02T10:52:06.000Z</time>
      </trkpt>
      <trkpt lat="45.59" lon="6.61575">
        <ele>2501.6000976562</ele>
        <time>2013-01-02T10:52:14.000Z</time>
      </trkpt>
      <trkpt lat="45.59011" lon="6.61571">
        <ele>2500.6000976562</ele>
        <time>2013-01-02T10:52:22.000Z</time>
      </trkpt>
      <trkpt lat="45.59012" lon="6.61571">
        <ele>2500.3999023438</ele>
        <time>2013-01-02T10:52:24.000Z</time>
      </trkpt>
      <trkpt lat="45.59016" lon="6.61569">
        <ele>2500.3999023438</ele>
        <time>2013-01-02T10:52:35.000Z</time>
      </trkpt>
      <trkpt lat="45.59028" lon="6.61564">
        <ele>2498.6000976562</ele>
        <time>2013-01-02T10:52:41.000Z</time>
      </trkpt>
      <trkpt lat="45.59038" lon="6.6156">
        <ele>2493.8000488281</ele>
        <time>2013-01-02T10:52:46.000Z</time>
      </trkpt>
      <trkpt lat="45.5904" lon="6.6156">
        <ele>2493.1999511719</ele>
        <time>2013-01-02T10:52:48.000Z</time>
      </trkpt>
      <trkpt lat="45.59049" lon="6.61557">
        <ele>2491.8000488281</ele>
        <time>2013-01-02T10:52:54.000Z</time>
      </trkpt>
      <trkpt lat="45.59054" lon="6.61553">
        <ele>2491.3999023438</ele>
        <time>2013-01-02T10:53:00.000Z</time>
      </trkpt>
      <trkpt lat="45.59057" lon="6.61551">
        <ele>2491.6000976562</ele>
        <time>2013-01-02T10:53:06.000Z</time>
      </trkpt>
      <trkpt lat="45.59059" lon="6.61553">
        <ele>2492</ele>
        <time>2013-01-02T10:53:13.000Z</time>
      </trkpt>
      <trkpt lat="45.59067" lon="6.6155">
        <ele>2492.1999511719</ele>
        <time>2013-01-02T10:53:22.000Z</time>
      </trkpt>
      <trkpt lat="45.59073" lon="6.61546">
        <ele>2493.1999511719</ele>
        <time>2013-01-02T10:53:29.000Z</time>
      </trkpt>
      <trkpt lat="45.59079" lon="6.61545">
        <ele>2494.6000976562</ele>
        <time>2013-01-02T10:53:36.000Z</time>
      </trkpt>
      <trkpt lat="45.5908" lon="6.61543">
        <ele>2495.3999023438</ele>
        <time>2013-01-02T10:53:39.000Z</time>
      </trkpt>
      <trkpt lat="45.59085" lon="6.61542">
        <ele>2495.6000976562</ele>
        <time>2013-01-02T10:53:47.000Z</time>
      </trkpt>
      <trkpt lat="45.59095" lon="6.61539">
        <ele>2497.1999511719</ele>
        <time>2013-01-02T10:53:58.000Z</time>
      </trkpt>
      <trkpt lat="45.59107" lon="6.61537">
        <ele>2498</ele>
        <time>2013-01-02T10:55:43.000Z</time>
      </trkpt>
      <trkpt lat="45.59114" lon="6.61534">
        <ele>2500</ele>
        <time>2013-01-02T10:55:51.000Z</time>
      </trkpt>
      <trkpt lat="45.59124" lon="6.6153">
        <ele>2499.8000488281</ele>
        <time>2013-01-02T10:56:00.000Z</time>
      </trkpt>
      <trkpt lat="45.59132" lon="6.61529">
        <ele>2501</ele>
        <time>2013-01-02T10:56:08.000Z</time>
      </trkpt>
      <trkpt lat="45.59141" lon="6.61528">
        <ele>2502</ele>
        <time>2013-01-02T10:56:16.000Z</time>
      </trkpt>
      <trkpt lat="45.59141" lon="6.61529">
        <ele>2502.1999511719</ele>
        <time>2013-01-02T10:56:18.000Z</time>
      </trkpt>
      <trkpt lat="45.59146" lon="6.6153">
        <ele>2503.6000976562</ele>
        <time>2013-01-02T10:56:26.000Z</time>
      </trkpt>
      <trkpt lat="45.59151" lon="6.61531">
        <ele>2505.3999023438</ele>
        <time>2013-01-02T10:56:32.000Z</time>
      </trkpt>
      <trkpt lat="45.59158" lon="6.6153">
        <ele>2507.3999023438</ele>
        <time>2013-01-02T10:56:39.000Z</time>
      </trkpt>
      <trkpt lat="45.59164" lon="6.6153">
        <ele>2509.3999023438</ele>
        <time>2013-01-02T10:56:47.000Z</time>
      </trkpt>
      <trkpt lat="45.59168" lon="6.6153">
        <ele>2511.3999023438</ele>
        <time>2013-01-02T10:56:55.000Z</time>
      </trkpt>
      <trkpt lat="45.59173" lon="6.6153">
        <ele>2513</ele>
        <time>2013-01-02T10:57:02.000Z</time>
      </trkpt>
      <trkpt lat="45.59176" lon="6.61529">
        <ele>2514.8000488281</ele>
        <time>2013-01-02T10:57:08.000Z</time>
      </trkpt>
      <trkpt lat="45.59178" lon="6.61527">
        <ele>2515.8000488281</ele>
        <time>2013-01-02T10:57:13.000Z</time>
      </trkpt>
      <trkpt lat="45.59182" lon="6.61527">
        <ele>2517.6000976562</ele>
        <time>2013-01-02T10:57:20.000Z</time>
      </trkpt>
      <trkpt lat="45.59187" lon="6.61525">
        <ele>2519.6000976562</ele>
        <time>2013-01-02T10:57:29.000Z</time>
      </trkpt>
      <trkpt lat="45.59192" lon="6.61523">
        <ele>2521.6000976562</ele>
        <time>2013-01-02T10:57:38.000Z</time>
      </trkpt>
      <trkpt lat="45.59197" lon="6.61521">
        <ele>2523</ele>
        <time>2013-01-02T10:57:46.000Z</time>
      </trkpt>
      <trkpt lat="45.59204" lon="6.61521">
        <ele>2525.3999023438</ele>
        <time>2013-01-02T10:57:57.000Z</time>
      </trkpt>
      <trkpt lat="45.5921" lon="6.61521">
        <ele>2527.6000976562</ele>
        <time>2013-01-02T10:58:07.000Z</time>
      </trkpt>
      <trkpt lat="45.59214" lon="6.61524">
        <ele>2529.8000488281</ele>
        <time>2013-01-02T10:58:15.000Z</time>
      </trkpt>
      <trkpt lat="45.59219" lon="6.61525">
        <ele>2531.6000976562</ele>
        <time>2013-01-02T10:58:23.000Z</time>
      </trkpt>
      <trkpt lat="45.59222" lon="6.61525">
        <ele>2532.3999023438</ele>
        <time>2013-01-02T10:58:27.000Z</time>
      </trkpt>
      <trkpt lat="45.59231" lon="6.6152">
        <ele>2533.6000976562</ele>
        <time>2013-01-02T10:58:38.000Z</time>
      </trkpt>
      <trkpt lat="45.59237" lon="6.61515">
        <ele>2534.3999023438</ele>
        <time>2013-01-02T10:58:46.000Z</time>
      </trkpt>
      <trkpt lat="45.59244" lon="6.61511">
        <ele>2536.1999511719</ele>
        <time>2013-01-02T10:58:55.000Z</time>
      </trkpt>
      <trkpt lat="45.59248" lon="6.61506">
        <ele>2538</ele>
        <time>2013-01-02T10:59:04.000Z</time>
      </trkpt>
      <trkpt lat="45.59252" lon="6.61507">
        <ele>2539.8000488281</ele>
        <time>2013-01-02T10:59:11.000Z</time>
      </trkpt>
      <trkpt lat="45.59259" lon="6.61512">
        <ele>2540.1999511719</ele>
        <time>2013-01-02T10:59:20.000Z</time>
      </trkpt>
      <trkpt lat="45.59267" lon="6.61515">
        <ele>2541.1999511719</ele>
        <time>2013-01-02T10:59:30.000Z</time>
      </trkpt>
      <trkpt lat="45.59274" lon="6.61518">
        <ele>2541.8000488281</ele>
        <time>2013-01-02T10:59:38.000Z</time>
      </trkpt>
      <trkpt lat="45.59281" lon="6.61518">
        <ele>2544</ele>
        <time>2013-01-02T10:59:48.000Z</time>
      </trkpt>
      <trkpt lat="45.5929" lon="6.6152">
        <ele>2546.1999511719</ele>
        <time>2013-01-02T10:59:58.000Z</time>
      </trkpt>
      <trkpt lat="45.59298" lon="6.6152">
        <ele>2548.3999023438</ele>
        <time>2013-01-02T11:00:08.000Z</time>
      </trkpt>
      <trkpt lat="45.59304" lon="6.6152">
        <ele>2550.1999511719</ele>
        <time>2013-01-02T11:00:16.000Z</time>
      </trkpt>
      <trkpt lat="45.5931" lon="6.61523">
        <ele>2552.1999511719</ele>
        <time>2013-01-02T11:00:25.000Z</time>
      </trkpt>
      <trkpt lat="45.59318" lon="6.61525">
        <ele>2554.3999023438</ele>
        <time>2013-01-02T11:00:35.000Z</time>
      </trkpt>
      <trkpt lat="45.59325" lon="6.61524">
        <ele>2555.8000488281</ele>
        <time>2013-01-02T11:00:43.000Z</time>
      </trkpt>
      <trkpt lat="45.59334" lon="6.61521">
        <ele>2556.3999023438</ele>
        <time>2013-01-02T11:00:51.000Z</time>
      </trkpt>
      <trkpt lat="45.5934" lon="6.61517">
        <ele>2557.1999511719</ele>
        <time>2013-01-02T11:00:59.000Z</time>
      </trkpt>
      <trkpt lat="45.59349" lon="6.61511">
        <ele>2558.6000976562</ele>
        <time>2013-01-02T11:01:08.000Z</time>
      </trkpt>
      <trkpt lat="45.59357" lon="6.61509">
        <ele>2559.8000488281</ele>
        <time>2013-01-02T11:01:16.000Z</time>
      </trkpt>
      <trkpt lat="45.59366" lon="6.61509">
        <ele>2561</ele>
        <time>2013-01-02T11:01:25.000Z</time>
      </trkpt>
      <trkpt lat="45.59374" lon="6.61511">
        <ele>2562.6000976562</ele>
        <time>2013-01-02T11:01:34.000Z</time>
      </trkpt>
      <trkpt lat="45.59381" lon="6.61511">
        <ele>2563.8000488281</ele>
        <time>2013-01-02T11:01:42.000Z</time>
      </trkpt>
      <trkpt lat="45.59387" lon="6.61511">
        <ele>2565.1999511719</ele>
        <time>2013-01-02T11:01:50.000Z</time>
      </trkpt>
      <trkpt lat="45.59396" lon="6.61511">
        <ele>2567.1999511719</ele>
        <time>2013-01-02T11:02:00.000Z</time>
      </trkpt>
      <trkpt lat="45.59403" lon="6.6151">
        <ele>2568.6000976562</ele>
        <time>2013-01-02T11:02:09.000Z</time>
      </trkpt>
      <trkpt lat="45.5941" lon="6.61512">
        <ele>2570.3999023438</ele>
        <time>2013-01-02T11:02:18.000Z</time>
      </trkpt>
      <trkpt lat="45.59417" lon="6.61511">
        <ele>2572.1999511719</ele>
        <time>2013-01-02T11:02:27.000Z</time>
      </trkpt>
      <trkpt lat="45.59424" lon="6.61511">
        <ele>2574.3999023438</ele>
        <time>2013-01-02T11:02:36.000Z</time>
      </trkpt>
      <trkpt lat="45.5943" lon="6.61511">
        <ele>2576</ele>
        <time>2013-01-02T11:02:43.000Z</time>
      </trkpt>
      <trkpt lat="45.59437" lon="6.61512">
        <ele>2577.1999511719</ele>
        <time>2013-01-02T11:02:52.000Z</time>
      </trkpt>
      <trkpt lat="45.59444" lon="6.61513">
        <ele>2578.6000976562</ele>
        <time>2013-01-02T11:03:00.000Z</time>
      </trkpt>
      <trkpt lat="45.59446" lon="6.61514">
        <ele>2578.8000488281</ele>
        <time>2013-01-02T11:03:03.000Z</time>
      </trkpt>
      <trkpt lat="45.59449" lon="6.61516">
        <ele>2578.8000488281</ele>
        <time>2013-01-02T11:03:46.000Z</time>
      </trkpt>
      <trkpt lat="45.59452" lon="6.61511">
        <ele>2576.6000976562</ele>
        <time>2013-01-02T11:16:44.000Z</time>
      </trkpt>
      <trkpt lat="45.59457" lon="6.61512">
        <ele>2576</ele>
        <time>2013-01-02T11:16:51.000Z</time>
      </trkpt>
      <trkpt lat="45.59472" lon="6.61514">
        <ele>2574</ele>
        <time>2013-01-02T11:17:08.000Z</time>
      </trkpt>
      <trkpt lat="45.59478" lon="6.61519">
        <ele>2570</ele>
        <time>2013-01-02T11:17:13.000Z</time>
      </trkpt>
      <trkpt lat="45.59479" lon="6.61516">
        <ele>2564.8000488281</ele>
        <time>2013-01-02T11:23:29.000Z</time>
      </trkpt>
      <trkpt lat="45.59479" lon="6.61518">
        <ele>2564.3999023438</ele>
        <time>2013-01-02T11:23:32.000Z</time>
      </trkpt>
      <trkpt lat="45.59481" lon="6.61525">
        <ele>2562.6000976562</ele>
        <time>2013-01-02T11:24:13.000Z</time>
      </trkpt>
      <trkpt lat="45.59482" lon="6.61528">
        <ele>2560.8000488281</ele>
        <time>2013-01-02T11:24:17.000Z</time>
      </trkpt>
      <trkpt lat="45.59492" lon="6.61526">
        <ele>2555.1999511719</ele>
        <time>2013-01-02T11:24:27.000Z</time>
      </trkpt>
      <trkpt lat="45.59499" lon="6.61522">
        <ele>2551.6000976562</ele>
        <time>2013-01-02T11:24:30.000Z</time>
      </trkpt>
      <trkpt lat="45.595" lon="6.61518">
        <ele>2547.8000488281</ele>
        <time>2013-01-02T11:24:33.000Z</time>
      </trkpt>
      <trkpt lat="45.59505" lon="6.61512">
        <ele>2543.6000976562</ele>
        <time>2013-01-02T11:24:44.000Z</time>
      </trkpt>
      <trkpt lat="45.59505" lon="6.61511">
        <ele>2540.8000488281</ele>
        <time>2013-01-02T11:24:46.000Z</time>
      </trkpt>
      <trkpt lat="45.59504" lon="6.61505">
        <ele>2539.3999023438</ele>
        <time>2013-01-02T11:24:54.000Z</time>
      </trkpt>
      <trkpt lat="45.59503" lon="6.61501">
        <ele>2536</ele>
        <time>2013-01-02T11:24:58.000Z</time>
      </trkpt>
      <trkpt lat="45.59511" lon="6.61504">
        <ele>2533.1999511719</ele>
        <time>2013-01-02T11:25:11.000Z</time>
      </trkpt>
      <trkpt lat="45.59515" lon="6.61502">
        <ele>2531</ele>
        <time>2013-01-02T11:25:13.000Z</time>
      </trkpt>
      <trkpt lat="45.59517" lon="6.61497">
        <ele>2529</ele>
        <time>2013-01-02T11:25:15.000Z</time>
      </trkpt>
      <trkpt lat="45.59521" lon="6.61492">
        <ele>2527</ele>
        <time>2013-01-02T11:25:18.000Z</time>
      </trkpt>
      <trkpt lat="45.59526" lon="6.61487">
        <ele>2520.1999511719</ele>
        <time>2013-01-02T11:25:22.000Z</time>
      </trkpt>
      <trkpt lat="45.5953" lon="6.61484">
        <ele>2519</ele>
        <time>2013-01-02T11:25:24.000Z</time>
      </trkpt>
      <trkpt lat="45.59529" lon="6.61481">
        <ele>2513.6000976562</ele>
        <time>2013-01-02T11:25:27.000Z</time>
      </trkpt>
      <trkpt lat="45.59528" lon="6.61482">
        <ele>2512.1999511719</ele>
        <time>2013-01-02T11:25:29.000Z</time>
      </trkpt>
      <trkpt lat="45.59527" lon="6.61482">
        <ele>2512.1999511719</ele>
        <time>2013-01-02T11:25:32.000Z</time>
      </trkpt>
      <trkpt lat="45.59525" lon="6.61481">
        <ele>2511.8000488281</ele>
        <time>2013-01-02T11:25:38.000Z</time>
      </trkpt>
      <trkpt lat="45.59528" lon="6.61477">
        <ele>2510.8000488281</ele>
        <time>2013-01-02T11:25:50.000Z</time>
      </trkpt>
      <trkpt lat="45.59521" lon="6.61479">
        <ele>2510.6000976562</ele>
        <time>2013-01-02T11:26:00.000Z</time>
      </trkpt>
      <trkpt lat="45.59521" lon="6.61479">
        <ele>2510.6000976562</ele>
        <time>2013-01-02T11:26:01.000Z</time>
      </trkpt>
      <trkpt lat="45.59521" lon="6.61473">
        <ele>2509.1999511719</ele>
        <time>2013-01-02T11:26:09.000Z</time>
      </trkpt>
      <trkpt lat="45.59521" lon="6.61472">
        <ele>2507.8000488281</ele>
        <time>2013-01-02T11:26:11.000Z</time>
      </trkpt>
      <trkpt lat="45.59518" lon="6.6147">
        <ele>2504.1999511719</ele>
        <time>2013-01-02T11:26:34.000Z</time>
      </trkpt>
      <trkpt lat="45.59521" lon="6.61458">
        <ele>2501.1999511719</ele>
        <time>2013-01-02T11:26:39.000Z</time>
      </trkpt>
      <trkpt lat="45.59521" lon="6.61458">
        <ele>2500</ele>
        <time>2013-01-02T11:26:40.000Z</time>
      </trkpt>
      <trkpt lat="45.59534" lon="6.6145">
        <ele>2497</ele>
        <time>2013-01-02T11:26:53.000Z</time>
      </trkpt>
      <trkpt lat="45.59537" lon="6.61444">
        <ele>2492.8000488281</ele>
        <time>2013-01-02T11:26:56.000Z</time>
      </trkpt>
      <trkpt lat="45.59538" lon="6.61443">
        <ele>2488.3999023438</ele>
        <time>2013-01-02T11:27:00.000Z</time>
      </trkpt>
      <trkpt lat="45.59541" lon="6.61438">
        <ele>2485.8000488281</ele>
        <time>2013-01-02T11:27:06.000Z</time>
      </trkpt>
      <trkpt lat="45.59544" lon="6.61436">
        <ele>2481.8000488281</ele>
        <time>2013-01-02T11:27:09.000Z</time>
      </trkpt>
      <trkpt lat="45.59542" lon="6.61438">
        <ele>2480.6000976562</ele>
        <time>2013-01-02T11:27:14.000Z</time>
      </trkpt>
      <trkpt lat="45.59539" lon="6.61441">
        <ele>2480.8000488281</ele>
        <time>2013-01-02T11:27:18.000Z</time>
      </trkpt>
      <trkpt lat="45.59546" lon="6.61435">
        <ele>2479.3999023438</ele>
        <time>2013-01-02T11:27:22.000Z</time>
      </trkpt>
      <trkpt lat="45.5955" lon="6.61433">
        <ele>2476</ele>
        <time>2013-01-02T11:27:24.000Z</time>
      </trkpt>
      <trkpt lat="45.5955" lon="6.61431">
        <ele>2470.3999023438</ele>
        <time>2013-01-02T11:27:30.000Z</time>
      </trkpt>
      <trkpt lat="45.59555" lon="6.61424">
        <ele>2467.3999023438</ele>
        <time>2013-01-02T11:27:36.000Z</time>
      </trkpt>
      <trkpt lat="45.59558" lon="6.61416">
        <ele>2463</ele>
        <time>2013-01-02T11:27:39.000Z</time>
      </trkpt>
      <trkpt lat="45.59563" lon="6.61412">
        <ele>2459.8000488281</ele>
        <time>2013-01-02T11:27:42.000Z</time>
      </trkpt>
      <trkpt lat="45.59563" lon="6.61408">
        <ele>2455.6000976562</ele>
        <time>2013-01-02T11:27:45.000Z</time>
      </trkpt>
      <trkpt lat="45.59562" lon="6.61409">
        <ele>2454.1999511719</ele>
        <time>2013-01-02T11:27:49.000Z</time>
      </trkpt>
      <trkpt lat="45.59562" lon="6.61409">
        <ele>2454.3999023438</ele>
        <time>2013-01-02T11:27:51.000Z</time>
      </trkpt>
      <trkpt lat="45.59573" lon="6.614">
        <ele>2447.8000488281</ele>
        <time>2013-01-02T11:28:18.000Z</time>
      </trkpt>
      <trkpt lat="45.59578" lon="6.61395">
        <ele>2445.1999511719</ele>
        <time>2013-01-02T11:28:21.000Z</time>
      </trkpt>
      <trkpt lat="45.59579" lon="6.61391">
        <ele>2439.6000976562</ele>
        <time>2013-01-02T11:28:24.000Z</time>
      </trkpt>
      <trkpt lat="45.59579" lon="6.61391">
        <ele>2438.1999511719</ele>
        <time>2013-01-02T11:28:25.000Z</time>
      </trkpt>
      <trkpt lat="45.59587" lon="6.61388">
        <ele>2435</ele>
        <time>2013-01-02T11:28:31.000Z</time>
      </trkpt>
      <trkpt lat="45.59586" lon="6.61384">
        <ele>2433.3999023438</ele>
        <time>2013-01-02T11:28:33.000Z</time>
      </trkpt>
      <trkpt lat="45.59593" lon="6.61374">
        <ele>2427.6000976562</ele>
        <time>2013-01-02T11:28:37.000Z</time>
      </trkpt>
      <trkpt lat="45.59599" lon="6.61372">
        <ele>2422.3999023438</ele>
        <time>2013-01-02T11:28:40.000Z</time>
      </trkpt>
      <trkpt lat="45.59604" lon="6.61365">
        <ele>2418.1999511719</ele>
        <time>2013-01-02T11:28:43.000Z</time>
      </trkpt>
      <trkpt lat="45.59607" lon="6.61363">
        <ele>2412.1999511719</ele>
        <time>2013-01-02T11:28:47.000Z</time>
      </trkpt>
      <trkpt lat="45.59606" lon="6.61362">
        <ele>2410.8000488281</ele>
        <time>2013-01-02T11:28:49.000Z</time>
      </trkpt>
      <trkpt lat="45.59617" lon="6.61365">
        <ele>2406.1999511719</ele>
        <time>2013-01-02T11:28:54.000Z</time>
      </trkpt>
      <trkpt lat="45.5963" lon="6.61358">
        <ele>2398.6000976562</ele>
        <time>2013-01-02T11:28:58.000Z</time>
      </trkpt>
      <trkpt lat="45.59632" lon="6.61354">
        <ele>2393.1999511719</ele>
        <time>2013-01-02T11:29:01.000Z</time>
      </trkpt>
      <trkpt lat="45.59629" lon="6.61354">
        <ele>2391.1999511719</ele>
        <time>2013-01-02T11:29:04.000Z</time>
      </trkpt>
      <trkpt lat="45.59627" lon="6.61355">
        <ele>2391.1999511719</ele>
        <time>2013-01-02T11:29:10.000Z</time>
      </trkpt>
      <trkpt lat="45.5964" lon="6.61336">
        <ele>2387.1999511719</ele>
        <time>2013-01-02T11:29:29.000Z</time>
      </trkpt>
      <trkpt lat="45.59647" lon="6.6133">
        <ele>2384</ele>
        <time>2013-01-02T11:29:31.000Z</time>
      </trkpt>
      <trkpt lat="45.59653" lon="6.61323">
        <ele>2379.1999511719</ele>
        <time>2013-01-02T11:29:33.000Z</time>
      </trkpt>
      <trkpt lat="45.59665" lon="6.6131">
        <ele>2370.1999511719</ele>
        <time>2013-01-02T11:29:37.000Z</time>
      </trkpt>
      <trkpt lat="45.5967" lon="6.6131">
        <ele>2362.3999023438</ele>
        <time>2013-01-02T11:29:41.000Z</time>
      </trkpt>
      <trkpt lat="45.59669" lon="6.61311">
        <ele>2361</ele>
        <time>2013-01-02T11:29:42.000Z</time>
      </trkpt>
      <trkpt lat="45.59666" lon="6.61319">
        <ele>2359.3999023438</ele>
        <time>2013-01-02T11:29:49.000Z</time>
      </trkpt>
      <trkpt lat="45.59668" lon="6.61318">
        <ele>2359.3999023438</ele>
        <time>2013-01-02T11:29:52.000Z</time>
      </trkpt>
      <trkpt lat="45.59657" lon="6.61324">
        <ele>2359.3999023438</ele>
        <time>2013-01-02T11:30:05.000Z</time>
      </trkpt>
      <trkpt lat="45.59656" lon="6.61324">
        <ele>2359.3999023438</ele>
        <time>2013-01-02T11:30:07.000Z</time>
      </trkpt>
      <trkpt lat="45.59667" lon="6.6132">
        <ele>2356.1999511719</ele>
        <time>2013-01-02T11:30:12.000Z</time>
      </trkpt>
      <trkpt lat="45.59667" lon="6.61316">
        <ele>2353.6000976562</ele>
        <time>2013-01-02T11:30:15.000Z</time>
      </trkpt>
      <trkpt lat="45.59677" lon="6.61313">
        <ele>2353</ele>
        <time>2013-01-02T11:31:02.000Z</time>
      </trkpt>
      <trkpt lat="45.59678" lon="6.61315">
        <ele>2353.1999511719</ele>
        <time>2013-01-02T11:31:04.000Z</time>
      </trkpt>
      <trkpt lat="45.59687" lon="6.61298">
        <ele>2350.3999023438</ele>
        <time>2013-01-02T11:31:20.000Z</time>
      </trkpt>
      <trkpt lat="45.59693" lon="6.61287">
        <ele>2346.1999511719</ele>
        <time>2013-01-02T11:31:23.000Z</time>
      </trkpt>
      <trkpt lat="45.59696" lon="6.61278">
        <ele>2338.6000976562</ele>
        <time>2013-01-02T11:31:28.000Z</time>
      </trkpt>
      <trkpt lat="45.59703" lon="6.61281">
        <ele>2334.3999023438</ele>
        <time>2013-01-02T11:31:31.000Z</time>
      </trkpt>
      <trkpt lat="45.59701" lon="6.61279">
        <ele>2331.6000976562</ele>
        <time>2013-01-02T11:31:35.000Z</time>
      </trkpt>
      <trkpt lat="45.59698" lon="6.61278">
        <ele>2331.6000976562</ele>
        <time>2013-01-02T11:31:41.000Z</time>
      </trkpt>
      <trkpt lat="45.59699" lon="6.61275">
        <ele>2330.1999511719</ele>
        <time>2013-01-02T11:31:45.000Z</time>
      </trkpt>
      <trkpt lat="45.59699" lon="6.61276">
        <ele>2329.1999511719</ele>
        <time>2013-01-02T11:31:48.000Z</time>
      </trkpt>
      <trkpt lat="45.59706" lon="6.61274">
        <ele>2329.1999511719</ele>
        <time>2013-01-02T11:32:04.000Z</time>
      </trkpt>
      <trkpt lat="45.59713" lon="6.61267">
        <ele>2326.8000488281</ele>
        <time>2013-01-02T11:32:09.000Z</time>
      </trkpt>
      <trkpt lat="45.59721" lon="6.61261">
        <ele>2322.3999023438</ele>
        <time>2013-01-02T11:32:12.000Z</time>
      </trkpt>
      <trkpt lat="45.5973" lon="6.61256">
        <ele>2317.1999511719</ele>
        <time>2013-01-02T11:32:15.000Z</time>
      </trkpt>
      <trkpt lat="45.59741" lon="6.61256">
        <ele>2310.3999023438</ele>
        <time>2013-01-02T11:32:19.000Z</time>
      </trkpt>
      <trkpt lat="45.59749" lon="6.61259">
        <ele>2306.8000488281</ele>
        <time>2013-01-02T11:32:22.000Z</time>
      </trkpt>
      <trkpt lat="45.59753" lon="6.61257">
        <ele>2304.1999511719</ele>
        <time>2013-01-02T11:32:27.000Z</time>
      </trkpt>
      <trkpt lat="45.59747" lon="6.61259">
        <ele>2304.1999511719</ele>
        <time>2013-01-02T11:32:32.000Z</time>
      </trkpt>
      <trkpt lat="45.59748" lon="6.61259">
        <ele>2304.1999511719</ele>
        <time>2013-01-02T11:32:38.000Z</time>
      </trkpt>
      <trkpt lat="45.59746" lon="6.61261">
        <ele>2304.1999511719</ele>
        <time>2013-01-02T11:32:45.000Z</time>
      </trkpt>
      <trkpt lat="45.59758" lon="6.61253">
        <ele>2300.8000488281</ele>
        <time>2013-01-02T11:33:11.000Z</time>
      </trkpt>
      <trkpt lat="45.59755" lon="6.61249">
        <ele>2298</ele>
        <time>2013-01-02T11:33:15.000Z</time>
      </trkpt>
      <trkpt lat="45.59755" lon="6.61248">
        <ele>2297.8000488281</ele>
        <time>2013-01-02T11:33:16.000Z</time>
      </trkpt>
      <trkpt lat="45.59755" lon="6.61247">
        <ele>2297</ele>
        <time>2013-01-02T11:33:18.000Z</time>
      </trkpt>
      <trkpt lat="45.59767" lon="6.6122">
        <ele>2290.3999023438</ele>
        <time>2013-01-02T11:33:35.000Z</time>
      </trkpt>
      <trkpt lat="45.59772" lon="6.61208">
        <ele>2287.1999511719</ele>
        <time>2013-01-02T11:33:38.000Z</time>
      </trkpt>
      <trkpt lat="45.59783" lon="6.61197">
        <ele>2282.8000488281</ele>
        <time>2013-01-02T11:33:41.000Z</time>
      </trkpt>
      <trkpt lat="45.59803" lon="6.6119">
        <ele>2275.6000976562</ele>
        <time>2013-01-02T11:33:45.000Z</time>
      </trkpt>
      <trkpt lat="45.59823" lon="6.61182">
        <ele>2269</ele>
        <time>2013-01-02T11:33:50.000Z</time>
      </trkpt>
      <trkpt lat="45.59842" lon="6.61174">
        <ele>2263.1999511719</ele>
        <time>2013-01-02T11:33:55.000Z</time>
      </trkpt>
      <trkpt lat="45.59854" lon="6.61173">
        <ele>2259.6000976562</ele>
        <time>2013-01-02T11:33:59.000Z</time>
      </trkpt>
      <trkpt lat="45.59855" lon="6.61175">
        <ele>2257</ele>
        <time>2013-01-02T11:34:03.000Z</time>
      </trkpt>
      <trkpt lat="45.59854" lon="6.61175">
        <ele>2256.8000488281</ele>
        <time>2013-01-02T11:34:04.000Z</time>
      </trkpt>
      <trkpt lat="45.59846" lon="6.61177">
        <ele>2256.6000976562</ele>
        <time>2013-01-02T11:34:08.000Z</time>
      </trkpt>
      <trkpt lat="45.59848" lon="6.61171">
        <ele>2256.6000976562</ele>
        <time>2013-01-02T11:34:11.000Z</time>
      </trkpt>
      <trkpt lat="45.59856" lon="6.61159">
        <ele>2254.6000976562</ele>
        <time>2013-01-02T11:34:14.000Z</time>
      </trkpt>
      <trkpt lat="45.59876" lon="6.61151">
        <ele>2247.3999023438</ele>
        <time>2013-01-02T11:34:17.000Z</time>
      </trkpt>
      <trkpt lat="45.59894" lon="6.61143">
        <ele>2237.8000488281</ele>
        <time>2013-01-02T11:34:21.000Z</time>
      </trkpt>
      <trkpt lat="45.59898" lon="6.61141">
        <ele>2234.1999511719</ele>
        <time>2013-01-02T11:34:24.000Z</time>
      </trkpt>
      <trkpt lat="45.59904" lon="6.61139">
        <ele>2233.1999511719</ele>
        <time>2013-01-02T11:34:32.000Z</time>
      </trkpt>
      <trkpt lat="45.59903" lon="6.61138">
        <ele>2231.3999023438</ele>
        <time>2013-01-02T11:34:35.000Z</time>
      </trkpt>
      <trkpt lat="45.59899" lon="6.61136">
        <ele>2227.8000488281</ele>
        <time>2013-01-02T11:34:40.000Z</time>
      </trkpt>
      <trkpt lat="45.59905" lon="6.61122">
        <ele>2227.8000488281</ele>
        <time>2013-01-02T11:34:45.000Z</time>
      </trkpt>
      <trkpt lat="45.59907" lon="6.61113">
        <ele>2224.8000488281</ele>
        <time>2013-01-02T11:34:47.000Z</time>
      </trkpt>
      <trkpt lat="45.59918" lon="6.6111">
        <ele>2219.3999023438</ele>
        <time>2013-01-02T11:34:50.000Z</time>
      </trkpt>
      <trkpt lat="45.59929" lon="6.61102">
        <ele>2212.3999023438</ele>
        <time>2013-01-02T11:34:53.000Z</time>
      </trkpt>
      <trkpt lat="45.59956" lon="6.611">
        <ele>2201.6000976562</ele>
        <time>2013-01-02T11:34:58.000Z</time>
      </trkpt>
      <trkpt lat="45.59982" lon="6.611">
        <ele>2193</ele>
        <time>2013-01-02T11:35:02.000Z</time>
      </trkpt>
      <trkpt lat="45.59986" lon="6.61101">
        <ele>2190.1999511719</ele>
        <time>2013-01-02T11:35:05.000Z</time>
      </trkpt>
      <trkpt lat="45.59985" lon="6.611">
        <ele>2190</ele>
        <time>2013-01-02T11:35:06.000Z</time>
      </trkpt>
      <trkpt lat="45.59986" lon="6.61091">
        <ele>2190</ele>
        <time>2013-01-02T11:35:13.000Z</time>
      </trkpt>
      <trkpt lat="45.59983" lon="6.61094">
        <ele>2190.1999511719</ele>
        <time>2013-01-02T11:35:20.000Z</time>
      </trkpt>
      <trkpt lat="45.59982" lon="6.61095">
        <ele>2190.1999511719</ele>
        <time>2013-01-02T11:35:21.000Z</time>
      </trkpt>
      <trkpt lat="45.59974" lon="6.61097">
        <ele>2190.1999511719</ele>
        <time>2013-01-02T11:35:31.000Z</time>
      </trkpt>
      <trkpt lat="45.59991" lon="6.61108">
        <ele>2188.8000488281</ele>
        <time>2013-01-02T11:35:48.000Z</time>
      </trkpt>
      <trkpt lat="45.6" lon="6.61118">
        <ele>2187</ele>
        <time>2013-01-02T11:35:50.000Z</time>
      </trkpt>
      <trkpt lat="45.60027" lon="6.61153">
        <ele>2180.3999023438</ele>
        <time>2013-01-02T11:35:55.000Z</time>
      </trkpt>
      <trkpt lat="45.60042" lon="6.61164">
        <ele>2178</ele>
        <time>2013-01-02T11:35:57.000Z</time>
      </trkpt>
      <trkpt lat="45.6006" lon="6.6118">
        <ele>2172.6000976562</ele>
        <time>2013-01-02T11:36:00.000Z</time>
      </trkpt>
      <trkpt lat="45.60068" lon="6.61199">
        <ele>2170.6000976562</ele>
        <time>2013-01-02T11:36:03.000Z</time>
      </trkpt>
      <trkpt lat="45.60075" lon="6.61217">
        <ele>2168.8000488281</ele>
        <time>2013-01-02T11:36:07.000Z</time>
      </trkpt>
      <trkpt lat="45.60082" lon="6.61228">
        <ele>2167.6000976562</ele>
        <time>2013-01-02T11:36:11.000Z</time>
      </trkpt>
      <trkpt lat="45.60088" lon="6.61226">
        <ele>2167.1999511719</ele>
        <time>2013-01-02T11:36:14.000Z</time>
      </trkpt>
      <trkpt lat="45.60096" lon="6.61238">
        <ele>2165.6000976562</ele>
        <time>2013-01-02T11:36:19.000Z</time>
      </trkpt>
      <trkpt lat="45.60098" lon="6.61243">
        <ele>2165.1999511719</ele>
        <time>2013-01-02T11:36:20.000Z</time>
      </trkpt>
      <trkpt lat="45.60101" lon="6.61255">
        <ele>2163.3999023438</ele>
        <time>2013-01-02T11:36:22.000Z</time>
      </trkpt>
      <trkpt lat="45.601" lon="6.6128">
        <ele>2160.8000488281</ele>
        <time>2013-01-02T11:36:25.000Z</time>
      </trkpt>
      <trkpt lat="45.60097" lon="6.61293">
        <ele>2154.6000976562</ele>
        <time>2013-01-02T11:36:29.000Z</time>
      </trkpt>
      <trkpt lat="45.601" lon="6.61291">
        <ele>2153.8000488281</ele>
        <time>2013-01-02T11:36:31.000Z</time>
      </trkpt>
      <trkpt lat="45.60102" lon="6.61289">
        <ele>2153.8000488281</ele>
        <time>2013-01-02T11:36:32.000Z</time>
      </trkpt>
      <trkpt lat="45.60106" lon="6.61313">
        <ele>2150.6000976562</ele>
        <time>2013-01-02T11:36:38.000Z</time>
      </trkpt>
      <trkpt lat="45.60126" lon="6.61348">
        <ele>2142.1999511719</ele>
        <time>2013-01-02T11:36:43.000Z</time>
      </trkpt>
      <trkpt lat="45.60129" lon="6.61356">
        <ele>2140.6000976562</ele>
        <time>2013-01-02T11:36:44.000Z</time>
      </trkpt>
      <trkpt lat="45.6013" lon="6.61379">
        <ele>2136.6000976562</ele>
        <time>2013-01-02T11:36:48.000Z</time>
      </trkpt>
      <trkpt lat="45.60124" lon="6.61384">
        <ele>2135.1999511719</ele>
        <time>2013-01-02T11:36:51.000Z</time>
      </trkpt>
      <trkpt lat="45.60118" lon="6.61388">
        <ele>2135</ele>
        <time>2013-01-02T11:37:01.000Z</time>
      </trkpt>
      <trkpt lat="45.60117" lon="6.61383">
        <ele>2135.1999511719</ele>
        <time>2013-01-02T11:37:07.000Z</time>
      </trkpt>
      <trkpt lat="45.60117" lon="6.61383">
        <ele>2135.1999511719</ele>
        <time>2013-01-02T11:37:09.000Z</time>
      </trkpt>
      <trkpt lat="45.60122" lon="6.61378">
        <ele>2134.8000488281</ele>
        <time>2013-01-02T11:37:35.000Z</time>
      </trkpt>
      <trkpt lat="45.60117" lon="6.61378">
        <ele>2134.8000488281</ele>
        <time>2013-01-02T11:37:45.000Z</time>
      </trkpt>
      <trkpt lat="45.60116" lon="6.6138">
        <ele>2135</ele>
        <time>2013-01-02T11:37:47.000Z</time>
      </trkpt>
      <trkpt lat="45.60117" lon="6.6138">
        <ele>2135</ele>
        <time>2013-01-02T11:38:04.000Z</time>
      </trkpt>
      <trkpt lat="45.60103" lon="6.6138">
        <ele>2135</ele>
        <time>2013-01-02T11:38:15.000Z</time>
      </trkpt>
      <trkpt lat="45.60103" lon="6.6138">
        <ele>2135</ele>
        <time>2013-01-02T11:38:17.000Z</time>
      </trkpt>
      <trkpt lat="45.60115" lon="6.61381">
        <ele>2134.8000488281</ele>
        <time>2013-01-02T11:38:30.000Z</time>
      </trkpt>
      <trkpt lat="45.60116" lon="6.61384">
        <ele>2134.6000976562</ele>
        <time>2013-01-02T11:38:33.000Z</time>
      </trkpt>
      <trkpt lat="45.60111" lon="6.61388">
        <ele>2134.6000976562</ele>
        <time>2013-01-02T11:38:36.000Z</time>
      </trkpt>
      <trkpt lat="45.60109" lon="6.61384">
        <ele>2134</ele>
        <time>2013-01-02T11:39:10.000Z</time>
      </trkpt>
      <trkpt lat="45.6011" lon="6.61386">
        <ele>2134</ele>
        <time>2013-01-02T11:39:12.000Z</time>
      </trkpt>
      <trkpt lat="45.60117" lon="6.61395">
        <ele>2134</ele>
        <time>2013-01-02T11:39:25.000Z</time>
      </trkpt>
      <trkpt lat="45.60116" lon="6.61394">
        <ele>2134</ele>
        <time>2013-01-02T11:39:26.000Z</time>
      </trkpt>
      <trkpt lat="45.60109" lon="6.61394">
        <ele>2134</ele>
        <time>2013-01-02T11:39:35.000Z</time>
      </trkpt>
      <trkpt lat="45.60097" lon="6.61401">
        <ele>2133.6000976562</ele>
        <time>2013-01-02T11:39:42.000Z</time>
      </trkpt>
      <trkpt lat="45.60097" lon="6.61405">
        <ele>2133.6000976562</ele>
        <time>2013-01-02T11:39:46.000Z</time>
      </trkpt>
      <trkpt lat="45.60098" lon="6.61406">
        <ele>2133.8000488281</ele>
        <time>2013-01-02T11:39:47.000Z</time>
      </trkpt>
      <trkpt lat="45.60093" lon="6.61404">
        <ele>2133.8000488281</ele>
        <time>2013-01-02T11:39:56.000Z</time>
      </trkpt>
      <trkpt lat="45.60107" lon="6.61392">
        <ele>2133.1999511719</ele>
        <time>2013-01-02T11:40:30.000Z</time>
      </trkpt>
      <trkpt lat="45.60108" lon="6.61384">
        <ele>2133.1999511719</ele>
        <time>2013-01-02T11:40:39.000Z</time>
      </trkpt>
      <trkpt lat="45.60095" lon="6.61381">
        <ele>2133.3999023438</ele>
        <time>2013-01-02T11:40:53.000Z</time>
      </trkpt>
      <trkpt lat="45.60108" lon="6.61381">
        <ele>2133.1999511719</ele>
        <time>2013-01-02T11:41:25.000Z</time>
      </trkpt>
      <trkpt lat="45.60097" lon="6.61381">
        <ele>2132.8000488281</ele>
        <time>2013-01-02T11:41:36.000Z</time>
      </trkpt>
      <trkpt lat="45.60125" lon="6.61376">
        <ele>2132.1999511719</ele>
        <time>2013-01-02T11:41:57.000Z</time>
      </trkpt>
      <trkpt lat="45.60126" lon="6.61377">
        <ele>2132.3999023438</ele>
        <time>2013-01-02T11:41:59.000Z</time>
      </trkpt>
      <trkpt lat="45.60143" lon="6.61361">
        <ele>2132.3999023438</ele>
        <time>2013-01-02T11:42:11.000Z</time>
      </trkpt>
      <trkpt lat="45.60141" lon="6.61361">
        <ele>2132.1999511719</ele>
        <time>2013-01-02T11:42:13.000Z</time>
      </trkpt>
      <trkpt lat="45.60114" lon="6.6138">
        <ele>2132.8000488281</ele>
        <time>2013-01-02T11:42:27.000Z</time>
      </trkpt>
      <trkpt lat="45.60108" lon="6.61376">
        <ele>2132.6000976562</ele>
        <time>2013-01-02T11:42:33.000Z</time>
      </trkpt>
      <trkpt lat="45.60109" lon="6.61377">
        <ele>2132.6000976562</ele>
        <time>2013-01-02T11:42:36.000Z</time>
      </trkpt>
      <trkpt lat="45.60109" lon="6.6138">
        <ele>2132.1999511719</ele>
        <time>2013-01-02T11:42:42.000Z</time>
      </trkpt>
      <trkpt lat="45.60108" lon="6.61383">
        <ele>2132.1999511719</ele>
        <time>2013-01-02T11:42:45.000Z</time>
      </trkpt>
      <trkpt lat="45.60106" lon="6.61389">
        <ele>2131.1999511719</ele>
        <time>2013-01-02T11:43:02.000Z</time>
      </trkpt>
      <trkpt lat="45.60104" lon="6.61392">
        <ele>2131.1999511719</ele>
        <time>2013-01-02T11:43:24.000Z</time>
      </trkpt>
      <trkpt lat="45.60117" lon="6.61383">
        <ele>2132.8000488281</ele>
        <time>2013-01-02T11:43:59.000Z</time>
      </trkpt>
      <trkpt lat="45.60119" lon="6.61374">
        <ele>2132.1999511719</ele>
        <time>2013-01-02T11:45:05.000Z</time>
      </trkpt>
      <trkpt lat="45.60111" lon="6.61374">
        <ele>2132.1999511719</ele>
        <time>2013-01-02T11:45:16.000Z</time>
      </trkpt>
      <trkpt lat="45.60112" lon="6.61371">
        <ele>2131.3999023438</ele>
        <time>2013-01-02T11:45:35.000Z</time>
      </trkpt>
      <trkpt lat="45.60109" lon="6.61371">
        <ele>2131.6000976562</ele>
        <time>2013-01-02T11:45:36.000Z</time>
      </trkpt>
      <trkpt lat="45.601" lon="6.6137">
        <ele>2131.8000488281</ele>
        <time>2013-01-02T11:45:42.000Z</time>
      </trkpt>
      <trkpt lat="45.60097" lon="6.61376">
        <ele>2131.8000488281</ele>
        <time>2013-01-02T11:45:48.000Z</time>
      </trkpt>
      <trkpt lat="45.60106" lon="6.61389">
        <ele>2131.6000976562</ele>
        <time>2013-01-02T11:45:58.000Z</time>
      </trkpt>
      <trkpt lat="45.60122" lon="6.61376">
        <ele>2132</ele>
        <time>2013-01-02T11:46:04.000Z</time>
      </trkpt>
      <trkpt lat="45.60126" lon="6.61373">
        <ele>2132</ele>
        <time>2013-01-02T11:46:18.000Z</time>
      </trkpt>
      <trkpt lat="45.60115" lon="6.61381">
        <ele>2132.1999511719</ele>
        <time>2013-01-02T11:46:41.000Z</time>
      </trkpt>
      <trkpt lat="45.60115" lon="6.61381">
        <ele>2132.1999511719</ele>
        <time>2013-01-02T11:46:49.000Z</time>
      </trkpt>
      <trkpt lat="45.60122" lon="6.61392">
        <ele>2132.6000976562</ele>
        <time>2013-01-02T11:46:58.000Z</time>
      </trkpt>
      <trkpt lat="45.60116" lon="6.61384">
        <ele>2132.6000976562</ele>
        <time>2013-01-02T11:47:10.000Z</time>
      </trkpt>
      <trkpt lat="45.60118" lon="6.61367">
        <ele>2132</ele>
        <time>2013-01-02T11:47:28.000Z</time>
      </trkpt>
      <trkpt lat="45.60124" lon="6.61377">
        <ele>2130.8000488281</ele>
        <time>2013-01-02T11:47:35.000Z</time>
      </trkpt>
      <trkpt lat="45.60124" lon="6.61374">
        <ele>2132.3999023438</ele>
        <time>2013-01-02T11:47:42.000Z</time>
      </trkpt>
      <trkpt lat="45.60119" lon="6.61361">
        <ele>2133</ele>
        <time>2013-01-02T11:47:54.000Z</time>
      </trkpt>
      <trkpt lat="45.60119" lon="6.61358">
        <ele>2133</ele>
        <time>2013-01-02T11:47:56.000Z</time>
      </trkpt>
      <trkpt lat="45.60119" lon="6.61345">
        <ele>2134</ele>
        <time>2013-01-02T11:48:03.000Z</time>
      </trkpt>
      <trkpt lat="45.60119" lon="6.6134">
        <ele>2134.1999511719</ele>
        <time>2013-01-02T11:48:07.000Z</time>
      </trkpt>
      <trkpt lat="45.60119" lon="6.61336">
        <ele>2134.1999511719</ele>
        <time>2013-01-02T11:48:10.000Z</time>
      </trkpt>
      <trkpt lat="45.60112" lon="6.61326">
        <ele>2135.8000488281</ele>
        <time>2013-01-02T11:48:17.000Z</time>
      </trkpt>
      <trkpt lat="45.60112" lon="6.61317">
        <ele>2137.8000488281</ele>
        <time>2013-01-02T11:48:25.000Z</time>
      </trkpt>
      <trkpt lat="45.60108" lon="6.61315">
        <ele>2138.3999023438</ele>
        <time>2013-01-02T11:48:28.000Z</time>
      </trkpt>
      <trkpt lat="45.60109" lon="6.6131">
        <ele>2140</ele>
        <time>2013-01-02T11:48:34.000Z</time>
      </trkpt>
      <trkpt lat="45.60104" lon="6.61304">
        <ele>2141.8000488281</ele>
        <time>2013-01-02T11:48:43.000Z</time>
      </trkpt>
      <trkpt lat="45.60097" lon="6.61295">
        <ele>2144.6000976562</ele>
        <time>2013-01-02T11:48:58.000Z</time>
      </trkpt>
      <trkpt lat="45.60101" lon="6.61289">
        <ele>2146</ele>
        <time>2013-01-02T11:49:32.000Z</time>
      </trkpt>
      <trkpt lat="45.60104" lon="6.61287">
        <ele>2148</ele>
        <time>2013-01-02T11:49:44.000Z</time>
      </trkpt>
      <trkpt lat="45.60102" lon="6.61283">
        <ele>2149.3999023438</ele>
        <time>2013-01-02T11:49:49.000Z</time>
      </trkpt>
      <trkpt lat="45.60099" lon="6.61283">
        <ele>2150.3999023438</ele>
        <time>2013-01-02T11:49:56.000Z</time>
      </trkpt>
      <trkpt lat="45.60094" lon="6.61283">
        <ele>2152</ele>
        <time>2013-01-02T11:50:04.000Z</time>
      </trkpt>
      <trkpt lat="45.60093" lon="6.61283">
        <ele>2152.1999511719</ele>
        <time>2013-01-02T11:50:05.000Z</time>
      </trkpt>
      <trkpt lat="45.6009" lon="6.61282">
        <ele>2153.1999511719</ele>
        <time>2013-01-02T11:50:09.000Z</time>
      </trkpt>
      <trkpt lat="45.60085" lon="6.61279">
        <ele>2154</ele>
        <time>2013-01-02T11:50:15.000Z</time>
      </trkpt>
      <trkpt lat="45.60084" lon="6.61278">
        <ele>2154.8000488281</ele>
        <time>2013-01-02T11:50:18.000Z</time>
      </trkpt>
      <trkpt lat="45.60083" lon="6.61273">
        <ele>2155.8000488281</ele>
        <time>2013-01-02T11:50:23.000Z</time>
      </trkpt>
      <trkpt lat="45.60079" lon="6.61259">
        <ele>2160.1999511719</ele>
        <time>2013-01-02T11:50:42.000Z</time>
      </trkpt>
      <trkpt lat="45.60077" lon="6.61257">
        <ele>2160.8000488281</ele>
        <time>2013-01-02T11:50:45.000Z</time>
      </trkpt>
      <trkpt lat="45.60074" lon="6.61252">
        <ele>2162.1999511719</ele>
        <time>2013-01-02T11:50:52.000Z</time>
      </trkpt>
      <trkpt lat="45.60073" lon="6.61251">
        <ele>2162.1999511719</ele>
        <time>2013-01-02T11:50:56.000Z</time>
      </trkpt>
      <trkpt lat="45.6007" lon="6.61247">
        <ele>2162.8000488281</ele>
        <time>2013-01-02T11:51:01.000Z</time>
      </trkpt>
      <trkpt lat="45.60067" lon="6.61243">
        <ele>2163.6000976562</ele>
        <time>2013-01-02T11:51:06.000Z</time>
      </trkpt>
      <trkpt lat="45.60063" lon="6.61238">
        <ele>2164.1999511719</ele>
        <time>2013-01-02T11:51:13.000Z</time>
      </trkpt>
      <trkpt lat="45.60059" lon="6.61232">
        <ele>2165.3999023438</ele>
        <time>2013-01-02T11:51:22.000Z</time>
      </trkpt>
      <trkpt lat="45.60053" lon="6.61225">
        <ele>2166.3999023438</ele>
        <time>2013-01-02T11:51:30.000Z</time>
      </trkpt>
      <trkpt lat="45.60047" lon="6.61218">
        <ele>2167.3999023438</ele>
        <time>2013-01-02T11:51:40.000Z</time>
      </trkpt>
      <trkpt lat="45.60042" lon="6.61213">
        <ele>2167.8000488281</ele>
        <time>2013-01-02T11:51:46.000Z</time>
      </trkpt>
      <trkpt lat="45.60036" lon="6.61205">
        <ele>2168.6000976562</ele>
        <time>2013-01-02T11:51:55.000Z</time>
      </trkpt>
      <trkpt lat="45.60034" lon="6.61198">
        <ele>2169.3999023438</ele>
        <time>2013-01-02T11:52:03.000Z</time>
      </trkpt>
      <trkpt lat="45.60029" lon="6.61188">
        <ele>2170.8000488281</ele>
        <time>2013-01-02T11:52:11.000Z</time>
      </trkpt>
      <trkpt lat="45.60026" lon="6.61182">
        <ele>2171.3999023438</ele>
        <time>2013-01-02T11:52:16.000Z</time>
      </trkpt>
      <trkpt lat="45.60025" lon="6.61178">
        <ele>2172</ele>
        <time>2013-01-02T11:52:21.000Z</time>
      </trkpt>
      <trkpt lat="45.60023" lon="6.61169">
        <ele>2172.6000976562</ele>
        <time>2013-01-02T11:52:27.000Z</time>
      </trkpt>
      <trkpt lat="45.60022" lon="6.61164">
        <ele>2173.6000976562</ele>
        <time>2013-01-02T11:52:33.000Z</time>
      </trkpt>
      <trkpt lat="45.60022" lon="6.61161">
        <ele>2174.3999023438</ele>
        <time>2013-01-02T11:52:37.000Z</time>
      </trkpt>
      <trkpt lat="45.6002" lon="6.61159">
        <ele>2175.6000976562</ele>
        <time>2013-01-02T11:52:44.000Z</time>
      </trkpt>
      <trkpt lat="45.60017" lon="6.61151">
        <ele>2176.6000976562</ele>
        <time>2013-01-02T11:52:51.000Z</time>
      </trkpt>
      <trkpt lat="45.60014" lon="6.61148">
        <ele>2177.1999511719</ele>
        <time>2013-01-02T11:52:56.000Z</time>
      </trkpt>
      <trkpt lat="45.60011" lon="6.61144">
        <ele>2178.3999023438</ele>
        <time>2013-01-02T11:53:01.000Z</time>
      </trkpt>
      <trkpt lat="45.60006" lon="6.61141">
        <ele>2179</ele>
        <time>2013-01-02T11:53:07.000Z</time>
      </trkpt>
      <trkpt lat="45.60012" lon="6.61127">
        <ele>2180.6000976562</ele>
        <time>2013-01-02T11:53:38.000Z</time>
      </trkpt>
      <trkpt lat="45.60013" lon="6.61117">
        <ele>2181.6000976562</ele>
        <time>2013-01-02T11:53:46.000Z</time>
      </trkpt>
      <trkpt lat="45.60011" lon="6.61115">
        <ele>2182.1999511719</ele>
        <time>2013-01-02T11:53:49.000Z</time>
      </trkpt>
      <trkpt lat="45.60002" lon="6.61111">
        <ele>2183.1999511719</ele>
        <time>2013-01-02T11:53:55.000Z</time>
      </trkpt>
      <trkpt lat="45.59992" lon="6.61106">
        <ele>2185</ele>
        <time>2013-01-02T11:54:02.000Z</time>
      </trkpt>
      <trkpt lat="45.59988" lon="6.611">
        <ele>2186.8000488281</ele>
        <time>2013-01-02T11:54:09.000Z</time>
      </trkpt>
      <trkpt lat="45.59984" lon="6.61098">
        <ele>2188</ele>
        <time>2013-01-02T11:54:14.000Z</time>
      </trkpt>
      <trkpt lat="45.59979" lon="6.6109">
        <ele>2189</ele>
        <time>2013-01-02T11:54:19.000Z</time>
      </trkpt>
      <trkpt lat="45.59976" lon="6.61084">
        <ele>2190.1999511719</ele>
        <time>2013-01-02T11:54:26.000Z</time>
      </trkpt>
      <trkpt lat="45.59975" lon="6.61083">
        <ele>2190.6000976562</ele>
        <time>2013-01-02T11:54:28.000Z</time>
      </trkpt>
      <trkpt lat="45.59972" lon="6.61081">
        <ele>2191.6000976562</ele>
        <time>2013-01-02T11:54:33.000Z</time>
      </trkpt>
      <trkpt lat="45.59966" lon="6.61076">
        <ele>2194.1999511719</ele>
        <time>2013-01-02T11:54:44.000Z</time>
      </trkpt>
      <trkpt lat="45.59966" lon="6.61076">
        <ele>2194.6000976562</ele>
        <time>2013-01-02T11:54:45.000Z</time>
      </trkpt>
      <trkpt lat="45.59965" lon="6.61065">
        <ele>2196.3999023438</ele>
        <time>2013-01-02T11:54:53.000Z</time>
      </trkpt>
      <trkpt lat="45.59967" lon="6.61047">
        <ele>2200</ele>
        <time>2013-01-02T11:55:08.000Z</time>
      </trkpt>
      <trkpt lat="45.59966" lon="6.61045">
        <ele>2200.6000976562</ele>
        <time>2013-01-02T11:55:11.000Z</time>
      </trkpt>
      <trkpt lat="45.59956" lon="6.61041">
        <ele>2203.3999023438</ele>
        <time>2013-01-02T11:55:25.000Z</time>
      </trkpt>
      <trkpt lat="45.59956" lon="6.61038">
        <ele>2204.8000488281</ele>
        <time>2013-01-02T11:55:30.000Z</time>
      </trkpt>
      <trkpt lat="45.59957" lon="6.61033">
        <ele>2205.8000488281</ele>
        <time>2013-01-02T11:55:35.000Z</time>
      </trkpt>
      <trkpt lat="45.59958" lon="6.61024">
        <ele>2208</ele>
        <time>2013-01-02T11:55:46.000Z</time>
      </trkpt>
      <trkpt lat="45.59967" lon="6.61015">
        <ele>2210.1999511719</ele>
        <time>2013-01-02T11:55:57.000Z</time>
      </trkpt>
      <trkpt lat="45.59967" lon="6.61013">
        <ele>2211</ele>
        <time>2013-01-02T11:56:01.000Z</time>
      </trkpt>
      <trkpt lat="45.59955" lon="6.61013">
        <ele>2212</ele>
        <time>2013-01-02T11:56:08.000Z</time>
      </trkpt>
      <trkpt lat="45.5995" lon="6.61011">
        <ele>2213.1999511719</ele>
        <time>2013-01-02T11:56:14.000Z</time>
      </trkpt>
      <trkpt lat="45.59945" lon="6.6101">
        <ele>2214.3999023438</ele>
        <time>2013-01-02T11:56:18.000Z</time>
      </trkpt>
      <trkpt lat="45.59942" lon="6.61008">
        <ele>2215.3999023438</ele>
        <time>2013-01-02T11:56:23.000Z</time>
      </trkpt>
      <trkpt lat="45.5994" lon="6.61009">
        <ele>2216</ele>
        <time>2013-01-02T11:56:26.000Z</time>
      </trkpt>
      <trkpt lat="45.59944" lon="6.60999">
        <ele>2218.3999023438</ele>
        <time>2013-01-02T11:56:39.000Z</time>
      </trkpt>
      <trkpt lat="45.59949" lon="6.60993">
        <ele>2219.6000976562</ele>
        <time>2013-01-02T11:56:44.000Z</time>
      </trkpt>
      <trkpt lat="45.59953" lon="6.60989">
        <ele>2221</ele>
        <time>2013-01-02T11:56:49.000Z</time>
      </trkpt>
      <trkpt lat="45.59954" lon="6.60985">
        <ele>2221.8000488281</ele>
        <time>2013-01-02T11:56:53.000Z</time>
      </trkpt>
      <trkpt lat="45.59955" lon="6.60984">
        <ele>2222</ele>
        <time>2013-01-02T11:56:54.000Z</time>
      </trkpt>
      <trkpt lat="45.59959" lon="6.60975">
        <ele>2223.8000488281</ele>
        <time>2013-01-02T11:57:03.000Z</time>
      </trkpt>
      <trkpt lat="45.59961" lon="6.60973">
        <ele>2224.3999023438</ele>
        <time>2013-01-02T11:57:06.000Z</time>
      </trkpt>
      <trkpt lat="45.59947" lon="6.60971">
        <ele>2225.3999023438</ele>
        <time>2013-01-02T11:57:17.000Z</time>
      </trkpt>
      <trkpt lat="45.59948" lon="6.6097">
        <ele>2225.6000976562</ele>
        <time>2013-01-02T11:57:36.000Z</time>
      </trkpt>
      <trkpt lat="45.59938" lon="6.60974">
        <ele>2229</ele>
        <time>2013-01-02T11:58:28.000Z</time>
      </trkpt>
      <trkpt lat="45.59936" lon="6.60973">
        <ele>2230.1999511719</ele>
        <time>2013-01-02T11:58:32.000Z</time>
      </trkpt>
      <trkpt lat="45.59936" lon="6.60964">
        <ele>2231.1999511719</ele>
        <time>2013-01-02T11:58:39.000Z</time>
      </trkpt>
      <trkpt lat="45.59941" lon="6.60958">
        <ele>2233</ele>
        <time>2013-01-02T11:58:45.000Z</time>
      </trkpt>
      <trkpt lat="45.59942" lon="6.60957">
        <ele>2233.1999511719</ele>
        <time>2013-01-02T11:58:46.000Z</time>
      </trkpt>
      <trkpt lat="45.59948" lon="6.60952">
        <ele>2234.3999023438</ele>
        <time>2013-01-02T11:58:51.000Z</time>
      </trkpt>
      <trkpt lat="45.59951" lon="6.60948">
        <ele>2235.1999511719</ele>
        <time>2013-01-02T11:58:55.000Z</time>
      </trkpt>
      <trkpt lat="45.59957" lon="6.60945">
        <ele>2237</ele>
        <time>2013-01-02T11:59:03.000Z</time>
      </trkpt>
      <trkpt lat="45.59957" lon="6.60944">
        <ele>2237.3999023438</ele>
        <time>2013-01-02T11:59:05.000Z</time>
      </trkpt>
      <trkpt lat="45.59946" lon="6.6094">
        <ele>2238.6000976562</ele>
        <time>2013-01-02T11:59:15.000Z</time>
      </trkpt>
      <trkpt lat="45.59938" lon="6.60937">
        <ele>2240.3999023438</ele>
        <time>2013-01-02T11:59:21.000Z</time>
      </trkpt>
      <trkpt lat="45.59934" lon="6.60938">
        <ele>2241.3999023438</ele>
        <time>2013-01-02T11:59:25.000Z</time>
      </trkpt>
      <trkpt lat="45.5993" lon="6.6094">
        <ele>2242.8000488281</ele>
        <time>2013-01-02T11:59:31.000Z</time>
      </trkpt>
      <trkpt lat="45.59928" lon="6.60942">
        <ele>2244</ele>
        <time>2013-01-02T11:59:36.000Z</time>
      </trkpt>
      <trkpt lat="45.59925" lon="6.60937">
        <ele>2245.1999511719</ele>
        <time>2013-01-02T11:59:47.000Z</time>
      </trkpt>
      <trkpt lat="45.59932" lon="6.60927">
        <ele>2247</ele>
        <time>2013-01-02T11:59:57.000Z</time>
      </trkpt>
      <trkpt lat="45.59935" lon="6.60921">
        <ele>2248.6000976562</ele>
        <time>2013-01-02T12:00:04.000Z</time>
      </trkpt>
      <trkpt lat="45.59936" lon="6.6092">
        <ele>2249</ele>
        <time>2013-01-02T12:00:05.000Z</time>
      </trkpt>
      <trkpt lat="45.59942" lon="6.60915">
        <ele>2250.3999023438</ele>
        <time>2013-01-02T12:00:12.000Z</time>
      </trkpt>
      <trkpt lat="45.59953" lon="6.60911">
        <ele>2253.6000976562</ele>
        <time>2013-01-02T12:00:27.000Z</time>
      </trkpt>
      <trkpt lat="45.59939" lon="6.60902">
        <ele>2256.1999511719</ele>
        <time>2013-01-02T12:00:43.000Z</time>
      </trkpt>
      <trkpt lat="45.59935" lon="6.60901">
        <ele>2257.8000488281</ele>
        <time>2013-01-02T12:00:50.000Z</time>
      </trkpt>
      <trkpt lat="45.59931" lon="6.60902">
        <ele>2259</ele>
        <time>2013-01-02T12:00:54.000Z</time>
      </trkpt>
      <trkpt lat="45.59927" lon="6.60905">
        <ele>2260</ele>
        <time>2013-01-02T12:00:59.000Z</time>
      </trkpt>
      <trkpt lat="45.59921" lon="6.60905">
        <ele>2262</ele>
        <time>2013-01-02T12:01:09.000Z</time>
      </trkpt>
      <trkpt lat="45.59924" lon="6.60897">
        <ele>2263.6000976562</ele>
        <time>2013-01-02T12:01:17.000Z</time>
      </trkpt>
      <trkpt lat="45.59928" lon="6.60892">
        <ele>2264.6000976562</ele>
        <time>2013-01-02T12:01:24.000Z</time>
      </trkpt>
      <trkpt lat="45.59932" lon="6.60887">
        <ele>2266.1999511719</ele>
        <time>2013-01-02T12:01:31.000Z</time>
      </trkpt>
      <trkpt lat="45.59937" lon="6.60883">
        <ele>2267.1999511719</ele>
        <time>2013-01-02T12:01:37.000Z</time>
      </trkpt>
      <trkpt lat="45.59949" lon="6.60878">
        <ele>2268.6000976562</ele>
        <time>2013-01-02T12:01:46.000Z</time>
      </trkpt>
      <trkpt lat="45.59953" lon="6.60873">
        <ele>2269.8000488281</ele>
        <time>2013-01-02T12:01:54.000Z</time>
      </trkpt>
      <trkpt lat="45.59954" lon="6.60872">
        <ele>2270.3999023438</ele>
        <time>2013-01-02T12:01:58.000Z</time>
      </trkpt>
      <trkpt lat="45.59959" lon="6.60871">
        <ele>2271</ele>
        <time>2013-01-02T12:02:03.000Z</time>
      </trkpt>
      <trkpt lat="45.59949" lon="6.60866">
        <ele>2272.8000488281</ele>
        <time>2013-01-02T12:02:18.000Z</time>
      </trkpt>
      <trkpt lat="45.59943" lon="6.60864">
        <ele>2274</ele>
        <time>2013-01-02T12:02:25.000Z</time>
      </trkpt>
      <trkpt lat="45.59937" lon="6.60861">
        <ele>2275.3999023438</ele>
        <time>2013-01-02T12:02:32.000Z</time>
      </trkpt>
      <trkpt lat="45.59935" lon="6.60861">
        <ele>2276.6000976562</ele>
        <time>2013-01-02T12:02:36.000Z</time>
      </trkpt>
      <trkpt lat="45.59928" lon="6.6086">
        <ele>2278</ele>
        <time>2013-01-02T12:02:47.000Z</time>
      </trkpt>
      <trkpt lat="45.59926" lon="6.60861">
        <ele>2278.6000976562</ele>
        <time>2013-01-02T12:02:50.000Z</time>
      </trkpt>
      <trkpt lat="45.59925" lon="6.60857">
        <ele>2280.3999023438</ele>
        <time>2013-01-02T12:03:03.000Z</time>
      </trkpt>
      <trkpt lat="45.59928" lon="6.60854">
        <ele>2281.6000976562</ele>
        <time>2013-01-02T12:03:08.000Z</time>
      </trkpt>
      <trkpt lat="45.5993" lon="6.60853">
        <ele>2282.1999511719</ele>
        <time>2013-01-02T12:03:11.000Z</time>
      </trkpt>
      <trkpt lat="45.59933" lon="6.6084">
        <ele>2282.8000488281</ele>
        <time>2013-01-02T12:04:27.000Z</time>
      </trkpt>
      <trkpt lat="45.59941" lon="6.60837">
        <ele>2284.3999023438</ele>
        <time>2013-01-02T12:04:34.000Z</time>
      </trkpt>
      <trkpt lat="45.59948" lon="6.60834">
        <ele>2285.8000488281</ele>
        <time>2013-01-02T12:04:41.000Z</time>
      </trkpt>
      <trkpt lat="45.59948" lon="6.60834">
        <ele>2286</ele>
        <time>2013-01-02T12:04:42.000Z</time>
      </trkpt>
      <trkpt lat="45.59956" lon="6.6083">
        <ele>2287</ele>
        <time>2013-01-02T12:04:51.000Z</time>
      </trkpt>
      <trkpt lat="45.59962" lon="6.60828">
        <ele>2288</ele>
        <time>2013-01-02T12:04:55.000Z</time>
      </trkpt>
      <trkpt lat="45.59967" lon="6.60828">
        <ele>2289.6000976562</ele>
        <time>2013-01-02T12:05:02.000Z</time>
      </trkpt>
      <trkpt lat="45.59971" lon="6.60831">
        <ele>2291.3999023438</ele>
        <time>2013-01-02T12:05:09.000Z</time>
      </trkpt>
      <trkpt lat="45.59972" lon="6.60832">
        <ele>2292</ele>
        <time>2013-01-02T12:05:12.000Z</time>
      </trkpt>
      <trkpt lat="45.59972" lon="6.60825">
        <ele>2293.3999023438</ele>
        <time>2013-01-02T12:05:22.000Z</time>
      </trkpt>
      <trkpt lat="45.59971" lon="6.60819">
        <ele>2294.3999023438</ele>
        <time>2013-01-02T12:05:28.000Z</time>
      </trkpt>
      <trkpt lat="45.5997" lon="6.60814">
        <ele>2295</ele>
        <time>2013-01-02T12:05:33.000Z</time>
      </trkpt>
      <trkpt lat="45.59967" lon="6.60809">
        <ele>2296</ele>
        <time>2013-01-02T12:05:39.000Z</time>
      </trkpt>
      <trkpt lat="45.59961" lon="6.60825">
        <ele>2296.6000976562</ele>
        <time>2013-01-02T12:06:42.000Z</time>
      </trkpt>
      <trkpt lat="45.59961" lon="6.60826">
        <ele>2296.3999023438</ele>
        <time>2013-01-02T12:06:44.000Z</time>
      </trkpt>
      <trkpt lat="45.59965" lon="6.60802">
        <ele>2296.8000488281</ele>
        <time>2013-01-02T12:08:22.000Z</time>
      </trkpt>
      <trkpt lat="45.59968" lon="6.60799">
        <ele>2297.1999511719</ele>
        <time>2013-01-02T12:08:25.000Z</time>
      </trkpt>
      <trkpt lat="45.59974" lon="6.60794">
        <ele>2298.1999511719</ele>
        <time>2013-01-02T12:08:31.000Z</time>
      </trkpt>
      <trkpt lat="45.59978" lon="6.60789">
        <ele>2299.1999511719</ele>
        <time>2013-01-02T12:08:36.000Z</time>
      </trkpt>
      <trkpt lat="45.59982" lon="6.60783">
        <ele>2300.1999511719</ele>
        <time>2013-01-02T12:08:42.000Z</time>
      </trkpt>
      <trkpt lat="45.5998" lon="6.60779">
        <ele>2300.6000976562</ele>
        <time>2013-01-02T12:08:46.000Z</time>
      </trkpt>
      <trkpt lat="45.59981" lon="6.60775">
        <ele>2301.1999511719</ele>
        <time>2013-01-02T12:08:50.000Z</time>
      </trkpt>
      <trkpt lat="45.59982" lon="6.60771">
        <ele>2301.8000488281</ele>
        <time>2013-01-02T12:08:53.000Z</time>
      </trkpt>
      <trkpt lat="45.59979" lon="6.60765">
        <ele>2303</ele>
        <time>2013-01-02T12:09:00.000Z</time>
      </trkpt>
      <trkpt lat="45.59976" lon="6.60758">
        <ele>2303.8000488281</ele>
        <time>2013-01-02T12:09:06.000Z</time>
      </trkpt>
      <trkpt lat="45.59975" lon="6.60754">
        <ele>2304.8000488281</ele>
        <time>2013-01-02T12:09:11.000Z</time>
      </trkpt>
      <trkpt lat="45.59974" lon="6.60752">
        <ele>2305.3999023438</ele>
        <time>2013-01-02T12:09:15.000Z</time>
      </trkpt>
      <trkpt lat="45.59975" lon="6.60749">
        <ele>2305.6000976562</ele>
        <time>2013-01-02T12:09:19.000Z</time>
      </trkpt>
      <trkpt lat="45.59975" lon="6.60747">
        <ele>2306.1999511719</ele>
        <time>2013-01-02T12:09:22.000Z</time>
      </trkpt>
      <trkpt lat="45.59975" lon="6.60739">
        <ele>2307</ele>
        <time>2013-01-02T12:09:29.000Z</time>
      </trkpt>
      <trkpt lat="45.59977" lon="6.60733">
        <ele>2308.3999023438</ele>
        <time>2013-01-02T12:09:36.000Z</time>
      </trkpt>
      <trkpt lat="45.59974" lon="6.60722">
        <ele>2310.3999023438</ele>
        <time>2013-01-02T12:09:45.000Z</time>
      </trkpt>
      <trkpt lat="45.59973" lon="6.60711">
        <ele>2312.3999023438</ele>
        <time>2013-01-02T12:09:55.000Z</time>
      </trkpt>
      <trkpt lat="45.59972" lon="6.60704">
        <ele>2313.3999023438</ele>
        <time>2013-01-02T12:10:00.000Z</time>
      </trkpt>
      <trkpt lat="45.59972" lon="6.60696">
        <ele>2314.3999023438</ele>
        <time>2013-01-02T12:10:06.000Z</time>
      </trkpt>
      <trkpt lat="45.59971" lon="6.60688">
        <ele>2316.1999511719</ele>
        <time>2013-01-02T12:10:14.000Z</time>
      </trkpt>
      <trkpt lat="45.59968" lon="6.60686">
        <ele>2317.6000976562</ele>
        <time>2013-01-02T12:10:21.000Z</time>
      </trkpt>
      <trkpt lat="45.59962" lon="6.60686">
        <ele>2319.8000488281</ele>
        <time>2013-01-02T12:10:31.000Z</time>
      </trkpt>
      <trkpt lat="45.59955" lon="6.60688">
        <ele>2321.8000488281</ele>
        <time>2013-01-02T12:10:43.000Z</time>
      </trkpt>
      <trkpt lat="45.59952" lon="6.60686">
        <ele>2323.1999511719</ele>
        <time>2013-01-02T12:10:51.000Z</time>
      </trkpt>
      <trkpt lat="45.59953" lon="6.60678">
        <ele>2324.6000976562</ele>
        <time>2013-01-02T12:10:57.000Z</time>
      </trkpt>
      <trkpt lat="45.59955" lon="6.60668">
        <ele>2325.8000488281</ele>
        <time>2013-01-02T12:11:05.000Z</time>
      </trkpt>
      <trkpt lat="45.5996" lon="6.6066">
        <ele>2327.3999023438</ele>
        <time>2013-01-02T12:11:15.000Z</time>
      </trkpt>
      <trkpt lat="45.59965" lon="6.60653">
        <ele>2329.8000488281</ele>
        <time>2013-01-02T12:11:25.000Z</time>
      </trkpt>
      <trkpt lat="45.59965" lon="6.60647">
        <ele>2331.1999511719</ele>
        <time>2013-01-02T12:11:32.000Z</time>
      </trkpt>
      <trkpt lat="45.59964" lon="6.60638">
        <ele>2332.6000976562</ele>
        <time>2013-01-02T12:11:40.000Z</time>
      </trkpt>
      <trkpt lat="45.59963" lon="6.60626">
        <ele>2334.1999511719</ele>
        <time>2013-01-02T12:11:49.000Z</time>
      </trkpt>
      <trkpt lat="45.59961" lon="6.60618">
        <ele>2336</ele>
        <time>2013-01-02T12:11:57.000Z</time>
      </trkpt>
      <trkpt lat="45.59957" lon="6.60616">
        <ele>2337</ele>
        <time>2013-01-02T12:12:01.000Z</time>
      </trkpt>
      <trkpt lat="45.5995" lon="6.60615">
        <ele>2339.1999511719</ele>
        <time>2013-01-02T12:12:10.000Z</time>
      </trkpt>
      <trkpt lat="45.59948" lon="6.60609">
        <ele>2340.6000976562</ele>
        <time>2013-01-02T12:12:17.000Z</time>
      </trkpt>
      <trkpt lat="45.59947" lon="6.606">
        <ele>2342.1999511719</ele>
        <time>2013-01-02T12:12:25.000Z</time>
      </trkpt>
      <trkpt lat="45.59948" lon="6.60591">
        <ele>2343.8000488281</ele>
        <time>2013-01-02T12:12:34.000Z</time>
      </trkpt>
      <trkpt lat="45.59949" lon="6.60581">
        <ele>2346</ele>
        <time>2013-01-02T12:12:45.000Z</time>
      </trkpt>
      <trkpt lat="45.59949" lon="6.6058">
        <ele>2346.3999023438</ele>
        <time>2013-01-02T12:12:46.000Z</time>
      </trkpt>
      <trkpt lat="45.59953" lon="6.60575">
        <ele>2349.3999023438</ele>
        <time>2013-01-02T12:16:08.000Z</time>
      </trkpt>
      <trkpt lat="45.59955" lon="6.60569">
        <ele>2350.8000488281</ele>
        <time>2013-01-02T12:16:16.000Z</time>
      </trkpt>
      <trkpt lat="45.59958" lon="6.60564">
        <ele>2352</ele>
        <time>2013-01-02T12:16:22.000Z</time>
      </trkpt>
      <trkpt lat="45.59963" lon="6.60556">
        <ele>2353.8000488281</ele>
        <time>2013-01-02T12:16:31.000Z</time>
      </trkpt>
      <trkpt lat="45.59968" lon="6.6055">
        <ele>2355.8000488281</ele>
        <time>2013-01-02T12:16:39.000Z</time>
      </trkpt>
      <trkpt lat="45.59974" lon="6.60543">
        <ele>2357.3999023438</ele>
        <time>2013-01-02T12:16:48.000Z</time>
      </trkpt>
      <trkpt lat="45.59982" lon="6.60537">
        <ele>2359.3999023438</ele>
        <time>2013-01-02T12:16:58.000Z</time>
      </trkpt>
      <trkpt lat="45.59988" lon="6.60533">
        <ele>2360.3999023438</ele>
        <time>2013-01-02T12:17:05.000Z</time>
      </trkpt>
      <trkpt lat="45.59995" lon="6.60526">
        <ele>2362.3999023438</ele>
        <time>2013-01-02T12:17:14.000Z</time>
      </trkpt>
      <trkpt lat="45.5999" lon="6.60518">
        <ele>2364</ele>
        <time>2013-01-02T12:17:22.000Z</time>
      </trkpt>
      <trkpt lat="45.59985" lon="6.60515">
        <ele>2365.6000976562</ele>
        <time>2013-01-02T12:17:29.000Z</time>
      </trkpt>
      <trkpt lat="45.59978" lon="6.6051">
        <ele>2367.3999023438</ele>
        <time>2013-01-02T12:17:38.000Z</time>
      </trkpt>
      <trkpt lat="45.59977" lon="6.6051">
        <ele>2367.8000488281</ele>
        <time>2013-01-02T12:17:40.000Z</time>
      </trkpt>
      <trkpt lat="45.59975" lon="6.60509">
        <ele>2368.6000976562</ele>
        <time>2013-01-02T12:17:44.000Z</time>
      </trkpt>
      <trkpt lat="45.59976" lon="6.60507">
        <ele>2368.8000488281</ele>
        <time>2013-01-02T12:17:47.000Z</time>
      </trkpt>
      <trkpt lat="45.59985" lon="6.60499">
        <ele>2370.3999023438</ele>
        <time>2013-01-02T12:17:58.000Z</time>
      </trkpt>
      <trkpt lat="45.59991" lon="6.60493">
        <ele>2371.8000488281</ele>
        <time>2013-01-02T12:18:07.000Z</time>
      </trkpt>
      <trkpt lat="45.59999" lon="6.60489">
        <ele>2373.6000976562</ele>
        <time>2013-01-02T12:18:16.000Z</time>
      </trkpt>
      <trkpt lat="45.60007" lon="6.60484">
        <ele>2375</ele>
        <time>2013-01-02T12:18:24.000Z</time>
      </trkpt>
      <trkpt lat="45.60013" lon="6.60478">
        <ele>2376.6000976562</ele>
        <time>2013-01-02T12:18:33.000Z</time>
      </trkpt>
      <trkpt lat="45.60019" lon="6.60474">
        <ele>2378.1999511719</ele>
        <time>2013-01-02T12:18:41.000Z</time>
      </trkpt>
      <trkpt lat="45.60024" lon="6.60469">
        <ele>2379.6000976562</ele>
        <time>2013-01-02T12:18:49.000Z</time>
      </trkpt>
      <trkpt lat="45.6003" lon="6.60465">
        <ele>2381</ele>
        <time>2013-01-02T12:18:58.000Z</time>
      </trkpt>
      <trkpt lat="45.60034" lon="6.60464">
        <ele>2382</ele>
        <time>2013-01-02T12:19:04.000Z</time>
      </trkpt>
      <trkpt lat="45.60041" lon="6.6046">
        <ele>2383.8000488281</ele>
        <time>2013-01-02T12:19:13.000Z</time>
      </trkpt>
      <trkpt lat="45.60046" lon="6.60454">
        <ele>2385</ele>
        <time>2013-01-02T12:19:20.000Z</time>
      </trkpt>
      <trkpt lat="45.60052" lon="6.60446">
        <ele>2386.3999023438</ele>
        <time>2013-01-02T12:19:29.000Z</time>
      </trkpt>
      <trkpt lat="45.60056" lon="6.60439">
        <ele>2388.1999511719</ele>
        <time>2013-01-02T12:19:37.000Z</time>
      </trkpt>
      <trkpt lat="45.60061" lon="6.60432">
        <ele>2389.8000488281</ele>
        <time>2013-01-02T12:19:45.000Z</time>
      </trkpt>
      <trkpt lat="45.60064" lon="6.60423">
        <ele>2391.6000976562</ele>
        <time>2013-01-02T12:19:54.000Z</time>
      </trkpt>
      <trkpt lat="45.60065" lon="6.60415">
        <ele>2393.1999511719</ele>
        <time>2013-01-02T12:20:01.000Z</time>
      </trkpt>
      <trkpt lat="45.6007" lon="6.60407">
        <ele>2394.8000488281</ele>
        <time>2013-01-02T12:20:10.000Z</time>
      </trkpt>
      <trkpt lat="45.60073" lon="6.60403">
        <ele>2395.6000976562</ele>
        <time>2013-01-02T12:20:15.000Z</time>
      </trkpt>
      <trkpt lat="45.60079" lon="6.60397">
        <ele>2397.6000976562</ele>
        <time>2013-01-02T12:20:24.000Z</time>
      </trkpt>
      <trkpt lat="45.60085" lon="6.60391">
        <ele>2399.3999023438</ele>
        <time>2013-01-02T12:20:33.000Z</time>
      </trkpt>
      <trkpt lat="45.60092" lon="6.60385">
        <ele>2400.8000488281</ele>
        <time>2013-01-02T12:20:42.000Z</time>
      </trkpt>
      <trkpt lat="45.60098" lon="6.60379">
        <ele>2402.6000976562</ele>
        <time>2013-01-02T12:20:51.000Z</time>
      </trkpt>
      <trkpt lat="45.60101" lon="6.60374">
        <ele>2403.8000488281</ele>
        <time>2013-01-02T12:20:59.000Z</time>
      </trkpt>
      <trkpt lat="45.60108" lon="6.60367">
        <ele>2405.6000976562</ele>
        <time>2013-01-02T12:22:11.000Z</time>
      </trkpt>
      <trkpt lat="45.60119" lon="6.60361">
        <ele>2408</ele>
        <time>2013-01-02T12:22:22.000Z</time>
      </trkpt>
      <trkpt lat="45.60125" lon="6.60355">
        <ele>2409.3999023438</ele>
        <time>2013-01-02T12:22:30.000Z</time>
      </trkpt>
      <trkpt lat="45.60132" lon="6.60352">
        <ele>2411.6000976562</ele>
        <time>2013-01-02T12:22:38.000Z</time>
      </trkpt>
      <trkpt lat="45.60139" lon="6.6035">
        <ele>2413.3999023438</ele>
        <time>2013-01-02T12:22:46.000Z</time>
      </trkpt>
      <trkpt lat="45.60145" lon="6.60345">
        <ele>2415</ele>
        <time>2013-01-02T12:22:54.000Z</time>
      </trkpt>
      <trkpt lat="45.6015" lon="6.60338">
        <ele>2416.6000976562</ele>
        <time>2013-01-02T12:23:02.000Z</time>
      </trkpt>
      <trkpt lat="45.60152" lon="6.60337">
        <ele>2417</ele>
        <time>2013-01-02T12:23:05.000Z</time>
      </trkpt>
      <trkpt lat="45.60159" lon="6.60332">
        <ele>2418.6000976562</ele>
        <time>2013-01-02T12:23:13.000Z</time>
      </trkpt>
      <trkpt lat="45.60168" lon="6.60328">
        <ele>2420.1999511719</ele>
        <time>2013-01-02T12:23:22.000Z</time>
      </trkpt>
      <trkpt lat="45.60173" lon="6.60327">
        <ele>2421.3999023438</ele>
        <time>2013-01-02T12:23:29.000Z</time>
      </trkpt>
      <trkpt lat="45.60178" lon="6.60327">
        <ele>2422.6000976562</ele>
        <time>2013-01-02T12:23:36.000Z</time>
      </trkpt>
      <trkpt lat="45.60185" lon="6.60325">
        <ele>2424.6000976562</ele>
        <time>2013-01-02T12:23:46.000Z</time>
      </trkpt>
      <trkpt lat="45.60185" lon="6.60321">
        <ele>2425.3999023438</ele>
        <time>2013-01-02T12:23:50.000Z</time>
      </trkpt>
      <trkpt lat="45.6018" lon="6.60312">
        <ele>2426.8000488281</ele>
        <time>2013-01-02T12:23:56.000Z</time>
      </trkpt>
      <trkpt lat="45.60175" lon="6.60299">
        <ele>2428.3999023438</ele>
        <time>2013-01-02T12:24:06.000Z</time>
      </trkpt>
      <trkpt lat="45.60172" lon="6.60293">
        <ele>2429.8000488281</ele>
        <time>2013-01-02T12:24:12.000Z</time>
      </trkpt>
      <trkpt lat="45.60166" lon="6.60282">
        <ele>2431.8000488281</ele>
        <time>2013-01-02T12:24:22.000Z</time>
      </trkpt>
      <trkpt lat="45.60161" lon="6.60274">
        <ele>2433.6000976562</ele>
        <time>2013-01-02T12:24:31.000Z</time>
      </trkpt>
      <trkpt lat="45.60155" lon="6.60267">
        <ele>2435.8000488281</ele>
        <time>2013-01-02T12:24:41.000Z</time>
      </trkpt>
      <trkpt lat="45.6015" lon="6.60261">
        <ele>2438</ele>
        <time>2013-01-02T12:24:50.000Z</time>
      </trkpt>
      <trkpt lat="45.60146" lon="6.60257">
        <ele>2439.6000976562</ele>
        <time>2013-01-02T12:24:57.000Z</time>
      </trkpt>
      <trkpt lat="45.60141" lon="6.60252">
        <ele>2441.6000976562</ele>
        <time>2013-01-02T12:25:07.000Z</time>
      </trkpt>
      <trkpt lat="45.60135" lon="6.60245">
        <ele>2444</ele>
        <time>2013-01-02T12:25:18.000Z</time>
      </trkpt>
      <trkpt lat="45.60131" lon="6.60242">
        <ele>2445.6000976562</ele>
        <time>2013-01-02T12:25:26.000Z</time>
      </trkpt>
      <trkpt lat="45.60126" lon="6.60236">
        <ele>2447.6000976562</ele>
        <time>2013-01-02T12:25:36.000Z</time>
      </trkpt>
      <trkpt lat="45.60129" lon="6.60233">
        <ele>2448.1999511719</ele>
        <time>2013-01-02T12:25:43.000Z</time>
      </trkpt>
      <trkpt lat="45.60137" lon="6.60229">
        <ele>2450.1999511719</ele>
        <time>2013-01-02T12:25:53.000Z</time>
      </trkpt>
      <trkpt lat="45.60145" lon="6.60224">
        <ele>2452</ele>
        <time>2013-01-02T12:26:03.000Z</time>
      </trkpt>
      <trkpt lat="45.60152" lon="6.6022">
        <ele>2453.8000488281</ele>
        <time>2013-01-02T12:26:12.000Z</time>
      </trkpt>
      <trkpt lat="45.60158" lon="6.60217">
        <ele>2455.1999511719</ele>
        <time>2013-01-02T12:26:20.000Z</time>
      </trkpt>
      <trkpt lat="45.60167" lon="6.60213">
        <ele>2457</ele>
        <time>2013-01-02T12:26:30.000Z</time>
      </trkpt>
      <trkpt lat="45.60172" lon="6.60209">
        <ele>2458.8000488281</ele>
        <time>2013-01-02T12:26:38.000Z</time>
      </trkpt>
      <trkpt lat="45.60178" lon="6.60206">
        <ele>2460</ele>
        <time>2013-01-02T12:26:46.000Z</time>
      </trkpt>
      <trkpt lat="45.60185" lon="6.60202">
        <ele>2461.8000488281</ele>
        <time>2013-01-02T12:26:55.000Z</time>
      </trkpt>
      <trkpt lat="45.6019" lon="6.60199">
        <ele>2463.3999023438</ele>
        <time>2013-01-02T12:27:03.000Z</time>
      </trkpt>
      <trkpt lat="45.60197" lon="6.60197">
        <ele>2464.8000488281</ele>
        <time>2013-01-02T12:27:11.000Z</time>
      </trkpt>
      <trkpt lat="45.602" lon="6.60196">
        <ele>2466</ele>
        <time>2013-01-02T12:27:17.000Z</time>
      </trkpt>
      <trkpt lat="45.60196" lon="6.60192">
        <ele>2466.8000488281</ele>
        <time>2013-01-02T12:27:24.000Z</time>
      </trkpt>
      <trkpt lat="45.60188" lon="6.60184">
        <ele>2468.8000488281</ele>
        <time>2013-01-02T12:27:34.000Z</time>
      </trkpt>
      <trkpt lat="45.60187" lon="6.60184">
        <ele>2469.1999511719</ele>
        <time>2013-01-02T12:27:35.000Z</time>
      </trkpt>
      <trkpt lat="45.6018" lon="6.60177">
        <ele>2470.6000976562</ele>
        <time>2013-01-02T12:27:44.000Z</time>
      </trkpt>
      <trkpt lat="45.60173" lon="6.60172">
        <ele>2472.3999023438</ele>
        <time>2013-01-02T12:27:53.000Z</time>
      </trkpt>
      <trkpt lat="45.60164" lon="6.60166">
        <ele>2474.1999511719</ele>
        <time>2013-01-02T12:28:04.000Z</time>
      </trkpt>
      <trkpt lat="45.60157" lon="6.60163">
        <ele>2475.8000488281</ele>
        <time>2013-01-02T12:28:14.000Z</time>
      </trkpt>
      <trkpt lat="45.60151" lon="6.60161">
        <ele>2478</ele>
        <time>2013-01-02T12:28:24.000Z</time>
      </trkpt>
      <trkpt lat="45.60143" lon="6.60158">
        <ele>2479.6000976562</ele>
        <time>2013-01-02T12:28:34.000Z</time>
      </trkpt>
      <trkpt lat="45.6014" lon="6.60156">
        <ele>2481</ele>
        <time>2013-01-02T12:28:39.000Z</time>
      </trkpt>
      <trkpt lat="45.60133" lon="6.60153">
        <ele>2482.6000976562</ele>
        <time>2013-01-02T12:28:48.000Z</time>
      </trkpt>
      <trkpt lat="45.6013" lon="6.60152">
        <ele>2483.6000976562</ele>
        <time>2013-01-02T12:28:53.000Z</time>
      </trkpt>
      <trkpt lat="45.60123" lon="6.6015">
        <ele>2485.3999023438</ele>
        <time>2013-01-02T12:29:03.000Z</time>
      </trkpt>
      <trkpt lat="45.60118" lon="6.60147">
        <ele>2487.1999511719</ele>
        <time>2013-01-02T12:29:10.000Z</time>
      </trkpt>
      <trkpt lat="45.60111" lon="6.60145">
        <ele>2489</ele>
        <time>2013-01-02T12:29:20.000Z</time>
      </trkpt>
      <trkpt lat="45.60107" lon="6.60143">
        <ele>2490.1999511719</ele>
        <time>2013-01-02T12:29:26.000Z</time>
      </trkpt>
      <trkpt lat="45.60103" lon="6.6014">
        <ele>2491.6000976562</ele>
        <time>2013-01-02T12:29:34.000Z</time>
      </trkpt>
      <trkpt lat="45.60098" lon="6.60138">
        <ele>2492.6000976562</ele>
        <time>2013-01-02T12:29:40.000Z</time>
      </trkpt>
      <trkpt lat="45.60093" lon="6.60136">
        <ele>2494.3999023438</ele>
        <time>2013-01-02T12:29:50.000Z</time>
      </trkpt>
      <trkpt lat="45.60088" lon="6.60136">
        <ele>2496</ele>
        <time>2013-01-02T12:29:58.000Z</time>
      </trkpt>
      <trkpt lat="45.60087" lon="6.60137">
        <ele>2496.6000976562</ele>
        <time>2013-01-02T12:30:03.000Z</time>
      </trkpt>
      <trkpt lat="45.6009" lon="6.60136">
        <ele>2497.1999511719</ele>
        <time>2013-01-02T12:30:14.000Z</time>
      </trkpt>
      <trkpt lat="45.60091" lon="6.60134">
        <ele>2497.3999023438</ele>
        <time>2013-01-02T12:30:16.000Z</time>
      </trkpt>
      <trkpt lat="45.60096" lon="6.60129">
        <ele>2498.1999511719</ele>
        <time>2013-01-02T12:30:23.000Z</time>
      </trkpt>
      <trkpt lat="45.60098" lon="6.60127">
        <ele>2499</ele>
        <time>2013-01-02T12:30:28.000Z</time>
      </trkpt>
      <trkpt lat="45.60101" lon="6.60122">
        <ele>2500.3999023438</ele>
        <time>2013-01-02T12:30:34.000Z</time>
      </trkpt>
      <trkpt lat="45.60105" lon="6.6012">
        <ele>2501.8000488281</ele>
        <time>2013-01-02T12:30:42.000Z</time>
      </trkpt>
      <trkpt lat="45.60111" lon="6.60116">
        <ele>2503.3999023438</ele>
        <time>2013-01-02T12:30:52.000Z</time>
      </trkpt>
      <trkpt lat="45.60112" lon="6.60115">
        <ele>2504</ele>
        <time>2013-01-02T12:30:54.000Z</time>
      </trkpt>
      <trkpt lat="45.60115" lon="6.60111">
        <ele>2505</ele>
        <time>2013-01-02T12:31:01.000Z</time>
      </trkpt>
      <trkpt lat="45.60119" lon="6.60107">
        <ele>2506.6000976562</ele>
        <time>2013-01-02T12:31:10.000Z</time>
      </trkpt>
      <trkpt lat="45.60123" lon="6.60104">
        <ele>2508.3999023438</ele>
        <time>2013-01-02T12:31:17.000Z</time>
      </trkpt>
      <trkpt lat="45.60126" lon="6.60101">
        <ele>2509.6000976562</ele>
        <time>2013-01-02T12:31:24.000Z</time>
      </trkpt>
      <trkpt lat="45.6013" lon="6.60096">
        <ele>2511.1999511719</ele>
        <time>2013-01-02T12:31:34.000Z</time>
      </trkpt>
      <trkpt lat="45.60134" lon="6.60093">
        <ele>2512.1999511719</ele>
        <time>2013-01-02T12:31:40.000Z</time>
      </trkpt>
      <trkpt lat="45.60137" lon="6.60091">
        <ele>2513.1999511719</ele>
        <time>2013-01-02T12:31:46.000Z</time>
      </trkpt>
      <trkpt lat="45.60141" lon="6.6009">
        <ele>2514.3999023438</ele>
        <time>2013-01-02T12:31:53.000Z</time>
      </trkpt>
      <trkpt lat="45.60144" lon="6.60088">
        <ele>2515.8000488281</ele>
        <time>2013-01-02T12:31:59.000Z</time>
      </trkpt>
      <trkpt lat="45.60148" lon="6.60086">
        <ele>2516.1999511719</ele>
        <time>2013-01-02T12:32:09.000Z</time>
      </trkpt>
      <trkpt lat="45.6015" lon="6.60084">
        <ele>2517.1999511719</ele>
        <time>2013-01-02T12:32:14.000Z</time>
      </trkpt>
      <trkpt lat="45.60152" lon="6.60081">
        <ele>2518.1999511719</ele>
        <time>2013-01-02T12:32:20.000Z</time>
      </trkpt>
      <trkpt lat="45.60154" lon="6.60078">
        <ele>2518.8000488281</ele>
        <time>2013-01-02T12:32:25.000Z</time>
      </trkpt>
      <trkpt lat="45.60159" lon="6.60072">
        <ele>2520.6000976562</ele>
        <time>2013-01-02T12:32:35.000Z</time>
      </trkpt>
      <trkpt lat="45.60161" lon="6.60069">
        <ele>2521.6000976562</ele>
        <time>2013-01-02T12:32:40.000Z</time>
      </trkpt>
      <trkpt lat="45.60164" lon="6.60066">
        <ele>2522.6000976562</ele>
        <time>2013-01-02T12:32:45.000Z</time>
      </trkpt>
      <trkpt lat="45.60166" lon="6.60063">
        <ele>2523.8000488281</ele>
        <time>2013-01-02T12:32:51.000Z</time>
      </trkpt>
      <trkpt lat="45.60168" lon="6.60062">
        <ele>2524.3999023438</ele>
        <time>2013-01-02T12:32:55.000Z</time>
      </trkpt>
      <trkpt lat="45.60172" lon="6.60059">
        <ele>2525.6000976562</ele>
        <time>2013-01-02T12:33:04.000Z</time>
      </trkpt>
      <trkpt lat="45.60175" lon="6.60057">
        <ele>2527</ele>
        <time>2013-01-02T12:33:11.000Z</time>
      </trkpt>
      <trkpt lat="45.60181" lon="6.60055">
        <ele>2528.8000488281</ele>
        <time>2013-01-02T12:33:35.000Z</time>
      </trkpt>
      <trkpt lat="45.6018" lon="6.60055">
        <ele>2529</ele>
        <time>2013-01-02T12:33:37.000Z</time>
      </trkpt>
      <trkpt lat="45.60166" lon="6.60049">
        <ele>2531.8000488281</ele>
        <time>2013-01-02T12:34:17.000Z</time>
      </trkpt>
      <trkpt lat="45.6016" lon="6.60049">
        <ele>2533.3999023438</ele>
        <time>2013-01-02T12:34:25.000Z</time>
      </trkpt>
      <trkpt lat="45.60155" lon="6.60047">
        <ele>2534.1999511719</ele>
        <time>2013-01-02T12:34:32.000Z</time>
      </trkpt>
      <trkpt lat="45.6015" lon="6.60047">
        <ele>2535.3999023438</ele>
        <time>2013-01-02T12:34:38.000Z</time>
      </trkpt>
      <trkpt lat="45.60145" lon="6.60046">
        <ele>2537</ele>
        <time>2013-01-02T12:34:46.000Z</time>
      </trkpt>
      <trkpt lat="45.6014" lon="6.60046">
        <ele>2538</ele>
        <time>2013-01-02T12:34:52.000Z</time>
      </trkpt>
      <trkpt lat="45.60136" lon="6.60046">
        <ele>2539</ele>
        <time>2013-01-02T12:34:58.000Z</time>
      </trkpt>
      <trkpt lat="45.60131" lon="6.60045">
        <ele>2540.6000976562</ele>
        <time>2013-01-02T12:35:06.000Z</time>
      </trkpt>
      <trkpt lat="45.60128" lon="6.60044">
        <ele>2541.1999511719</ele>
        <time>2013-01-02T12:35:12.000Z</time>
      </trkpt>
      <trkpt lat="45.60124" lon="6.60042">
        <ele>2542.1999511719</ele>
        <time>2013-01-02T12:35:18.000Z</time>
      </trkpt>
      <trkpt lat="45.60122" lon="6.60042">
        <ele>2542.8000488281</ele>
        <time>2013-01-02T12:35:23.000Z</time>
      </trkpt>
      <trkpt lat="45.60117" lon="6.60041">
        <ele>2544</ele>
        <time>2013-01-02T12:35:32.000Z</time>
      </trkpt>
      <trkpt lat="45.60114" lon="6.6004">
        <ele>2545</ele>
        <time>2013-01-02T12:35:38.000Z</time>
      </trkpt>
      <trkpt lat="45.6011" lon="6.6004">
        <ele>2546.1999511719</ele>
        <time>2013-01-02T12:35:46.000Z</time>
      </trkpt>
      <trkpt lat="45.60109" lon="6.6004">
        <ele>2546.6000976562</ele>
        <time>2013-01-02T12:35:51.000Z</time>
      </trkpt>
      <trkpt lat="45.60109" lon="6.6004">
        <ele>2547</ele>
        <time>2013-01-02T12:35:52.000Z</time>
      </trkpt>
      <trkpt lat="45.60112" lon="6.60033">
        <ele>2548.1999511719</ele>
        <time>2013-01-02T12:36:10.000Z</time>
      </trkpt>
      <trkpt lat="45.60115" lon="6.6003">
        <ele>2549</ele>
        <time>2013-01-02T12:36:16.000Z</time>
      </trkpt>
      <trkpt lat="45.60117" lon="6.60028">
        <ele>2550</ele>
        <time>2013-01-02T12:36:21.000Z</time>
      </trkpt>
      <trkpt lat="45.60122" lon="6.60027">
        <ele>2550.6000976562</ele>
        <time>2013-01-02T12:36:26.000Z</time>
      </trkpt>
      <trkpt lat="45.60126" lon="6.60024">
        <ele>2551.3999023438</ele>
        <time>2013-01-02T12:36:33.000Z</time>
      </trkpt>
      <trkpt lat="45.60127" lon="6.60023">
        <ele>2551.8000488281</ele>
        <time>2013-01-02T12:36:36.000Z</time>
      </trkpt>
      <trkpt lat="45.60132" lon="6.60022">
        <ele>2552.8000488281</ele>
        <time>2013-01-02T12:36:44.000Z</time>
      </trkpt>
      <trkpt lat="45.60126" lon="6.60017">
        <ele>2553.3999023438</ele>
        <time>2013-01-02T12:36:56.000Z</time>
      </trkpt>
      <trkpt lat="45.60122" lon="6.60019">
        <ele>2554</ele>
        <time>2013-01-02T12:37:02.000Z</time>
      </trkpt>
      <trkpt lat="45.60115" lon="6.60019">
        <ele>2554.8000488281</ele>
        <time>2013-01-02T12:37:10.000Z</time>
      </trkpt>
      <trkpt lat="45.60111" lon="6.6002">
        <ele>2555.8000488281</ele>
        <time>2013-01-02T12:37:18.000Z</time>
      </trkpt>
      <trkpt lat="45.60109" lon="6.60021">
        <ele>2556.3999023438</ele>
        <time>2013-01-02T12:37:22.000Z</time>
      </trkpt>
      <trkpt lat="45.60121" lon="6.60028">
        <ele>2555.3999023438</ele>
        <time>2013-01-02T12:41:46.000Z</time>
      </trkpt>
      <trkpt lat="45.60123" lon="6.60027">
        <ele>2554.8000488281</ele>
        <time>2013-01-02T12:41:48.000Z</time>
      </trkpt>
      <trkpt lat="45.60114" lon="6.6003">
        <ele>2553.6000976562</ele>
        <time>2013-01-02T12:45:24.000Z</time>
      </trkpt>
      <trkpt lat="45.60113" lon="6.60031">
        <ele>2553.3999023438</ele>
        <time>2013-01-02T12:45:29.000Z</time>
      </trkpt>
      <trkpt lat="45.60111" lon="6.60032">
        <ele>2553.1999511719</ele>
        <time>2013-01-02T12:45:34.000Z</time>
      </trkpt>
      <trkpt lat="45.6011" lon="6.60034">
        <ele>2553</ele>
        <time>2013-01-02T12:45:39.000Z</time>
      </trkpt>
      <trkpt lat="45.60121" lon="6.60013">
        <ele>2549.8000488281</ele>
        <time>2013-01-02T12:46:09.000Z</time>
      </trkpt>
      <trkpt lat="45.60122" lon="6.60013">
        <ele>2549.8000488281</ele>
        <time>2013-01-02T12:46:10.000Z</time>
      </trkpt>
      <trkpt lat="45.60121" lon="6.60025">
        <ele>2546.6000976562</ele>
        <time>2013-01-02T12:46:33.000Z</time>
      </trkpt>
      <trkpt lat="45.60114" lon="6.60038">
        <ele>2542.3999023438</ele>
        <time>2013-01-02T12:51:22.000Z</time>
      </trkpt>
      <trkpt lat="45.6011" lon="6.60034">
        <ele>2543.6000976562</ele>
        <time>2013-01-02T12:51:45.000Z</time>
      </trkpt>
      <trkpt lat="45.60114" lon="6.60029">
        <ele>2545.3999023438</ele>
        <time>2013-01-02T12:52:09.000Z</time>
      </trkpt>
      <trkpt lat="45.60122" lon="6.60023">
        <ele>2546.8000488281</ele>
        <time>2013-01-02T12:52:21.000Z</time>
      </trkpt>
      <trkpt lat="45.60125" lon="6.6002">
        <ele>2547.6000976562</ele>
        <time>2013-01-02T12:52:25.000Z</time>
      </trkpt>
      <trkpt lat="45.6013" lon="6.6002">
        <ele>2548.8000488281</ele>
        <time>2013-01-02T12:52:32.000Z</time>
      </trkpt>
      <trkpt lat="45.60131" lon="6.6002">
        <ele>2549.1999511719</ele>
        <time>2013-01-02T12:52:34.000Z</time>
      </trkpt>
      <trkpt lat="45.60121" lon="6.60018">
        <ele>2550.8000488281</ele>
        <time>2013-01-02T12:52:48.000Z</time>
      </trkpt>
      <trkpt lat="45.60117" lon="6.60019">
        <ele>2551.8000488281</ele>
        <time>2013-01-02T12:52:54.000Z</time>
      </trkpt>
      <trkpt lat="45.60112" lon="6.60021">
        <ele>2552.6000976562</ele>
        <time>2013-01-02T12:53:01.000Z</time>
      </trkpt>
      <trkpt lat="45.60107" lon="6.60023">
        <ele>2554</ele>
        <time>2013-01-02T12:53:08.000Z</time>
      </trkpt>
      <trkpt lat="45.60103" lon="6.60024">
        <ele>2555</ele>
        <time>2013-01-02T12:53:15.000Z</time>
      </trkpt>
      <trkpt lat="45.601" lon="6.60025">
        <ele>2556.6000976562</ele>
        <time>2013-01-02T12:53:21.000Z</time>
      </trkpt>
      <trkpt lat="45.60098" lon="6.60021">
        <ele>2558.1999511719</ele>
        <time>2013-01-02T12:53:41.000Z</time>
      </trkpt>
      <trkpt lat="45.60098" lon="6.6002">
        <ele>2558.6000976562</ele>
        <time>2013-01-02T12:53:42.000Z</time>
      </trkpt>
      <trkpt lat="45.60099" lon="6.60015">
        <ele>2560.1999511719</ele>
        <time>2013-01-02T12:53:53.000Z</time>
      </trkpt>
      <trkpt lat="45.60096" lon="6.60017">
        <ele>2561.1999511719</ele>
        <time>2013-01-02T12:54:02.000Z</time>
      </trkpt>
      <trkpt lat="45.60096" lon="6.60018">
        <ele>2562</ele>
        <time>2013-01-02T12:54:08.000Z</time>
      </trkpt>
      <trkpt lat="45.60095" lon="6.60016">
        <ele>2564</ele>
        <time>2013-01-02T12:54:31.000Z</time>
      </trkpt>
      <trkpt lat="45.60096" lon="6.60009">
        <ele>2565.3999023438</ele>
        <time>2013-01-02T12:54:41.000Z</time>
      </trkpt>
      <trkpt lat="45.60094" lon="6.60006">
        <ele>2567</ele>
        <time>2013-01-02T12:54:56.000Z</time>
      </trkpt>
      <trkpt lat="45.6009" lon="6.6001">
        <ele>2568</ele>
        <time>2013-01-02T12:55:05.000Z</time>
      </trkpt>
      <trkpt lat="45.6009" lon="6.6001">
        <ele>2568.1999511719</ele>
        <time>2013-01-02T12:55:06.000Z</time>
      </trkpt>
      <trkpt lat="45.6009" lon="6.60004">
        <ele>2569.3999023438</ele>
        <time>2013-01-02T12:55:23.000Z</time>
      </trkpt>
      <trkpt lat="45.60091" lon="6.60004">
        <ele>2569.8000488281</ele>
        <time>2013-01-02T12:55:26.000Z</time>
      </trkpt>
      <trkpt lat="45.60085" lon="6.60005">
        <ele>2573</ele>
        <time>2013-01-02T12:55:54.000Z</time>
      </trkpt>
      <trkpt lat="45.60082" lon="6.60002">
        <ele>2575.1999511719</ele>
        <time>2013-01-02T12:56:20.000Z</time>
      </trkpt>
      <trkpt lat="45.60082" lon="6.60003">
        <ele>2575.3999023438</ele>
        <time>2013-01-02T12:56:21.000Z</time>
      </trkpt>
      <trkpt lat="45.60081" lon="6.60003">
        <ele>2578.3999023438</ele>
        <time>2013-01-02T12:57:01.000Z</time>
      </trkpt>
      <trkpt lat="45.60081" lon="6.60004">
        <ele>2578.6000976562</ele>
        <time>2013-01-02T12:57:03.000Z</time>
      </trkpt>
      <trkpt lat="45.60079" lon="6.60002">
        <ele>2580</ele>
        <time>2013-01-02T12:57:26.000Z</time>
      </trkpt>
      <trkpt lat="45.60079" lon="6.60002">
        <ele>2580.6000976562</ele>
        <time>2013-01-02T12:57:28.000Z</time>
      </trkpt>
      <trkpt lat="45.60083" lon="6.59995">
        <ele>2581.8000488281</ele>
        <time>2013-01-02T13:00:58.000Z</time>
      </trkpt>
      <trkpt lat="45.60086" lon="6.59991">
        <ele>2583.3999023438</ele>
        <time>2013-01-02T13:01:06.000Z</time>
      </trkpt>
      <trkpt lat="45.60085" lon="6.59988">
        <ele>2584.8000488281</ele>
        <time>2013-01-02T13:01:11.000Z</time>
      </trkpt>
      <trkpt lat="45.60085" lon="6.59987">
        <ele>2585.1999511719</ele>
        <time>2013-01-02T13:01:12.000Z</time>
      </trkpt>
      <trkpt lat="45.60099" lon="6.5996">
        <ele>2601.8000488281</ele>
        <time>2013-01-02T13:03:26.000Z</time>
      </trkpt>
      <trkpt lat="45.60099" lon="6.5996">
        <ele>2601.6000976562</ele>
        <time>2013-01-02T13:03:27.000Z</time>
      </trkpt>
      <trkpt lat="45.60129" lon="6.59934">
        <ele>2628.3999023438</ele>
        <time>2013-01-02T13:30:10.000Z</time>
      </trkpt>
      <trkpt lat="45.60129" lon="6.59933">
        <ele>2628.6000976562</ele>
        <time>2013-01-02T13:30:11.000Z</time>
      </trkpt>
      <trkpt lat="45.6013" lon="6.59932">
        <ele>2629.1999511719</ele>
        <time>2013-01-02T13:30:14.000Z</time>
      </trkpt>
      <trkpt lat="45.60129" lon="6.59929">
        <ele>2630.6000976562</ele>
        <time>2013-01-02T13:30:24.000Z</time>
      </trkpt>
      <trkpt lat="45.60129" lon="6.59928">
        <ele>2630.6000976562</ele>
        <time>2013-01-02T13:30:26.000Z</time>
      </trkpt>
      <trkpt lat="45.60129" lon="6.59926">
        <ele>2631</ele>
        <time>2013-01-02T13:30:30.000Z</time>
      </trkpt>
      <trkpt lat="45.60127" lon="6.59922">
        <ele>2630.6000976562</ele>
        <time>2013-01-02T13:30:36.000Z</time>
      </trkpt>
      <trkpt lat="45.60127" lon="6.59921">
        <ele>2630.6000976562</ele>
        <time>2013-01-02T13:30:37.000Z</time>
      </trkpt>
      <trkpt lat="45.60127" lon="6.5992">
        <ele>2628.1999511719</ele>
        <time>2013-01-02T13:43:05.000Z</time>
      </trkpt>
      <trkpt lat="45.60127" lon="6.59927">
        <ele>2625.3999023438</ele>
        <time>2013-01-02T13:43:10.000Z</time>
      </trkpt>
      <trkpt lat="45.60123" lon="6.59924">
        <ele>2620.6000976562</ele>
        <time>2013-01-02T13:43:18.000Z</time>
      </trkpt>
      <trkpt lat="45.60116" lon="6.59929">
        <ele>2615.3999023438</ele>
        <time>2013-01-02T13:43:28.000Z</time>
      </trkpt>
      <trkpt lat="45.60115" lon="6.59935">
        <ele>2614</ele>
        <time>2013-01-02T13:43:35.000Z</time>
      </trkpt>
      <trkpt lat="45.60113" lon="6.59936">
        <ele>2613.6000976562</ele>
        <time>2013-01-02T13:43:37.000Z</time>
      </trkpt>
      <trkpt lat="45.60111" lon="6.59926">
        <ele>2610.8000488281</ele>
        <time>2013-01-02T13:43:41.000Z</time>
      </trkpt>
      <trkpt lat="45.6011" lon="6.59921">
        <ele>2608.6000976562</ele>
        <time>2013-01-02T13:43:44.000Z</time>
      </trkpt>
      <trkpt lat="45.60105" lon="6.59933">
        <ele>2604.1999511719</ele>
        <time>2013-01-02T13:43:58.000Z</time>
      </trkpt>
      <trkpt lat="45.60103" lon="6.5993">
        <ele>2599.1999511719</ele>
        <time>2013-01-02T13:44:03.000Z</time>
      </trkpt>
      <trkpt lat="45.60107" lon="6.59923">
        <ele>2599.6000976562</ele>
        <time>2013-01-02T13:44:23.000Z</time>
      </trkpt>
      <trkpt lat="45.601" lon="6.59906">
        <ele>2597.6000976562</ele>
        <time>2013-01-02T13:44:29.000Z</time>
      </trkpt>
      <trkpt lat="45.60099" lon="6.59905">
        <ele>2596.8000488281</ele>
        <time>2013-01-02T13:44:31.000Z</time>
      </trkpt>
      <trkpt lat="45.60085" lon="6.59925">
        <ele>2588.6000976562</ele>
        <time>2013-01-02T13:44:39.000Z</time>
      </trkpt>
      <trkpt lat="45.60085" lon="6.59925">
        <ele>2584.3999023438</ele>
        <time>2013-01-02T13:44:40.000Z</time>
      </trkpt>
      <trkpt lat="45.60082" lon="6.59935">
        <ele>2581.6000976562</ele>
        <time>2013-01-02T13:44:55.000Z</time>
      </trkpt>
      <trkpt lat="45.60082" lon="6.59937">
        <ele>2580.6000976562</ele>
        <time>2013-01-02T13:44:56.000Z</time>
      </trkpt>
      <trkpt lat="45.60082" lon="6.59937">
        <ele>2579.3999023438</ele>
        <time>2013-01-02T13:44:58.000Z</time>
      </trkpt>
      <trkpt lat="45.60078" lon="6.59928">
        <ele>2574.1999511719</ele>
        <time>2013-01-02T13:45:03.000Z</time>
      </trkpt>
      <trkpt lat="45.60076" lon="6.59931">
        <ele>2573</ele>
        <time>2013-01-02T13:45:05.000Z</time>
      </trkpt>
      <trkpt lat="45.60074" lon="6.59939">
        <ele>2569</ele>
        <time>2013-01-02T13:45:09.000Z</time>
      </trkpt>
      <trkpt lat="45.60066" lon="6.59927">
        <ele>2564.8000488281</ele>
        <time>2013-01-02T13:45:13.000Z</time>
      </trkpt>
      <trkpt lat="45.60059" lon="6.59938">
        <ele>2558.3999023438</ele>
        <time>2013-01-02T13:45:17.000Z</time>
      </trkpt>
      <trkpt lat="45.60055" lon="6.59937">
        <ele>2553.6000976562</ele>
        <time>2013-01-02T13:45:19.000Z</time>
      </trkpt>
      <trkpt lat="45.6005" lon="6.5993">
        <ele>2551.1999511719</ele>
        <time>2013-01-02T13:45:27.000Z</time>
      </trkpt>
      <trkpt lat="45.60048" lon="6.59946">
        <ele>2547.3999023438</ele>
        <time>2013-01-02T13:45:31.000Z</time>
      </trkpt>
      <trkpt lat="45.60046" lon="6.59952">
        <ele>2542.6000976562</ele>
        <time>2013-01-02T13:45:35.000Z</time>
      </trkpt>
      <trkpt lat="45.60044" lon="6.59946">
        <ele>2541</ele>
        <time>2013-01-02T13:45:37.000Z</time>
      </trkpt>
      <trkpt lat="45.60035" lon="6.59934">
        <ele>2536.3999023438</ele>
        <time>2013-01-02T13:45:43.000Z</time>
      </trkpt>
      <trkpt lat="45.60033" lon="6.59932">
        <ele>2534.8000488281</ele>
        <time>2013-01-02T13:45:45.000Z</time>
      </trkpt>
      <trkpt lat="45.60031" lon="6.59949">
        <ele>2528.6000976562</ele>
        <time>2013-01-02T13:49:07.000Z</time>
      </trkpt>
      <trkpt lat="45.60024" lon="6.59954">
        <ele>2522.8000488281</ele>
        <time>2013-01-02T13:49:11.000Z</time>
      </trkpt>
      <trkpt lat="45.60009" lon="6.59958">
        <ele>2514.6000976562</ele>
        <time>2013-01-02T13:49:16.000Z</time>
      </trkpt>
      <trkpt lat="45.59993" lon="6.5996">
        <ele>2503.1999511719</ele>
        <time>2013-01-02T13:49:21.000Z</time>
      </trkpt>
      <trkpt lat="45.59989" lon="6.59957">
        <ele>2504.1999511719</ele>
        <time>2013-01-02T13:49:22.000Z</time>
      </trkpt>
      <trkpt lat="45.59984" lon="6.59961">
        <ele>2497.6000976562</ele>
        <time>2013-01-02T13:49:25.000Z</time>
      </trkpt>
      <trkpt lat="45.59975" lon="6.59963">
        <ele>2488.1999511719</ele>
        <time>2013-01-02T13:49:29.000Z</time>
      </trkpt>
      <trkpt lat="45.59962" lon="6.5997">
        <ele>2480.8000488281</ele>
        <time>2013-01-02T13:49:33.000Z</time>
      </trkpt>
      <trkpt lat="45.59955" lon="6.59976">
        <ele>2472.3999023438</ele>
        <time>2013-01-02T13:49:36.000Z</time>
      </trkpt>
      <trkpt lat="45.59952" lon="6.59978">
        <ele>2468.3999023438</ele>
        <time>2013-01-02T13:49:38.000Z</time>
      </trkpt>
      <trkpt lat="45.59934" lon="6.59993">
        <ele>2459.3999023438</ele>
        <time>2013-01-02T13:49:43.000Z</time>
      </trkpt>
      <trkpt lat="45.59914" lon="6.60009">
        <ele>2450.8000488281</ele>
        <time>2013-01-02T13:49:47.000Z</time>
      </trkpt>
      <trkpt lat="45.59884" lon="6.6003">
        <ele>2443.1999511719</ele>
        <time>2013-01-02T13:49:51.000Z</time>
      </trkpt>
      <trkpt lat="45.59879" lon="6.60034">
        <ele>2441.6000976562</ele>
        <time>2013-01-02T13:49:52.000Z</time>
      </trkpt>
      <trkpt lat="45.59868" lon="6.60038">
        <ele>2439.1999511719</ele>
        <time>2013-01-02T13:49:55.000Z</time>
      </trkpt>
      <trkpt lat="45.59868" lon="6.60038">
        <ele>2439</ele>
        <time>2013-01-02T13:49:56.000Z</time>
      </trkpt>
      <trkpt lat="45.59867" lon="6.60034">
        <ele>2438.8000488281</ele>
        <time>2013-01-02T13:49:57.000Z</time>
      </trkpt>
      <trkpt lat="45.59878" lon="6.60051">
        <ele>2437.8000488281</ele>
        <time>2013-01-02T13:51:38.000Z</time>
      </trkpt>
      <trkpt lat="45.59881" lon="6.60077">
        <ele>2435.3999023438</ele>
        <time>2013-01-02T13:51:42.000Z</time>
      </trkpt>
      <trkpt lat="45.5987" lon="6.60121">
        <ele>2428</ele>
        <time>2013-01-02T13:51:47.000Z</time>
      </trkpt>
      <trkpt lat="45.5986" lon="6.60149">
        <ele>2423.8000488281</ele>
        <time>2013-01-02T13:51:50.000Z</time>
      </trkpt>
      <trkpt lat="45.59846" lon="6.60204">
        <ele>2415.8000488281</ele>
        <time>2013-01-02T13:51:56.000Z</time>
      </trkpt>
      <trkpt lat="45.5984" lon="6.60221">
        <ele>2413.3999023438</ele>
        <time>2013-01-02T13:51:59.000Z</time>
      </trkpt>
      <trkpt lat="45.59819" lon="6.60235">
        <ele>2410.6000976562</ele>
        <time>2013-01-02T13:52:03.000Z</time>
      </trkpt>
      <trkpt lat="45.59785" lon="6.60249">
        <ele>2404.8000488281</ele>
        <time>2013-01-02T13:52:07.000Z</time>
      </trkpt>
      <trkpt lat="45.59772" lon="6.60253">
        <ele>2401.6000976562</ele>
        <time>2013-01-02T13:52:09.000Z</time>
      </trkpt>
      <trkpt lat="45.59755" lon="6.60258">
        <ele>2399.1999511719</ele>
        <time>2013-01-02T13:52:12.000Z</time>
      </trkpt>
      <trkpt lat="45.59743" lon="6.60268">
        <ele>2396</ele>
        <time>2013-01-02T13:52:14.000Z</time>
      </trkpt>
      <trkpt lat="45.59733" lon="6.60285">
        <ele>2392</ele>
        <time>2013-01-02T13:52:16.000Z</time>
      </trkpt>
      <trkpt lat="45.59723" lon="6.60321">
        <ele>2384.3999023438</ele>
        <time>2013-01-02T13:52:19.000Z</time>
      </trkpt>
      <trkpt lat="45.59704" lon="6.60356">
        <ele>2379.1999511719</ele>
        <time>2013-01-02T13:52:24.000Z</time>
      </trkpt>
      <trkpt lat="45.59682" lon="6.60379">
        <ele>2376.3999023438</ele>
        <time>2013-01-02T13:52:31.000Z</time>
      </trkpt>
      <trkpt lat="45.59666" lon="6.604">
        <ele>2373.8000488281</ele>
        <time>2013-01-02T13:52:35.000Z</time>
      </trkpt>
      <trkpt lat="45.59636" lon="6.60438">
        <ele>2368.1999511719</ele>
        <time>2013-01-02T13:52:41.000Z</time>
      </trkpt>
      <trkpt lat="45.59624" lon="6.60469">
        <ele>2365.3999023438</ele>
        <time>2013-01-02T13:52:45.000Z</time>
      </trkpt>
      <trkpt lat="45.59623" lon="6.60475">
        <ele>2365.1999511719</ele>
        <time>2013-01-02T13:52:46.000Z</time>
      </trkpt>
      <trkpt lat="45.59622" lon="6.60485">
        <ele>2364.6000976562</ele>
        <time>2013-01-02T13:52:51.000Z</time>
      </trkpt>
      <trkpt lat="45.59618" lon="6.6049">
        <ele>2364.6000976562</ele>
        <time>2013-01-02T13:52:59.000Z</time>
      </trkpt>
      <trkpt lat="45.59616" lon="6.60494">
        <ele>2365</ele>
        <time>2013-01-02T13:53:05.000Z</time>
      </trkpt>
      <trkpt lat="45.59616" lon="6.60496">
        <ele>2365.1999511719</ele>
        <time>2013-01-02T13:53:09.000Z</time>
      </trkpt>
      <trkpt lat="45.59615" lon="6.60499">
        <ele>2365.1999511719</ele>
        <time>2013-01-02T13:53:16.000Z</time>
      </trkpt>
      <trkpt lat="45.59615" lon="6.60501">
        <ele>2365.3999023438</ele>
        <time>2013-01-02T13:53:20.000Z</time>
      </trkpt>
      <trkpt lat="45.59616" lon="6.60504">
        <ele>2365.6000976562</ele>
        <time>2013-01-02T13:53:46.000Z</time>
      </trkpt>
      <trkpt lat="45.59615" lon="6.60513">
        <ele>2365.3999023438</ele>
        <time>2013-01-02T13:53:55.000Z</time>
      </trkpt>
      <trkpt lat="45.59614" lon="6.60527">
        <ele>2364.6000976562</ele>
        <time>2013-01-02T13:54:05.000Z</time>
      </trkpt>
      <trkpt lat="45.59613" lon="6.60541">
        <ele>2363.3999023438</ele>
        <time>2013-01-02T13:54:11.000Z</time>
      </trkpt>
      <trkpt lat="45.59613" lon="6.60551">
        <ele>2363.3999023438</ele>
        <time>2013-01-02T13:54:19.000Z</time>
      </trkpt>
      <trkpt lat="45.59613" lon="6.6056">
        <ele>2363.8000488281</ele>
        <time>2013-01-02T13:54:27.000Z</time>
      </trkpt>
      <trkpt lat="45.59614" lon="6.60568">
        <ele>2364.1999511719</ele>
        <time>2013-01-02T13:54:36.000Z</time>
      </trkpt>
      <trkpt lat="45.59617" lon="6.6058">
        <ele>2364</ele>
        <time>2013-01-02T13:54:43.000Z</time>
      </trkpt>
      <trkpt lat="45.59622" lon="6.60606">
        <ele>2362.3999023438</ele>
        <time>2013-01-02T13:54:47.000Z</time>
      </trkpt>
      <trkpt lat="45.59628" lon="6.60626">
        <ele>2360.8000488281</ele>
        <time>2013-01-02T13:54:51.000Z</time>
      </trkpt>
      <trkpt lat="45.5963" lon="6.60632">
        <ele>2360.3999023438</ele>
        <time>2013-01-02T13:54:55.000Z</time>
      </trkpt>
      <trkpt lat="45.59632" lon="6.60647">
        <ele>2360.3999023438</ele>
        <time>2013-01-02T13:55:04.000Z</time>
      </trkpt>
      <trkpt lat="45.59633" lon="6.60655">
        <ele>2359.8000488281</ele>
        <time>2013-01-02T13:55:11.000Z</time>
      </trkpt>
      <trkpt lat="45.59636" lon="6.60666">
        <ele>2359.3999023438</ele>
        <time>2013-01-02T13:55:15.000Z</time>
      </trkpt>
      <trkpt lat="45.59637" lon="6.60674">
        <ele>2358.6000976562</ele>
        <time>2013-01-02T13:55:16.000Z</time>
      </trkpt>
      <trkpt lat="45.5964" lon="6.607">
        <ele>2354.8000488281</ele>
        <time>2013-01-02T13:55:20.000Z</time>
      </trkpt>
      <trkpt lat="45.5964" lon="6.60704">
        <ele>2354</ele>
        <time>2013-01-02T13:55:21.000Z</time>
      </trkpt>
      <trkpt lat="45.59639" lon="6.60736">
        <ele>2350.8000488281</ele>
        <time>2013-01-02T13:55:25.000Z</time>
      </trkpt>
      <trkpt lat="45.59636" lon="6.60746">
        <ele>2349</ele>
        <time>2013-01-02T13:55:26.000Z</time>
      </trkpt>
      <trkpt lat="45.59628" lon="6.60767">
        <ele>2344.8000488281</ele>
        <time>2013-01-02T13:55:29.000Z</time>
      </trkpt>
      <trkpt lat="45.59614" lon="6.6079">
        <ele>2339.3999023438</ele>
        <time>2013-01-02T13:55:32.000Z</time>
      </trkpt>
      <trkpt lat="45.59593" lon="6.60811">
        <ele>2332.8000488281</ele>
        <time>2013-01-02T13:55:35.000Z</time>
      </trkpt>
      <trkpt lat="45.59583" lon="6.60816">
        <ele>2330</ele>
        <time>2013-01-02T13:55:36.000Z</time>
      </trkpt>
      <trkpt lat="45.59563" lon="6.60827">
        <ele>2325.1999511719</ele>
        <time>2013-01-02T13:55:38.000Z</time>
      </trkpt>
      <trkpt lat="45.59538" lon="6.60847">
        <ele>2315.1999511719</ele>
        <time>2013-01-02T13:55:41.000Z</time>
      </trkpt>
      <trkpt lat="45.59503" lon="6.60861">
        <ele>2307</ele>
        <time>2013-01-02T13:55:45.000Z</time>
      </trkpt>
      <trkpt lat="45.59471" lon="6.60866">
        <ele>2300.8000488281</ele>
        <time>2013-01-02T13:55:49.000Z</time>
      </trkpt>
      <trkpt lat="45.5946" lon="6.60875">
        <ele>2298</ele>
        <time>2013-01-02T13:55:53.000Z</time>
      </trkpt>
      <trkpt lat="45.59451" lon="6.60882">
        <ele>2296.6000976562</ele>
        <time>2013-01-02T13:55:57.000Z</time>
      </trkpt>
      <trkpt lat="45.59441" lon="6.60888">
        <ele>2294.8000488281</ele>
        <time>2013-01-02T13:55:59.000Z</time>
      </trkpt>
      <trkpt lat="45.59405" lon="6.609">
        <ele>2288.1999511719</ele>
        <time>2013-01-02T13:56:05.000Z</time>
      </trkpt>
      <trkpt lat="45.59384" lon="6.60908">
        <ele>2284</ele>
        <time>2013-01-02T13:56:10.000Z</time>
      </trkpt>
      <trkpt lat="45.59381" lon="6.60909">
        <ele>2283.1999511719</ele>
        <time>2013-01-02T13:56:13.000Z</time>
      </trkpt>
      <trkpt lat="45.59365" lon="6.60887">
        <ele>2279.6000976562</ele>
        <time>2013-01-02T13:57:07.000Z</time>
      </trkpt>
      <trkpt lat="45.59344" lon="6.60845">
        <ele>2266.6000976562</ele>
        <time>2013-01-02T13:57:12.000Z</time>
      </trkpt>
      <trkpt lat="45.59338" lon="6.60837">
        <ele>2264.8000488281</ele>
        <time>2013-01-02T13:57:13.000Z</time>
      </trkpt>
      <trkpt lat="45.5932" lon="6.60811">
        <ele>2254.1999511719</ele>
        <time>2013-01-02T13:57:16.000Z</time>
      </trkpt>
      <trkpt lat="45.59294" lon="6.60777">
        <ele>2241.6000976562</ele>
        <time>2013-01-02T13:57:20.000Z</time>
      </trkpt>
      <trkpt lat="45.59288" lon="6.60771">
        <ele>2238.6000976562</ele>
        <time>2013-01-02T13:57:21.000Z</time>
      </trkpt>
      <trkpt lat="45.59285" lon="6.60747">
        <ele>2232.3999023438</ele>
        <time>2013-01-02T13:57:25.000Z</time>
      </trkpt>
      <trkpt lat="45.59285" lon="6.60748">
        <ele>2231.8000488281</ele>
        <time>2013-01-02T13:57:27.000Z</time>
      </trkpt>
      <trkpt lat="45.59286" lon="6.60749">
        <ele>2231.3999023438</ele>
        <time>2013-01-02T13:57:34.000Z</time>
      </trkpt>
      <trkpt lat="45.59273" lon="6.60745">
        <ele>2228.1999511719</ele>
        <time>2013-01-02T13:57:40.000Z</time>
      </trkpt>
      <trkpt lat="45.59267" lon="6.60743">
        <ele>2226.8000488281</ele>
        <time>2013-01-02T13:57:41.000Z</time>
      </trkpt>
      <trkpt lat="45.59235" lon="6.60726">
        <ele>2218.3999023438</ele>
        <time>2013-01-02T13:57:46.000Z</time>
      </trkpt>
      <trkpt lat="45.59203" lon="6.60709">
        <ele>2210</ele>
        <time>2013-01-02T13:57:51.000Z</time>
      </trkpt>
      <trkpt lat="45.59191" lon="6.60703">
        <ele>2206.1999511719</ele>
        <time>2013-01-02T13:57:53.000Z</time>
      </trkpt>
      <trkpt lat="45.59163" lon="6.60693">
        <ele>2200.1999511719</ele>
        <time>2013-01-02T13:57:57.000Z</time>
      </trkpt>
      <trkpt lat="45.5915" lon="6.60693">
        <ele>2198.3999023438</ele>
        <time>2013-01-02T13:57:59.000Z</time>
      </trkpt>
      <trkpt lat="45.59139" lon="6.60693">
        <ele>2195.8000488281</ele>
        <time>2013-01-02T13:58:02.000Z</time>
      </trkpt>
      <trkpt lat="45.59139" lon="6.60694">
        <ele>2194.8000488281</ele>
        <time>2013-01-02T13:58:04.000Z</time>
      </trkpt>
      <trkpt lat="45.59138" lon="6.60691">
        <ele>2197.3999023438</ele>
        <time>2013-01-02T14:05:50.000Z</time>
      </trkpt>
      <trkpt lat="45.59139" lon="6.60686">
        <ele>2197.6000976562</ele>
        <time>2013-01-02T14:05:55.000Z</time>
      </trkpt>
      <trkpt lat="45.59137" lon="6.60677">
        <ele>2198.3999023438</ele>
        <time>2013-01-02T14:06:49.000Z</time>
      </trkpt>
      <trkpt lat="45.59137" lon="6.60686">
        <ele>2198.1999511719</ele>
        <time>2013-01-02T14:06:56.000Z</time>
      </trkpt>
      <trkpt lat="45.59136" lon="6.60702">
        <ele>2200</ele>
        <time>2013-01-02T14:10:05.000Z</time>
      </trkpt>
      <trkpt lat="45.59135" lon="6.60704">
        <ele>2200</ele>
        <time>2013-01-02T14:10:09.000Z</time>
      </trkpt>
      <trkpt lat="45.59135" lon="6.60704">
        <ele>2200.1999511719</ele>
        <time>2013-01-02T14:10:18.000Z</time>
      </trkpt>
      <trkpt lat="45.59135" lon="6.60704">
        <ele>2200.3999023438</ele>
        <time>2013-01-02T14:10:20.000Z</time>
      </trkpt>
      <trkpt lat="45.59133" lon="6.60707">
        <ele>2200.6000976562</ele>
        <time>2013-01-02T14:10:25.000Z</time>
      </trkpt>
      <trkpt lat="45.5913" lon="6.60715">
        <ele>2202.3999023438</ele>
        <time>2013-01-02T14:10:33.000Z</time>
      </trkpt>
      <trkpt lat="45.59127" lon="6.60724">
        <ele>2203.8000488281</ele>
        <time>2013-01-02T14:10:41.000Z</time>
      </trkpt>
      <trkpt lat="45.59124" lon="6.60734">
        <ele>2205.6000976562</ele>
        <time>2013-01-02T14:10:50.000Z</time>
      </trkpt>
      <trkpt lat="45.59121" lon="6.60742">
        <ele>2206.6000976562</ele>
        <time>2013-01-02T14:10:59.000Z</time>
      </trkpt>
      <trkpt lat="45.59118" lon="6.60748">
        <ele>2208.3999023438</ele>
        <time>2013-01-02T14:11:07.000Z</time>
      </trkpt>
      <trkpt lat="45.59115" lon="6.60751">
        <ele>2209.1999511719</ele>
        <time>2013-01-02T14:11:13.000Z</time>
      </trkpt>
      <trkpt lat="45.59106" lon="6.60753">
        <ele>2211.1999511719</ele>
        <time>2013-01-02T14:11:24.000Z</time>
      </trkpt>
      <trkpt lat="45.59101" lon="6.60753">
        <ele>2212.3999023438</ele>
        <time>2013-01-02T14:11:31.000Z</time>
      </trkpt>
      <trkpt lat="45.59096" lon="6.60754">
        <ele>2214.1999511719</ele>
        <time>2013-01-02T14:11:39.000Z</time>
      </trkpt>
      <trkpt lat="45.59093" lon="6.60753">
        <ele>2215</ele>
        <time>2013-01-02T14:11:44.000Z</time>
      </trkpt>
      <trkpt lat="45.59089" lon="6.60754">
        <ele>2215.3999023438</ele>
        <time>2013-01-02T14:11:51.000Z</time>
      </trkpt>
      <trkpt lat="45.59086" lon="6.60754">
        <ele>2216.8000488281</ele>
        <time>2013-01-02T14:11:58.000Z</time>
      </trkpt>
      <trkpt lat="45.59079" lon="6.60756">
        <ele>2218.8000488281</ele>
        <time>2013-01-02T14:12:09.000Z</time>
      </trkpt>
      <trkpt lat="45.59072" lon="6.60761">
        <ele>2220.3999023438</ele>
        <time>2013-01-02T14:12:18.000Z</time>
      </trkpt>
      <trkpt lat="45.59067" lon="6.60768">
        <ele>2221.6000976562</ele>
        <time>2013-01-02T14:12:27.000Z</time>
      </trkpt>
      <trkpt lat="45.59061" lon="6.60777">
        <ele>2223.6000976562</ele>
        <time>2013-01-02T14:12:37.000Z</time>
      </trkpt>
      <trkpt lat="45.59066" lon="6.60783">
        <ele>2224.8000488281</ele>
        <time>2013-01-02T14:12:44.000Z</time>
      </trkpt>
      <trkpt lat="45.59072" lon="6.60789">
        <ele>2226.1999511719</ele>
        <time>2013-01-02T14:12:51.000Z</time>
      </trkpt>
      <trkpt lat="45.59075" lon="6.60798">
        <ele>2227.8000488281</ele>
        <time>2013-01-02T14:13:01.000Z</time>
      </trkpt>
      <trkpt lat="45.59071" lon="6.60806">
        <ele>2229.6000976562</ele>
        <time>2013-01-02T14:13:12.000Z</time>
      </trkpt>
      <trkpt lat="45.59068" lon="6.60811">
        <ele>2230.8000488281</ele>
        <time>2013-01-02T14:13:20.000Z</time>
      </trkpt>
      <trkpt lat="45.59063" lon="6.60817">
        <ele>2232</ele>
        <time>2013-01-02T14:13:27.000Z</time>
      </trkpt>
      <trkpt lat="45.5906" lon="6.60824">
        <ele>2233.1999511719</ele>
        <time>2013-01-02T14:13:36.000Z</time>
      </trkpt>
      <trkpt lat="45.59055" lon="6.60831">
        <ele>2234.6000976562</ele>
        <time>2013-01-02T14:13:45.000Z</time>
      </trkpt>
      <trkpt lat="45.59048" lon="6.60837">
        <ele>2235.3999023438</ele>
        <time>2013-01-02T14:13:54.000Z</time>
      </trkpt>
      <trkpt lat="45.59043" lon="6.60841">
        <ele>2237</ele>
        <time>2013-01-02T14:14:00.000Z</time>
      </trkpt>
      <trkpt lat="45.59038" lon="6.60846">
        <ele>2238.1999511719</ele>
        <time>2013-01-02T14:14:07.000Z</time>
      </trkpt>
      <trkpt lat="45.59038" lon="6.60847">
        <ele>2239</ele>
        <time>2013-01-02T14:14:10.000Z</time>
      </trkpt>
      <trkpt lat="45.59035" lon="6.60851">
        <ele>2240</ele>
        <time>2013-01-02T14:14:18.000Z</time>
      </trkpt>
      <trkpt lat="45.59034" lon="6.60853">
        <ele>2240.8000488281</ele>
        <time>2013-01-02T14:14:22.000Z</time>
      </trkpt>
      <trkpt lat="45.59028" lon="6.60855">
        <ele>2241.8000488281</ele>
        <time>2013-01-02T14:14:30.000Z</time>
      </trkpt>
      <trkpt lat="45.59025" lon="6.60853">
        <ele>2243.1999511719</ele>
        <time>2013-01-02T14:14:37.000Z</time>
      </trkpt>
      <trkpt lat="45.59026" lon="6.60846">
        <ele>2243.3999023438</ele>
        <time>2013-01-02T14:14:58.000Z</time>
      </trkpt>
      <trkpt lat="45.5902" lon="6.60841">
        <ele>2245</ele>
        <time>2013-01-02T14:15:07.000Z</time>
      </trkpt>
      <trkpt lat="45.59014" lon="6.60839">
        <ele>2247</ele>
        <time>2013-01-02T14:15:17.000Z</time>
      </trkpt>
      <trkpt lat="45.59012" lon="6.6084">
        <ele>2247.3999023438</ele>
        <time>2013-01-02T14:15:19.000Z</time>
      </trkpt>
      <trkpt lat="45.59005" lon="6.6084">
        <ele>2249</ele>
        <time>2013-01-02T14:15:28.000Z</time>
      </trkpt>
      <trkpt lat="45.59002" lon="6.60842">
        <ele>2250.1999511719</ele>
        <time>2013-01-02T14:15:35.000Z</time>
      </trkpt>
      <trkpt lat="45.58998" lon="6.60845">
        <ele>2251</ele>
        <time>2013-01-02T14:15:40.000Z</time>
      </trkpt>
      <trkpt lat="45.58997" lon="6.6085">
        <ele>2251.1999511719</ele>
        <time>2013-01-02T14:15:45.000Z</time>
      </trkpt>
      <trkpt lat="45.58998" lon="6.60855">
        <ele>2252.3999023438</ele>
        <time>2013-01-02T14:15:51.000Z</time>
      </trkpt>
      <trkpt lat="45.58997" lon="6.60862">
        <ele>2254.3999023438</ele>
        <time>2013-01-02T14:15:58.000Z</time>
      </trkpt>
      <trkpt lat="45.58998" lon="6.60864">
        <ele>2255.3999023438</ele>
        <time>2013-01-02T14:16:02.000Z</time>
      </trkpt>
      <trkpt lat="45.59002" lon="6.6087">
        <ele>2257.1999511719</ele>
        <time>2013-01-02T14:16:10.000Z</time>
      </trkpt>
      <trkpt lat="45.59002" lon="6.60876">
        <ele>2258.3999023438</ele>
        <time>2013-01-02T14:16:15.000Z</time>
      </trkpt>
      <trkpt lat="45.59005" lon="6.60879">
        <ele>2259.3999023438</ele>
        <time>2013-01-02T14:16:20.000Z</time>
      </trkpt>
      <trkpt lat="45.59006" lon="6.60885">
        <ele>2260.6000976562</ele>
        <time>2013-01-02T14:16:27.000Z</time>
      </trkpt>
      <trkpt lat="45.59007" lon="6.60887">
        <ele>2261.8000488281</ele>
        <time>2013-01-02T14:16:31.000Z</time>
      </trkpt>
      <trkpt lat="45.59003" lon="6.60887">
        <ele>2263.3999023438</ele>
        <time>2013-01-02T14:16:38.000Z</time>
      </trkpt>
      <trkpt lat="45.58997" lon="6.60889">
        <ele>2265.3999023438</ele>
        <time>2013-01-02T14:16:49.000Z</time>
      </trkpt>
      <trkpt lat="45.58995" lon="6.60892">
        <ele>2266.3999023438</ele>
        <time>2013-01-02T14:16:54.000Z</time>
      </trkpt>
      <trkpt lat="45.58993" lon="6.60896">
        <ele>2268</ele>
        <time>2013-01-02T14:17:01.000Z</time>
      </trkpt>
      <trkpt lat="45.58993" lon="6.60899">
        <ele>2269.1999511719</ele>
        <time>2013-01-02T14:17:06.000Z</time>
      </trkpt>
      <trkpt lat="45.58997" lon="6.60901">
        <ele>2269.6000976562</ele>
        <time>2013-01-02T14:17:11.000Z</time>
      </trkpt>
      <trkpt lat="45.59002" lon="6.60905">
        <ele>2271.3999023438</ele>
        <time>2013-01-02T14:17:18.000Z</time>
      </trkpt>
      <trkpt lat="45.59005" lon="6.6091">
        <ele>2272.6000976562</ele>
        <time>2013-01-02T14:17:24.000Z</time>
      </trkpt>
      <trkpt lat="45.59005" lon="6.60916">
        <ele>2273.6000976562</ele>
        <time>2013-01-02T14:17:31.000Z</time>
      </trkpt>
      <trkpt lat="45.59006" lon="6.60923">
        <ele>2275.8000488281</ele>
        <time>2013-01-02T14:17:39.000Z</time>
      </trkpt>
      <trkpt lat="45.59005" lon="6.60929">
        <ele>2277</ele>
        <time>2013-01-02T14:17:45.000Z</time>
      </trkpt>
      <trkpt lat="45.59004" lon="6.60936">
        <ele>2278.8000488281</ele>
        <time>2013-01-02T14:17:53.000Z</time>
      </trkpt>
      <trkpt lat="45.59" lon="6.60945">
        <ele>2280.6000976562</ele>
        <time>2013-01-02T14:18:02.000Z</time>
      </trkpt>
      <trkpt lat="45.59001" lon="6.6095">
        <ele>2281.8000488281</ele>
        <time>2013-01-02T14:18:09.000Z</time>
      </trkpt>
      <trkpt lat="45.59" lon="6.60955">
        <ele>2283</ele>
        <time>2013-01-02T14:18:18.000Z</time>
      </trkpt>
      <trkpt lat="45.58999" lon="6.60957">
        <ele>2283.1999511719</ele>
        <time>2013-01-02T14:18:20.000Z</time>
      </trkpt>
      <trkpt lat="45.58996" lon="6.60961">
        <ele>2284.1999511719</ele>
        <time>2013-01-02T14:18:29.000Z</time>
      </trkpt>
      <trkpt lat="45.58995" lon="6.60963">
        <ele>2284.3999023438</ele>
        <time>2013-01-02T14:18:43.000Z</time>
      </trkpt>
      <trkpt lat="45.58991" lon="6.60969">
        <ele>2285.1999511719</ele>
        <time>2013-01-02T14:18:51.000Z</time>
      </trkpt>
      <trkpt lat="45.58986" lon="6.60974">
        <ele>2286.6000976562</ele>
        <time>2013-01-02T14:18:59.000Z</time>
      </trkpt>
      <trkpt lat="45.5898" lon="6.60979">
        <ele>2287.8000488281</ele>
        <time>2013-01-02T14:19:07.000Z</time>
      </trkpt>
      <trkpt lat="45.58975" lon="6.60984">
        <ele>2288.8000488281</ele>
        <time>2013-01-02T14:19:14.000Z</time>
      </trkpt>
      <trkpt lat="45.58973" lon="6.60987">
        <ele>2289</ele>
        <time>2013-01-02T14:19:19.000Z</time>
      </trkpt>
      <trkpt lat="45.58973" lon="6.60987">
        <ele>2289.1999511719</ele>
        <time>2013-01-02T14:19:20.000Z</time>
      </trkpt>
      <trkpt lat="45.58971" lon="6.60987">
        <ele>2289.3999023438</ele>
        <time>2013-01-02T14:19:29.000Z</time>
      </trkpt>
      <trkpt lat="45.58965" lon="6.60991">
        <ele>2289.6000976562</ele>
        <time>2013-01-02T14:19:41.000Z</time>
      </trkpt>
      <trkpt lat="45.58959" lon="6.61">
        <ele>2288.8000488281</ele>
        <time>2013-01-02T14:19:48.000Z</time>
      </trkpt>
      <trkpt lat="45.58954" lon="6.61008">
        <ele>2289</ele>
        <time>2013-01-02T14:19:54.000Z</time>
      </trkpt>
      <trkpt lat="45.58951" lon="6.61013">
        <ele>2289.6000976562</ele>
        <time>2013-01-02T14:20:00.000Z</time>
      </trkpt>
      <trkpt lat="45.58949" lon="6.61017">
        <ele>2290.6000976562</ele>
        <time>2013-01-02T14:20:06.000Z</time>
      </trkpt>
      <trkpt lat="45.58945" lon="6.61022">
        <ele>2292</ele>
        <time>2013-01-02T14:20:11.000Z</time>
      </trkpt>
      <trkpt lat="45.58942" lon="6.61027">
        <ele>2293.1999511719</ele>
        <time>2013-01-02T14:20:16.000Z</time>
      </trkpt>
      <trkpt lat="45.5894" lon="6.61034">
        <ele>2294.8000488281</ele>
        <time>2013-01-02T14:20:24.000Z</time>
      </trkpt>
      <trkpt lat="45.58937" lon="6.6104">
        <ele>2295.6000976562</ele>
        <time>2013-01-02T14:20:29.000Z</time>
      </trkpt>
      <trkpt lat="45.58934" lon="6.61047">
        <ele>2296.6000976562</ele>
        <time>2013-01-02T14:20:36.000Z</time>
      </trkpt>
      <trkpt lat="45.58933" lon="6.61054">
        <ele>2297.8000488281</ele>
        <time>2013-01-02T14:20:43.000Z</time>
      </trkpt>
      <trkpt lat="45.58931" lon="6.6106">
        <ele>2299.1999511719</ele>
        <time>2013-01-02T14:20:50.000Z</time>
      </trkpt>
      <trkpt lat="45.58929" lon="6.61064">
        <ele>2300</ele>
        <time>2013-01-02T14:20:55.000Z</time>
      </trkpt>
      <trkpt lat="45.58925" lon="6.61071">
        <ele>2301.3999023438</ele>
        <time>2013-01-02T14:21:04.000Z</time>
      </trkpt>
      <trkpt lat="45.58923" lon="6.61076">
        <ele>2302.6000976562</ele>
        <time>2013-01-02T14:21:10.000Z</time>
      </trkpt>
      <trkpt lat="45.5892" lon="6.6108">
        <ele>2303.6000976562</ele>
        <time>2013-01-02T14:21:16.000Z</time>
      </trkpt>
      <trkpt lat="45.58916" lon="6.61087">
        <ele>2305.1999511719</ele>
        <time>2013-01-02T14:21:24.000Z</time>
      </trkpt>
      <trkpt lat="45.58915" lon="6.61092">
        <ele>2306.3999023438</ele>
        <time>2013-01-02T14:21:31.000Z</time>
      </trkpt>
      <trkpt lat="45.58912" lon="6.61097">
        <ele>2307.1999511719</ele>
        <time>2013-01-02T14:21:37.000Z</time>
      </trkpt>
      <trkpt lat="45.58909" lon="6.61104">
        <ele>2308.6000976562</ele>
        <time>2013-01-02T14:21:46.000Z</time>
      </trkpt>
      <trkpt lat="45.58909" lon="6.61108">
        <ele>2309.3999023438</ele>
        <time>2013-01-02T14:21:52.000Z</time>
      </trkpt>
      <trkpt lat="45.58904" lon="6.61117">
        <ele>2311</ele>
        <time>2013-01-02T14:22:01.000Z</time>
      </trkpt>
      <trkpt lat="45.58901" lon="6.61126">
        <ele>2313.3999023438</ele>
        <time>2013-01-02T14:22:12.000Z</time>
      </trkpt>
      <trkpt lat="45.589" lon="6.61133">
        <ele>2314.8000488281</ele>
        <time>2013-01-02T14:22:20.000Z</time>
      </trkpt>
      <trkpt lat="45.58899" lon="6.61139">
        <ele>2316.1999511719</ele>
        <time>2013-01-02T14:22:26.000Z</time>
      </trkpt>
      <trkpt lat="45.58912" lon="6.61152">
        <ele>2319.3999023438</ele>
        <time>2013-01-02T14:22:44.000Z</time>
      </trkpt>
      <trkpt lat="45.58913" lon="6.61153">
        <ele>2319.6000976562</ele>
        <time>2013-01-02T14:22:45.000Z</time>
      </trkpt>
      <trkpt lat="45.58918" lon="6.61158">
        <ele>2321</ele>
        <time>2013-01-02T14:22:52.000Z</time>
      </trkpt>
      <trkpt lat="45.58923" lon="6.61173">
        <ele>2324.3999023438</ele>
        <time>2013-01-02T14:23:11.000Z</time>
      </trkpt>
      <trkpt lat="45.58925" lon="6.61177">
        <ele>2325.6000976562</ele>
        <time>2013-01-02T14:23:18.000Z</time>
      </trkpt>
      <trkpt lat="45.58926" lon="6.61181">
        <ele>2327</ele>
        <time>2013-01-02T14:23:24.000Z</time>
      </trkpt>
      <trkpt lat="45.58927" lon="6.61183">
        <ele>2327.8000488281</ele>
        <time>2013-01-02T14:23:28.000Z</time>
      </trkpt>
      <trkpt lat="45.5893" lon="6.61186">
        <ele>2328.8000488281</ele>
        <time>2013-01-02T14:23:34.000Z</time>
      </trkpt>
      <trkpt lat="45.58932" lon="6.61191">
        <ele>2330.6000976562</ele>
        <time>2013-01-02T14:23:41.000Z</time>
      </trkpt>
      <trkpt lat="45.58932" lon="6.61195">
        <ele>2331.8000488281</ele>
        <time>2013-01-02T14:23:47.000Z</time>
      </trkpt>
      <trkpt lat="45.58932" lon="6.61199">
        <ele>2333.1999511719</ele>
        <time>2013-01-02T14:23:54.000Z</time>
      </trkpt>
      <trkpt lat="45.58936" lon="6.61203">
        <ele>2334.8000488281</ele>
        <time>2013-01-02T14:24:01.000Z</time>
      </trkpt>
      <trkpt lat="45.58938" lon="6.61207">
        <ele>2336</ele>
        <time>2013-01-02T14:24:08.000Z</time>
      </trkpt>
      <trkpt lat="45.5893" lon="6.61211">
        <ele>2337.3999023438</ele>
        <time>2013-01-02T14:24:18.000Z</time>
      </trkpt>
      <trkpt lat="45.58928" lon="6.61213">
        <ele>2338.3999023438</ele>
        <time>2013-01-02T14:24:24.000Z</time>
      </trkpt>
      <trkpt lat="45.58925" lon="6.61215">
        <ele>2339.8000488281</ele>
        <time>2013-01-02T14:24:31.000Z</time>
      </trkpt>
      <trkpt lat="45.58924" lon="6.61216">
        <ele>2341.1999511719</ele>
        <time>2013-01-02T14:24:38.000Z</time>
      </trkpt>
      <trkpt lat="45.58921" lon="6.61217">
        <ele>2342</ele>
        <time>2013-01-02T14:24:42.000Z</time>
      </trkpt>
      <trkpt lat="45.58916" lon="6.61219">
        <ele>2343.1999511719</ele>
        <time>2013-01-02T14:24:48.000Z</time>
      </trkpt>
      <trkpt lat="45.58914" lon="6.6122">
        <ele>2344.1999511719</ele>
        <time>2013-01-02T14:24:53.000Z</time>
      </trkpt>
      <trkpt lat="45.58913" lon="6.6122">
        <ele>2345.3999023438</ele>
        <time>2013-01-02T14:24:58.000Z</time>
      </trkpt>
      <trkpt lat="45.58923" lon="6.61225">
        <ele>2345.6000976562</ele>
        <time>2013-01-02T14:25:19.000Z</time>
      </trkpt>
      <trkpt lat="45.58927" lon="6.61229">
        <ele>2346.1999511719</ele>
        <time>2013-01-02T14:25:24.000Z</time>
      </trkpt>
      <trkpt lat="45.58931" lon="6.61232">
        <ele>2347.8000488281</ele>
        <time>2013-01-02T14:25:30.000Z</time>
      </trkpt>
      <trkpt lat="45.58934" lon="6.61235">
        <ele>2348.1999511719</ele>
        <time>2013-01-02T14:25:35.000Z</time>
      </trkpt>
      <trkpt lat="45.58936" lon="6.61237">
        <ele>2348.8000488281</ele>
        <time>2013-01-02T14:25:41.000Z</time>
      </trkpt>
      <trkpt lat="45.5894" lon="6.61239">
        <ele>2349.6000976562</ele>
        <time>2013-01-02T14:25:47.000Z</time>
      </trkpt>
      <trkpt lat="45.58943" lon="6.6124">
        <ele>2350.3999023438</ele>
        <time>2013-01-02T14:25:53.000Z</time>
      </trkpt>
      <trkpt lat="45.58947" lon="6.61241">
        <ele>2350.8000488281</ele>
        <time>2013-01-02T14:25:59.000Z</time>
      </trkpt>
      <trkpt lat="45.58952" lon="6.61243">
        <ele>2351.8000488281</ele>
        <time>2013-01-02T14:26:04.000Z</time>
      </trkpt>
      <trkpt lat="45.58956" lon="6.61243">
        <ele>2352.8000488281</ele>
        <time>2013-01-02T14:26:09.000Z</time>
      </trkpt>
      <trkpt lat="45.5896" lon="6.61243">
        <ele>2353.1999511719</ele>
        <time>2013-01-02T14:26:15.000Z</time>
      </trkpt>
      <trkpt lat="45.58961" lon="6.61242">
        <ele>2353.6000976562</ele>
        <time>2013-01-02T14:26:17.000Z</time>
      </trkpt>
      <trkpt lat="45.58966" lon="6.61239">
        <ele>2355</ele>
        <time>2013-01-02T14:26:28.000Z</time>
      </trkpt>
      <trkpt lat="45.5897" lon="6.61238">
        <ele>2356</ele>
        <time>2013-01-02T14:26:35.000Z</time>
      </trkpt>
      <trkpt lat="45.58971" lon="6.61237">
        <ele>2356.8000488281</ele>
        <time>2013-01-02T14:26:38.000Z</time>
      </trkpt>
      <trkpt lat="45.58975" lon="6.61234">
        <ele>2357.8000488281</ele>
        <time>2013-01-02T14:26:57.000Z</time>
      </trkpt>
      <trkpt lat="45.58976" lon="6.61234">
        <ele>2358.3999023438</ele>
        <time>2013-01-02T14:26:59.000Z</time>
      </trkpt>
      <trkpt lat="45.58981" lon="6.61233">
        <ele>2359</ele>
        <time>2013-01-02T14:27:05.000Z</time>
      </trkpt>
      <trkpt lat="45.58984" lon="6.61234">
        <ele>2359.6000976562</ele>
        <time>2013-01-02T14:27:09.000Z</time>
      </trkpt>
      <trkpt lat="45.58987" lon="6.61232">
        <ele>2360.3999023438</ele>
        <time>2013-01-02T14:27:13.000Z</time>
      </trkpt>
      <trkpt lat="45.58987" lon="6.61233">
        <ele>2360.6000976562</ele>
        <time>2013-01-02T14:27:14.000Z</time>
      </trkpt>
      <trkpt lat="45.58991" lon="6.61229">
        <ele>2361.8000488281</ele>
        <time>2013-01-02T14:27:25.000Z</time>
      </trkpt>
      <trkpt lat="45.58994" lon="6.61228">
        <ele>2362.6000976562</ele>
        <time>2013-01-02T14:27:30.000Z</time>
      </trkpt>
      <trkpt lat="45.58999" lon="6.61227">
        <ele>2364.1999511719</ele>
        <time>2013-01-02T14:27:38.000Z</time>
      </trkpt>
      <trkpt lat="45.59006" lon="6.61227">
        <ele>2365.1999511719</ele>
        <time>2013-01-02T14:27:46.000Z</time>
      </trkpt>
      <trkpt lat="45.5901" lon="6.61228">
        <ele>2366</ele>
        <time>2013-01-02T14:27:51.000Z</time>
      </trkpt>
      <trkpt lat="45.59013" lon="6.61227">
        <ele>2366.6000976562</ele>
        <time>2013-01-02T14:27:57.000Z</time>
      </trkpt>
      <trkpt lat="45.59014" lon="6.61227">
        <ele>2367.8000488281</ele>
        <time>2013-01-02T14:28:01.000Z</time>
      </trkpt>
      <trkpt lat="45.59019" lon="6.61229">
        <ele>2368.6000976562</ele>
        <time>2013-01-02T14:28:08.000Z</time>
      </trkpt>
      <trkpt lat="45.59023" lon="6.61231">
        <ele>2369.8000488281</ele>
        <time>2013-01-02T14:28:14.000Z</time>
      </trkpt>
      <trkpt lat="45.59023" lon="6.61231">
        <ele>2370.1999511719</ele>
        <time>2013-01-02T14:28:15.000Z</time>
      </trkpt>
      <trkpt lat="45.59026" lon="6.61233">
        <ele>2371.1999511719</ele>
        <time>2013-01-02T14:28:22.000Z</time>
      </trkpt>
      <trkpt lat="45.59028" lon="6.61235">
        <ele>2372.1999511719</ele>
        <time>2013-01-02T14:28:28.000Z</time>
      </trkpt>
      <trkpt lat="45.59031" lon="6.61237">
        <ele>2372.8000488281</ele>
        <time>2013-01-02T14:28:32.000Z</time>
      </trkpt>
      <trkpt lat="45.59032" lon="6.61239">
        <ele>2373.3999023438</ele>
        <time>2013-01-02T14:28:35.000Z</time>
      </trkpt>
      <trkpt lat="45.59038" lon="6.61246">
        <ele>2375.3999023438</ele>
        <time>2013-01-02T14:28:50.000Z</time>
      </trkpt>
      <trkpt lat="45.59048" lon="6.6125">
        <ele>2376.8000488281</ele>
        <time>2013-01-02T14:29:09.000Z</time>
      </trkpt>
      <trkpt lat="45.59048" lon="6.6125">
        <ele>2377.3999023438</ele>
        <time>2013-01-02T14:29:14.000Z</time>
      </trkpt>
      <trkpt lat="45.59049" lon="6.6125">
        <ele>2377.8000488281</ele>
        <time>2013-01-02T14:29:16.000Z</time>
      </trkpt>
      <trkpt lat="45.59055" lon="6.6125">
        <ele>2379</ele>
        <time>2013-01-02T14:29:26.000Z</time>
      </trkpt>
      <trkpt lat="45.59056" lon="6.6125">
        <ele>2379.6000976562</ele>
        <time>2013-01-02T14:29:29.000Z</time>
      </trkpt>
      <trkpt lat="45.5906" lon="6.61251">
        <ele>2380.1999511719</ele>
        <time>2013-01-02T14:29:34.000Z</time>
      </trkpt>
      <trkpt lat="45.59064" lon="6.61252">
        <ele>2381.3999023438</ele>
        <time>2013-01-02T14:29:39.000Z</time>
      </trkpt>
      <trkpt lat="45.59067" lon="6.61253">
        <ele>2382.3999023438</ele>
        <time>2013-01-02T14:29:44.000Z</time>
      </trkpt>
      <trkpt lat="45.59069" lon="6.61254">
        <ele>2382.8000488281</ele>
        <time>2013-01-02T14:29:48.000Z</time>
      </trkpt>
      <trkpt lat="45.59068" lon="6.61258">
        <ele>2383.8000488281</ele>
        <time>2013-01-02T14:29:53.000Z</time>
      </trkpt>
      <trkpt lat="45.5906" lon="6.61265">
        <ele>2385</ele>
        <time>2013-01-02T14:30:03.000Z</time>
      </trkpt>
      <trkpt lat="45.59055" lon="6.61272">
        <ele>2386.6000976562</ele>
        <time>2013-01-02T14:30:14.000Z</time>
      </trkpt>
      <trkpt lat="45.5905" lon="6.61278">
        <ele>2387.3999023438</ele>
        <time>2013-01-02T14:30:31.000Z</time>
      </trkpt>
      <trkpt lat="45.59044" lon="6.61282">
        <ele>2388.6000976562</ele>
        <time>2013-01-02T14:30:40.000Z</time>
      </trkpt>
      <trkpt lat="45.59042" lon="6.61283">
        <ele>2389.1999511719</ele>
        <time>2013-01-02T14:30:44.000Z</time>
      </trkpt>
      <trkpt lat="45.59039" lon="6.61286">
        <ele>2390.3999023438</ele>
        <time>2013-01-02T14:30:51.000Z</time>
      </trkpt>
      <trkpt lat="45.59037" lon="6.61289">
        <ele>2391</ele>
        <time>2013-01-02T14:30:57.000Z</time>
      </trkpt>
      <trkpt lat="45.59034" lon="6.61292">
        <ele>2392.1999511719</ele>
        <time>2013-01-02T14:31:05.000Z</time>
      </trkpt>
      <trkpt lat="45.5903" lon="6.61297">
        <ele>2393.6000976562</ele>
        <time>2013-01-02T14:31:14.000Z</time>
      </trkpt>
      <trkpt lat="45.59028" lon="6.613">
        <ele>2394.1999511719</ele>
        <time>2013-01-02T14:31:20.000Z</time>
      </trkpt>
      <trkpt lat="45.59023" lon="6.61305">
        <ele>2396</ele>
        <time>2013-01-02T14:31:30.000Z</time>
      </trkpt>
      <trkpt lat="45.59019" lon="6.61309">
        <ele>2397</ele>
        <time>2013-01-02T14:31:36.000Z</time>
      </trkpt>
      <trkpt lat="45.59016" lon="6.61316">
        <ele>2398.8000488281</ele>
        <time>2013-01-02T14:31:46.000Z</time>
      </trkpt>
      <trkpt lat="45.59014" lon="6.6132">
        <ele>2400</ele>
        <time>2013-01-02T14:31:52.000Z</time>
      </trkpt>
      <trkpt lat="45.59012" lon="6.61327">
        <ele>2401.1999511719</ele>
        <time>2013-01-02T14:32:00.000Z</time>
      </trkpt>
      <trkpt lat="45.5901" lon="6.61334">
        <ele>2402.6000976562</ele>
        <time>2013-01-02T14:32:08.000Z</time>
      </trkpt>
      <trkpt lat="45.59008" lon="6.61336">
        <ele>2403.3999023438</ele>
        <time>2013-01-02T14:32:11.000Z</time>
      </trkpt>
      <trkpt lat="45.59013" lon="6.6134">
        <ele>2406.1999511719</ele>
        <time>2013-01-02T14:32:47.000Z</time>
      </trkpt>
      <trkpt lat="45.59013" lon="6.61339">
        <ele>2406.3999023438</ele>
        <time>2013-01-02T14:32:48.000Z</time>
      </trkpt>
      <trkpt lat="45.59017" lon="6.61335">
        <ele>2406.6000976562</ele>
        <time>2013-01-02T14:33:02.000Z</time>
      </trkpt>
      <trkpt lat="45.59023" lon="6.61335">
        <ele>2408</ele>
        <time>2013-01-02T14:33:09.000Z</time>
      </trkpt>
      <trkpt lat="45.59028" lon="6.61333">
        <ele>2409</ele>
        <time>2013-01-02T14:33:15.000Z</time>
      </trkpt>
      <trkpt lat="45.59036" lon="6.61336">
        <ele>2410.1999511719</ele>
        <time>2013-01-02T14:33:23.000Z</time>
      </trkpt>
      <trkpt lat="45.59045" lon="6.61339">
        <ele>2411.3999023438</ele>
        <time>2013-01-02T14:33:33.000Z</time>
      </trkpt>
      <trkpt lat="45.59053" lon="6.61343">
        <ele>2412.6000976562</ele>
        <time>2013-01-02T14:33:42.000Z</time>
      </trkpt>
      <trkpt lat="45.5906" lon="6.61346">
        <ele>2414</ele>
        <time>2013-01-02T14:33:50.000Z</time>
      </trkpt>
      <trkpt lat="45.59064" lon="6.61348">
        <ele>2415.1999511719</ele>
        <time>2013-01-02T14:33:58.000Z</time>
      </trkpt>
      <trkpt lat="45.59071" lon="6.6135">
        <ele>2417</ele>
        <time>2013-01-02T14:34:07.000Z</time>
      </trkpt>
      <trkpt lat="45.59077" lon="6.6135">
        <ele>2418.1999511719</ele>
        <time>2013-01-02T14:34:15.000Z</time>
      </trkpt>
      <trkpt lat="45.59082" lon="6.61349">
        <ele>2419.6000976562</ele>
        <time>2013-01-02T14:34:23.000Z</time>
      </trkpt>
      <trkpt lat="45.59084" lon="6.61349">
        <ele>2420.3999023438</ele>
        <time>2013-01-02T14:34:27.000Z</time>
      </trkpt>
      <trkpt lat="45.59087" lon="6.61354">
        <ele>2421</ele>
        <time>2013-01-02T14:34:36.000Z</time>
      </trkpt>
      <trkpt lat="45.59089" lon="6.61357">
        <ele>2422</ele>
        <time>2013-01-02T14:34:42.000Z</time>
      </trkpt>
      <trkpt lat="45.59087" lon="6.61366">
        <ele>2423.6000976562</ele>
        <time>2013-01-02T14:34:53.000Z</time>
      </trkpt>
      <trkpt lat="45.59083" lon="6.61373">
        <ele>2424.3999023438</ele>
        <time>2013-01-02T14:35:02.000Z</time>
      </trkpt>
      <trkpt lat="45.59076" lon="6.6138">
        <ele>2426.1999511719</ele>
        <time>2013-01-02T14:35:10.000Z</time>
      </trkpt>
      <trkpt lat="45.59069" lon="6.61388">
        <ele>2428.3999023438</ele>
        <time>2013-01-02T14:35:20.000Z</time>
      </trkpt>
      <trkpt lat="45.59064" lon="6.61397">
        <ele>2430.1999511719</ele>
        <time>2013-01-02T14:35:30.000Z</time>
      </trkpt>
      <trkpt lat="45.59062" lon="6.61407">
        <ele>2431.8000488281</ele>
        <time>2013-01-02T14:35:39.000Z</time>
      </trkpt>
      <trkpt lat="45.59059" lon="6.61415">
        <ele>2433.3999023438</ele>
        <time>2013-01-02T14:35:48.000Z</time>
      </trkpt>
      <trkpt lat="45.59054" lon="6.61419">
        <ele>2434.8000488281</ele>
        <time>2013-01-02T14:35:56.000Z</time>
      </trkpt>
      <trkpt lat="45.59048" lon="6.61422">
        <ele>2436.1999511719</ele>
        <time>2013-01-02T14:36:06.000Z</time>
      </trkpt>
      <trkpt lat="45.59041" lon="6.61427">
        <ele>2437.6000976562</ele>
        <time>2013-01-02T14:36:17.000Z</time>
      </trkpt>
      <trkpt lat="45.59035" lon="6.61433">
        <ele>2438.8000488281</ele>
        <time>2013-01-02T14:36:28.000Z</time>
      </trkpt>
      <trkpt lat="45.5903" lon="6.61439">
        <ele>2440.6000976562</ele>
        <time>2013-01-02T14:36:38.000Z</time>
      </trkpt>
      <trkpt lat="45.59028" lon="6.61443">
        <ele>2441.6000976562</ele>
        <time>2013-01-02T14:36:45.000Z</time>
      </trkpt>
      <trkpt lat="45.59028" lon="6.61443">
        <ele>2441.6000976562</ele>
        <time>2013-01-02T14:36:46.000Z</time>
      </trkpt>
      <trkpt lat="45.59033" lon="6.61446">
        <ele>2443.1999511719</ele>
        <time>2013-01-02T14:36:56.000Z</time>
      </trkpt>
      <trkpt lat="45.59034" lon="6.61447">
        <ele>2443.3999023438</ele>
        <time>2013-01-02T14:36:57.000Z</time>
      </trkpt>
      <trkpt lat="45.59038" lon="6.61449">
        <ele>2444.8000488281</ele>
        <time>2013-01-02T14:37:05.000Z</time>
      </trkpt>
      <trkpt lat="45.59041" lon="6.6145">
        <ele>2445.8000488281</ele>
        <time>2013-01-02T14:37:10.000Z</time>
      </trkpt>
      <trkpt lat="45.59044" lon="6.61452">
        <ele>2446.8000488281</ele>
        <time>2013-01-02T14:37:26.000Z</time>
      </trkpt>
      <trkpt lat="45.59039" lon="6.61454">
        <ele>2448.1999511719</ele>
        <time>2013-01-02T14:37:38.000Z</time>
      </trkpt>
      <trkpt lat="45.59032" lon="6.61457">
        <ele>2449</ele>
        <time>2013-01-02T14:38:46.000Z</time>
      </trkpt>
      <trkpt lat="45.5903" lon="6.61463">
        <ele>2451</ele>
        <time>2013-01-02T14:38:54.000Z</time>
      </trkpt>
      <trkpt lat="45.59025" lon="6.61469">
        <ele>2453.1999511719</ele>
        <time>2013-01-02T14:39:04.000Z</time>
      </trkpt>
      <trkpt lat="45.59022" lon="6.61473">
        <ele>2454.8000488281</ele>
        <time>2013-01-02T14:39:12.000Z</time>
      </trkpt>
      <trkpt lat="45.5902" lon="6.61476">
        <ele>2455.8000488281</ele>
        <time>2013-01-02T14:39:17.000Z</time>
      </trkpt>
      <trkpt lat="45.59015" lon="6.6148">
        <ele>2457.6000976562</ele>
        <time>2013-01-02T14:39:27.000Z</time>
      </trkpt>
      <trkpt lat="45.59015" lon="6.6148">
        <ele>2457.6000976562</ele>
        <time>2013-01-02T14:39:28.000Z</time>
      </trkpt>
      <trkpt lat="45.5901" lon="6.61485">
        <ele>2459.6000976562</ele>
        <time>2013-01-02T14:39:39.000Z</time>
      </trkpt>
      <trkpt lat="45.59007" lon="6.61488">
        <ele>2461.1999511719</ele>
        <time>2013-01-02T14:39:47.000Z</time>
      </trkpt>
      <trkpt lat="45.5901" lon="6.6149">
        <ele>2462</ele>
        <time>2013-01-02T14:39:58.000Z</time>
      </trkpt>
      <trkpt lat="45.59016" lon="6.61494">
        <ele>2463.8000488281</ele>
        <time>2013-01-02T14:40:07.000Z</time>
      </trkpt>
      <trkpt lat="45.5902" lon="6.61497">
        <ele>2464.8000488281</ele>
        <time>2013-01-02T14:40:14.000Z</time>
      </trkpt>
      <trkpt lat="45.59023" lon="6.615">
        <ele>2466</ele>
        <time>2013-01-02T14:40:21.000Z</time>
      </trkpt>
      <trkpt lat="45.59029" lon="6.61502">
        <ele>2468</ele>
        <time>2013-01-02T14:40:32.000Z</time>
      </trkpt>
      <trkpt lat="45.59033" lon="6.61505">
        <ele>2469</ele>
        <time>2013-01-02T14:40:39.000Z</time>
      </trkpt>
      <trkpt lat="45.59035" lon="6.61506">
        <ele>2469.6000976562</ele>
        <time>2013-01-02T14:40:43.000Z</time>
      </trkpt>
      <trkpt lat="45.59037" lon="6.61508">
        <ele>2470.8000488281</ele>
        <time>2013-01-02T14:40:48.000Z</time>
      </trkpt>
      <trkpt lat="45.59043" lon="6.61512">
        <ele>2472.1999511719</ele>
        <time>2013-01-02T14:40:56.000Z</time>
      </trkpt>
      <trkpt lat="45.59046" lon="6.61513">
        <ele>2472.8000488281</ele>
        <time>2013-01-02T14:41:01.000Z</time>
      </trkpt>
      <trkpt lat="45.59051" lon="6.61515">
        <ele>2474.1999511719</ele>
        <time>2013-01-02T14:41:10.000Z</time>
      </trkpt>
      <trkpt lat="45.59054" lon="6.61516">
        <ele>2475</ele>
        <time>2013-01-02T14:41:14.000Z</time>
      </trkpt>
      <trkpt lat="45.59057" lon="6.61517">
        <ele>2476.1999511719</ele>
        <time>2013-01-02T14:41:21.000Z</time>
      </trkpt>
      <trkpt lat="45.59059" lon="6.61518">
        <ele>2477</ele>
        <time>2013-01-02T14:41:26.000Z</time>
      </trkpt>
      <trkpt lat="45.59062" lon="6.61519">
        <ele>2478</ele>
        <time>2013-01-02T14:41:31.000Z</time>
      </trkpt>
      <trkpt lat="45.59064" lon="6.61519">
        <ele>2479</ele>
        <time>2013-01-02T14:41:36.000Z</time>
      </trkpt>
      <trkpt lat="45.59068" lon="6.6152">
        <ele>2479.8000488281</ele>
        <time>2013-01-02T14:41:42.000Z</time>
      </trkpt>
      <trkpt lat="45.59069" lon="6.61521">
        <ele>2480.1999511719</ele>
        <time>2013-01-02T14:41:44.000Z</time>
      </trkpt>
      <trkpt lat="45.59066" lon="6.61525">
        <ele>2481.3999023438</ele>
        <time>2013-01-02T14:41:54.000Z</time>
      </trkpt>
      <trkpt lat="45.59062" lon="6.61532">
        <ele>2483.1999511719</ele>
        <time>2013-01-02T14:42:05.000Z</time>
      </trkpt>
      <trkpt lat="45.5906" lon="6.61541">
        <ele>2485.6000976562</ele>
        <time>2013-01-02T14:42:17.000Z</time>
      </trkpt>
      <trkpt lat="45.59056" lon="6.61548">
        <ele>2488</ele>
        <time>2013-01-02T14:42:30.000Z</time>
      </trkpt>
      <trkpt lat="45.59053" lon="6.61555">
        <ele>2489.8000488281</ele>
        <time>2013-01-02T14:42:39.000Z</time>
      </trkpt>
      <trkpt lat="45.59051" lon="6.61561">
        <ele>2491.1999511719</ele>
        <time>2013-01-02T14:42:48.000Z</time>
      </trkpt>
      <trkpt lat="45.59045" lon="6.61564">
        <ele>2492.3999023438</ele>
        <time>2013-01-02T14:42:57.000Z</time>
      </trkpt>
      <trkpt lat="45.59037" lon="6.61565">
        <ele>2494</ele>
        <time>2013-01-02T14:43:08.000Z</time>
      </trkpt>
      <trkpt lat="45.5903" lon="6.61568">
        <ele>2495.6000976562</ele>
        <time>2013-01-02T14:43:18.000Z</time>
      </trkpt>
      <trkpt lat="45.59023" lon="6.6157">
        <ele>2498.1999511719</ele>
        <time>2013-01-02T14:43:29.000Z</time>
      </trkpt>
      <trkpt lat="45.59021" lon="6.61571">
        <ele>2499.8000488281</ele>
        <time>2013-01-02T14:43:35.000Z</time>
      </trkpt>
      <trkpt lat="45.59019" lon="6.61572">
        <ele>2500.3999023438</ele>
        <time>2013-01-02T14:44:03.000Z</time>
      </trkpt>
      <trkpt lat="45.59015" lon="6.61573">
        <ele>2500.6000976562</ele>
        <time>2013-01-02T14:44:07.000Z</time>
      </trkpt>
      <trkpt lat="45.59003" lon="6.61577">
        <ele>2501.6000976562</ele>
        <time>2013-01-02T14:44:20.000Z</time>
      </trkpt>
      <trkpt lat="45.58996" lon="6.6158">
        <ele>2502.8000488281</ele>
        <time>2013-01-02T14:44:30.000Z</time>
      </trkpt>
      <trkpt lat="45.58989" lon="6.61583">
        <ele>2505.1999511719</ele>
        <time>2013-01-02T14:44:42.000Z</time>
      </trkpt>
      <trkpt lat="45.58985" lon="6.61583">
        <ele>2506.3999023438</ele>
        <time>2013-01-02T14:44:48.000Z</time>
      </trkpt>
      <trkpt lat="45.58985" lon="6.61583">
        <ele>2506.8000488281</ele>
        <time>2013-01-02T14:44:49.000Z</time>
      </trkpt>
      <trkpt lat="45.58982" lon="6.61584">
        <ele>2507.8000488281</ele>
        <time>2013-01-02T14:44:53.000Z</time>
      </trkpt>
      <trkpt lat="45.58974" lon="6.61589">
        <ele>2509</ele>
        <time>2013-01-02T14:45:04.000Z</time>
      </trkpt>
      <trkpt lat="45.58967" lon="6.61593">
        <ele>2511</ele>
        <time>2013-01-02T14:45:15.000Z</time>
      </trkpt>
      <trkpt lat="45.58961" lon="6.61595">
        <ele>2513.3999023438</ele>
        <time>2013-01-02T14:45:25.000Z</time>
      </trkpt>
      <trkpt lat="45.58956" lon="6.61596">
        <ele>2515.8000488281</ele>
        <time>2013-01-02T14:45:36.000Z</time>
      </trkpt>
      <trkpt lat="45.58951" lon="6.61597">
        <ele>2517.8000488281</ele>
        <time>2013-01-02T14:45:46.000Z</time>
      </trkpt>
      <trkpt lat="45.58947" lon="6.61597">
        <ele>2518.1999511719</ele>
        <time>2013-01-02T14:45:52.000Z</time>
      </trkpt>
      <trkpt lat="45.58947" lon="6.61597">
        <ele>2518</ele>
        <time>2013-01-02T14:45:54.000Z</time>
      </trkpt>
      <trkpt lat="45.58939" lon="6.6159">
        <ele>2515</ele>
        <time>2013-01-02T14:56:05.000Z</time>
      </trkpt>
      <trkpt lat="45.58936" lon="6.6159">
        <ele>2514.3999023438</ele>
        <time>2013-01-02T14:56:10.000Z</time>
      </trkpt>
      <trkpt lat="45.58929" lon="6.6159">
        <ele>2514</ele>
        <time>2013-01-02T14:56:16.000Z</time>
      </trkpt>
      <trkpt lat="45.58925" lon="6.6159">
        <ele>2513.8000488281</ele>
        <time>2013-01-02T14:56:21.000Z</time>
      </trkpt>
      <trkpt lat="45.58916" lon="6.61582">
        <ele>2512.8000488281</ele>
        <time>2013-01-02T14:56:33.000Z</time>
      </trkpt>
      <trkpt lat="45.58905" lon="6.6157">
        <ele>2511.8000488281</ele>
        <time>2013-01-02T14:56:40.000Z</time>
      </trkpt>
      <trkpt lat="45.58895" lon="6.6156">
        <ele>2510.1999511719</ele>
        <time>2013-01-02T14:56:45.000Z</time>
      </trkpt>
      <trkpt lat="45.58894" lon="6.61559">
        <ele>2510</ele>
        <time>2013-01-02T14:56:48.000Z</time>
      </trkpt>
      <trkpt lat="45.58891" lon="6.61555">
        <ele>2509.8000488281</ele>
        <time>2013-01-02T14:56:53.000Z</time>
      </trkpt>
      <trkpt lat="45.58882" lon="6.61547">
        <ele>2509.1999511719</ele>
        <time>2013-01-02T14:56:57.000Z</time>
      </trkpt>
      <trkpt lat="45.58875" lon="6.61543">
        <ele>2508</ele>
        <time>2013-01-02T14:56:59.000Z</time>
      </trkpt>
      <trkpt lat="45.58867" lon="6.61534">
        <ele>2504.6000976562</ele>
        <time>2013-01-02T14:57:03.000Z</time>
      </trkpt>
      <trkpt lat="45.58861" lon="6.6153">
        <ele>2502.8000488281</ele>
        <time>2013-01-02T14:57:07.000Z</time>
      </trkpt>
      <trkpt lat="45.58852" lon="6.61519">
        <ele>2499</ele>
        <time>2013-01-02T14:57:11.000Z</time>
      </trkpt>
      <trkpt lat="45.58845" lon="6.61508">
        <ele>2495.8000488281</ele>
        <time>2013-01-02T14:57:15.000Z</time>
      </trkpt>
      <trkpt lat="45.58835" lon="6.61498">
        <ele>2493</ele>
        <time>2013-01-02T14:57:19.000Z</time>
      </trkpt>
      <trkpt lat="45.58825" lon="6.61488">
        <ele>2489.8000488281</ele>
        <time>2013-01-02T14:57:22.000Z</time>
      </trkpt>
      <trkpt lat="45.58816" lon="6.61477">
        <ele>2486.8000488281</ele>
        <time>2013-01-02T14:57:25.000Z</time>
      </trkpt>
      <trkpt lat="45.58809" lon="6.61468">
        <ele>2484.6000976562</ele>
        <time>2013-01-02T14:57:28.000Z</time>
      </trkpt>
      <trkpt lat="45.58794" lon="6.61445">
        <ele>2480.8000488281</ele>
        <time>2013-01-02T14:57:34.000Z</time>
      </trkpt>
      <trkpt lat="45.58785" lon="6.61427">
        <ele>2478.3999023438</ele>
        <time>2013-01-02T14:57:39.000Z</time>
      </trkpt>
      <trkpt lat="45.58778" lon="6.61416">
        <ele>2477.1999511719</ele>
        <time>2013-01-02T14:57:45.000Z</time>
      </trkpt>
      <trkpt lat="45.58776" lon="6.61414">
        <ele>2476.6000976562</ele>
        <time>2013-01-02T14:57:49.000Z</time>
      </trkpt>
      <trkpt lat="45.58775" lon="6.61411">
        <ele>2476.1999511719</ele>
        <time>2013-01-02T14:58:17.000Z</time>
      </trkpt>
      <trkpt lat="45.58767" lon="6.61403">
        <ele>2475.1999511719</ele>
        <time>2013-01-02T14:58:21.000Z</time>
      </trkpt>
      <trkpt lat="45.58757" lon="6.61388">
        <ele>2473.6000976562</ele>
        <time>2013-01-02T14:58:25.000Z</time>
      </trkpt>
      <trkpt lat="45.58749" lon="6.61375">
        <ele>2472.6000976562</ele>
        <time>2013-01-02T14:58:31.000Z</time>
      </trkpt>
      <trkpt lat="45.58741" lon="6.61363">
        <ele>2471.6000976562</ele>
        <time>2013-01-02T14:58:36.000Z</time>
      </trkpt>
      <trkpt lat="45.58737" lon="6.61357">
        <ele>2471.3999023438</ele>
        <time>2013-01-02T14:58:44.000Z</time>
      </trkpt>
      <trkpt lat="45.58732" lon="6.61347">
        <ele>2471.6000976562</ele>
        <time>2013-01-02T14:58:55.000Z</time>
      </trkpt>
      <trkpt lat="45.58729" lon="6.61343">
        <ele>2471.8000488281</ele>
        <time>2013-01-02T14:59:01.000Z</time>
      </trkpt>
      <trkpt lat="45.58728" lon="6.6134">
        <ele>2471.8000488281</ele>
        <time>2013-01-02T14:59:05.000Z</time>
      </trkpt>
      <trkpt lat="45.58726" lon="6.61338">
        <ele>2471.8000488281</ele>
        <time>2013-01-02T14:59:10.000Z</time>
      </trkpt>
      <trkpt lat="45.58722" lon="6.61332">
        <ele>2471.6000976562</ele>
        <time>2013-01-02T14:59:16.000Z</time>
      </trkpt>
      <trkpt lat="45.58719" lon="6.61326">
        <ele>2470.8000488281</ele>
        <time>2013-01-02T14:59:20.000Z</time>
      </trkpt>
      <trkpt lat="45.58719" lon="6.61325">
        <ele>2470.8000488281</ele>
        <time>2013-01-02T14:59:22.000Z</time>
      </trkpt>
      <trkpt lat="45.58716" lon="6.61316">
        <ele>2470.3999023438</ele>
        <time>2013-01-02T14:59:31.000Z</time>
      </trkpt>
      <trkpt lat="45.58708" lon="6.61301">
        <ele>2469.6000976562</ele>
        <time>2013-01-02T14:59:38.000Z</time>
      </trkpt>
      <trkpt lat="45.58705" lon="6.61296">
        <ele>2469</ele>
        <time>2013-01-02T14:59:39.000Z</time>
      </trkpt>
      <trkpt lat="45.58694" lon="6.6126">
        <ele>2465.3999023438</ele>
        <time>2013-01-02T14:59:45.000Z</time>
      </trkpt>
      <trkpt lat="45.58694" lon="6.61258">
        <ele>2464.6000976562</ele>
        <time>2013-01-02T14:59:49.000Z</time>
      </trkpt>
      <trkpt lat="45.58694" lon="6.61257">
        <ele>2464.8000488281</ele>
        <time>2013-01-02T14:59:50.000Z</time>
      </trkpt>
      <trkpt lat="45.58688" lon="6.61242">
        <ele>2464</ele>
        <time>2013-01-02T14:59:57.000Z</time>
      </trkpt>
      <trkpt lat="45.58687" lon="6.61241">
        <ele>2463.6000976562</ele>
        <time>2013-01-02T14:59:59.000Z</time>
      </trkpt>
      <trkpt lat="45.58688" lon="6.61235">
        <ele>2464.8000488281</ele>
        <time>2013-01-02T15:00:43.000Z</time>
      </trkpt>
      <trkpt lat="45.58688" lon="6.61234">
        <ele>2464.8000488281</ele>
        <time>2013-01-02T15:00:44.000Z</time>
      </trkpt>
      <trkpt lat="45.58687" lon="6.61233">
        <ele>2464.6000976562</ele>
        <time>2013-01-02T15:00:48.000Z</time>
      </trkpt>
      <trkpt lat="45.58686" lon="6.61228">
        <ele>2465.8000488281</ele>
        <time>2013-01-02T15:01:03.000Z</time>
      </trkpt>
      <trkpt lat="45.58686" lon="6.61227">
        <ele>2465.8000488281</ele>
        <time>2013-01-02T15:01:04.000Z</time>
      </trkpt>
      <trkpt lat="45.58682" lon="6.61219">
        <ele>2465</ele>
        <time>2013-01-02T15:01:14.000Z</time>
      </trkpt>
      <trkpt lat="45.58681" lon="6.61216">
        <ele>2464.8000488281</ele>
        <time>2013-01-02T15:01:23.000Z</time>
      </trkpt>
      <trkpt lat="45.58678" lon="6.61206">
        <ele>2464.6000976562</ele>
        <time>2013-01-02T15:01:31.000Z</time>
      </trkpt>
      <trkpt lat="45.58677" lon="6.61202">
        <ele>2464.8000488281</ele>
        <time>2013-01-02T15:01:38.000Z</time>
      </trkpt>
      <trkpt lat="45.58673" lon="6.61194">
        <ele>2465</ele>
        <time>2013-01-02T15:01:49.000Z</time>
      </trkpt>
      <trkpt lat="45.58669" lon="6.61184">
        <ele>2464.3999023438</ele>
        <time>2013-01-02T15:01:55.000Z</time>
      </trkpt>
      <trkpt lat="45.58667" lon="6.61174">
        <ele>2463.8000488281</ele>
        <time>2013-01-02T15:02:00.000Z</time>
      </trkpt>
      <trkpt lat="45.58667" lon="6.61173">
        <ele>2463.8000488281</ele>
        <time>2013-01-02T15:02:03.000Z</time>
      </trkpt>
      <trkpt lat="45.5866" lon="6.61156">
        <ele>2457.6000976562</ele>
        <time>2013-01-02T15:02:36.000Z</time>
      </trkpt>
      <trkpt lat="45.58648" lon="6.61137">
        <ele>2461.3999023438</ele>
        <time>2013-01-02T15:02:40.000Z</time>
      </trkpt>
      <trkpt lat="45.58639" lon="6.61125">
        <ele>2456.8000488281</ele>
        <time>2013-01-02T15:02:43.000Z</time>
      </trkpt>
      <trkpt lat="45.58637" lon="6.61114">
        <ele>2449.6000976562</ele>
        <time>2013-01-02T15:02:46.000Z</time>
      </trkpt>
      <trkpt lat="45.58633" lon="6.61101">
        <ele>2446</ele>
        <time>2013-01-02T15:02:50.000Z</time>
      </trkpt>
      <trkpt lat="45.58623" lon="6.61086">
        <ele>2441.6000976562</ele>
        <time>2013-01-02T15:02:53.000Z</time>
      </trkpt>
      <trkpt lat="45.58615" lon="6.6108">
        <ele>2437.3999023438</ele>
        <time>2013-01-02T15:02:55.000Z</time>
      </trkpt>
      <trkpt lat="45.58603" lon="6.61078">
        <ele>2432.8000488281</ele>
        <time>2013-01-02T15:02:58.000Z</time>
      </trkpt>
      <trkpt lat="45.58591" lon="6.61075">
        <ele>2429.1999511719</ele>
        <time>2013-01-02T15:03:01.000Z</time>
      </trkpt>
      <trkpt lat="45.58587" lon="6.61067">
        <ele>2426</ele>
        <time>2013-01-02T15:03:03.000Z</time>
      </trkpt>
      <trkpt lat="45.58579" lon="6.61067">
        <ele>2423</ele>
        <time>2013-01-02T15:03:05.000Z</time>
      </trkpt>
      <trkpt lat="45.58572" lon="6.61064">
        <ele>2418.8000488281</ele>
        <time>2013-01-02T15:03:07.000Z</time>
      </trkpt>
      <trkpt lat="45.58557" lon="6.61059">
        <ele>2411</ele>
        <time>2013-01-02T15:03:12.000Z</time>
      </trkpt>
      <trkpt lat="45.58548" lon="6.61052">
        <ele>2406</ele>
        <time>2013-01-02T15:03:15.000Z</time>
      </trkpt>
      <trkpt lat="45.58541" lon="6.61053">
        <ele>2401</ele>
        <time>2013-01-02T15:03:17.000Z</time>
      </trkpt>
      <trkpt lat="45.58535" lon="6.61046">
        <ele>2398</ele>
        <time>2013-01-02T15:03:19.000Z</time>
      </trkpt>
      <trkpt lat="45.58526" lon="6.61034">
        <ele>2393.8000488281</ele>
        <time>2013-01-02T15:03:22.000Z</time>
      </trkpt>
      <trkpt lat="45.58518" lon="6.61023">
        <ele>2389.6000976562</ele>
        <time>2013-01-02T15:03:25.000Z</time>
      </trkpt>
      <trkpt lat="45.58515" lon="6.61013">
        <ele>2386.8000488281</ele>
        <time>2013-01-02T15:03:27.000Z</time>
      </trkpt>
      <trkpt lat="45.5851" lon="6.61008">
        <ele>2383.1999511719</ele>
        <time>2013-01-02T15:03:29.000Z</time>
      </trkpt>
      <trkpt lat="45.58507" lon="6.61011">
        <ele>2381</ele>
        <time>2013-01-02T15:03:32.000Z</time>
      </trkpt>
      <trkpt lat="45.58507" lon="6.61011">
        <ele>2381</ele>
        <time>2013-01-02T15:03:33.000Z</time>
      </trkpt>
      <trkpt lat="45.58509" lon="6.61009">
        <ele>2380.1999511719</ele>
        <time>2013-01-02T15:03:40.000Z</time>
      </trkpt>
      <trkpt lat="45.58507" lon="6.61011">
        <ele>2381</ele>
        <time>2013-01-02T15:05:11.000Z</time>
      </trkpt>
      <trkpt lat="45.58501" lon="6.61005">
        <ele>2378</ele>
        <time>2013-01-02T15:07:48.000Z</time>
      </trkpt>
      <trkpt lat="45.58501" lon="6.61004">
        <ele>2378.1999511719</ele>
        <time>2013-01-02T15:07:49.000Z</time>
      </trkpt>
      <trkpt lat="45.58483" lon="6.60978">
        <ele>2372</ele>
        <time>2013-01-02T15:07:56.000Z</time>
      </trkpt>
      <trkpt lat="45.58472" lon="6.60975">
        <ele>2368.8000488281</ele>
        <time>2013-01-02T15:07:59.000Z</time>
      </trkpt>
      <trkpt lat="45.58466" lon="6.60969">
        <ele>2367.1999511719</ele>
        <time>2013-01-02T15:08:02.000Z</time>
      </trkpt>
      <trkpt lat="45.58459" lon="6.60962">
        <ele>2364</ele>
        <time>2013-01-02T15:08:05.000Z</time>
      </trkpt>
      <trkpt lat="45.58448" lon="6.60957">
        <ele>2361</ele>
        <time>2013-01-02T15:08:08.000Z</time>
      </trkpt>
      <trkpt lat="45.58441" lon="6.60951">
        <ele>2358.3999023438</ele>
        <time>2013-01-02T15:08:11.000Z</time>
      </trkpt>
      <trkpt lat="45.58437" lon="6.60951">
        <ele>2356</ele>
        <time>2013-01-02T15:08:14.000Z</time>
      </trkpt>
      <trkpt lat="45.58438" lon="6.60949">
        <ele>2355</ele>
        <time>2013-01-02T15:08:19.000Z</time>
      </trkpt>
      <trkpt lat="45.58438" lon="6.60948">
        <ele>2355</ele>
        <time>2013-01-02T15:08:20.000Z</time>
      </trkpt>
      <trkpt lat="45.58437" lon="6.6095">
        <ele>2354.8000488281</ele>
        <time>2013-01-02T15:08:39.000Z</time>
      </trkpt>
      <trkpt lat="45.58434" lon="6.60954">
        <ele>2353.6000976562</ele>
        <time>2013-01-02T15:09:14.000Z</time>
      </trkpt>
      <trkpt lat="45.58433" lon="6.60955">
        <ele>2353</ele>
        <time>2013-01-02T15:09:15.000Z</time>
      </trkpt>
      <trkpt lat="45.58434" lon="6.60971">
        <ele>2351.8000488281</ele>
        <time>2013-01-02T15:09:37.000Z</time>
      </trkpt>
      <trkpt lat="45.5843" lon="6.60979">
        <ele>2348.1999511719</ele>
        <time>2013-01-02T15:09:40.000Z</time>
      </trkpt>
      <trkpt lat="45.58423" lon="6.60986">
        <ele>2344.3999023438</ele>
        <time>2013-01-02T15:09:42.000Z</time>
      </trkpt>
      <trkpt lat="45.58413" lon="6.60987">
        <ele>2342.3999023438</ele>
        <time>2013-01-02T15:09:44.000Z</time>
      </trkpt>
      <trkpt lat="45.58406" lon="6.60993">
        <ele>2336.8000488281</ele>
        <time>2013-01-02T15:09:46.000Z</time>
      </trkpt>
      <trkpt lat="45.58395" lon="6.6099">
        <ele>2333.8000488281</ele>
        <time>2013-01-02T15:09:48.000Z</time>
      </trkpt>
      <trkpt lat="45.58388" lon="6.60987">
        <ele>2327.6000976562</ele>
        <time>2013-01-02T15:09:50.000Z</time>
      </trkpt>
      <trkpt lat="45.58379" lon="6.6098">
        <ele>2322.1999511719</ele>
        <time>2013-01-02T15:09:52.000Z</time>
      </trkpt>
      <trkpt lat="45.58368" lon="6.60983">
        <ele>2318.3999023438</ele>
        <time>2013-01-02T15:09:54.000Z</time>
      </trkpt>
      <trkpt lat="45.58356" lon="6.60985">
        <ele>2314</ele>
        <time>2013-01-02T15:09:56.000Z</time>
      </trkpt>
      <trkpt lat="45.58318" lon="6.6099">
        <ele>2304</ele>
        <time>2013-01-02T15:10:01.000Z</time>
      </trkpt>
      <trkpt lat="45.58311" lon="6.60992">
        <ele>2299.3999023438</ele>
        <time>2013-01-02T15:10:02.000Z</time>
      </trkpt>
      <trkpt lat="45.58298" lon="6.60997">
        <ele>2291</ele>
        <time>2013-01-02T15:10:07.000Z</time>
      </trkpt>
      <trkpt lat="45.58299" lon="6.60997">
        <ele>2289.1999511719</ele>
        <time>2013-01-02T15:10:08.000Z</time>
      </trkpt>
      <trkpt lat="45.58297" lon="6.61">
        <ele>2288.1999511719</ele>
        <time>2013-01-02T15:10:10.000Z</time>
      </trkpt>
      <trkpt lat="45.58291" lon="6.6099">
        <ele>2286.6000976562</ele>
        <time>2013-01-02T15:10:13.000Z</time>
      </trkpt>
      <trkpt lat="45.58283" lon="6.60992">
        <ele>2284</ele>
        <time>2013-01-02T15:10:15.000Z</time>
      </trkpt>
      <trkpt lat="45.58275" lon="6.60986">
        <ele>2280.8000488281</ele>
        <time>2013-01-02T15:10:17.000Z</time>
      </trkpt>
      <trkpt lat="45.58272" lon="6.60989">
        <ele>2278.1999511719</ele>
        <time>2013-01-02T15:10:18.000Z</time>
      </trkpt>
      <trkpt lat="45.58264" lon="6.60989">
        <ele>2273.6000976562</ele>
        <time>2013-01-02T15:10:21.000Z</time>
      </trkpt>
      <trkpt lat="45.58256" lon="6.60985">
        <ele>2270.1999511719</ele>
        <time>2013-01-02T15:10:23.000Z</time>
      </trkpt>
      <trkpt lat="45.58256" lon="6.60989">
        <ele>2264.1999511719</ele>
        <time>2013-01-02T15:10:27.000Z</time>
      </trkpt>
      <trkpt lat="45.58257" lon="6.60989">
        <ele>2263.6000976562</ele>
        <time>2013-01-02T15:10:29.000Z</time>
      </trkpt>
      <trkpt lat="45.58255" lon="6.60986">
        <ele>2262</ele>
        <time>2013-01-02T15:11:28.000Z</time>
      </trkpt>
      <trkpt lat="45.58246" lon="6.60982">
        <ele>2258.1999511719</ele>
        <time>2013-01-02T15:11:31.000Z</time>
      </trkpt>
      <trkpt lat="45.58243" lon="6.60978">
        <ele>2257.8000488281</ele>
        <time>2013-01-02T15:11:32.000Z</time>
      </trkpt>
      <trkpt lat="45.58223" lon="6.60973">
        <ele>2247.1999511719</ele>
        <time>2013-01-02T15:11:37.000Z</time>
      </trkpt>
      <trkpt lat="45.58215" lon="6.60975">
        <ele>2243.1999511719</ele>
        <time>2013-01-02T15:11:39.000Z</time>
      </trkpt>
      <trkpt lat="45.58206" lon="6.60971">
        <ele>2239.6000976562</ele>
        <time>2013-01-02T15:11:41.000Z</time>
      </trkpt>
      <trkpt lat="45.582" lon="6.60979">
        <ele>2234.1999511719</ele>
        <time>2013-01-02T15:11:43.000Z</time>
      </trkpt>
      <trkpt lat="45.58191" lon="6.60981">
        <ele>2228</ele>
        <time>2013-01-02T15:11:45.000Z</time>
      </trkpt>
      <trkpt lat="45.58183" lon="6.60988">
        <ele>2225.1999511719</ele>
        <time>2013-01-02T15:11:47.000Z</time>
      </trkpt>
      <trkpt lat="45.58177" lon="6.60996">
        <ele>2219.8000488281</ele>
        <time>2013-01-02T15:11:49.000Z</time>
      </trkpt>
      <trkpt lat="45.58164" lon="6.6101">
        <ele>2211.3999023438</ele>
        <time>2013-01-02T15:11:53.000Z</time>
      </trkpt>
      <trkpt lat="45.58152" lon="6.61002">
        <ele>2205.1999511719</ele>
        <time>2013-01-02T15:11:56.000Z</time>
      </trkpt>
      <trkpt lat="45.58148" lon="6.61016">
        <ele>2198.1999511719</ele>
        <time>2013-01-02T15:11:59.000Z</time>
      </trkpt>
      <trkpt lat="45.58135" lon="6.61021">
        <ele>2193.6000976562</ele>
        <time>2013-01-02T15:12:02.000Z</time>
      </trkpt>
      <trkpt lat="45.58122" lon="6.61025">
        <ele>2187.3999023438</ele>
        <time>2013-01-02T15:12:05.000Z</time>
      </trkpt>
      <trkpt lat="45.58106" lon="6.61031">
        <ele>2178.1999511719</ele>
        <time>2013-01-02T15:12:08.000Z</time>
      </trkpt>
      <trkpt lat="45.58106" lon="6.6104">
        <ele>2174</ele>
        <time>2013-01-02T15:12:10.000Z</time>
      </trkpt>
      <trkpt lat="45.58108" lon="6.61039">
        <ele>2170.8000488281</ele>
        <time>2013-01-02T15:12:13.000Z</time>
      </trkpt>
      <trkpt lat="45.58108" lon="6.61039">
        <ele>2170.6000976562</ele>
        <time>2013-01-02T15:12:14.000Z</time>
      </trkpt>
      <trkpt lat="45.58109" lon="6.61039">
        <ele>2170.8000488281</ele>
        <time>2013-01-02T15:12:16.000Z</time>
      </trkpt>
      <trkpt lat="45.58098" lon="6.61039">
        <ele>2168.3999023438</ele>
        <time>2013-01-02T15:12:29.000Z</time>
      </trkpt>
      <trkpt lat="45.58093" lon="6.61049">
        <ele>2165</ele>
        <time>2013-01-02T15:12:32.000Z</time>
      </trkpt>
      <trkpt lat="45.58081" lon="6.6105">
        <ele>2160.3999023438</ele>
        <time>2013-01-02T15:12:35.000Z</time>
      </trkpt>
      <trkpt lat="45.58067" lon="6.61043">
        <ele>2154.3999023438</ele>
        <time>2013-01-02T15:12:38.000Z</time>
      </trkpt>
      <trkpt lat="45.58059" lon="6.61046">
        <ele>2148.8000488281</ele>
        <time>2013-01-02T15:12:40.000Z</time>
      </trkpt>
      <trkpt lat="45.58049" lon="6.61047">
        <ele>2141.1999511719</ele>
        <time>2013-01-02T15:12:44.000Z</time>
      </trkpt>
      <trkpt lat="45.58043" lon="6.61046">
        <ele>2137</ele>
        <time>2013-01-02T15:12:47.000Z</time>
      </trkpt>
      <trkpt lat="45.58045" lon="6.61047">
        <ele>2134.1999511719</ele>
        <time>2013-01-02T15:12:51.000Z</time>
      </trkpt>
      <trkpt lat="45.58039" lon="6.61036">
        <ele>2129.3999023438</ele>
        <time>2013-01-02T15:13:06.000Z</time>
      </trkpt>
      <trkpt lat="45.58034" lon="6.61025">
        <ele>2127.3999023438</ele>
        <time>2013-01-02T15:13:08.000Z</time>
      </trkpt>
      <trkpt lat="45.58023" lon="6.61007">
        <ele>2125.3999023438</ele>
        <time>2013-01-02T15:13:12.000Z</time>
      </trkpt>
      <trkpt lat="45.58019" lon="6.60992">
        <ele>2125.1999511719</ele>
        <time>2013-01-02T15:13:18.000Z</time>
      </trkpt>
      <trkpt lat="45.58019" lon="6.60988">
        <ele>2124.6000976562</ele>
        <time>2013-01-02T15:13:19.000Z</time>
      </trkpt>
      <trkpt lat="45.58012" lon="6.6096">
        <ele>2121</ele>
        <time>2013-01-02T15:13:23.000Z</time>
      </trkpt>
      <trkpt lat="45.58003" lon="6.60953">
        <ele>2119.1999511719</ele>
        <time>2013-01-02T15:13:25.000Z</time>
      </trkpt>
      <trkpt lat="45.57994" lon="6.60947">
        <ele>2117.8000488281</ele>
        <time>2013-01-02T15:13:27.000Z</time>
      </trkpt>
      <trkpt lat="45.57991" lon="6.60942">
        <ele>2116.1999511719</ele>
        <time>2013-01-02T15:13:30.000Z</time>
      </trkpt>
      <trkpt lat="45.57986" lon="6.60932">
        <ele>2114.8000488281</ele>
        <time>2013-01-02T15:13:44.000Z</time>
      </trkpt>
      <trkpt lat="45.57985" lon="6.60928">
        <ele>2114</ele>
        <time>2013-01-02T15:13:45.000Z</time>
      </trkpt>
      <trkpt lat="45.57979" lon="6.60933">
        <ele>2110.8000488281</ele>
        <time>2013-01-02T15:13:48.000Z</time>
      </trkpt>
      <trkpt lat="45.57979" lon="6.60937">
        <ele>2108</ele>
        <time>2013-01-02T15:13:51.000Z</time>
      </trkpt>
      <trkpt lat="45.57978" lon="6.6094">
        <ele>2107.6000976562</ele>
        <time>2013-01-02T15:13:54.000Z</time>
      </trkpt>
      <trkpt lat="45.57965" lon="6.60928">
        <ele>2103.8000488281</ele>
        <time>2013-01-02T15:13:58.000Z</time>
      </trkpt>
      <trkpt lat="45.57955" lon="6.60907">
        <ele>2098.8000488281</ele>
        <time>2013-01-02T15:14:01.000Z</time>
      </trkpt>
      <trkpt lat="45.57949" lon="6.60909">
        <ele>2094.8000488281</ele>
        <time>2013-01-02T15:14:05.000Z</time>
      </trkpt>
      <trkpt lat="45.57943" lon="6.60913">
        <ele>2090.3999023438</ele>
        <time>2013-01-02T15:14:08.000Z</time>
      </trkpt>
      <trkpt lat="45.57937" lon="6.60913">
        <ele>2086.3999023438</ele>
        <time>2013-01-02T15:14:11.000Z</time>
      </trkpt>
      <trkpt lat="45.57936" lon="6.60921">
        <ele>2084.3999023438</ele>
        <time>2013-01-02T15:14:13.000Z</time>
      </trkpt>
      <trkpt lat="45.57937" lon="6.60922">
        <ele>2083.3999023438</ele>
        <time>2013-01-02T15:14:14.000Z</time>
      </trkpt>
      <trkpt lat="45.57932" lon="6.60914">
        <ele>2079.8000488281</ele>
        <time>2013-01-02T15:14:18.000Z</time>
      </trkpt>
      <trkpt lat="45.5793" lon="6.60909">
        <ele>2079.1999511719</ele>
        <time>2013-01-02T15:14:20.000Z</time>
      </trkpt>
      <trkpt lat="45.5793" lon="6.60908">
        <ele>2078.1999511719</ele>
        <time>2013-01-02T15:14:21.000Z</time>
      </trkpt>
      <trkpt lat="45.57926" lon="6.60903">
        <ele>2077.8000488281</ele>
        <time>2013-01-02T15:14:25.000Z</time>
      </trkpt>
      <trkpt lat="45.57923" lon="6.60896">
        <ele>2076.3999023438</ele>
        <time>2013-01-02T15:14:29.000Z</time>
      </trkpt>
      <trkpt lat="45.5792" lon="6.60894">
        <ele>2075.8000488281</ele>
        <time>2013-01-02T15:14:39.000Z</time>
      </trkpt>
      <trkpt lat="45.5791" lon="6.60885">
        <ele>2073.1999511719</ele>
        <time>2013-01-02T15:14:43.000Z</time>
      </trkpt>
      <trkpt lat="45.57905" lon="6.60878">
        <ele>2071.6000976562</ele>
        <time>2013-01-02T15:14:45.000Z</time>
      </trkpt>
      <trkpt lat="45.57904" lon="6.60891">
        <ele>2068.3999023438</ele>
        <time>2013-01-02T15:14:50.000Z</time>
      </trkpt>
      <trkpt lat="45.57905" lon="6.60894">
        <ele>2068.3999023438</ele>
        <time>2013-01-02T15:14:51.000Z</time>
      </trkpt>
      <trkpt lat="45.57907" lon="6.60897">
        <ele>2067.3999023438</ele>
        <time>2013-01-02T15:14:55.000Z</time>
      </trkpt>
      <trkpt lat="45.57907" lon="6.60903">
        <ele>2066.6000976562</ele>
        <time>2013-01-02T15:16:37.000Z</time>
      </trkpt>
      <trkpt lat="45.57902" lon="6.60915">
        <ele>2064.6000976562</ele>
        <time>2013-01-02T15:16:42.000Z</time>
      </trkpt>
      <trkpt lat="45.57894" lon="6.60922">
        <ele>2061.8000488281</ele>
        <time>2013-01-02T15:16:45.000Z</time>
      </trkpt>
      <trkpt lat="45.57894" lon="6.60934">
        <ele>2058</ele>
        <time>2013-01-02T15:16:48.000Z</time>
      </trkpt>
      <trkpt lat="45.57893" lon="6.60955">
        <ele>2054.8000488281</ele>
        <time>2013-01-02T15:16:52.000Z</time>
      </trkpt>
      <trkpt lat="45.57893" lon="6.60961">
        <ele>2054</ele>
        <time>2013-01-02T15:16:53.000Z</time>
      </trkpt>
      <trkpt lat="45.57893" lon="6.60968">
        <ele>2052.6000976562</ele>
        <time>2013-01-02T15:16:56.000Z</time>
      </trkpt>
      <trkpt lat="45.57893" lon="6.60968">
        <ele>2052.3999023438</ele>
        <time>2013-01-02T15:16:57.000Z</time>
      </trkpt>
      <trkpt lat="45.57893" lon="6.6097">
        <ele>2052.1999511719</ele>
        <time>2013-01-02T15:17:02.000Z</time>
      </trkpt>
      <trkpt lat="45.57895" lon="6.60979">
        <ele>2051</ele>
        <time>2013-01-02T15:17:13.000Z</time>
      </trkpt>
      <trkpt lat="45.57895" lon="6.60981">
        <ele>2050.6000976562</ele>
        <time>2013-01-02T15:17:14.000Z</time>
      </trkpt>
      <trkpt lat="45.57907" lon="6.60995">
        <ele>2048.3999023438</ele>
        <time>2013-01-02T15:17:18.000Z</time>
      </trkpt>
      <trkpt lat="45.57911" lon="6.61005">
        <ele>2047</ele>
        <time>2013-01-02T15:17:20.000Z</time>
      </trkpt>
      <trkpt lat="45.57915" lon="6.61023">
        <ele>2044.8000488281</ele>
        <time>2013-01-02T15:17:24.000Z</time>
      </trkpt>
      <trkpt lat="45.57918" lon="6.61036">
        <ele>2041.8000488281</ele>
        <time>2013-01-02T15:17:28.000Z</time>
      </trkpt>
      <trkpt lat="45.57915" lon="6.61044">
        <ele>2040.8000488281</ele>
        <time>2013-01-02T15:17:32.000Z</time>
      </trkpt>
      <trkpt lat="45.57909" lon="6.61051">
        <ele>2038.8000488281</ele>
        <time>2013-01-02T15:17:36.000Z</time>
      </trkpt>
      <trkpt lat="45.57904" lon="6.61053">
        <ele>2037.8000488281</ele>
        <time>2013-01-02T15:17:38.000Z</time>
      </trkpt>
      <trkpt lat="45.57894" lon="6.61045">
        <ele>2032.5999755859</ele>
        <time>2013-01-02T15:17:42.000Z</time>
      </trkpt>
      <trkpt lat="45.57887" lon="6.61042">
        <ele>2029</ele>
        <time>2013-01-02T15:17:45.000Z</time>
      </trkpt>
      <trkpt lat="45.57885" lon="6.61045">
        <ele>2025.5999755859</ele>
        <time>2013-01-02T15:17:48.000Z</time>
      </trkpt>
      <trkpt lat="45.57884" lon="6.61037">
        <ele>2024</ele>
        <time>2013-01-02T15:17:50.000Z</time>
      </trkpt>
      <trkpt lat="45.5788" lon="6.61029">
        <ele>2021.4000244141</ele>
        <time>2013-01-02T15:17:54.000Z</time>
      </trkpt>
      <trkpt lat="45.57878" lon="6.61033">
        <ele>2020</ele>
        <time>2013-01-02T15:17:56.000Z</time>
      </trkpt>
      <trkpt lat="45.57876" lon="6.61039">
        <ele>2018.4000244141</ele>
        <time>2013-01-02T15:17:59.000Z</time>
      </trkpt>
      <trkpt lat="45.57872" lon="6.61043">
        <ele>2016.5999755859</ele>
        <time>2013-01-02T15:18:02.000Z</time>
      </trkpt>
      <trkpt lat="45.57868" lon="6.61037">
        <ele>2013.4000244141</ele>
        <time>2013-01-02T15:18:06.000Z</time>
      </trkpt>
      <trkpt lat="45.57865" lon="6.6104">
        <ele>2012</ele>
        <time>2013-01-02T15:18:07.000Z</time>
      </trkpt>
      <trkpt lat="45.57863" lon="6.61043">
        <ele>2008.5999755859</ele>
        <time>2013-01-02T15:18:11.000Z</time>
      </trkpt>
      <trkpt lat="45.57862" lon="6.61045">
        <ele>2007.5999755859</ele>
        <time>2013-01-02T15:18:13.000Z</time>
      </trkpt>
      <trkpt lat="45.5785" lon="6.61042">
        <ele>2002.5999755859</ele>
        <time>2013-01-02T15:18:20.000Z</time>
      </trkpt>
      <trkpt lat="45.57849" lon="6.61046">
        <ele>2002.5999755859</ele>
        <time>2013-01-02T15:18:21.000Z</time>
      </trkpt>
      <trkpt lat="45.57846" lon="6.61046">
        <ele>1996.8000488281</ele>
        <time>2013-01-02T15:18:26.000Z</time>
      </trkpt>
      <trkpt lat="45.57844" lon="6.61048">
        <ele>1994.1999511719</ele>
        <time>2013-01-02T15:18:29.000Z</time>
      </trkpt>
      <trkpt lat="45.5784" lon="6.61045">
        <ele>1991.1999511719</ele>
        <time>2013-01-02T15:18:33.000Z</time>
      </trkpt>
      <trkpt lat="45.57838" lon="6.61054">
        <ele>1989</ele>
        <time>2013-01-02T15:18:37.000Z</time>
      </trkpt>
      <trkpt lat="45.57838" lon="6.61054">
        <ele>1987.8000488281</ele>
        <time>2013-01-02T15:18:38.000Z</time>
      </trkpt>
      <trkpt lat="45.57835" lon="6.61051">
        <ele>1987.1999511719</ele>
        <time>2013-01-02T15:18:40.000Z</time>
      </trkpt>
      <trkpt lat="45.57833" lon="6.61046">
        <ele>1985.8000488281</ele>
        <time>2013-01-02T15:18:43.000Z</time>
      </trkpt>
      <trkpt lat="45.5783" lon="6.61051">
        <ele>1982.8000488281</ele>
        <time>2013-01-02T15:18:47.000Z</time>
      </trkpt>
      <trkpt lat="45.57825" lon="6.6105">
        <ele>1978.8000488281</ele>
        <time>2013-01-02T15:18:51.000Z</time>
      </trkpt>
      <trkpt lat="45.57825" lon="6.6105">
        <ele>1978</ele>
        <time>2013-01-02T15:18:52.000Z</time>
      </trkpt>
      <trkpt lat="45.57821" lon="6.61057">
        <ele>1974.8000488281</ele>
        <time>2013-01-02T15:19:03.000Z</time>
      </trkpt>
      <trkpt lat="45.57821" lon="6.61057">
        <ele>1974.5999755859</ele>
        <time>2013-01-02T15:19:04.000Z</time>
      </trkpt>
      <trkpt lat="45.57815" lon="6.6105">
        <ele>1970.8000488281</ele>
        <time>2013-01-02T15:19:43.000Z</time>
      </trkpt>
      <trkpt lat="45.57813" lon="6.61058">
        <ele>1969.1999511719</ele>
        <time>2013-01-02T15:19:48.000Z</time>
      </trkpt>
      <trkpt lat="45.57805" lon="6.61058">
        <ele>1965.1999511719</ele>
        <time>2013-01-02T15:19:52.000Z</time>
      </trkpt>
      <trkpt lat="45.57797" lon="6.61058">
        <ele>1959.1999511719</ele>
        <time>2013-01-02T15:19:55.000Z</time>
      </trkpt>
      <trkpt lat="45.57795" lon="6.61058">
        <ele>1954.4000244141</ele>
        <time>2013-01-02T15:19:58.000Z</time>
      </trkpt>
      <trkpt lat="45.57792" lon="6.61065">
        <ele>1952.1999511719</ele>
        <time>2013-01-02T15:20:03.000Z</time>
      </trkpt>
      <trkpt lat="45.57789" lon="6.61077">
        <ele>1950</ele>
        <time>2013-01-02T15:20:07.000Z</time>
      </trkpt>
      <trkpt lat="45.57787" lon="6.61078">
        <ele>1947.1999511719</ele>
        <time>2013-01-02T15:20:10.000Z</time>
      </trkpt>
      <trkpt lat="45.57786" lon="6.6108">
        <ele>1947.1999511719</ele>
        <time>2013-01-02T15:21:29.000Z</time>
      </trkpt>
      <trkpt lat="45.57784" lon="6.61082">
        <ele>1946.5999755859</ele>
        <time>2013-01-02T15:21:34.000Z</time>
      </trkpt>
      <trkpt lat="45.5777" lon="6.61079">
        <ele>1944.1999511719</ele>
        <time>2013-01-02T15:23:24.000Z</time>
      </trkpt>
      <trkpt lat="45.57766" lon="6.61074">
        <ele>1941.5999755859</ele>
        <time>2013-01-02T15:23:26.000Z</time>
      </trkpt>
      <trkpt lat="45.57763" lon="6.61079">
        <ele>1939.1999511719</ele>
        <time>2013-01-02T15:23:29.000Z</time>
      </trkpt>
      <trkpt lat="45.57756" lon="6.61088">
        <ele>1937.1999511719</ele>
        <time>2013-01-02T15:23:33.000Z</time>
      </trkpt>
      <trkpt lat="45.57753" lon="6.61091">
        <ele>1936.5999755859</ele>
        <time>2013-01-02T15:23:34.000Z</time>
      </trkpt>
      <trkpt lat="45.57738" lon="6.61084">
        <ele>1931.8000488281</ele>
        <time>2013-01-02T15:23:38.000Z</time>
      </trkpt>
      <trkpt lat="45.57727" lon="6.61079">
        <ele>1925.8000488281</ele>
        <time>2013-01-02T15:23:42.000Z</time>
      </trkpt>
      <trkpt lat="45.57718" lon="6.61088">
        <ele>1920.4000244141</ele>
        <time>2013-01-02T15:23:45.000Z</time>
      </trkpt>
      <trkpt lat="45.57709" lon="6.61088">
        <ele>1918.5999755859</ele>
        <time>2013-01-02T15:23:47.000Z</time>
      </trkpt>
      <trkpt lat="45.57702" lon="6.61096">
        <ele>1914.4000244141</ele>
        <time>2013-01-02T15:23:50.000Z</time>
      </trkpt>
      <trkpt lat="45.57703" lon="6.61099">
        <ele>1911.5999755859</ele>
        <time>2013-01-02T15:23:53.000Z</time>
      </trkpt>
      <trkpt lat="45.57697" lon="6.61086">
        <ele>1907.1999511719</ele>
        <time>2013-01-02T15:24:02.000Z</time>
      </trkpt>
      <trkpt lat="45.57689" lon="6.61091">
        <ele>1903.8000488281</ele>
        <time>2013-01-02T15:24:05.000Z</time>
      </trkpt>
      <trkpt lat="45.57681" lon="6.61094">
        <ele>1898</ele>
        <time>2013-01-02T15:24:09.000Z</time>
      </trkpt>
      <trkpt lat="45.57674" lon="6.61088">
        <ele>1893</ele>
        <time>2013-01-02T15:24:12.000Z</time>
      </trkpt>
      <trkpt lat="45.57672" lon="6.61088">
        <ele>1888.8000488281</ele>
        <time>2013-01-02T15:24:14.000Z</time>
      </trkpt>
      <trkpt lat="45.57668" lon="6.61096">
        <ele>1885.8000488281</ele>
        <time>2013-01-02T15:24:49.000Z</time>
      </trkpt>
      <trkpt lat="45.57665" lon="6.611">
        <ele>1884</ele>
        <time>2013-01-02T15:24:53.000Z</time>
      </trkpt>
      <trkpt lat="45.57661" lon="6.61104">
        <ele>1881.5999755859</ele>
        <time>2013-01-02T15:24:58.000Z</time>
      </trkpt>
      <trkpt lat="45.5766" lon="6.61105">
        <ele>1880.5999755859</ele>
        <time>2013-01-02T15:25:01.000Z</time>
      </trkpt>
      <trkpt lat="45.57661" lon="6.61096">
        <ele>1879.4000244141</ele>
        <time>2013-01-02T15:25:08.000Z</time>
      </trkpt>
      <trkpt lat="45.57661" lon="6.61089">
        <ele>1878.1999511719</ele>
        <time>2013-01-02T15:25:10.000Z</time>
      </trkpt>
      <trkpt lat="45.5766" lon="6.61082">
        <ele>1877.4000244141</ele>
        <time>2013-01-02T15:25:15.000Z</time>
      </trkpt>
      <trkpt lat="45.57659" lon="6.61073">
        <ele>1875.8000488281</ele>
        <time>2013-01-02T15:25:18.000Z</time>
      </trkpt>
      <trkpt lat="45.57658" lon="6.61072">
        <ele>1875</ele>
        <time>2013-01-02T15:25:20.000Z</time>
      </trkpt>
      <trkpt lat="45.57656" lon="6.61072">
        <ele>1867</ele>
        <time>2013-01-02T15:25:23.000Z</time>
      </trkpt>
      <trkpt lat="45.57651" lon="6.61074">
        <ele>1870.5999755859</ele>
        <time>2013-01-02T15:25:28.000Z</time>
      </trkpt>
      <trkpt lat="45.5765" lon="6.61074">
        <ele>1872.5999755859</ele>
        <time>2013-01-02T15:25:30.000Z</time>
      </trkpt>
      <trkpt lat="45.57645" lon="6.61073">
        <ele>1871</ele>
        <time>2013-01-02T15:25:37.000Z</time>
      </trkpt>
      <trkpt lat="45.57638" lon="6.61074">
        <ele>1869.8000488281</ele>
        <time>2013-01-02T15:25:42.000Z</time>
      </trkpt>
      <trkpt lat="45.57633" lon="6.61077">
        <ele>1868.1999511719</ele>
        <time>2013-01-02T15:25:45.000Z</time>
      </trkpt>
      <trkpt lat="45.57628" lon="6.61081">
        <ele>1866.1999511719</ele>
        <time>2013-01-02T15:25:52.000Z</time>
      </trkpt>
      <trkpt lat="45.57627" lon="6.6108">
        <ele>1865.5999755859</ele>
        <time>2013-01-02T15:25:55.000Z</time>
      </trkpt>
      <trkpt lat="45.57625" lon="6.61075">
        <ele>1862.4000244141</ele>
        <time>2013-01-02T15:26:15.000Z</time>
      </trkpt>
      <trkpt lat="45.57625" lon="6.61075">
        <ele>1861.8000488281</ele>
        <time>2013-01-02T15:26:16.000Z</time>
      </trkpt>
      <trkpt lat="45.57625" lon="6.61072">
        <ele>1860.8000488281</ele>
        <time>2013-01-02T15:26:21.000Z</time>
      </trkpt>
      <trkpt lat="45.57622" lon="6.6107">
        <ele>1859.4000244141</ele>
        <time>2013-01-02T15:26:28.000Z</time>
      </trkpt>
      <trkpt lat="45.5762" lon="6.61066">
        <ele>1857.4000244141</ele>
        <time>2013-01-02T15:26:35.000Z</time>
      </trkpt>
      <trkpt lat="45.5762" lon="6.61066">
        <ele>1857.1999511719</ele>
        <time>2013-01-02T15:26:36.000Z</time>
      </trkpt>
      <trkpt lat="45.57621" lon="6.61067">
        <ele>1856.8000488281</ele>
        <time>2013-01-02T15:26:52.000Z</time>
      </trkpt>
      <trkpt lat="45.57621" lon="6.61064">
        <ele>1857</ele>
        <time>2013-01-02T15:27:22.000Z</time>
      </trkpt>
      <trkpt lat="45.57613" lon="6.61074">
        <ele>1856.5999755859</ele>
        <time>2013-01-02T15:28:24.000Z</time>
      </trkpt>
      <trkpt lat="45.57605" lon="6.61082">
        <ele>1853.4000244141</ele>
        <time>2013-01-02T15:28:27.000Z</time>
      </trkpt>
      <trkpt lat="45.57596" lon="6.61067">
        <ele>1849</ele>
        <time>2013-01-02T15:28:31.000Z</time>
      </trkpt>
      <trkpt lat="45.57587" lon="6.6107">
        <ele>1845.8000488281</ele>
        <time>2013-01-02T15:28:34.000Z</time>
      </trkpt>
      <trkpt lat="45.57586" lon="6.61071">
        <ele>1844.8000488281</ele>
        <time>2013-01-02T15:28:35.000Z</time>
      </trkpt>
      <trkpt lat="45.57578" lon="6.61068">
        <ele>1843.4000244141</ele>
        <time>2013-01-02T15:28:38.000Z</time>
      </trkpt>
      <trkpt lat="45.57567" lon="6.61071">
        <ele>1838.8000488281</ele>
        <time>2013-01-02T15:28:42.000Z</time>
      </trkpt>
      <trkpt lat="45.57564" lon="6.61059">
        <ele>1837.1999511719</ele>
        <time>2013-01-02T15:28:44.000Z</time>
      </trkpt>
      <trkpt lat="45.57557" lon="6.61056">
        <ele>1835</ele>
        <time>2013-01-02T15:28:47.000Z</time>
      </trkpt>
      <trkpt lat="45.57548" lon="6.61064">
        <ele>1831.5999755859</ele>
        <time>2013-01-02T15:28:51.000Z</time>
      </trkpt>
      <trkpt lat="45.57546" lon="6.6106">
        <ele>1830.5999755859</ele>
        <time>2013-01-02T15:28:54.000Z</time>
      </trkpt>
      <trkpt lat="45.57532" lon="6.61071">
        <ele>1827.4000244141</ele>
        <time>2013-01-02T15:29:09.000Z</time>
      </trkpt>
      <trkpt lat="45.5753" lon="6.61076">
        <ele>1827</ele>
        <time>2013-01-02T15:29:10.000Z</time>
      </trkpt>
      <trkpt lat="45.57517" lon="6.61103">
        <ele>1821</ele>
        <time>2013-01-02T15:29:15.000Z</time>
      </trkpt>
      <trkpt lat="45.57515" lon="6.61106">
        <ele>1819.4000244141</ele>
        <time>2013-01-02T15:29:18.000Z</time>
      </trkpt>
      <trkpt lat="45.57511" lon="6.61115">
        <ele>1817.1999511719</ele>
        <time>2013-01-02T15:29:29.000Z</time>
      </trkpt>
      <trkpt lat="45.57502" lon="6.61126">
        <ele>1812.5999755859</ele>
        <time>2013-01-02T15:29:33.000Z</time>
      </trkpt>
      <trkpt lat="45.57499" lon="6.61127">
        <ele>1811</ele>
        <time>2013-01-02T15:29:34.000Z</time>
      </trkpt>
      <trkpt lat="45.57488" lon="6.61126">
        <ele>1805</ele>
        <time>2013-01-02T15:29:38.000Z</time>
      </trkpt>
      <trkpt lat="45.57477" lon="6.61128">
        <ele>1799.8000488281</ele>
        <time>2013-01-02T15:29:41.000Z</time>
      </trkpt>
      <trkpt lat="45.57469" lon="6.61127">
        <ele>1796.8000488281</ele>
        <time>2013-01-02T15:29:44.000Z</time>
      </trkpt>
      <trkpt lat="45.57458" lon="6.61126">
        <ele>1791.1999511719</ele>
        <time>2013-01-02T15:29:48.000Z</time>
      </trkpt>
      <trkpt lat="45.57453" lon="6.61121">
        <ele>1786.5999755859</ele>
        <time>2013-01-02T15:29:51.000Z</time>
      </trkpt>
      <trkpt lat="45.57446" lon="6.61113">
        <ele>1783</ele>
        <time>2013-01-02T15:29:54.000Z</time>
      </trkpt>
      <trkpt lat="45.57443" lon="6.61113">
        <ele>1777</ele>
        <time>2013-01-02T15:29:58.000Z</time>
      </trkpt>
      <trkpt lat="45.57433" lon="6.61109">
        <ele>1772</ele>
        <time>2013-01-02T15:30:01.000Z</time>
      </trkpt>
      <trkpt lat="45.57425" lon="6.61098">
        <ele>1764.4000244141</ele>
        <time>2013-01-02T15:30:05.000Z</time>
      </trkpt>
      <trkpt lat="45.57414" lon="6.61092">
        <ele>1759.5999755859</ele>
        <time>2013-01-02T15:30:08.000Z</time>
      </trkpt>
      <trkpt lat="45.57406" lon="6.61087">
        <ele>1751.5999755859</ele>
        <time>2013-01-02T15:30:11.000Z</time>
      </trkpt>
      <trkpt lat="45.57399" lon="6.61089">
        <ele>1747</ele>
        <time>2013-01-02T15:30:14.000Z</time>
      </trkpt>
      <trkpt lat="45.57391" lon="6.61097">
        <ele>1742.8000488281</ele>
        <time>2013-01-02T15:30:16.000Z</time>
      </trkpt>
      <trkpt lat="45.57389" lon="6.61106">
        <ele>1738.1999511719</ele>
        <time>2013-01-02T15:30:21.000Z</time>
      </trkpt>
      <trkpt lat="45.57387" lon="6.6111">
        <ele>1736.1999511719</ele>
        <time>2013-01-02T15:30:36.000Z</time>
      </trkpt>
      <trkpt lat="45.57387" lon="6.6109">
        <ele>1733.5999755859</ele>
        <time>2013-01-02T15:32:59.000Z</time>
      </trkpt>
      <trkpt lat="45.57381" lon="6.61081">
        <ele>1729.5999755859</ele>
        <time>2013-01-02T15:33:03.000Z</time>
      </trkpt>
      <trkpt lat="45.57382" lon="6.61076">
        <ele>1727.1999511719</ele>
        <time>2013-01-02T15:33:05.000Z</time>
      </trkpt>
      <trkpt lat="45.57367" lon="6.61071">
        <ele>1720</ele>
        <time>2013-01-02T15:33:10.000Z</time>
      </trkpt>
      <trkpt lat="45.57357" lon="6.61068">
        <ele>1714.1999511719</ele>
        <time>2013-01-02T15:33:13.000Z</time>
      </trkpt>
      <trkpt lat="45.5735" lon="6.61064">
        <ele>1710.1999511719</ele>
        <time>2013-01-02T15:33:15.000Z</time>
      </trkpt>
      <trkpt lat="45.57349" lon="6.61049">
        <ele>1703.4000244141</ele>
        <time>2013-01-02T15:33:20.000Z</time>
      </trkpt>
      <trkpt lat="45.57345" lon="6.6104">
        <ele>1700.5999755859</ele>
        <time>2013-01-02T15:33:23.000Z</time>
      </trkpt>
      <trkpt lat="45.57344" lon="6.61035">
        <ele>1698.5999755859</ele>
        <time>2013-01-02T15:33:24.000Z</time>
      </trkpt>
      <trkpt lat="45.57332" lon="6.61025">
        <ele>1692.4000244141</ele>
        <time>2013-01-02T15:33:29.000Z</time>
      </trkpt>
      <trkpt lat="45.57333" lon="6.61014">
        <ele>1689.1999511719</ele>
        <time>2013-01-02T15:33:31.000Z</time>
      </trkpt>
      <trkpt lat="45.57321" lon="6.61009">
        <ele>1684</ele>
        <time>2013-01-02T15:33:34.000Z</time>
      </trkpt>
      <trkpt lat="45.5731" lon="6.61005">
        <ele>1679.4000244141</ele>
        <time>2013-01-02T15:33:37.000Z</time>
      </trkpt>
      <trkpt lat="45.57303" lon="6.60997">
        <ele>1672.8000488281</ele>
        <time>2013-01-02T15:33:40.000Z</time>
      </trkpt>
      <trkpt lat="45.57294" lon="6.60994">
        <ele>1665.8000488281</ele>
        <time>2013-01-02T15:33:43.000Z</time>
      </trkpt>
      <trkpt lat="45.57281" lon="6.60992">
        <ele>1658.5999755859</ele>
        <time>2013-01-02T15:33:47.000Z</time>
      </trkpt>
      <trkpt lat="45.57274" lon="6.60991">
        <ele>1653</ele>
        <time>2013-01-02T15:33:50.000Z</time>
      </trkpt>
      <trkpt lat="45.57275" lon="6.60991">
        <ele>1649.1999511719</ele>
        <time>2013-01-02T15:33:53.000Z</time>
      </trkpt>
      <trkpt lat="45.57268" lon="6.61003">
        <ele>1648.1999511719</ele>
        <time>2013-01-02T15:33:58.000Z</time>
      </trkpt>
      <trkpt lat="45.57261" lon="6.60999">
        <ele>1644.4000244141</ele>
        <time>2013-01-02T15:34:00.000Z</time>
      </trkpt>
      <trkpt lat="45.57247" lon="6.60995">
        <ele>1634.8000488281</ele>
        <time>2013-01-02T15:34:05.000Z</time>
      </trkpt>
      <trkpt lat="45.57242" lon="6.60993">
        <ele>1631.5999755859</ele>
        <time>2013-01-02T15:34:09.000Z</time>
      </trkpt>
      <trkpt lat="45.57243" lon="6.60994">
        <ele>1631.1999511719</ele>
        <time>2013-01-02T15:34:10.000Z</time>
      </trkpt>
      <trkpt lat="45.57244" lon="6.60985">
        <ele>1629.8000488281</ele>
        <time>2013-01-02T15:35:28.000Z</time>
      </trkpt>
      <trkpt lat="45.57245" lon="6.60976">
        <ele>1628</ele>
        <time>2013-01-02T15:35:30.000Z</time>
      </trkpt>
      <trkpt lat="45.57244" lon="6.60974">
        <ele>1626.5999755859</ele>
        <time>2013-01-02T15:35:32.000Z</time>
      </trkpt>
      <trkpt lat="45.57237" lon="6.60982">
        <ele>1626</ele>
        <time>2013-01-02T15:35:41.000Z</time>
      </trkpt>
      <trkpt lat="45.57237" lon="6.60982">
        <ele>1626</ele>
        <time>2013-01-02T15:35:42.000Z</time>
      </trkpt>
      <trkpt lat="45.57238" lon="6.60981">
        <ele>1627.4000244141</ele>
        <time>2013-01-02T15:37:34.000Z</time>
      </trkpt>
      <trkpt lat="45.57237" lon="6.60981">
        <ele>1627.1999511719</ele>
        <time>2013-01-02T15:37:35.000Z</time>
      </trkpt>
      <trkpt lat="45.57235" lon="6.60986">
        <ele>1627</ele>
        <time>2013-01-02T15:37:44.000Z</time>
      </trkpt>
      <trkpt lat="45.57234" lon="6.60987">
        <ele>1627</ele>
        <time>2013-01-02T15:37:46.000Z</time>
      </trkpt>
      <trkpt lat="45.5723" lon="6.60997">
        <ele>1628.4000244141</ele>
        <time>2013-01-02T15:42:03.000Z</time>
      </trkpt>
      <trkpt lat="45.57223" lon="6.61015">
        <ele>1626.8000488281</ele>
        <time>2013-01-02T15:42:08.000Z</time>
      </trkpt>
      <trkpt lat="45.57209" lon="6.61027">
        <ele>1625.1999511719</ele>
        <time>2013-01-02T15:42:12.000Z</time>
      </trkpt>
      <trkpt lat="45.57203" lon="6.61036">
        <ele>1624.4000244141</ele>
        <time>2013-01-02T15:42:14.000Z</time>
      </trkpt>
      <trkpt lat="45.57196" lon="6.61048">
        <ele>1622.8000488281</ele>
        <time>2013-01-02T15:42:16.000Z</time>
      </trkpt>
      <trkpt lat="45.57174" lon="6.6109">
        <ele>1619.4000244141</ele>
        <time>2013-01-02T15:42:23.000Z</time>
      </trkpt>
      <trkpt lat="45.57164" lon="6.61117">
        <ele>1618.4000244141</ele>
        <time>2013-01-02T15:42:29.000Z</time>
      </trkpt>
      <trkpt lat="45.57163" lon="6.61125">
        <ele>1618.4000244141</ele>
        <time>2013-01-02T15:42:33.000Z</time>
      </trkpt>
      <trkpt lat="45.57161" lon="6.61136">
        <ele>1618.5999755859</ele>
        <time>2013-01-02T15:42:41.000Z</time>
      </trkpt>
      <trkpt lat="45.57161" lon="6.61138">
        <ele>1618.5999755859</ele>
        <time>2013-01-02T15:42:42.000Z</time>
      </trkpt>
      <trkpt lat="45.57153" lon="6.61152">
        <ele>1619</ele>
        <time>2013-01-02T15:42:50.000Z</time>
      </trkpt>
      <trkpt lat="45.57144" lon="6.61167">
        <ele>1618.4000244141</ele>
        <time>2013-01-02T15:42:56.000Z</time>
      </trkpt>
      <trkpt lat="45.5714" lon="6.61187">
        <ele>1617.5999755859</ele>
        <time>2013-01-02T15:43:01.000Z</time>
      </trkpt>
      <trkpt lat="45.57146" lon="6.612">
        <ele>1616.8000488281</ele>
        <time>2013-01-02T15:43:05.000Z</time>
      </trkpt>
      <trkpt lat="45.57154" lon="6.61218">
        <ele>1615.5999755859</ele>
        <time>2013-01-02T15:43:09.000Z</time>
      </trkpt>
      <trkpt lat="45.57155" lon="6.61237">
        <ele>1614.5999755859</ele>
        <time>2013-01-02T15:43:13.000Z</time>
      </trkpt>
      <trkpt lat="45.57148" lon="6.61256">
        <ele>1613.5999755859</ele>
        <time>2013-01-02T15:43:17.000Z</time>
      </trkpt>
      <trkpt lat="45.57136" lon="6.61282">
        <ele>1611.8000488281</ele>
        <time>2013-01-02T15:43:22.000Z</time>
      </trkpt>
      <trkpt lat="45.57125" lon="6.61313">
        <ele>1610.4000244141</ele>
        <time>2013-01-02T15:43:27.000Z</time>
      </trkpt>
      <trkpt lat="45.57115" lon="6.61334">
        <ele>1609.8000488281</ele>
        <time>2013-01-02T15:43:32.000Z</time>
      </trkpt>
      <trkpt lat="45.57105" lon="6.61354">
        <ele>1609.4000244141</ele>
        <time>2013-01-02T15:43:37.000Z</time>
      </trkpt>
      <trkpt lat="45.57094" lon="6.61365">
        <ele>1608.5999755859</ele>
        <time>2013-01-02T15:43:41.000Z</time>
      </trkpt>
      <trkpt lat="45.5708" lon="6.61378">
        <ele>1607.5999755859</ele>
        <time>2013-01-02T15:43:45.000Z</time>
      </trkpt>
      <trkpt lat="45.57068" lon="6.61383">
        <ele>1606.8000488281</ele>
        <time>2013-01-02T15:43:49.000Z</time>
      </trkpt>
      <trkpt lat="45.57052" lon="6.61391">
        <ele>1605.4000244141</ele>
        <time>2013-01-02T15:43:53.000Z</time>
      </trkpt>
      <trkpt lat="45.57044" lon="6.61396">
        <ele>1604.5999755859</ele>
        <time>2013-01-02T15:43:55.000Z</time>
      </trkpt>
      <trkpt lat="45.57023" lon="6.61407">
        <ele>1603</ele>
        <time>2013-01-02T15:43:59.000Z</time>
      </trkpt>
      <trkpt lat="45.57014" lon="6.61418">
        <ele>1602.4000244141</ele>
        <time>2013-01-02T15:44:01.000Z</time>
      </trkpt>
      <trkpt lat="45.57003" lon="6.61431">
        <ele>1601.4000244141</ele>
        <time>2013-01-02T15:44:03.000Z</time>
      </trkpt>
      <trkpt lat="45.56985" lon="6.61443">
        <ele>1599.8000488281</ele>
        <time>2013-01-02T15:44:06.000Z</time>
      </trkpt>
      <trkpt lat="45.5697" lon="6.61467">
        <ele>1596.8000488281</ele>
        <time>2013-01-02T15:44:10.000Z</time>
      </trkpt>
      <trkpt lat="45.56945" lon="6.61489">
        <ele>1594</ele>
        <time>2013-01-02T15:44:14.000Z</time>
      </trkpt>
      <trkpt lat="45.56918" lon="6.61516">
        <ele>1590.5999755859</ele>
        <time>2013-01-02T15:44:19.000Z</time>
      </trkpt>
      <trkpt lat="45.56898" lon="6.61533">
        <ele>1589.1999511719</ele>
        <time>2013-01-02T15:44:22.000Z</time>
      </trkpt>
      <trkpt lat="45.56879" lon="6.61545">
        <ele>1586.4000244141</ele>
        <time>2013-01-02T15:44:26.000Z</time>
      </trkpt>
      <trkpt lat="45.56855" lon="6.6156">
        <ele>1583.8000488281</ele>
        <time>2013-01-02T15:44:30.000Z</time>
      </trkpt>
      <trkpt lat="45.56851" lon="6.61565">
        <ele>1582.8000488281</ele>
        <time>2013-01-02T15:44:31.000Z</time>
      </trkpt>
      <trkpt lat="45.56833" lon="6.61582">
        <ele>1579.4000244141</ele>
        <time>2013-01-02T15:44:36.000Z</time>
      </trkpt>
      <trkpt lat="45.56819" lon="6.61593">
        <ele>1577.8000488281</ele>
        <time>2013-01-02T15:44:38.000Z</time>
      </trkpt>
      <trkpt lat="45.56811" lon="6.61616">
        <ele>1573.8000488281</ele>
        <time>2013-01-02T15:44:43.000Z</time>
      </trkpt>
      <trkpt lat="45.56809" lon="6.61634">
        <ele>1572.1999511719</ele>
        <time>2013-01-02T15:44:46.000Z</time>
      </trkpt>
      <trkpt lat="45.56808" lon="6.6164">
        <ele>1571.5999755859</ele>
        <time>2013-01-02T15:44:47.000Z</time>
      </trkpt>
      <trkpt lat="45.56804" lon="6.61684">
        <ele>1568</ele>
        <time>2013-01-02T15:44:52.000Z</time>
      </trkpt>
      <trkpt lat="45.56791" lon="6.61713">
        <ele>1565</ele>
        <time>2013-01-02T15:44:56.000Z</time>
      </trkpt>
      <trkpt lat="45.56789" lon="6.61714">
        <ele>1564.8000488281</ele>
        <time>2013-01-02T15:44:57.000Z</time>
      </trkpt>
      <trkpt lat="45.56774" lon="6.61694">
        <ele>1562.5999755859</ele>
        <time>2013-01-02T15:48:59.000Z</time>
      </trkpt>
      <trkpt lat="45.56772" lon="6.61688">
        <ele>1560.8000488281</ele>
        <time>2013-01-02T15:49:00.000Z</time>
      </trkpt>
      <trkpt lat="45.56764" lon="6.61663">
        <ele>1559.5999755859</ele>
        <time>2013-01-02T15:49:02.000Z</time>
      </trkpt>
      <trkpt lat="45.56761" lon="6.61654">
        <ele>1558</ele>
        <time>2013-01-02T15:49:03.000Z</time>
      </trkpt>
      <trkpt lat="45.56763" lon="6.61632">
        <ele>1554.8000488281</ele>
        <time>2013-01-02T15:49:07.000Z</time>
      </trkpt>
      <trkpt lat="45.56767" lon="6.61624">
        <ele>1552.8000488281</ele>
        <time>2013-01-02T15:49:09.000Z</time>
      </trkpt>
      <trkpt lat="45.56765" lon="6.61621">
        <ele>1550.5999755859</ele>
        <time>2013-01-02T15:49:11.000Z</time>
      </trkpt>
      <trkpt lat="45.56752" lon="6.61631">
        <ele>1545.4000244141</ele>
        <time>2013-01-02T15:49:16.000Z</time>
      </trkpt>
      <trkpt lat="45.56742" lon="6.61636">
        <ele>1543.8000488281</ele>
        <time>2013-01-02T15:49:17.000Z</time>
      </trkpt>
      <trkpt lat="45.5673" lon="6.61672">
        <ele>1539.4000244141</ele>
        <time>2013-01-02T15:49:22.000Z</time>
      </trkpt>
      <trkpt lat="45.56729" lon="6.6168">
        <ele>1538.4000244141</ele>
        <time>2013-01-02T15:49:23.000Z</time>
      </trkpt>
      <trkpt lat="45.5673" lon="6.61708">
        <ele>1535</ele>
        <time>2013-01-02T15:49:27.000Z</time>
      </trkpt>
      <trkpt lat="45.56734" lon="6.61731">
        <ele>1531.1999511719</ele>
        <time>2013-01-02T15:49:32.000Z</time>
      </trkpt>
      <trkpt lat="45.56741" lon="6.61757">
        <ele>1527.8000488281</ele>
        <time>2013-01-02T15:49:36.000Z</time>
      </trkpt>
      <trkpt lat="45.56755" lon="6.61786">
        <ele>1524</ele>
        <time>2013-01-02T15:49:41.000Z</time>
      </trkpt>
      <trkpt lat="45.56766" lon="6.61821">
        <ele>1520.8000488281</ele>
        <time>2013-01-02T15:49:46.000Z</time>
      </trkpt>
      <trkpt lat="45.56773" lon="6.61853">
        <ele>1517</ele>
        <time>2013-01-02T15:49:51.000Z</time>
      </trkpt>
      <trkpt lat="45.56774" lon="6.61862">
        <ele>1516.1999511719</ele>
        <time>2013-01-02T15:49:52.000Z</time>
      </trkpt>
      <trkpt lat="45.5678" lon="6.61917">
        <ele>1513.4000244141</ele>
        <time>2013-01-02T15:49:56.000Z</time>
      </trkpt>
      <trkpt lat="45.5679" lon="6.61968">
        <ele>1509.5999755859</ele>
        <time>2013-01-02T15:50:01.000Z</time>
      </trkpt>
      <trkpt lat="45.56798" lon="6.62013">
        <ele>1505</ele>
        <time>2013-01-02T15:50:08.000Z</time>
      </trkpt>
      <trkpt lat="45.568" lon="6.62019">
        <ele>1504</ele>
        <time>2013-01-02T15:50:09.000Z</time>
      </trkpt>
      <trkpt lat="45.56804" lon="6.62047">
        <ele>1499.1999511719</ele>
        <time>2013-01-02T15:50:14.000Z</time>
      </trkpt>
      <trkpt lat="45.5681" lon="6.62071">
        <ele>1496.4000244141</ele>
        <time>2013-01-02T15:50:18.000Z</time>
      </trkpt>
      <trkpt lat="45.56818" lon="6.62093">
        <ele>1494.1999511719</ele>
        <time>2013-01-02T15:50:22.000Z</time>
      </trkpt>
      <trkpt lat="45.56825" lon="6.62131">
        <ele>1491.5999755859</ele>
        <time>2013-01-02T15:50:26.000Z</time>
      </trkpt>
      <trkpt lat="45.56827" lon="6.62161">
        <ele>1487.8000488281</ele>
        <time>2013-01-02T15:50:31.000Z</time>
      </trkpt>
      <trkpt lat="45.56827" lon="6.62173">
        <ele>1486.8000488281</ele>
        <time>2013-01-02T15:50:33.000Z</time>
      </trkpt>
      <trkpt lat="45.56826" lon="6.62202">
        <ele>1483.8000488281</ele>
        <time>2013-01-02T15:50:38.000Z</time>
      </trkpt>
      <trkpt lat="45.56818" lon="6.62243">
        <ele>1480.1999511719</ele>
        <time>2013-01-02T15:50:43.000Z</time>
      </trkpt>
      <trkpt lat="45.56814" lon="6.62261">
        <ele>1477</ele>
        <time>2013-01-02T15:50:46.000Z</time>
      </trkpt>
      <trkpt lat="45.56816" lon="6.62289">
        <ele>1474.1999511719</ele>
        <time>2013-01-02T15:50:49.000Z</time>
      </trkpt>
      <trkpt lat="45.56823" lon="6.62328">
        <ele>1470.4000244141</ele>
        <time>2013-01-02T15:50:53.000Z</time>
      </trkpt>
      <trkpt lat="45.56826" lon="6.6235">
        <ele>1467.8000488281</ele>
        <time>2013-01-02T15:50:56.000Z</time>
      </trkpt>
      <trkpt lat="45.56827" lon="6.62357">
        <ele>1467</ele>
        <time>2013-01-02T15:50:59.000Z</time>
      </trkpt>
      <trkpt lat="45.56827" lon="6.62369">
        <ele>1466.1999511719</ele>
        <time>2013-01-02T15:51:04.000Z</time>
      </trkpt>
      <trkpt lat="45.56826" lon="6.62383">
        <ele>1463.5999755859</ele>
        <time>2013-01-02T15:51:08.000Z</time>
      </trkpt>
      <trkpt lat="45.5682" lon="6.62414">
        <ele>1460.1999511719</ele>
        <time>2013-01-02T15:51:12.000Z</time>
      </trkpt>
      <trkpt lat="45.56817" lon="6.62472">
        <ele>1456.4000244141</ele>
        <time>2013-01-02T15:51:18.000Z</time>
      </trkpt>
      <trkpt lat="45.56817" lon="6.62489">
        <ele>1454.5999755859</ele>
        <time>2013-01-02T15:51:21.000Z</time>
      </trkpt>
      <trkpt lat="45.56816" lon="6.62501">
        <ele>1453.8000488281</ele>
        <time>2013-01-02T15:51:23.000Z</time>
      </trkpt>
      <trkpt lat="45.56817" lon="6.62515">
        <ele>1451.5999755859</ele>
        <time>2013-01-02T15:51:26.000Z</time>
      </trkpt>
      <trkpt lat="45.56817" lon="6.62524">
        <ele>1450.5999755859</ele>
        <time>2013-01-02T15:51:29.000Z</time>
      </trkpt>
      <trkpt lat="45.5682" lon="6.62532">
        <ele>1450.4000244141</ele>
        <time>2013-01-02T15:51:42.000Z</time>
      </trkpt>
      <trkpt lat="45.56817" lon="6.62536">
        <ele>1449.5999755859</ele>
        <time>2013-01-02T15:51:47.000Z</time>
      </trkpt>
      <trkpt lat="45.56818" lon="6.62545">
        <ele>1449</ele>
        <time>2013-01-02T15:51:51.000Z</time>
      </trkpt>
      <trkpt lat="45.56819" lon="6.6255">
        <ele>1448.5999755859</ele>
        <time>2013-01-02T15:51:53.000Z</time>
      </trkpt>
      <trkpt lat="45.5682" lon="6.62562">
        <ele>1447</ele>
        <time>2013-01-02T15:51:57.000Z</time>
      </trkpt>
      <trkpt lat="45.56819" lon="6.6257">
        <ele>1446.4000244141</ele>
        <time>2013-01-02T15:51:59.000Z</time>
      </trkpt>
      <trkpt lat="45.56818" lon="6.62589">
        <ele>1443.8000488281</ele>
        <time>2013-01-02T15:52:03.000Z</time>
      </trkpt>
      <trkpt lat="45.5682" lon="6.62609">
        <ele>1440.4000244141</ele>
        <time>2013-01-02T15:52:07.000Z</time>
      </trkpt>
      <trkpt lat="45.56828" lon="6.6262">
        <ele>1437.1999511719</ele>
        <time>2013-01-02T15:52:11.000Z</time>
      </trkpt>
      <trkpt lat="45.56845" lon="6.62638">
        <ele>1434.8000488281</ele>
        <time>2013-01-02T15:52:19.000Z</time>
      </trkpt>
      <trkpt lat="45.56858" lon="6.62652">
        <ele>1433.4000244141</ele>
        <time>2013-01-02T15:52:23.000Z</time>
      </trkpt>
      <trkpt lat="45.5686" lon="6.62664">
        <ele>1432.1999511719</ele>
        <time>2013-01-02T15:52:25.000Z</time>
      </trkpt>
      <trkpt lat="45.56849" lon="6.62684">
        <ele>1429.5999755859</ele>
        <time>2013-01-02T15:52:29.000Z</time>
      </trkpt>
      <trkpt lat="45.56823" lon="6.62672">
        <ele>1426.4000244141</ele>
        <time>2013-01-02T15:52:35.000Z</time>
      </trkpt>
      <trkpt lat="45.56801" lon="6.62661">
        <ele>1423</ele>
        <time>2013-01-02T15:52:39.000Z</time>
      </trkpt>
      <trkpt lat="45.56797" lon="6.62664">
        <ele>1421.1999511719</ele>
        <time>2013-01-02T15:52:43.000Z</time>
      </trkpt>
      <trkpt lat="45.56797" lon="6.62664">
        <ele>1421</ele>
        <time>2013-01-02T15:52:44.000Z</time>
      </trkpt>
      <trkpt lat="45.56794" lon="6.62687">
        <ele>1419.8000488281</ele>
        <time>2013-01-02T15:53:11.000Z</time>
      </trkpt>
      <trkpt lat="45.56803" lon="6.62701">
        <ele>1418</ele>
        <time>2013-01-02T15:53:15.000Z</time>
      </trkpt>
      <trkpt lat="45.56813" lon="6.62728">
        <ele>1414.4000244141</ele>
        <time>2013-01-02T15:53:21.000Z</time>
      </trkpt>
      <trkpt lat="45.56819" lon="6.62742">
        <ele>1412.8000488281</ele>
        <time>2013-01-02T15:53:24.000Z</time>
      </trkpt>
      <trkpt lat="45.56823" lon="6.62775">
        <ele>1410.5999755859</ele>
        <time>2013-01-02T15:53:29.000Z</time>
      </trkpt>
      <trkpt lat="45.56819" lon="6.62805">
        <ele>1407.5999755859</ele>
        <time>2013-01-02T15:53:33.000Z</time>
      </trkpt>
      <trkpt lat="45.56816" lon="6.62828">
        <ele>1404.8000488281</ele>
        <time>2013-01-02T15:53:38.000Z</time>
      </trkpt>
      <trkpt lat="45.56813" lon="6.6285">
        <ele>1404</ele>
        <time>2013-01-02T15:53:43.000Z</time>
      </trkpt>
      <trkpt lat="45.56815" lon="6.62859">
        <ele>1403.8000488281</ele>
        <time>2013-01-02T15:53:49.000Z</time>
      </trkpt>
      <trkpt lat="45.56815" lon="6.62876">
        <ele>1401.8000488281</ele>
        <time>2013-01-02T15:53:55.000Z</time>
      </trkpt>
      <trkpt lat="45.56821" lon="6.62891">
        <ele>1398.8000488281</ele>
        <time>2013-01-02T15:54:00.000Z</time>
      </trkpt>
      <trkpt lat="45.56826" lon="6.62912">
        <ele>1397.1999511719</ele>
        <time>2013-01-02T15:54:05.000Z</time>
      </trkpt>
      <trkpt lat="45.5683" lon="6.6293">
        <ele>1394.5999755859</ele>
        <time>2013-01-02T15:54:09.000Z</time>
      </trkpt>
      <trkpt lat="45.56831" lon="6.62936">
        <ele>1394.4000244141</ele>
        <time>2013-01-02T15:54:10.000Z</time>
      </trkpt>
      <trkpt lat="45.56837" lon="6.62965">
        <ele>1392.1999511719</ele>
        <time>2013-01-02T15:54:15.000Z</time>
      </trkpt>
      <trkpt lat="45.56839" lon="6.62986">
        <ele>1391</ele>
        <time>2013-01-02T15:54:18.000Z</time>
      </trkpt>
      <trkpt lat="45.56839" lon="6.62996">
        <ele>1389.8000488281</ele>
        <time>2013-01-02T15:54:20.000Z</time>
      </trkpt>
      <trkpt lat="45.56839" lon="6.63003">
        <ele>1389</ele>
        <time>2013-01-02T15:54:22.000Z</time>
      </trkpt>
      <trkpt lat="45.56839" lon="6.63011">
        <ele>1388.8000488281</ele>
        <time>2013-01-02T15:54:25.000Z</time>
      </trkpt>
      <trkpt lat="45.56838" lon="6.6303">
        <ele>1387</ele>
        <time>2013-01-02T15:54:30.000Z</time>
      </trkpt>
      <trkpt lat="45.56834" lon="6.63061">
        <ele>1385</ele>
        <time>2013-01-02T15:54:35.000Z</time>
      </trkpt>
      <trkpt lat="45.56833" lon="6.63073">
        <ele>1384.1999511719</ele>
        <time>2013-01-02T15:54:37.000Z</time>
      </trkpt>
      <trkpt lat="45.56833" lon="6.63102">
        <ele>1382</ele>
        <time>2013-01-02T15:54:41.000Z</time>
      </trkpt>
      <trkpt lat="45.56835" lon="6.63127">
        <ele>1379.5999755859</ele>
        <time>2013-01-02T15:54:45.000Z</time>
      </trkpt>
      <trkpt lat="45.5683" lon="6.6316">
        <ele>1377.4000244141</ele>
        <time>2013-01-02T15:54:50.000Z</time>
      </trkpt>
      <trkpt lat="45.5683" lon="6.63187">
        <ele>1375.5999755859</ele>
        <time>2013-01-02T15:54:54.000Z</time>
      </trkpt>
      <trkpt lat="45.56831" lon="6.63207">
        <ele>1373.5999755859</ele>
        <time>2013-01-02T15:54:57.000Z</time>
      </trkpt>
      <trkpt lat="45.56824" lon="6.63256">
        <ele>1370.4000244141</ele>
        <time>2013-01-02T15:55:02.000Z</time>
      </trkpt>
      <trkpt lat="45.56824" lon="6.6327">
        <ele>1369.8000488281</ele>
        <time>2013-01-02T15:55:04.000Z</time>
      </trkpt>
      <trkpt lat="45.5683" lon="6.63297">
        <ele>1367.8000488281</ele>
        <time>2013-01-02T15:55:08.000Z</time>
      </trkpt>
      <trkpt lat="45.5683" lon="6.63305">
        <ele>1367.4000244141</ele>
        <time>2013-01-02T15:55:09.000Z</time>
      </trkpt>
      <trkpt lat="45.56828" lon="6.63333">
        <ele>1365.5999755859</ele>
        <time>2013-01-02T15:55:14.000Z</time>
      </trkpt>
      <trkpt lat="45.56823" lon="6.63358">
        <ele>1363.8000488281</ele>
        <time>2013-01-02T15:55:18.000Z</time>
      </trkpt>
      <trkpt lat="45.56829" lon="6.63421">
        <ele>1359.4000244141</ele>
        <time>2013-01-02T15:55:24.000Z</time>
      </trkpt>
      <trkpt lat="45.56823" lon="6.63449">
        <ele>1358.4000244141</ele>
        <time>2013-01-02T15:55:26.000Z</time>
      </trkpt>
      <trkpt lat="45.56818" lon="6.63476">
        <ele>1358</ele>
        <time>2013-01-02T15:55:30.000Z</time>
      </trkpt>
      <trkpt lat="45.56814" lon="6.63504">
        <ele>1357.5999755859</ele>
        <time>2013-01-02T15:55:37.000Z</time>
      </trkpt>
      <trkpt lat="45.56812" lon="6.63529">
        <ele>1356.5999755859</ele>
        <time>2013-01-02T15:55:44.000Z</time>
      </trkpt>
      <trkpt lat="45.56813" lon="6.6355">
        <ele>1354.5999755859</ele>
        <time>2013-01-02T15:55:48.000Z</time>
      </trkpt>
      <trkpt lat="45.56817" lon="6.63582">
        <ele>1352.1999511719</ele>
        <time>2013-01-02T15:55:53.000Z</time>
      </trkpt>
      <trkpt lat="45.56828" lon="6.63624">
        <ele>1350</ele>
        <time>2013-01-02T15:55:59.000Z</time>
      </trkpt>
      <trkpt lat="45.56838" lon="6.63653">
        <ele>1348</ele>
        <time>2013-01-02T15:56:04.000Z</time>
      </trkpt>
      <trkpt lat="45.5684" lon="6.6366">
        <ele>1347.5999755859</ele>
        <time>2013-01-02T15:56:05.000Z</time>
      </trkpt>
      <trkpt lat="45.56843" lon="6.63677">
        <ele>1347</ele>
        <time>2013-01-02T15:56:07.000Z</time>
      </trkpt>
      <trkpt lat="45.56851" lon="6.63702">
        <ele>1345.1999511719</ele>
        <time>2013-01-02T15:56:11.000Z</time>
      </trkpt>
      <trkpt lat="45.56865" lon="6.63737">
        <ele>1343.1999511719</ele>
        <time>2013-01-02T15:56:17.000Z</time>
      </trkpt>
      <trkpt lat="45.56868" lon="6.63748">
        <ele>1342.4000244141</ele>
        <time>2013-01-02T15:56:19.000Z</time>
      </trkpt>
      <trkpt lat="45.56867" lon="6.63783">
        <ele>1341</ele>
        <time>2013-01-02T15:56:24.000Z</time>
      </trkpt>
      <trkpt lat="45.56864" lon="6.63812">
        <ele>1339.1999511719</ele>
        <time>2013-01-02T15:56:30.000Z</time>
      </trkpt>
      <trkpt lat="45.5687" lon="6.63827">
        <ele>1338</ele>
        <time>2013-01-02T15:56:34.000Z</time>
      </trkpt>
      <trkpt lat="45.56882" lon="6.63851">
        <ele>1336.1999511719</ele>
        <time>2013-01-02T15:56:39.000Z</time>
      </trkpt>
      <trkpt lat="45.56897" lon="6.63881">
        <ele>1335</ele>
        <time>2013-01-02T15:56:44.000Z</time>
      </trkpt>
      <trkpt lat="45.56913" lon="6.63913">
        <ele>1333</ele>
        <time>2013-01-02T15:56:50.000Z</time>
      </trkpt>
      <trkpt lat="45.56926" lon="6.63943">
        <ele>1331</ele>
        <time>2013-01-02T15:56:56.000Z</time>
      </trkpt>
      <trkpt lat="45.56941" lon="6.63959">
        <ele>1329</ele>
        <time>2013-01-02T15:57:01.000Z</time>
      </trkpt>
      <trkpt lat="45.56961" lon="6.63985">
        <ele>1326.5999755859</ele>
        <time>2013-01-02T15:57:08.000Z</time>
      </trkpt>
      <trkpt lat="45.5697" lon="6.64006">
        <ele>1325.8000488281</ele>
        <time>2013-01-02T15:57:13.000Z</time>
      </trkpt>
      <trkpt lat="45.5698" lon="6.64016">
        <ele>1324.8000488281</ele>
        <time>2013-01-02T15:57:17.000Z</time>
      </trkpt>
      <trkpt lat="45.56996" lon="6.64024">
        <ele>1323.1999511719</ele>
        <time>2013-01-02T15:57:22.000Z</time>
      </trkpt>
      <trkpt lat="45.57012" lon="6.64038">
        <ele>1322.5999755859</ele>
        <time>2013-01-02T15:57:27.000Z</time>
      </trkpt>
      <trkpt lat="45.57023" lon="6.64047">
        <ele>1321.4000244141</ele>
        <time>2013-01-02T15:57:31.000Z</time>
      </trkpt>
      <trkpt lat="45.57033" lon="6.64066">
        <ele>1320.4000244141</ele>
        <time>2013-01-02T15:57:35.000Z</time>
      </trkpt>
      <trkpt lat="45.57045" lon="6.64111">
        <ele>1317.4000244141</ele>
        <time>2013-01-02T15:57:43.000Z</time>
      </trkpt>
      <trkpt lat="45.57064" lon="6.64157">
        <ele>1314.5999755859</ele>
        <time>2013-01-02T15:57:51.000Z</time>
      </trkpt>
      <trkpt lat="45.5707" lon="6.64175">
        <ele>1313.5999755859</ele>
        <time>2013-01-02T15:57:54.000Z</time>
      </trkpt>
      <trkpt lat="45.57073" lon="6.64198">
        <ele>1312.1999511719</ele>
        <time>2013-01-02T15:57:58.000Z</time>
      </trkpt>
      <trkpt lat="45.57076" lon="6.6425">
        <ele>1309.1999511719</ele>
        <time>2013-01-02T15:58:07.000Z</time>
      </trkpt>
      <trkpt lat="45.57083" lon="6.64298">
        <ele>1306.8000488281</ele>
        <time>2013-01-02T15:58:15.000Z</time>
      </trkpt>
      <trkpt lat="45.57093" lon="6.64346">
        <ele>1304.4000244141</ele>
        <time>2013-01-02T15:58:23.000Z</time>
      </trkpt>
      <trkpt lat="45.57102" lon="6.64374">
        <ele>1302.8000488281</ele>
        <time>2013-01-02T15:58:29.000Z</time>
      </trkpt>
      <trkpt lat="45.57109" lon="6.64404">
        <ele>1301.1999511719</ele>
        <time>2013-01-02T15:58:36.000Z</time>
      </trkpt>
      <trkpt lat="45.57119" lon="6.64437">
        <ele>1299.8000488281</ele>
        <time>2013-01-02T15:58:45.000Z</time>
      </trkpt>
      <trkpt lat="45.57128" lon="6.64466">
        <ele>1298.5999755859</ele>
        <time>2013-01-02T15:58:53.000Z</time>
      </trkpt>
      <trkpt lat="45.57133" lon="6.64485">
        <ele>1298</ele>
        <time>2013-01-02T15:59:01.000Z</time>
      </trkpt>
      <trkpt lat="45.57133" lon="6.64486">
        <ele>1298</ele>
        <time>2013-01-02T15:59:03.000Z</time>
      </trkpt>
      <trkpt lat="45.57136" lon="6.64487">
        <ele>1298.1999511719</ele>
        <time>2013-01-02T15:59:42.000Z</time>
      </trkpt>
      <trkpt lat="45.57132" lon="6.6449">
        <ele>1298.5999755859</ele>
        <time>2013-01-02T16:01:13.000Z</time>
      </trkpt>
    </trkseg>
  </trk>
</gpx>